<?xml version='1.0' encoding='UTF-8'?><gpx version="1.1" creator="JPX - https://github.com/jenetics/jpx" xmlns="http://www.topografix.com/GPX/1/1"><trk><trkseg><trkpt lat="37.8767113" lon="14.9486878"><ele>761.0</ele><time>2026-04-12T06:16:33.304Z</time></trkpt><trkpt lat="37.8766488" lon="14.9486181"><ele>761.0</ele><time>2026-04-12T06:16:37.223Z</time></trkpt><trkpt lat="37.8766783" lon="14.9487026"><ele>761.0</ele><time>2026-04-12T06:16:47.24Z</time></trkpt><trkpt lat="37.8767143" lon="14.9487858"><ele>761.0</ele><time>2026-04-12T06:16:50.24Z</time></trkpt><trkpt lat="37.8767591" lon="14.948874"><ele>761.0</ele><time>2026-04-12T06:16:54.317Z</time></trkpt><trkpt lat="37.8767021" lon="14.9488269"><ele>761.0</ele><time>2026-04-12T06:17:03.216Z</time></trkpt><trkpt lat="37.8766567" lon="14.9487633"><ele>761.0</ele><time>2026-04-12T06:34:37.194Z</time></trkpt><trkpt lat="37.8766417" lon="14.9486817"><ele>761.0</ele><time>2026-04-12T06:34:40.193Z</time></trkpt><trkpt lat="37.87663" lon="14.9485817"><ele>761.0</ele><time>2026-04-12T06:34:43.194Z</time></trkpt><trkpt lat="37.8766133" lon="14.9484817"><ele>761.0</ele><time>2026-04-12T06:34:46.194Z</time></trkpt><trkpt lat="37.8765883" lon="14.948405"><ele>761.0</ele><time>2026-04-12T06:34:49.197Z</time></trkpt><trkpt lat="37.87656" lon="14.94831"><ele>761.0</ele><time>2026-04-12T06:34:52.195Z</time></trkpt><trkpt lat="37.876525" lon="14.94822"><ele>761.2857142857142</ele><time>2026-04-12T06:34:55.195Z</time></trkpt><trkpt lat="37.8764833" lon="14.9481533"><ele>761.5714285714286</ele><time>2026-04-12T06:34:58.193Z</time></trkpt><trkpt lat="37.87645" lon="14.9480783"><ele>761.8571428571429</ele><time>2026-04-12T06:35:01.194Z</time></trkpt><trkpt lat="37.876425" lon="14.948005"><ele>762.1428571428571</ele><time>2026-04-12T06:35:04.195Z</time></trkpt><trkpt lat="37.8763933" lon="14.9479083"><ele>762.4285714285714</ele><time>2026-04-12T06:35:07.195Z</time></trkpt><trkpt lat="37.8763717" lon="14.9478233"><ele>762.7142857142857</ele><time>2026-04-12T06:35:11.194Z</time></trkpt><trkpt lat="37.8763517" lon="14.9477467"><ele>763.0</ele><time>2026-04-12T06:35:13.193Z</time></trkpt><trkpt lat="37.8763283" lon="14.9476583"><ele>763.0</ele><time>2026-04-12T06:35:16.194Z</time></trkpt><trkpt lat="37.8763033" lon="14.9475583"><ele>763.0</ele><time>2026-04-12T06:35:19.194Z</time></trkpt><trkpt lat="37.87628" lon="14.9474533"><ele>763.0</ele><time>2026-04-12T06:35:23.193Z</time></trkpt><trkpt lat="37.8762633" lon="14.94737"><ele>763.0</ele><time>2026-04-12T06:35:25.194Z</time></trkpt><trkpt lat="37.876245" lon="14.9472833"><ele>763.0</ele><time>2026-04-12T06:35:28.193Z</time></trkpt><trkpt lat="37.8762983" lon="14.9472183"><ele>763.0</ele><time>2026-04-12T06:35:32.193Z</time></trkpt><trkpt lat="37.87637" lon="14.9471767"><ele>763.3333333333334</ele><time>2026-04-12T06:35:35.194Z</time></trkpt><trkpt lat="37.8764183" lon="14.9471117"><ele>763.6666666666667</ele><time>2026-04-12T06:35:38.195Z</time></trkpt><trkpt lat="37.8764583" lon="14.94704"><ele>764.0</ele><time>2026-04-12T06:35:41.193Z</time></trkpt><trkpt lat="37.87647" lon="14.946945"><ele>764.3333333333334</ele><time>2026-04-12T06:35:44.195Z</time></trkpt><trkpt lat="37.8764817" lon="14.9468617"><ele>764.6666666666666</ele><time>2026-04-12T06:35:47.194Z</time></trkpt><trkpt lat="37.87649" lon="14.9467683"><ele>765.0</ele><time>2026-04-12T06:35:50.195Z</time></trkpt><trkpt lat="37.876485" lon="14.94665"><ele>765.3333333333334</ele><time>2026-04-12T06:35:54.195Z</time></trkpt><trkpt lat="37.876475" lon="14.9465567"><ele>765.6666666666666</ele><time>2026-04-12T06:35:56.195Z</time></trkpt><trkpt lat="37.8764667" lon="14.946475"><ele>766.0</ele><time>2026-04-12T06:36:00.193Z</time></trkpt><trkpt lat="37.8764567" lon="14.9463733"><ele>766.3333333333333</ele><time>2026-04-12T06:36:03.193Z</time></trkpt><trkpt lat="37.8764433" lon="14.9462683"><ele>766.6666666666666</ele><time>2026-04-12T06:36:06.193Z</time></trkpt><trkpt lat="37.8764217" lon="14.946165"><ele>767.0</ele><time>2026-04-12T06:36:09.193Z</time></trkpt><trkpt lat="37.8764" lon="14.9460783"><ele>767.0</ele><time>2026-04-12T06:36:13.192Z</time></trkpt><trkpt lat="37.8763767" lon="14.9459817"><ele>767.0</ele><time>2026-04-12T06:36:16.193Z</time></trkpt><trkpt lat="37.8763317" lon="14.9458733"><ele>767.0</ele><time>2026-04-12T06:36:19.194Z</time></trkpt><trkpt lat="37.8762917" lon="14.945785"><ele>767.0</ele><time>2026-04-12T06:36:22.194Z</time></trkpt><trkpt lat="37.8762283" lon="14.9456833"><ele>767.0</ele><time>2026-04-12T06:36:25.194Z</time></trkpt><trkpt lat="37.87616" lon="14.9455917"><ele>768.4000000000001</ele><time>2026-04-12T06:36:29.193Z</time></trkpt><trkpt lat="37.8760933" lon="14.94551"><ele>769.8000000000001</ele><time>2026-04-12T06:36:33.195Z</time></trkpt><trkpt lat="37.876025" lon="14.9454283"><ele>771.2</ele><time>2026-04-12T06:36:37.194Z</time></trkpt><trkpt lat="37.87596" lon="14.9453583"><ele>772.6</ele><time>2026-04-12T06:36:40.193Z</time></trkpt><trkpt lat="37.875885" lon="14.9452917"><ele>774.0</ele><time>2026-04-12T06:36:43.192Z</time></trkpt><trkpt lat="37.87579" lon="14.9452233"><ele>774.0</ele><time>2026-04-12T06:36:47.193Z</time></trkpt><trkpt lat="37.8756917" lon="14.94517"><ele>774.0</ele><time>2026-04-12T06:36:51.192Z</time></trkpt><trkpt lat="37.8755933" lon="14.9451217"><ele>774.0</ele><time>2026-04-12T06:36:54.193Z</time></trkpt><trkpt lat="37.87549" lon="14.9450733"><ele>774.0</ele><time>2026-04-12T06:36:58.194Z</time></trkpt><trkpt lat="37.8753883" lon="14.9450267"><ele>774.0</ele><time>2026-04-12T06:37:02.194Z</time></trkpt><trkpt lat="37.8752817" lon="14.9449767"><ele>775.8000000000001</ele><time>2026-04-12T06:37:06.192Z</time></trkpt><trkpt lat="37.8751967" lon="14.9449383"><ele>777.6</ele><time>2026-04-12T06:37:10.193Z</time></trkpt><trkpt lat="37.8750733" lon="14.9448817"><ele>779.4</ele><time>2026-04-12T06:37:14.194Z</time></trkpt><trkpt lat="37.874975" lon="14.9448467"><ele>781.2</ele><time>2026-04-12T06:37:18.193Z</time></trkpt><trkpt lat="37.8750433" lon="14.944875"><ele>783.0</ele><time>2026-04-12T06:37:23.196Z</time></trkpt><trkpt lat="37.8751083" lon="14.9448967"><ele>783.4285714285714</ele><time>2026-04-12T06:37:25.196Z</time></trkpt><trkpt lat="37.8751917" lon="14.9449233"><ele>783.8571428571429</ele><time>2026-04-12T06:37:28.193Z</time></trkpt><trkpt lat="37.8752517" lon="14.94495"><ele>784.2857142857143</ele><time>2026-04-12T06:37:31.195Z</time></trkpt><trkpt lat="37.8753133" lon="14.9449767"><ele>784.7142857142858</ele><time>2026-04-12T06:37:33.193Z</time></trkpt><trkpt lat="37.8753883" lon="14.94501"><ele>785.1428571428571</ele><time>2026-04-12T06:37:36.192Z</time></trkpt><trkpt lat="37.8754483" lon="14.9450383"><ele>785.5714285714287</ele><time>2026-04-12T06:37:39.192Z</time></trkpt><trkpt lat="37.87551" lon="14.9450667"><ele>786.0</ele><time>2026-04-12T06:37:41.195Z</time></trkpt><trkpt lat="37.8754967" lon="14.9449567"><ele>786.0</ele><time>2026-04-12T06:37:45.192Z</time></trkpt><trkpt lat="37.8755133" lon="14.944845"><ele>786.0</ele><time>2026-04-12T06:37:47.193Z</time></trkpt><trkpt lat="37.8755083" lon="14.94476"><ele>786.0</ele><time>2026-04-12T06:37:49.194Z</time></trkpt><trkpt lat="37.875475" lon="14.9446667"><ele>786.0</ele><time>2026-04-12T06:37:52.193Z</time></trkpt><trkpt lat="37.8754467" lon="14.944585"><ele>786.0</ele><time>2026-04-12T06:37:55.194Z</time></trkpt><trkpt lat="37.875415" lon="14.9444967"><ele>786.0</ele><time>2026-04-12T06:37:58.194Z</time></trkpt><trkpt lat="37.87538" lon="14.9444067"><ele>786.0</ele><time>2026-04-12T06:38:01.194Z</time></trkpt><trkpt lat="37.8753467" lon="14.9443167"><ele>786.0</ele><time>2026-04-12T06:38:04.192Z</time></trkpt><trkpt lat="37.8753133" lon="14.9442317"><ele>786.0</ele><time>2026-04-12T06:38:07.194Z</time></trkpt><trkpt lat="37.8752783" lon="14.9441417"><ele>786.0</ele><time>2026-04-12T06:38:10.193Z</time></trkpt><trkpt lat="37.875245" lon="14.9440533"><ele>786.0</ele><time>2026-04-12T06:38:13.193Z</time></trkpt><trkpt lat="37.875215" lon="14.9439683"><ele>786.0</ele><time>2026-04-12T06:38:16.192Z</time></trkpt><trkpt lat="37.8751783" lon="14.9438733"><ele>785.5</ele><time>2026-04-12T06:38:19.194Z</time></trkpt><trkpt lat="37.8751483" lon="14.9437983"><ele>785.0</ele><time>2026-04-12T06:38:21.192Z</time></trkpt><trkpt lat="37.8751033" lon="14.9436967"><ele>784.5</ele><time>2026-04-12T06:38:24.193Z</time></trkpt><trkpt lat="37.875055" lon="14.943605"><ele>784.0</ele><time>2026-04-12T06:38:27.193Z</time></trkpt><trkpt lat="37.875015" lon="14.9435333"><ele>783.5</ele><time>2026-04-12T06:38:30.193Z</time></trkpt><trkpt lat="37.8749683" lon="14.94345"><ele>783.0</ele><time>2026-04-12T06:38:33.193Z</time></trkpt><trkpt lat="37.8749267" lon="14.943375"><ele>783.0</ele><time>2026-04-12T06:38:35.192Z</time></trkpt><trkpt lat="37.8748783" lon="14.9432883"><ele>783.0</ele><time>2026-04-12T06:38:38.194Z</time></trkpt><trkpt lat="37.87484" lon="14.9432167"><ele>783.0</ele><time>2026-04-12T06:38:40.194Z</time></trkpt><trkpt lat="37.8748033" lon="14.94315"><ele>783.0</ele><time>2026-04-12T06:38:42.194Z</time></trkpt><trkpt lat="37.874765" lon="14.9430833"><ele>783.0</ele><time>2026-04-12T06:38:45.193Z</time></trkpt><trkpt lat="37.87471" lon="14.9429833"><ele>783.0</ele><time>2026-04-12T06:38:49.197Z</time></trkpt><trkpt lat="37.8746533" lon="14.9428817"><ele>783.0</ele><time>2026-04-12T06:38:53.197Z</time></trkpt><trkpt lat="37.8746117" lon="14.9428083"><ele>783.0</ele><time>2026-04-12T06:38:56.195Z</time></trkpt><trkpt lat="37.8745583" lon="14.9427167"><ele>783.0</ele><time>2026-04-12T06:38:59.197Z</time></trkpt><trkpt lat="37.87451" lon="14.9426367"><ele>783.0</ele><time>2026-04-12T06:39:02.196Z</time></trkpt><trkpt lat="37.8744633" lon="14.9425567"><ele>783.0</ele><time>2026-04-12T06:39:05.196Z</time></trkpt><trkpt lat="37.8745033" lon="14.9424467"><ele>783.0</ele><time>2026-04-12T06:39:08.198Z</time></trkpt><trkpt lat="37.874535" lon="14.94234"><ele>782.6666666666666</ele><time>2026-04-12T06:39:11.195Z</time></trkpt><trkpt lat="37.8745683" lon="14.942235"><ele>782.3333333333333</ele><time>2026-04-12T06:39:14.194Z</time></trkpt><trkpt lat="37.8745933" lon="14.9421483"><ele>782.0</ele><time>2026-04-12T06:39:17.194Z</time></trkpt><trkpt lat="37.8746133" lon="14.9420383"><ele>781.6666666666666</ele><time>2026-04-12T06:39:20.195Z</time></trkpt><trkpt lat="37.8746233" lon="14.9419233"><ele>781.3333333333333</ele><time>2026-04-12T06:39:23.195Z</time></trkpt><trkpt lat="37.8745967" lon="14.94184"><ele>781.0</ele><time>2026-04-12T06:39:26.196Z</time></trkpt><trkpt lat="37.8745917" lon="14.941755"><ele>782.2857142857143</ele><time>2026-04-12T06:39:29.195Z</time></trkpt><trkpt lat="37.87459" lon="14.9416667"><ele>783.5714285714287</ele><time>2026-04-12T06:39:32.194Z</time></trkpt><trkpt lat="37.8745883" lon="14.9415683"><ele>784.8571428571429</ele><time>2026-04-12T06:39:35.194Z</time></trkpt><trkpt lat="37.8745867" lon="14.941475"><ele>786.1428571428571</ele><time>2026-04-12T06:39:38.194Z</time></trkpt><trkpt lat="37.8745917" lon="14.9413867"><ele>787.4285714285714</ele><time>2026-04-12T06:39:41.195Z</time></trkpt><trkpt lat="37.8745933" lon="14.9412883"><ele>788.7142857142857</ele><time>2026-04-12T06:39:44.194Z</time></trkpt><trkpt lat="37.8745933" lon="14.941205"><ele>790.0</ele><time>2026-04-12T06:39:47.196Z</time></trkpt><trkpt lat="37.8745933" lon="14.9411083"><ele>790.0</ele><time>2026-04-12T06:39:50.194Z</time></trkpt><trkpt lat="37.8745933" lon="14.941025"><ele>790.0</ele><time>2026-04-12T06:39:53.196Z</time></trkpt><trkpt lat="37.8745917" lon="14.9409417"><ele>790.0</ele><time>2026-04-12T06:39:56.195Z</time></trkpt><trkpt lat="37.8745867" lon="14.9408567"><ele>790.0</ele><time>2026-04-12T06:39:59.195Z</time></trkpt><trkpt lat="37.8745817" lon="14.9407767"><ele>790.0</ele><time>2026-04-12T06:40:02.195Z</time></trkpt><trkpt lat="37.874575" lon="14.940695"><ele>790.0</ele><time>2026-04-12T06:40:05.195Z</time></trkpt><trkpt lat="37.8745617" lon="14.94061"><ele>790.0</ele><time>2026-04-12T06:40:08.194Z</time></trkpt><trkpt lat="37.8745483" lon="14.9405233"><ele>790.1666666666666</ele><time>2026-04-12T06:40:11.194Z</time></trkpt><trkpt lat="37.874535" lon="14.9404433"><ele>790.3333333333333</ele><time>2026-04-12T06:40:14.194Z</time></trkpt><trkpt lat="37.87451" lon="14.9403433"><ele>790.5</ele><time>2026-04-12T06:40:18.195Z</time></trkpt><trkpt lat="37.8744767" lon="14.9402567"><ele>790.6666666666667</ele><time>2026-04-12T06:40:22.196Z</time></trkpt><trkpt lat="37.8744417" lon="14.9401667"><ele>790.8333333333334</ele><time>2026-04-12T06:40:25.197Z</time></trkpt><trkpt lat="37.8744067" lon="14.9400783"><ele>791.0</ele><time>2026-04-12T06:40:28.193Z</time></trkpt><trkpt lat="37.874365" lon="14.9399717"><ele>791.0000000000001</ele><time>2026-04-12T06:40:32.196Z</time></trkpt><trkpt lat="37.8743367" lon="14.9398983"><ele>791.0</ele><time>2026-04-12T06:40:35.196Z</time></trkpt><trkpt lat="37.8743083" lon="14.9398233"><ele>791.0</ele><time>2026-04-12T06:40:37.196Z</time></trkpt><trkpt lat="37.8742717" lon="14.93973"><ele>791.0</ele><time>2026-04-12T06:40:40.194Z</time></trkpt><trkpt lat="37.8742383" lon="14.9396433"><ele>791.0000000000001</ele><time>2026-04-12T06:40:43.194Z</time></trkpt><trkpt lat="37.8742067" lon="14.93956"><ele>791.0</ele><time>2026-04-12T06:40:46.194Z</time></trkpt><trkpt lat="37.874165" lon="14.9394517"><ele>792.3333333333334</ele><time>2026-04-12T06:40:49.196Z</time></trkpt><trkpt lat="37.8741317" lon="14.9393683"><ele>793.6666666666667</ele><time>2026-04-12T06:40:52.196Z</time></trkpt><trkpt lat="37.8740933" lon="14.939275"><ele>795.0</ele><time>2026-04-12T06:40:55.195Z</time></trkpt><trkpt lat="37.8740583" lon="14.93919"><ele>796.3333333333333</ele><time>2026-04-12T06:40:58.196Z</time></trkpt><trkpt lat="37.8740233" lon="14.9391067"><ele>797.6666666666666</ele><time>2026-04-12T06:41:01.194Z</time></trkpt><trkpt lat="37.87399" lon="14.93903"><ele>799.0</ele><time>2026-04-12T06:41:04.194Z</time></trkpt><trkpt lat="37.8739533" lon="14.9389417"><ele>798.9999999999999</ele><time>2026-04-12T06:41:07.193Z</time></trkpt><trkpt lat="37.8739083" lon="14.9388367"><ele>799.0</ele><time>2026-04-12T06:41:11.196Z</time></trkpt><trkpt lat="37.8738667" lon="14.9387383"><ele>799.0</ele><time>2026-04-12T06:41:15.193Z</time></trkpt><trkpt lat="37.873825" lon="14.9386367"><ele>799.0</ele><time>2026-04-12T06:41:18.193Z</time></trkpt><trkpt lat="37.8737933" lon="14.9385633"><ele>798.9999999999999</ele><time>2026-04-12T06:41:21.194Z</time></trkpt><trkpt lat="37.8737533" lon="14.93847"><ele>799.0</ele><time>2026-04-12T06:41:24.194Z</time></trkpt><trkpt lat="37.8737183" lon="14.938385"><ele>799.1666666666666</ele><time>2026-04-12T06:41:27.194Z</time></trkpt><trkpt lat="37.8736817" lon="14.9382983"><ele>799.3333333333333</ele><time>2026-04-12T06:41:29.194Z</time></trkpt><trkpt lat="37.873605" lon="14.93825"><ele>799.5</ele><time>2026-04-12T06:41:32.196Z</time></trkpt><trkpt lat="37.87354" lon="14.9381933"><ele>799.6666666666667</ele><time>2026-04-12T06:41:34.194Z</time></trkpt><trkpt lat="37.8734667" lon="14.9381433"><ele>799.8333333333334</ele><time>2026-04-12T06:41:36.193Z</time></trkpt><trkpt lat="37.87339" lon="14.9380883"><ele>800.0</ele><time>2026-04-12T06:41:38.196Z</time></trkpt><trkpt lat="37.87331" lon="14.9380367"><ele>800.0</ele><time>2026-04-12T06:41:40.196Z</time></trkpt><trkpt lat="37.8732283" lon="14.9379917"><ele>800.0</ele><time>2026-04-12T06:41:42.194Z</time></trkpt><trkpt lat="37.8731467" lon="14.9379433"><ele>800.0</ele><time>2026-04-12T06:41:44.196Z</time></trkpt><trkpt lat="37.8730617" lon="14.93789"><ele>800.0</ele><time>2026-04-12T06:41:46.193Z</time></trkpt><trkpt lat="37.8729683" lon="14.9378233"><ele>800.0</ele><time>2026-04-12T06:41:48.193Z</time></trkpt><trkpt lat="37.87287" lon="14.9377383"><ele>800.0</ele><time>2026-04-12T06:41:50.197Z</time></trkpt><trkpt lat="37.872775" lon="14.937635"><ele>800.0</ele><time>2026-04-12T06:41:52.197Z</time></trkpt><trkpt lat="37.8727317" lon="14.937575"><ele>800.0</ele><time>2026-04-12T06:41:53.197Z</time></trkpt><trkpt lat="37.8726633" lon="14.9374433"><ele>800.0</ele><time>2026-04-12T06:41:55.198Z</time></trkpt><trkpt lat="37.8726067" lon="14.937305"><ele>800.0</ele><time>2026-04-12T06:41:57.193Z</time></trkpt><trkpt lat="37.8725617" lon="14.9371683"><ele>798.6</ele><time>2026-04-12T06:41:59.196Z</time></trkpt><trkpt lat="37.8725267" lon="14.9370417"><ele>797.2</ele><time>2026-04-12T06:42:01.197Z</time></trkpt><trkpt lat="37.8724983" lon="14.9369183"><ele>795.8</ele><time>2026-04-12T06:42:03.192Z</time></trkpt><trkpt lat="37.872475" lon="14.9368017"><ele>794.4</ele><time>2026-04-12T06:42:05.194Z</time></trkpt><trkpt lat="37.8724583" lon="14.9367"><ele>793.0</ele><time>2026-04-12T06:42:07.197Z</time></trkpt><trkpt lat="37.87245" lon="14.936615"><ele>793.0000000000001</ele><time>2026-04-12T06:42:09.193Z</time></trkpt><trkpt lat="37.8724433" lon="14.9365333"><ele>793.0</ele><time>2026-04-12T06:42:11.193Z</time></trkpt><trkpt lat="37.87244" lon="14.936445"><ele>793.0</ele><time>2026-04-12T06:42:13.196Z</time></trkpt><trkpt lat="37.87244" lon="14.9363567"><ele>793.0</ele><time>2026-04-12T06:42:15.193Z</time></trkpt><trkpt lat="37.8724483" lon="14.9362717"><ele>793.0</ele><time>2026-04-12T06:42:17.195Z</time></trkpt><trkpt lat="37.8724567" lon="14.9361783"><ele>793.0000000000001</ele><time>2026-04-12T06:42:19.193Z</time></trkpt><trkpt lat="37.87247" lon="14.93608"><ele>793.0</ele><time>2026-04-12T06:42:21.194Z</time></trkpt><trkpt lat="37.8724833" lon="14.9359817"><ele>793.1666666666666</ele><time>2026-04-12T06:42:23.194Z</time></trkpt><trkpt lat="37.8724883" lon="14.9358817"><ele>793.3333333333333</ele><time>2026-04-12T06:42:25.197Z</time></trkpt><trkpt lat="37.872495" lon="14.9357833"><ele>793.5</ele><time>2026-04-12T06:42:27.193Z</time></trkpt><trkpt lat="37.8724917" lon="14.9356817"><ele>793.6666666666667</ele><time>2026-04-12T06:42:29.194Z</time></trkpt><trkpt lat="37.87248" lon="14.9355767"><ele>793.8333333333334</ele><time>2026-04-12T06:42:31.193Z</time></trkpt><trkpt lat="37.872455" lon="14.93546"><ele>794.0</ele><time>2026-04-12T06:42:33.193Z</time></trkpt><trkpt lat="37.8724383" lon="14.9353283"><ele>794.0</ele><time>2026-04-12T06:42:35.194Z</time></trkpt><trkpt lat="37.8724267" lon="14.9351817"><ele>794.0</ele><time>2026-04-12T06:42:37.195Z</time></trkpt><trkpt lat="37.872415" lon="14.9350333"><ele>794.0</ele><time>2026-04-12T06:42:39.193Z</time></trkpt><trkpt lat="37.8724267" lon="14.9348833"><ele>794.0</ele><time>2026-04-12T06:42:41.193Z</time></trkpt><trkpt lat="37.8724367" lon="14.9347317"><ele>793.6</ele><time>2026-04-12T06:42:43.193Z</time></trkpt><trkpt lat="37.872435" lon="14.934595"><ele>793.2</ele><time>2026-04-12T06:42:45.194Z</time></trkpt><trkpt lat="37.8724367" lon="14.93447"><ele>792.8000000000001</ele><time>2026-04-12T06:42:47.197Z</time></trkpt><trkpt lat="37.8724383" lon="14.9343567"><ele>792.4000000000001</ele><time>2026-04-12T06:42:49.196Z</time></trkpt><trkpt lat="37.8724467" lon="14.9342417"><ele>792.0</ele><time>2026-04-12T06:42:51.194Z</time></trkpt><trkpt lat="37.8724483" lon="14.9341333"><ele>792.0</ele><time>2026-04-12T06:42:53.198Z</time></trkpt><trkpt lat="37.8724483" lon="14.9340167"><ele>792.0</ele><time>2026-04-12T06:42:55.196Z</time></trkpt><trkpt lat="37.87245" lon="14.933905"><ele>792.0</ele><time>2026-04-12T06:42:57.194Z</time></trkpt><trkpt lat="37.8724517" lon="14.933805"><ele>792.0</ele><time>2026-04-12T06:42:59.195Z</time></trkpt><trkpt lat="37.8724517" lon="14.933705"><ele>792.0</ele><time>2026-04-12T06:43:01.194Z</time></trkpt><trkpt lat="37.8724517" lon="14.9336067"><ele>792.0</ele><time>2026-04-12T06:43:03.193Z</time></trkpt><trkpt lat="37.872445" lon="14.9335083"><ele>792.0</ele><time>2026-04-12T06:43:05.194Z</time></trkpt><trkpt lat="37.8724333" lon="14.933415"><ele>792.0</ele><time>2026-04-12T06:43:07.193Z</time></trkpt><trkpt lat="37.8724183" lon="14.93332"><ele>792.0</ele><time>2026-04-12T06:43:09.193Z</time></trkpt><trkpt lat="37.8723933" lon="14.9332267"><ele>792.0</ele><time>2026-04-12T06:43:11.193Z</time></trkpt><trkpt lat="37.8723717" lon="14.9331333"><ele>792.0</ele><time>2026-04-12T06:43:13.194Z</time></trkpt><trkpt lat="37.8723583" lon="14.933045"><ele>792.0</ele><time>2026-04-12T06:43:15.192Z</time></trkpt><trkpt lat="37.8723467" lon="14.9329617"><ele>792.0</ele><time>2026-04-12T06:43:17.194Z</time></trkpt><trkpt lat="37.872325" lon="14.9328717"><ele>792.4285714285714</ele><time>2026-04-12T06:43:19.194Z</time></trkpt><trkpt lat="37.8723017" lon="14.9327817"><ele>792.8571428571428</ele><time>2026-04-12T06:43:21.193Z</time></trkpt><trkpt lat="37.8722767" lon="14.932695"><ele>793.2857142857142</ele><time>2026-04-12T06:43:23.194Z</time></trkpt><trkpt lat="37.87225" lon="14.9326133"><ele>793.7142857142858</ele><time>2026-04-12T06:43:25.194Z</time></trkpt><trkpt lat="37.872225" lon="14.9325267"><ele>794.1428571428571</ele><time>2026-04-12T06:43:27.194Z</time></trkpt><trkpt lat="37.8721917" lon="14.9324383"><ele>794.5714285714286</ele><time>2026-04-12T06:43:29.194Z</time></trkpt><trkpt lat="37.8721567" lon="14.932355"><ele>795.0</ele><time>2026-04-12T06:43:31.195Z</time></trkpt><trkpt lat="37.8721183" lon="14.9322717"><ele>795.0</ele><time>2026-04-12T06:43:33.192Z</time></trkpt><trkpt lat="37.8720767" lon="14.932195"><ele>795.0</ele><time>2026-04-12T06:43:35.194Z</time></trkpt><trkpt lat="37.8720367" lon="14.9321267"><ele>795.0</ele><time>2026-04-12T06:43:37.194Z</time></trkpt><trkpt lat="37.8719883" lon="14.93204"><ele>795.0</ele><time>2026-04-12T06:43:40.195Z</time></trkpt><trkpt lat="37.8719517" lon="14.931975"><ele>795.0</ele><time>2026-04-12T06:43:42.193Z</time></trkpt><trkpt lat="37.8718933" lon="14.9318667"><ele>795.0</ele><time>2026-04-12T06:43:45.193Z</time></trkpt><trkpt lat="37.8718267" lon="14.9318317"><ele>796.1428571428571</ele><time>2026-04-12T06:43:47.194Z</time></trkpt><trkpt lat="37.8717633" lon="14.9318"><ele>797.2857142857143</ele><time>2026-04-12T06:43:49.194Z</time></trkpt><trkpt lat="37.8717033" lon="14.9317617"><ele>798.4285714285713</ele><time>2026-04-12T06:43:51.192Z</time></trkpt><trkpt lat="37.8716417" lon="14.9317183"><ele>799.5714285714286</ele><time>2026-04-12T06:43:53.193Z</time></trkpt><trkpt lat="37.8715817" lon="14.9316817"><ele>800.7142857142857</ele><time>2026-04-12T06:43:55.193Z</time></trkpt><trkpt lat="37.87152" lon="14.9316433"><ele>801.8571428571428</ele><time>2026-04-12T06:43:57.193Z</time></trkpt><trkpt lat="37.8714517" lon="14.93161"><ele>803.0</ele><time>2026-04-12T06:43:59.193Z</time></trkpt><trkpt lat="37.87139" lon="14.9315783"><ele>802.9999999999999</ele><time>2026-04-12T06:44:01.192Z</time></trkpt><trkpt lat="37.8713283" lon="14.9315467"><ele>803.0</ele><time>2026-04-12T06:44:03.193Z</time></trkpt><trkpt lat="37.8712667" lon="14.9315167"><ele>803.0</ele><time>2026-04-12T06:44:05.195Z</time></trkpt><trkpt lat="37.8711817" lon="14.9314767"><ele>803.0</ele><time>2026-04-12T06:44:08.194Z</time></trkpt><trkpt lat="37.8711217" lon="14.9314467"><ele>803.0</ele><time>2026-04-12T06:44:10.193Z</time></trkpt><trkpt lat="37.8710633" lon="14.9314133"><ele>802.9999999999999</ele><time>2026-04-12T06:44:12.193Z</time></trkpt><trkpt lat="37.87098" lon="14.9313533"><ele>803.0</ele><time>2026-04-12T06:44:15.192Z</time></trkpt><trkpt lat="37.8709033" lon="14.931295"><ele>804.1666666666667</ele><time>2026-04-12T06:44:18.193Z</time></trkpt><trkpt lat="37.8708267" lon="14.93123"><ele>805.3333333333334</ele><time>2026-04-12T06:44:21.193Z</time></trkpt><trkpt lat="37.870755" lon="14.9311567"><ele>806.5</ele><time>2026-04-12T06:44:24.193Z</time></trkpt><trkpt lat="37.8706867" lon="14.93109"><ele>807.6666666666667</ele><time>2026-04-12T06:44:27.193Z</time></trkpt><trkpt lat="37.8706117" lon="14.93101"><ele>808.8333333333334</ele><time>2026-04-12T06:44:30.193Z</time></trkpt><trkpt lat="37.8705617" lon="14.9309567"><ele>810.0</ele><time>2026-04-12T06:44:32.193Z</time></trkpt><trkpt lat="37.8705117" lon="14.9309033"><ele>808.8333333333334</ele><time>2026-04-12T06:44:34.194Z</time></trkpt><trkpt lat="37.8704633" lon="14.9308517"><ele>807.6666666666667</ele><time>2026-04-12T06:44:36.193Z</time></trkpt><trkpt lat="37.8703983" lon="14.9307933"><ele>806.5</ele><time>2026-04-12T06:44:39.192Z</time></trkpt><trkpt lat="37.870355" lon="14.9307233"><ele>805.3333333333334</ele><time>2026-04-12T06:44:40.193Z</time></trkpt><trkpt lat="37.8703" lon="14.930615"><ele>804.1666666666667</ele><time>2026-04-12T06:44:44.194Z</time></trkpt><trkpt lat="37.8702617" lon="14.930545"><ele>803.0</ele><time>2026-04-12T06:44:47.193Z</time></trkpt><trkpt lat="37.8702117" lon="14.9304417"><ele>803.0</ele><time>2026-04-12T06:44:49.193Z</time></trkpt><trkpt lat="37.8701567" lon="14.9303333"><ele>803.0</ele><time>2026-04-12T06:44:52.193Z</time></trkpt><trkpt lat="37.870085" lon="14.9302067"><ele>803.0</ele><time>2026-04-12T06:44:58.194Z</time></trkpt><trkpt lat="37.8700417" lon="14.9301267"><ele>803.0</ele><time>2026-04-12T06:45:01.194Z</time></trkpt><trkpt lat="37.8699767" lon="14.9299933"><ele>803.0</ele><time>2026-04-12T06:45:04.193Z</time></trkpt><trkpt lat="37.870005" lon="14.9298733"><ele>802.8</ele><time>2026-04-12T06:45:07.194Z</time></trkpt><trkpt lat="37.8700833" lon="14.9297683"><ele>802.5999999999999</ele><time>2026-04-12T06:45:09.194Z</time></trkpt><trkpt lat="37.8700933" lon="14.9296683"><ele>802.4000000000001</ele><time>2026-04-12T06:45:11.194Z</time></trkpt><trkpt lat="37.8701083" lon="14.92956"><ele>802.2</ele><time>2026-04-12T06:45:14.194Z</time></trkpt><trkpt lat="37.8701217" lon="14.92945"><ele>802.0</ele><time>2026-04-12T06:45:17.195Z</time></trkpt><trkpt lat="37.87013" lon="14.9293467"><ele>801.9999999999999</ele><time>2026-04-12T06:45:20.195Z</time></trkpt><trkpt lat="37.8701367" lon="14.9292517"><ele>802.0</ele><time>2026-04-12T06:45:23.194Z</time></trkpt><trkpt lat="37.8701333" lon="14.9291417"><ele>802.0</ele><time>2026-04-12T06:45:26.194Z</time></trkpt><trkpt lat="37.87013" lon="14.9290417"><ele>802.0</ele><time>2026-04-12T06:45:29.195Z</time></trkpt><trkpt lat="37.8701367" lon="14.9289367"><ele>801.9999999999999</ele><time>2026-04-12T06:45:32.196Z</time></trkpt><trkpt lat="37.8701467" lon="14.92882"><ele>802.0</ele><time>2026-04-12T06:45:35.195Z</time></trkpt><trkpt lat="37.8701317" lon="14.9287117"><ele>803.4999999999999</ele><time>2026-04-12T06:45:38.195Z</time></trkpt><trkpt lat="37.8701267" lon="14.9286033"><ele>805.0</ele><time>2026-04-12T06:45:41.194Z</time></trkpt><trkpt lat="37.87013" lon="14.92849"><ele>806.5</ele><time>2026-04-12T06:45:44.197Z</time></trkpt><trkpt lat="37.8701233" lon="14.9283833"><ele>808.0</ele><time>2026-04-12T06:45:47.195Z</time></trkpt><trkpt lat="37.8701217" lon="14.9282667"><ele>809.4999999999999</ele><time>2026-04-12T06:45:50.196Z</time></trkpt><trkpt lat="37.8701217" lon="14.9281533"><ele>811.0</ele><time>2026-04-12T06:45:53.197Z</time></trkpt><trkpt lat="37.8701083" lon="14.9280717"><ele>811.9999999999999</ele><time>2026-04-12T06:45:55.195Z</time></trkpt><trkpt lat="37.870115" lon="14.927955"><ele>813.0</ele><time>2026-04-12T06:45:58.196Z</time></trkpt><trkpt lat="37.8701067" lon="14.927835"><ele>814.0</ele><time>2026-04-12T06:46:01.195Z</time></trkpt><trkpt lat="37.8700933" lon="14.927725"><ele>815.0</ele><time>2026-04-12T06:46:04.195Z</time></trkpt><trkpt lat="37.8700867" lon="14.9276167"><ele>815.9999999999999</ele><time>2026-04-12T06:46:07.196Z</time></trkpt><trkpt lat="37.8700817" lon="14.9275067"><ele>817.0</ele><time>2026-04-12T06:46:10.194Z</time></trkpt><trkpt lat="37.8700733" lon="14.9273933"><ele>817.2857142857142</ele><time>2026-04-12T06:46:13.196Z</time></trkpt><trkpt lat="37.87006" lon="14.9272867"><ele>817.5714285714286</ele><time>2026-04-12T06:46:16.195Z</time></trkpt><trkpt lat="37.8700583" lon="14.9272067"><ele>817.8571428571429</ele><time>2026-04-12T06:46:18.193Z</time></trkpt><trkpt lat="37.87005" lon="14.9271267"><ele>818.1428571428571</ele><time>2026-04-12T06:46:20.196Z</time></trkpt><trkpt lat="37.8700417" lon="14.9270417"><ele>818.4285714285714</ele><time>2026-04-12T06:46:22.194Z</time></trkpt><trkpt lat="37.8700283" lon="14.9269183"><ele>818.7142857142857</ele><time>2026-04-12T06:46:25.197Z</time></trkpt><trkpt lat="37.87002" lon="14.9268367"><ele>819.0</ele><time>2026-04-12T06:46:27.193Z</time></trkpt><trkpt lat="37.87001" lon="14.9267533"><ele>819.3333333333334</ele><time>2026-04-12T06:46:29.194Z</time></trkpt><trkpt lat="37.8699767" lon="14.9266617"><ele>819.6666666666667</ele><time>2026-04-12T06:46:31.195Z</time></trkpt><trkpt lat="37.869925" lon="14.9265617"><ele>820.0</ele><time>2026-04-12T06:46:34.196Z</time></trkpt><trkpt lat="37.8699017" lon="14.92648"><ele>820.3333333333334</ele><time>2026-04-12T06:46:37.195Z</time></trkpt><trkpt lat="37.8698733" lon="14.9263967"><ele>820.6666666666667</ele><time>2026-04-12T06:46:39.194Z</time></trkpt><trkpt lat="37.8698483" lon="14.9263167"><ele>821.0</ele><time>2026-04-12T06:46:41.197Z</time></trkpt><trkpt lat="37.8698" lon="14.926205"><ele>821.0000000000001</ele><time>2026-04-12T06:46:44.197Z</time></trkpt><trkpt lat="37.86977" lon="14.9261267"><ele>821.0</ele><time>2026-04-12T06:46:46.196Z</time></trkpt><trkpt lat="37.8697417" lon="14.92605"><ele>821.0</ele><time>2026-04-12T06:46:48.193Z</time></trkpt><trkpt lat="37.8697083" lon="14.92596"><ele>821.0</ele><time>2026-04-12T06:46:50.197Z</time></trkpt><trkpt lat="37.86968" lon="14.9258833"><ele>821.0</ele><time>2026-04-12T06:46:52.195Z</time></trkpt><trkpt lat="37.86965" lon="14.925805"><ele>821.0000000000001</ele><time>2026-04-12T06:46:54.194Z</time></trkpt><trkpt lat="37.869615" lon="14.92571"><ele>821.0</ele><time>2026-04-12T06:46:56.196Z</time></trkpt><trkpt lat="37.8695767" lon="14.9256067"><ele>821.7142857142858</ele><time>2026-04-12T06:46:59.197Z</time></trkpt><trkpt lat="37.8695467" lon="14.9255283"><ele>822.4285714285714</ele><time>2026-04-12T06:47:01.195Z</time></trkpt><trkpt lat="37.8695183" lon="14.92545"><ele>823.1428571428571</ele><time>2026-04-12T06:47:03.195Z</time></trkpt><trkpt lat="37.8694867" lon="14.9253767"><ele>823.8571428571429</ele><time>2026-04-12T06:47:05.197Z</time></trkpt><trkpt lat="37.8694533" lon="14.9252917"><ele>824.5714285714286</ele><time>2026-04-12T06:47:07.196Z</time></trkpt><trkpt lat="37.8694267" lon="14.925215"><ele>825.2857142857143</ele><time>2026-04-12T06:47:09.194Z</time></trkpt><trkpt lat="37.869395" lon="14.9251433"><ele>826.0</ele><time>2026-04-12T06:47:11.194Z</time></trkpt><trkpt lat="37.86936" lon="14.9250617"><ele>825.9999999999999</ele><time>2026-04-12T06:47:13.196Z</time></trkpt><trkpt lat="37.8693283" lon="14.924955"><ele>826.0</ele><time>2026-04-12T06:47:16.195Z</time></trkpt><trkpt lat="37.8692983" lon="14.9248833"><ele>826.0</ele><time>2026-04-12T06:47:18.194Z</time></trkpt><trkpt lat="37.8692633" lon="14.9247917"><ele>826.0</ele><time>2026-04-12T06:47:20.193Z</time></trkpt><trkpt lat="37.8692367" lon="14.92471"><ele>825.9999999999999</ele><time>2026-04-12T06:47:22.195Z</time></trkpt><trkpt lat="37.8692033" lon="14.924625"><ele>826.0</ele><time>2026-04-12T06:47:24.194Z</time></trkpt><trkpt lat="37.8691733" lon="14.9245333"><ele>826.1666666666666</ele><time>2026-04-12T06:47:26.194Z</time></trkpt><trkpt lat="37.86914" lon="14.9244433"><ele>826.3333333333333</ele><time>2026-04-12T06:47:28.195Z</time></trkpt><trkpt lat="37.8691083" lon="14.9243533"><ele>826.5</ele><time>2026-04-12T06:47:30.193Z</time></trkpt><trkpt lat="37.8690683" lon="14.924245"><ele>826.6666666666667</ele><time>2026-04-12T06:47:33.193Z</time></trkpt><trkpt lat="37.8690433" lon="14.9241683"><ele>826.8333333333334</ele><time>2026-04-12T06:47:35.193Z</time></trkpt><trkpt lat="37.869005" lon="14.9240533"><ele>827.0</ele><time>2026-04-12T06:47:38.194Z</time></trkpt><trkpt lat="37.8689667" lon="14.9239783"><ele>827.0</ele><time>2026-04-12T06:47:40.196Z</time></trkpt><trkpt lat="37.86894" lon="14.9239"><ele>827.0</ele><time>2026-04-12T06:47:42.194Z</time></trkpt><trkpt lat="37.868915" lon="14.92382"><ele>827.0</ele><time>2026-04-12T06:47:44.194Z</time></trkpt><trkpt lat="37.8688917" lon="14.923745"><ele>827.0</ele><time>2026-04-12T06:47:46.195Z</time></trkpt><trkpt lat="37.868865" lon="14.9236633"><ele>827.0</ele><time>2026-04-12T06:47:48.194Z</time></trkpt><trkpt lat="37.86884" lon="14.9235867"><ele>827.0</ele><time>2026-04-12T06:47:50.195Z</time></trkpt><trkpt lat="37.8688033" lon="14.92347"><ele>827.0</ele><time>2026-04-12T06:47:53.194Z</time></trkpt><trkpt lat="37.8687683" lon="14.9233567"><ele>827.1428571428572</ele><time>2026-04-12T06:47:56.194Z</time></trkpt><trkpt lat="37.86873" lon="14.923285"><ele>827.2857142857142</ele><time>2026-04-12T06:47:58.194Z</time></trkpt><trkpt lat="37.868695" lon="14.9232083"><ele>827.4285714285714</ele><time>2026-04-12T06:48:00.193Z</time></trkpt><trkpt lat="37.8686617" lon="14.9231333"><ele>827.5714285714287</ele><time>2026-04-12T06:48:02.194Z</time></trkpt><trkpt lat="37.8686317" lon="14.9230483"><ele>827.7142857142858</ele><time>2026-04-12T06:48:04.196Z</time></trkpt><trkpt lat="37.8685933" lon="14.9229317"><ele>827.8571428571429</ele><time>2026-04-12T06:48:07.194Z</time></trkpt><trkpt lat="37.86856" lon="14.9228567"><ele>828.0</ele><time>2026-04-12T06:48:09.194Z</time></trkpt><trkpt lat="37.86853" lon="14.9227733"><ele>828.0000000000001</ele><time>2026-04-12T06:48:11.194Z</time></trkpt><trkpt lat="37.8684983" lon="14.9226917"><ele>828.0</ele><time>2026-04-12T06:48:13.194Z</time></trkpt><trkpt lat="37.8684633" lon="14.922605"><ele>828.0</ele><time>2026-04-12T06:48:15.193Z</time></trkpt><trkpt lat="37.86843" lon="14.922525"><ele>828.0</ele><time>2026-04-12T06:48:17.193Z</time></trkpt><trkpt lat="37.8684" lon="14.92244"><ele>828.0</ele><time>2026-04-12T06:48:19.196Z</time></trkpt><trkpt lat="37.86837" lon="14.922355"><ele>828.0000000000001</ele><time>2026-04-12T06:48:21.194Z</time></trkpt><trkpt lat="37.8683417" lon="14.9222767"><ele>828.0</ele><time>2026-04-12T06:48:23.196Z</time></trkpt><trkpt lat="37.8683167" lon="14.9222033"><ele>828.3333333333334</ele><time>2026-04-12T06:48:25.197Z</time></trkpt><trkpt lat="37.8682867" lon="14.9221183"><ele>828.6666666666667</ele><time>2026-04-12T06:48:27.194Z</time></trkpt><trkpt lat="37.868255" lon="14.9220317"><ele>829.0</ele><time>2026-04-12T06:48:29.193Z</time></trkpt><trkpt lat="37.868225" lon="14.921945"><ele>829.3333333333334</ele><time>2026-04-12T06:48:31.194Z</time></trkpt><trkpt lat="37.868195" lon="14.9218633"><ele>829.6666666666667</ele><time>2026-04-12T06:48:33.193Z</time></trkpt><trkpt lat="37.8681667" lon="14.9217833"><ele>830.0</ele><time>2026-04-12T06:48:35.193Z</time></trkpt><trkpt lat="37.868125" lon="14.92168"><ele>830.0000000000001</ele><time>2026-04-12T06:48:38.194Z</time></trkpt><trkpt lat="37.8680867" lon="14.9215733"><ele>830.0</ele><time>2026-04-12T06:48:41.194Z</time></trkpt><trkpt lat="37.8680533" lon="14.9214767"><ele>830.0</ele><time>2026-04-12T06:48:44.193Z</time></trkpt><trkpt lat="37.86802" lon="14.9213817"><ele>830.0</ele><time>2026-04-12T06:48:47.193Z</time></trkpt><trkpt lat="37.8679833" lon="14.9212783"><ele>830.0000000000001</ele><time>2026-04-12T06:48:50.194Z</time></trkpt><trkpt lat="37.867945" lon="14.9211717"><ele>830.0</ele><time>2026-04-12T06:48:53.195Z</time></trkpt><trkpt lat="37.8679067" lon="14.921065"><ele>830.0</ele><time>2026-04-12T06:48:56.194Z</time></trkpt><trkpt lat="37.8678783" lon="14.9209883"><ele>830.0</ele><time>2026-04-12T06:48:58.194Z</time></trkpt><trkpt lat="37.8678517" lon="14.9209133"><ele>830.0</ele><time>2026-04-12T06:49:00.193Z</time></trkpt><trkpt lat="37.867825" lon="14.9208383"><ele>830.0</ele><time>2026-04-12T06:49:02.194Z</time></trkpt><trkpt lat="37.8677983" lon="14.920765"><ele>830.0</ele><time>2026-04-12T06:49:04.193Z</time></trkpt><trkpt lat="37.86777" lon="14.9206883"><ele>830.0</ele><time>2026-04-12T06:49:06.194Z</time></trkpt><trkpt lat="37.8677417" lon="14.9206117"><ele>830.0</ele><time>2026-04-12T06:49:08.194Z</time></trkpt><trkpt lat="37.8677133" lon="14.9205317"><ele>830.1428571428571</ele><time>2026-04-12T06:49:10.193Z</time></trkpt><trkpt lat="37.8676833" lon="14.9204517"><ele>830.2857142857143</ele><time>2026-04-12T06:49:12.194Z</time></trkpt><trkpt lat="37.8676567" lon="14.9203767"><ele>830.4285714285713</ele><time>2026-04-12T06:49:14.194Z</time></trkpt><trkpt lat="37.86763" lon="14.9203017"><ele>830.5714285714286</ele><time>2026-04-12T06:49:16.194Z</time></trkpt><trkpt lat="37.8676" lon="14.9202233"><ele>830.7142857142857</ele><time>2026-04-12T06:49:18.194Z</time></trkpt><trkpt lat="37.8675717" lon="14.920145"><ele>830.8571428571428</ele><time>2026-04-12T06:49:20.194Z</time></trkpt><trkpt lat="37.867545" lon="14.9200683"><ele>831.0</ele><time>2026-04-12T06:49:22.193Z</time></trkpt><trkpt lat="37.867515" lon="14.9199867"><ele>831.6666666666666</ele><time>2026-04-12T06:49:24.194Z</time></trkpt><trkpt lat="37.867475" lon="14.9198767"><ele>832.3333333333333</ele><time>2026-04-12T06:49:27.193Z</time></trkpt><trkpt lat="37.8674467" lon="14.9197983"><ele>833.0</ele><time>2026-04-12T06:49:29.193Z</time></trkpt><trkpt lat="37.867415" lon="14.919715"><ele>833.6666666666666</ele><time>2026-04-12T06:49:31.193Z</time></trkpt><trkpt lat="37.8673867" lon="14.919635"><ele>834.3333333333333</ele><time>2026-04-12T06:49:33.194Z</time></trkpt><trkpt lat="37.8673567" lon="14.9195533"><ele>835.0</ele><time>2026-04-12T06:49:35.194Z</time></trkpt><trkpt lat="37.86732" lon="14.9194383"><ele>835.0000000000001</ele><time>2026-04-12T06:49:38.194Z</time></trkpt><trkpt lat="37.86729" lon="14.9193583"><ele>835.0</ele><time>2026-04-12T06:49:40.194Z</time></trkpt><trkpt lat="37.8672617" lon="14.9192767"><ele>835.0</ele><time>2026-04-12T06:49:42.193Z</time></trkpt><trkpt lat="37.8672283" lon="14.9191983"><ele>835.0</ele><time>2026-04-12T06:49:44.192Z</time></trkpt><trkpt lat="37.8671983" lon="14.9191183"><ele>835.0</ele><time>2026-04-12T06:49:46.193Z</time></trkpt><trkpt lat="37.8671717" lon="14.9190367"><ele>835.0000000000001</ele><time>2026-04-12T06:49:48.195Z</time></trkpt><trkpt lat="37.8671417" lon="14.918955"><ele>835.0</ele><time>2026-04-12T06:49:50.193Z</time></trkpt><trkpt lat="37.8671133" lon="14.9188817"><ele>835.0000000000001</ele><time>2026-04-12T06:49:52.194Z</time></trkpt><trkpt lat="37.8670733" lon="14.9187783"><ele>835.0</ele><time>2026-04-12T06:49:55.194Z</time></trkpt><trkpt lat="37.867045" lon="14.9187067"><ele>835.0</ele><time>2026-04-12T06:49:57.193Z</time></trkpt><trkpt lat="37.8670133" lon="14.9186267"><ele>835.0</ele><time>2026-04-12T06:49:59.193Z</time></trkpt><trkpt lat="37.8669833" lon="14.9185533"><ele>835.0</ele><time>2026-04-12T06:50:01.193Z</time></trkpt><trkpt lat="37.866955" lon="14.9184783"><ele>835.0000000000001</ele><time>2026-04-12T06:50:03.193Z</time></trkpt><trkpt lat="37.8669233" lon="14.9184"><ele>835.0</ele><time>2026-04-12T06:50:05.193Z</time></trkpt><trkpt lat="37.8668933" lon="14.9183233"><ele>835.1428571428572</ele><time>2026-04-12T06:50:07.194Z</time></trkpt><trkpt lat="37.8668617" lon="14.9182467"><ele>835.2857142857143</ele><time>2026-04-12T06:50:09.192Z</time></trkpt><trkpt lat="37.86683" lon="14.9181667"><ele>835.4285714285714</ele><time>2026-04-12T06:50:11.193Z</time></trkpt><trkpt lat="37.8668" lon="14.9180917"><ele>835.5714285714287</ele><time>2026-04-12T06:50:13.194Z</time></trkpt><trkpt lat="37.8667717" lon="14.9180167"><ele>835.7142857142857</ele><time>2026-04-12T06:50:15.193Z</time></trkpt><trkpt lat="37.8667417" lon="14.9179417"><ele>835.8571428571429</ele><time>2026-04-12T06:50:17.192Z</time></trkpt><trkpt lat="37.8667117" lon="14.9178683"><ele>836.0</ele><time>2026-04-12T06:50:19.194Z</time></trkpt><trkpt lat="37.8666817" lon="14.9177917"><ele>836.2857142857142</ele><time>2026-04-12T06:50:21.193Z</time></trkpt><trkpt lat="37.8666517" lon="14.917715"><ele>836.5714285714286</ele><time>2026-04-12T06:50:23.192Z</time></trkpt><trkpt lat="37.8666217" lon="14.9176383"><ele>836.8571428571429</ele><time>2026-04-12T06:50:25.193Z</time></trkpt><trkpt lat="37.8665767" lon="14.9175267"><ele>837.1428571428571</ele><time>2026-04-12T06:50:28.194Z</time></trkpt><trkpt lat="37.866545" lon="14.9174467"><ele>837.4285714285714</ele><time>2026-04-12T06:50:30.193Z</time></trkpt><trkpt lat="37.8665167" lon="14.9173733"><ele>837.7142857142857</ele><time>2026-04-12T06:50:32.194Z</time></trkpt><trkpt lat="37.8664867" lon="14.9172983"><ele>838.0</ele><time>2026-04-12T06:50:34.194Z</time></trkpt><trkpt lat="37.8664567" lon="14.9172233"><ele>838.3333333333333</ele><time>2026-04-12T06:50:36.192Z</time></trkpt><trkpt lat="37.866405" lon="14.9170933"><ele>838.6666666666666</ele><time>2026-04-12T06:50:39.194Z</time></trkpt><trkpt lat="37.8664" lon="14.9169933"><ele>839.0</ele><time>2026-04-12T06:50:41.193Z</time></trkpt><trkpt lat="37.86637" lon="14.91691"><ele>839.3333333333333</ele><time>2026-04-12T06:50:43.194Z</time></trkpt><trkpt lat="37.8663433" lon="14.9168333"><ele>839.6666666666666</ele><time>2026-04-12T06:50:45.192Z</time></trkpt><trkpt lat="37.8663167" lon="14.916755"><ele>840.0</ele><time>2026-04-12T06:50:47.193Z</time></trkpt><trkpt lat="37.8662717" lon="14.9166283"><ele>840.1428571428571</ele><time>2026-04-12T06:50:50.193Z</time></trkpt><trkpt lat="37.8662417" lon="14.9165483"><ele>840.2857142857142</ele><time>2026-04-12T06:50:52.192Z</time></trkpt><trkpt lat="37.8662167" lon="14.916475"><ele>840.4285714285714</ele><time>2026-04-12T06:50:54.192Z</time></trkpt><trkpt lat="37.8662067" lon="14.9163633"><ele>840.5714285714286</ele><time>2026-04-12T06:50:56.193Z</time></trkpt><trkpt lat="37.8661917" lon="14.91628"><ele>840.7142857142857</ele><time>2026-04-12T06:50:58.193Z</time></trkpt><trkpt lat="37.8661783" lon="14.9161983"><ele>840.8571428571429</ele><time>2026-04-12T06:51:00.193Z</time></trkpt><trkpt lat="37.8661817" lon="14.91609"><ele>841.0</ele><time>2026-04-12T06:51:03.192Z</time></trkpt><trkpt lat="37.8661733" lon="14.91601"><ele>840.9999999999999</ele><time>2026-04-12T06:51:05.195Z</time></trkpt><trkpt lat="37.8661617" lon="14.915925"><ele>841.0</ele><time>2026-04-12T06:51:07.194Z</time></trkpt><trkpt lat="37.8661483" lon="14.915805"><ele>841.0</ele><time>2026-04-12T06:51:10.194Z</time></trkpt><trkpt lat="37.8661367" lon="14.91569"><ele>841.0</ele><time>2026-04-12T06:51:13.194Z</time></trkpt><trkpt lat="37.8661283" lon="14.9156083"><ele>840.9999999999999</ele><time>2026-04-12T06:51:15.193Z</time></trkpt><trkpt lat="37.8661183" lon="14.915525"><ele>841.0</ele><time>2026-04-12T06:51:17.194Z</time></trkpt><trkpt lat="37.8661067" lon="14.9154417"><ele>841.4285714285714</ele><time>2026-04-12T06:51:19.194Z</time></trkpt><trkpt lat="37.8660967" lon="14.9153617"><ele>841.8571428571428</ele><time>2026-04-12T06:51:21.193Z</time></trkpt><trkpt lat="37.8660817" lon="14.915275"><ele>842.2857142857142</ele><time>2026-04-12T06:51:23.194Z</time></trkpt><trkpt lat="37.86607" lon="14.915195"><ele>842.7142857142858</ele><time>2026-04-12T06:51:25.195Z</time></trkpt><trkpt lat="37.8660567" lon="14.9151117"><ele>843.1428571428571</ele><time>2026-04-12T06:51:27.193Z</time></trkpt><trkpt lat="37.8660433" lon="14.915025"><ele>843.5714285714286</ele><time>2026-04-12T06:51:29.194Z</time></trkpt><trkpt lat="37.86603" lon="14.91491"><ele>844.0</ele><time>2026-04-12T06:51:32.193Z</time></trkpt><trkpt lat="37.8660217" lon="14.9148283"><ele>844.4285714285714</ele><time>2026-04-12T06:51:34.194Z</time></trkpt><trkpt lat="37.8660033" lon="14.9147367"><ele>844.8571428571429</ele><time>2026-04-12T06:51:36.193Z</time></trkpt><trkpt lat="37.8659867" lon="14.9146467"><ele>845.2857142857142</ele><time>2026-04-12T06:51:38.193Z</time></trkpt><trkpt lat="37.86597" lon="14.91456"><ele>845.7142857142858</ele><time>2026-04-12T06:51:40.194Z</time></trkpt><trkpt lat="37.8659567" lon="14.9144733"><ele>846.1428571428571</ele><time>2026-04-12T06:51:42.193Z</time></trkpt><trkpt lat="37.8659433" lon="14.9143867"><ele>846.5714285714286</ele><time>2026-04-12T06:51:44.193Z</time></trkpt><trkpt lat="37.8659283" lon="14.914295"><ele>847.0</ele><time>2026-04-12T06:51:46.194Z</time></trkpt><trkpt lat="37.86591" lon="14.9141717"><ele>847.7142857142857</ele><time>2026-04-12T06:51:49.195Z</time></trkpt><trkpt lat="37.865895" lon="14.9140917"><ele>848.4285714285714</ele><time>2026-04-12T06:51:51.194Z</time></trkpt><trkpt lat="37.8658833" lon="14.9140067"><ele>849.1428571428571</ele><time>2026-04-12T06:51:53.198Z</time></trkpt><trkpt lat="37.8658633" lon="14.913895"><ele>849.8571428571429</ele><time>2026-04-12T06:51:56.196Z</time></trkpt><trkpt lat="37.8658467" lon="14.91378"><ele>850.5714285714286</ele><time>2026-04-12T06:51:59.197Z</time></trkpt><trkpt lat="37.8658333" lon="14.9137"><ele>851.2857142857142</ele><time>2026-04-12T06:52:01.194Z</time></trkpt><trkpt lat="37.86582" lon="14.91362"><ele>852.0</ele><time>2026-04-12T06:52:03.193Z</time></trkpt><trkpt lat="37.8658067" lon="14.91354"><ele>851.9999999999999</ele><time>2026-04-12T06:52:05.196Z</time></trkpt><trkpt lat="37.8657933" lon="14.913425"><ele>852.0</ele><time>2026-04-12T06:52:08.195Z</time></trkpt><trkpt lat="37.8657883" lon="14.913345"><ele>852.0</ele><time>2026-04-12T06:52:10.195Z</time></trkpt><trkpt lat="37.86578" lon="14.9132283"><ele>852.0</ele><time>2026-04-12T06:52:13.196Z</time></trkpt><trkpt lat="37.8657767" lon="14.913145"><ele>852.0</ele><time>2026-04-12T06:52:15.194Z</time></trkpt><trkpt lat="37.8657783" lon="14.913065"><ele>851.9999999999999</ele><time>2026-04-12T06:52:17.195Z</time></trkpt><trkpt lat="37.8657833" lon="14.9129833"><ele>852.0</ele><time>2026-04-12T06:52:19.197Z</time></trkpt><trkpt lat="37.8657983" lon="14.912865"><ele>852.4285714285713</ele><time>2026-04-12T06:52:22.195Z</time></trkpt><trkpt lat="37.8658067" lon="14.9127833"><ele>852.8571428571429</ele><time>2026-04-12T06:52:24.194Z</time></trkpt><trkpt lat="37.8658183" lon="14.9126983"><ele>853.2857142857142</ele><time>2026-04-12T06:52:26.196Z</time></trkpt><trkpt lat="37.8658367" lon="14.9126167"><ele>853.7142857142857</ele><time>2026-04-12T06:52:28.194Z</time></trkpt><trkpt lat="37.8658567" lon="14.9125367"><ele>854.1428571428571</ele><time>2026-04-12T06:52:30.194Z</time></trkpt><trkpt lat="37.865885" lon="14.9124333"><ele>854.5714285714286</ele><time>2026-04-12T06:52:33.194Z</time></trkpt><trkpt lat="37.8659167" lon="14.91233"><ele>855.0</ele><time>2026-04-12T06:52:36.193Z</time></trkpt><trkpt lat="37.8659567" lon="14.91222"><ele>855.0</ele><time>2026-04-12T06:52:39.194Z</time></trkpt><trkpt lat="37.8659833" lon="14.9121417"><ele>855.0</ele><time>2026-04-12T06:52:41.195Z</time></trkpt><trkpt lat="37.86601" lon="14.9120633"><ele>855.0</ele><time>2026-04-12T06:52:43.196Z</time></trkpt><trkpt lat="37.8660317" lon="14.911985"><ele>855.0</ele><time>2026-04-12T06:52:45.194Z</time></trkpt><trkpt lat="37.8660567" lon="14.9119067"><ele>855.0</ele><time>2026-04-12T06:52:47.195Z</time></trkpt><trkpt lat="37.8660817" lon="14.911825"><ele>855.0</ele><time>2026-04-12T06:52:49.195Z</time></trkpt><trkpt lat="37.866105" lon="14.9117433"><ele>855.0</ele><time>2026-04-12T06:52:51.194Z</time></trkpt><trkpt lat="37.8661317" lon="14.91166"><ele>854.8571428571429</ele><time>2026-04-12T06:52:53.195Z</time></trkpt><trkpt lat="37.8661617" lon="14.9115767"><ele>854.7142857142857</ele><time>2026-04-12T06:52:55.195Z</time></trkpt><trkpt lat="37.8661867" lon="14.9115017"><ele>854.5714285714286</ele><time>2026-04-12T06:52:57.194Z</time></trkpt><trkpt lat="37.8662117" lon="14.9114267"><ele>854.4285714285714</ele><time>2026-04-12T06:52:59.194Z</time></trkpt><trkpt lat="37.8662383" lon="14.9113467"><ele>854.2857142857142</ele><time>2026-04-12T06:53:01.195Z</time></trkpt><trkpt lat="37.8662683" lon="14.91126"><ele>854.1428571428571</ele><time>2026-04-12T06:53:03.194Z</time></trkpt><trkpt lat="37.8662917" lon="14.9111783"><ele>854.0</ele><time>2026-04-12T06:53:05.195Z</time></trkpt><trkpt lat="37.86632" lon="14.9110967"><ele>854.0</ele><time>2026-04-12T06:53:07.195Z</time></trkpt><trkpt lat="37.8663483" lon="14.911015"><ele>854.0</ele><time>2026-04-12T06:53:09.193Z</time></trkpt><trkpt lat="37.866375" lon="14.910935"><ele>854.0</ele><time>2026-04-12T06:53:11.194Z</time></trkpt><trkpt lat="37.8664" lon="14.9108583"><ele>854.0</ele><time>2026-04-12T06:53:13.193Z</time></trkpt><trkpt lat="37.8664317" lon="14.9107733"><ele>854.0</ele><time>2026-04-12T06:53:15.194Z</time></trkpt><trkpt lat="37.866465" lon="14.9106817"><ele>854.0</ele><time>2026-04-12T06:53:17.195Z</time></trkpt><trkpt lat="37.866495" lon="14.9105867"><ele>854.0</ele><time>2026-04-12T06:53:19.194Z</time></trkpt><trkpt lat="37.866525" lon="14.9104933"><ele>854.5000000000001</ele><time>2026-04-12T06:53:21.194Z</time></trkpt><trkpt lat="37.866555" lon="14.9103983"><ele>855.0</ele><time>2026-04-12T06:53:23.194Z</time></trkpt><trkpt lat="37.8665867" lon="14.9103017"><ele>855.5</ele><time>2026-04-12T06:53:25.197Z</time></trkpt><trkpt lat="37.86662" lon="14.9102083"><ele>856.0</ele><time>2026-04-12T06:53:27.193Z</time></trkpt><trkpt lat="37.8666533" lon="14.910115"><ele>856.5000000000001</ele><time>2026-04-12T06:53:29.195Z</time></trkpt><trkpt lat="37.8666867" lon="14.9100183"><ele>857.0</ele><time>2026-04-12T06:53:31.196Z</time></trkpt><trkpt lat="37.8667183" lon="14.9099217"><ele>857.0000000000001</ele><time>2026-04-12T06:53:33.193Z</time></trkpt><trkpt lat="37.86675" lon="14.9098267"><ele>857.0</ele><time>2026-04-12T06:53:35.194Z</time></trkpt><trkpt lat="37.8667817" lon="14.90973"><ele>857.0</ele><time>2026-04-12T06:53:37.193Z</time></trkpt><trkpt lat="37.866815" lon="14.90963"><ele>857.0</ele><time>2026-04-12T06:53:39.194Z</time></trkpt><trkpt lat="37.86685" lon="14.9095367"><ele>857.0000000000001</ele><time>2026-04-12T06:53:41.194Z</time></trkpt><trkpt lat="37.8668817" lon="14.9094483"><ele>857.0</ele><time>2026-04-12T06:53:43.194Z</time></trkpt><trkpt lat="37.8669133" lon="14.9093617"><ele>856.8333333333334</ele><time>2026-04-12T06:53:45.194Z</time></trkpt><trkpt lat="37.8669417" lon="14.9092717"><ele>856.6666666666667</ele><time>2026-04-12T06:53:47.195Z</time></trkpt><trkpt lat="37.8669717" lon="14.90918"><ele>856.5</ele><time>2026-04-12T06:53:49.194Z</time></trkpt><trkpt lat="37.8670017" lon="14.9090883"><ele>856.3333333333333</ele><time>2026-04-12T06:53:51.193Z</time></trkpt><trkpt lat="37.867035" lon="14.9089933"><ele>856.1666666666666</ele><time>2026-04-12T06:53:53.195Z</time></trkpt><trkpt lat="37.8670633" lon="14.9089017"><ele>856.0</ele><time>2026-04-12T06:53:55.195Z</time></trkpt><trkpt lat="37.8670967" lon="14.908805"><ele>856.3333333333333</ele><time>2026-04-12T06:53:57.194Z</time></trkpt><trkpt lat="37.8671333" lon="14.9087083"><ele>856.6666666666666</ele><time>2026-04-12T06:53:59.194Z</time></trkpt><trkpt lat="37.86717" lon="14.9086033"><ele>857.0</ele><time>2026-04-12T06:54:01.195Z</time></trkpt><trkpt lat="37.867205" lon="14.9085083"><ele>857.3333333333333</ele><time>2026-04-12T06:54:03.194Z</time></trkpt><trkpt lat="37.8672367" lon="14.9084133"><ele>857.6666666666666</ele><time>2026-04-12T06:54:05.195Z</time></trkpt><trkpt lat="37.86727" lon="14.9083133"><ele>858.0</ele><time>2026-04-12T06:54:07.196Z</time></trkpt><trkpt lat="37.8673" lon="14.9082183"><ele>858.8333333333334</ele><time>2026-04-12T06:54:09.193Z</time></trkpt><trkpt lat="37.8673333" lon="14.9081217"><ele>859.6666666666667</ele><time>2026-04-12T06:54:11.195Z</time></trkpt><trkpt lat="37.8673667" lon="14.9080267"><ele>860.5</ele><time>2026-04-12T06:54:13.196Z</time></trkpt><trkpt lat="37.8673983" lon="14.9079317"><ele>861.3333333333334</ele><time>2026-04-12T06:54:15.194Z</time></trkpt><trkpt lat="37.8674267" lon="14.9078367"><ele>862.1666666666667</ele><time>2026-04-12T06:54:17.194Z</time></trkpt><trkpt lat="37.8674567" lon="14.907745"><ele>863.0</ele><time>2026-04-12T06:54:19.195Z</time></trkpt><trkpt lat="37.8674867" lon="14.90765"><ele>862.6666666666667</ele><time>2026-04-12T06:54:21.194Z</time></trkpt><trkpt lat="37.8675167" lon="14.9075533"><ele>862.3333333333334</ele><time>2026-04-12T06:54:23.194Z</time></trkpt><trkpt lat="37.8675433" lon="14.907455"><ele>862.0</ele><time>2026-04-12T06:54:25.195Z</time></trkpt><trkpt lat="37.8675683" lon="14.907355"><ele>861.6666666666667</ele><time>2026-04-12T06:54:27.194Z</time></trkpt><trkpt lat="37.8675883" lon="14.90726"><ele>861.3333333333334</ele><time>2026-04-12T06:54:29.195Z</time></trkpt><trkpt lat="37.8676083" lon="14.907165"><ele>861.0</ele><time>2026-04-12T06:54:31.194Z</time></trkpt><trkpt lat="37.8676367" lon="14.9070767"><ele>861.1666666666666</ele><time>2026-04-12T06:54:33.193Z</time></trkpt><trkpt lat="37.8676683" lon="14.9069817"><ele>861.3333333333333</ele><time>2026-04-12T06:54:35.194Z</time></trkpt><trkpt lat="37.8676833" lon="14.9068867"><ele>861.5</ele><time>2026-04-12T06:54:37.194Z</time></trkpt><trkpt lat="37.867695" lon="14.906785"><ele>861.6666666666666</ele><time>2026-04-12T06:54:39.193Z</time></trkpt><trkpt lat="37.8677083" lon="14.906685"><ele>861.8333333333333</ele><time>2026-04-12T06:54:41.195Z</time></trkpt><trkpt lat="37.8677217" lon="14.906575"><ele>862.0</ele><time>2026-04-12T06:54:43.193Z</time></trkpt><trkpt lat="37.8677333" lon="14.90647"><ele>861.9999999999999</ele><time>2026-04-12T06:54:45.193Z</time></trkpt><trkpt lat="37.8677417" lon="14.906365"><ele>862.0</ele><time>2026-04-12T06:54:47.194Z</time></trkpt><trkpt lat="37.867745" lon="14.9062717"><ele>862.0</ele><time>2026-04-12T06:54:49.194Z</time></trkpt><trkpt lat="37.8677467" lon="14.906185"><ele>862.0</ele><time>2026-04-12T06:54:51.193Z</time></trkpt><trkpt lat="37.8677533" lon="14.9060883"><ele>861.9999999999999</ele><time>2026-04-12T06:54:53.193Z</time></trkpt><trkpt lat="37.8677617" lon="14.9059867"><ele>862.0</ele><time>2026-04-12T06:54:55.195Z</time></trkpt><trkpt lat="37.8677683" lon="14.9058833"><ele>861.8333333333333</ele><time>2026-04-12T06:54:57.193Z</time></trkpt><trkpt lat="37.867775" lon="14.90578"><ele>861.6666666666666</ele><time>2026-04-12T06:54:59.194Z</time></trkpt><trkpt lat="37.8677767" lon="14.9056783"><ele>861.5</ele><time>2026-04-12T06:55:01.194Z</time></trkpt><trkpt lat="37.86778" lon="14.9055733"><ele>861.3333333333333</ele><time>2026-04-12T06:55:03.193Z</time></trkpt><trkpt lat="37.8677833" lon="14.905465"><ele>861.1666666666666</ele><time>2026-04-12T06:55:05.194Z</time></trkpt><trkpt lat="37.8677883" lon="14.9053633"><ele>861.0</ele><time>2026-04-12T06:55:07.193Z</time></trkpt><trkpt lat="37.8677933" lon="14.9052583"><ele>861.0</ele><time>2026-04-12T06:55:09.194Z</time></trkpt><trkpt lat="37.8678" lon="14.9051533"><ele>861.0</ele><time>2026-04-12T06:55:11.194Z</time></trkpt><trkpt lat="37.8678033" lon="14.90505"><ele>861.0</ele><time>2026-04-12T06:55:13.195Z</time></trkpt><trkpt lat="37.8678067" lon="14.9049483"><ele>861.0</ele><time>2026-04-12T06:55:15.193Z</time></trkpt><trkpt lat="37.86781" lon="14.9048467"><ele>861.0</ele><time>2026-04-12T06:55:17.194Z</time></trkpt><trkpt lat="37.8678117" lon="14.90473"><ele>861.0</ele><time>2026-04-12T06:55:19.194Z</time></trkpt><trkpt lat="37.86782" lon="14.904615"><ele>861.0</ele><time>2026-04-12T06:55:21.194Z</time></trkpt><trkpt lat="37.8678333" lon="14.9044983"><ele>860.9999999999999</ele><time>2026-04-12T06:55:23.195Z</time></trkpt><trkpt lat="37.86784" lon="14.9043767"><ele>860.9999999999999</ele><time>2026-04-12T06:55:25.195Z</time></trkpt><trkpt lat="37.8678483" lon="14.90426"><ele>861.0</ele><time>2026-04-12T06:55:27.194Z</time></trkpt><trkpt lat="37.867855" lon="14.9041417"><ele>861.0</ele><time>2026-04-12T06:55:29.196Z</time></trkpt><trkpt lat="37.867855" lon="14.9040267"><ele>860.8</ele><time>2026-04-12T06:55:31.194Z</time></trkpt><trkpt lat="37.86786" lon="14.903905"><ele>860.5999999999999</ele><time>2026-04-12T06:55:33.195Z</time></trkpt><trkpt lat="37.8678683" lon="14.90378"><ele>860.4</ele><time>2026-04-12T06:55:35.194Z</time></trkpt><trkpt lat="37.867875" lon="14.9036533"><ele>860.2</ele><time>2026-04-12T06:55:37.195Z</time></trkpt><trkpt lat="37.86788" lon="14.90353"><ele>860.0</ele><time>2026-04-12T06:55:39.194Z</time></trkpt><trkpt lat="37.867885" lon="14.9034033"><ele>860.0</ele><time>2026-04-12T06:55:41.194Z</time></trkpt><trkpt lat="37.86789" lon="14.903275"><ele>860.0</ele><time>2026-04-12T06:55:43.192Z</time></trkpt><trkpt lat="37.8678967" lon="14.9031467"><ele>860.0</ele><time>2026-04-12T06:55:45.193Z</time></trkpt><trkpt lat="37.8679083" lon="14.9030233"><ele>860.0</ele><time>2026-04-12T06:55:47.195Z</time></trkpt><trkpt lat="37.8679167" lon="14.902895"><ele>860.0</ele><time>2026-04-12T06:55:49.194Z</time></trkpt><trkpt lat="37.867925" lon="14.902765"><ele>860.0</ele><time>2026-04-12T06:55:51.194Z</time></trkpt><trkpt lat="37.8679317" lon="14.9026317"><ele>860.0</ele><time>2026-04-12T06:55:53.196Z</time></trkpt><trkpt lat="37.8679383" lon="14.9024983"><ele>860.0</ele><time>2026-04-12T06:55:55.193Z</time></trkpt><trkpt lat="37.8679467" lon="14.9023633"><ele>860.0</ele><time>2026-04-12T06:55:57.192Z</time></trkpt><trkpt lat="37.867955" lon="14.9022283"><ele>860.0</ele><time>2026-04-12T06:55:59.196Z</time></trkpt><trkpt lat="37.8679617" lon="14.902085"><ele>860.2</ele><time>2026-04-12T06:56:01.195Z</time></trkpt><trkpt lat="37.8679683" lon="14.9019383"><ele>860.4</ele><time>2026-04-12T06:56:03.193Z</time></trkpt><trkpt lat="37.8679733" lon="14.9017983"><ele>860.5999999999999</ele><time>2026-04-12T06:56:05.196Z</time></trkpt><trkpt lat="37.8679783" lon="14.901655"><ele>860.8</ele><time>2026-04-12T06:56:07.196Z</time></trkpt><trkpt lat="37.8679817" lon="14.901575"><ele>861.0</ele><time>2026-04-12T06:56:08.195Z</time></trkpt><trkpt lat="37.86799" lon="14.9014267"><ele>861.75</ele><time>2026-04-12T06:56:10.195Z</time></trkpt><trkpt lat="37.868" lon="14.901285"><ele>862.5</ele><time>2026-04-12T06:56:12.193Z</time></trkpt><trkpt lat="37.8680083" lon="14.901135"><ele>863.25</ele><time>2026-04-12T06:56:14.195Z</time></trkpt><trkpt lat="37.868015" lon="14.9009883"><ele>864.0</ele><time>2026-04-12T06:56:16.194Z</time></trkpt><trkpt lat="37.8680233" lon="14.9008433"><ele>864.5</ele><time>2026-04-12T06:56:18.192Z</time></trkpt><trkpt lat="37.8680317" lon="14.9007"><ele>865.0</ele><time>2026-04-12T06:56:20.195Z</time></trkpt><trkpt lat="37.86804" lon="14.9005567"><ele>865.5</ele><time>2026-04-12T06:56:22.195Z</time></trkpt><trkpt lat="37.8680483" lon="14.9004083"><ele>866.0</ele><time>2026-04-12T06:56:24.193Z</time></trkpt><trkpt lat="37.8680567" lon="14.9002633"><ele>866.0</ele><time>2026-04-12T06:56:26.195Z</time></trkpt><trkpt lat="37.8680617" lon="14.9001183"><ele>866.0</ele><time>2026-04-12T06:56:28.195Z</time></trkpt><trkpt lat="37.86807" lon="14.8999767"><ele>866.0</ele><time>2026-04-12T06:56:30.192Z</time></trkpt><trkpt lat="37.8680783" lon="14.8998317"><ele>866.0</ele><time>2026-04-12T06:56:32.194Z</time></trkpt><trkpt lat="37.868085" lon="14.899685"><ele>865.25</ele><time>2026-04-12T06:56:34.195Z</time></trkpt><trkpt lat="37.86809" lon="14.89954"><ele>864.5</ele><time>2026-04-12T06:56:36.193Z</time></trkpt><trkpt lat="37.8680967" lon="14.8993983"><ele>863.75</ele><time>2026-04-12T06:56:38.195Z</time></trkpt><trkpt lat="37.8681033" lon="14.8992517"><ele>863.0</ele><time>2026-04-12T06:56:40.194Z</time></trkpt><trkpt lat="37.8681133" lon="14.8991117"><ele>862.8</ele><time>2026-04-12T06:56:42.193Z</time></trkpt><trkpt lat="37.8681183" lon="14.898975"><ele>862.5999999999999</ele><time>2026-04-12T06:56:44.194Z</time></trkpt><trkpt lat="37.8681267" lon="14.89883"><ele>862.4000000000001</ele><time>2026-04-12T06:56:46.193Z</time></trkpt><trkpt lat="37.8681317" lon="14.8986917"><ele>862.2</ele><time>2026-04-12T06:56:48.192Z</time></trkpt><trkpt lat="37.8681417" lon="14.8985517"><ele>862.0</ele><time>2026-04-12T06:56:50.194Z</time></trkpt><trkpt lat="37.8681467" lon="14.8984117"><ele>862.0</ele><time>2026-04-12T06:56:52.195Z</time></trkpt><trkpt lat="37.8681533" lon="14.8982617"><ele>862.0</ele><time>2026-04-12T06:56:54.193Z</time></trkpt><trkpt lat="37.86816" lon="14.8981167"><ele>862.0</ele><time>2026-04-12T06:56:56.194Z</time></trkpt><trkpt lat="37.86817" lon="14.89797"><ele>862.0</ele><time>2026-04-12T06:56:58.195Z</time></trkpt><trkpt lat="37.86818" lon="14.8978183"><ele>862.0</ele><time>2026-04-12T06:57:00.192Z</time></trkpt><trkpt lat="37.8681867" lon="14.897675"><ele>862.0</ele><time>2026-04-12T06:57:02.196Z</time></trkpt><trkpt lat="37.86819" lon="14.8975333"><ele>862.0</ele><time>2026-04-12T06:57:04.195Z</time></trkpt><trkpt lat="37.8682" lon="14.89739"><ele>862.0</ele><time>2026-04-12T06:57:06.193Z</time></trkpt><trkpt lat="37.8682133" lon="14.8972467"><ele>862.4000000000001</ele><time>2026-04-12T06:57:08.195Z</time></trkpt><trkpt lat="37.8682233" lon="14.8970983"><ele>862.8000000000001</ele><time>2026-04-12T06:57:10.194Z</time></trkpt><trkpt lat="37.8682367" lon="14.89695"><ele>863.2</ele><time>2026-04-12T06:57:12.192Z</time></trkpt><trkpt lat="37.86824" lon="14.89687"><ele>863.6</ele><time>2026-04-12T06:57:13.194Z</time></trkpt><trkpt lat="37.8682567" lon="14.896725"><ele>864.0</ele><time>2026-04-12T06:57:15.193Z</time></trkpt><trkpt lat="37.86826" lon="14.89658"><ele>864.6</ele><time>2026-04-12T06:57:17.195Z</time></trkpt><trkpt lat="37.86826" lon="14.8964467"><ele>865.2</ele><time>2026-04-12T06:57:19.195Z</time></trkpt><trkpt lat="37.868265" lon="14.896295"><ele>865.8000000000001</ele><time>2026-04-12T06:57:21.192Z</time></trkpt><trkpt lat="37.8682767" lon="14.8961533"><ele>866.4000000000001</ele><time>2026-04-12T06:57:23.195Z</time></trkpt><trkpt lat="37.8682883" lon="14.896015"><ele>867.0</ele><time>2026-04-12T06:57:25.193Z</time></trkpt><trkpt lat="37.8682917" lon="14.8958767"><ele>867.8</ele><time>2026-04-12T06:57:27.193Z</time></trkpt><trkpt lat="37.8682933" lon="14.8957367"><ele>868.6</ele><time>2026-04-12T06:57:29.194Z</time></trkpt><trkpt lat="37.8683017" lon="14.89561"><ele>869.3999999999999</ele><time>2026-04-12T06:57:31.192Z</time></trkpt><trkpt lat="37.868315" lon="14.8954817"><ele>870.1999999999999</ele><time>2026-04-12T06:57:33.192Z</time></trkpt><trkpt lat="37.86833" lon="14.8953517"><ele>871.0</ele><time>2026-04-12T06:57:35.193Z</time></trkpt><trkpt lat="37.8683483" lon="14.8952217"><ele>871.0</ele><time>2026-04-12T06:57:37.193Z</time></trkpt><trkpt lat="37.8683817" lon="14.8951"><ele>870.9999999999999</ele><time>2026-04-12T06:57:39.193Z</time></trkpt><trkpt lat="37.8683967" lon="14.894955"><ele>870.9999999999999</ele><time>2026-04-12T06:57:41.192Z</time></trkpt><trkpt lat="37.86842" lon="14.894825"><ele>871.0</ele><time>2026-04-12T06:57:43.192Z</time></trkpt><trkpt lat="37.8684467" lon="14.894695"><ele>871.0</ele><time>2026-04-12T06:57:45.192Z</time></trkpt><trkpt lat="37.868485" lon="14.8945717"><ele>871.8</ele><time>2026-04-12T06:57:47.193Z</time></trkpt><trkpt lat="37.8685333" lon="14.8944567"><ele>872.5999999999999</ele><time>2026-04-12T06:57:49.194Z</time></trkpt><trkpt lat="37.8685867" lon="14.8943333"><ele>873.4</ele><time>2026-04-12T06:57:51.193Z</time></trkpt><trkpt lat="37.868645" lon="14.8942183"><ele>874.2</ele><time>2026-04-12T06:57:53.192Z</time></trkpt><trkpt lat="37.8687117" lon="14.8941033"><ele>875.0</ele><time>2026-04-12T06:57:55.193Z</time></trkpt><trkpt lat="37.86877" lon="14.893995"><ele>875.0</ele><time>2026-04-12T06:57:57.194Z</time></trkpt><trkpt lat="37.86883" lon="14.8938833"><ele>875.0</ele><time>2026-04-12T06:57:59.193Z</time></trkpt><trkpt lat="37.8688883" lon="14.893775"><ele>875.0</ele><time>2026-04-12T06:58:01.195Z</time></trkpt><trkpt lat="37.8689467" lon="14.893655"><ele>875.0</ele><time>2026-04-12T06:58:03.194Z</time></trkpt><trkpt lat="37.8690067" lon="14.89354"><ele>875.0</ele><time>2026-04-12T06:58:05.194Z</time></trkpt><trkpt lat="37.86907" lon="14.89342"><ele>875.2</ele><time>2026-04-12T06:58:07.195Z</time></trkpt><trkpt lat="37.86913" lon="14.8933017"><ele>875.4</ele><time>2026-04-12T06:58:09.194Z</time></trkpt><trkpt lat="37.8691933" lon="14.893185"><ele>875.5999999999999</ele><time>2026-04-12T06:58:11.193Z</time></trkpt><trkpt lat="37.869265" lon="14.8930733"><ele>875.8</ele><time>2026-04-12T06:58:13.194Z</time></trkpt><trkpt lat="37.86933" lon="14.8929617"><ele>876.0</ele><time>2026-04-12T06:58:15.193Z</time></trkpt><trkpt lat="37.8693867" lon="14.8928383"><ele>876.0</ele><time>2026-04-12T06:58:17.195Z</time></trkpt><trkpt lat="37.8694417" lon="14.892725"><ele>875.9999999999999</ele><time>2026-04-12T06:58:19.195Z</time></trkpt><trkpt lat="37.8695017" lon="14.892615"><ele>875.9999999999999</ele><time>2026-04-12T06:58:21.193Z</time></trkpt><trkpt lat="37.8695617" lon="14.8924933"><ele>876.0</ele><time>2026-04-12T06:58:23.193Z</time></trkpt><trkpt lat="37.8696233" lon="14.8923783"><ele>876.0</ele><time>2026-04-12T06:58:25.194Z</time></trkpt><trkpt lat="37.8696817" lon="14.8922533"><ele>876.5</ele><time>2026-04-12T06:58:27.193Z</time></trkpt><trkpt lat="37.869735" lon="14.89213"><ele>877.0</ele><time>2026-04-12T06:58:29.194Z</time></trkpt><trkpt lat="37.8697883" lon="14.8919983"><ele>877.5</ele><time>2026-04-12T06:58:31.194Z</time></trkpt><trkpt lat="37.8698433" lon="14.89187"><ele>878.0</ele><time>2026-04-12T06:58:33.193Z</time></trkpt><trkpt lat="37.869895" lon="14.8917383"><ele>878.25</ele><time>2026-04-12T06:58:35.194Z</time></trkpt><trkpt lat="37.86995" lon="14.891605"><ele>878.5</ele><time>2026-04-12T06:58:37.194Z</time></trkpt><trkpt lat="37.8700067" lon="14.89147"><ele>878.75</ele><time>2026-04-12T06:58:39.193Z</time></trkpt><trkpt lat="37.8700617" lon="14.8913367"><ele>879.0</ele><time>2026-04-12T06:58:41.194Z</time></trkpt><trkpt lat="37.870115" lon="14.8911983"><ele>880.3333333333334</ele><time>2026-04-12T06:58:43.194Z</time></trkpt><trkpt lat="37.8701667" lon="14.89106"><ele>881.6666666666667</ele><time>2026-04-12T06:58:45.193Z</time></trkpt><trkpt lat="37.8701917" lon="14.890985"><ele>883.0</ele><time>2026-04-12T06:58:46.194Z</time></trkpt><trkpt lat="37.87022" lon="14.8909133"><ele>884.3333333333334</ele><time>2026-04-12T06:58:47.194Z</time></trkpt><trkpt lat="37.8702617" lon="14.8907617"><ele>885.6666666666667</ele><time>2026-04-12T06:58:49.197Z</time></trkpt><trkpt lat="37.8702783" lon="14.8906833"><ele>887.0</ele><time>2026-04-12T06:58:50.194Z</time></trkpt><trkpt lat="37.8702933" lon="14.8906"><ele>886.9999999999999</ele><time>2026-04-12T06:58:51.194Z</time></trkpt><trkpt lat="37.8703067" lon="14.8905183"><ele>887.0</ele><time>2026-04-12T06:58:52.193Z</time></trkpt><trkpt lat="37.870315" lon="14.8904317"><ele>887.0</ele><time>2026-04-12T06:58:53.193Z</time></trkpt><trkpt lat="37.870325" lon="14.8903433"><ele>887.0</ele><time>2026-04-12T06:58:54.194Z</time></trkpt><trkpt lat="37.8703333" lon="14.8902583"><ele>887.0</ele><time>2026-04-12T06:58:55.193Z</time></trkpt><trkpt lat="37.8703383" lon="14.8901683"><ele>886.9999999999999</ele><time>2026-04-12T06:58:56.194Z</time></trkpt><trkpt lat="37.8703367" lon="14.8900767"><ele>887.0</ele><time>2026-04-12T06:58:57.193Z</time></trkpt><trkpt lat="37.8703317" lon="14.8899883"><ele>885.8571428571428</ele><time>2026-04-12T06:58:58.194Z</time></trkpt><trkpt lat="37.8703233" lon="14.889895"><ele>884.7142857142857</ele><time>2026-04-12T06:58:59.192Z</time></trkpt><trkpt lat="37.870315" lon="14.8898033"><ele>883.5714285714286</ele><time>2026-04-12T06:59:00.192Z</time></trkpt><trkpt lat="37.8703" lon="14.8897117"><ele>882.4285714285713</ele><time>2026-04-12T06:59:01.194Z</time></trkpt><trkpt lat="37.8702817" lon="14.8896217"><ele>881.2857142857143</ele><time>2026-04-12T06:59:02.195Z</time></trkpt><trkpt lat="37.8702617" lon="14.8895317"><ele>880.1428571428571</ele><time>2026-04-12T06:59:03.194Z</time></trkpt><trkpt lat="37.87024" lon="14.8894433"><ele>879.0</ele><time>2026-04-12T06:59:04.194Z</time></trkpt><trkpt lat="37.870215" lon="14.889355"><ele>879.0</ele><time>2026-04-12T06:59:05.193Z</time></trkpt><trkpt lat="37.8701883" lon="14.8892717"><ele>879.0</ele><time>2026-04-12T06:59:06.193Z</time></trkpt><trkpt lat="37.8701533" lon="14.8891917"><ele>879.0</ele><time>2026-04-12T06:59:07.194Z</time></trkpt><trkpt lat="37.8701117" lon="14.8891167"><ele>879.0</ele><time>2026-04-12T06:59:08.194Z</time></trkpt><trkpt lat="37.8700717" lon="14.8890433"><ele>879.0</ele><time>2026-04-12T06:59:09.193Z</time></trkpt><trkpt lat="37.87003" lon="14.8889733"><ele>879.0</ele><time>2026-04-12T06:59:10.193Z</time></trkpt><trkpt lat="37.86999" lon="14.888905"><ele>879.0</ele><time>2026-04-12T06:59:11.192Z</time></trkpt><trkpt lat="37.8699517" lon="14.8888367"><ele>877.5</ele><time>2026-04-12T06:59:12.192Z</time></trkpt><trkpt lat="37.8699117" lon="14.88877"><ele>876.0</ele><time>2026-04-12T06:59:13.192Z</time></trkpt><trkpt lat="37.8698717" lon="14.888705"><ele>874.5</ele><time>2026-04-12T06:59:14.194Z</time></trkpt><trkpt lat="37.8698333" lon="14.8886383"><ele>873.0</ele><time>2026-04-12T06:59:15.193Z</time></trkpt><trkpt lat="37.8697617" lon="14.88851"><ele>871.5</ele><time>2026-04-12T06:59:17.195Z</time></trkpt><trkpt lat="37.8696867" lon="14.8883867"><ele>870.0</ele><time>2026-04-12T06:59:19.195Z</time></trkpt><trkpt lat="37.8696183" lon="14.8882617"><ele>869.4</ele><time>2026-04-12T06:59:21.194Z</time></trkpt><trkpt lat="37.86955" lon="14.888145"><ele>868.8</ele><time>2026-04-12T06:59:23.194Z</time></trkpt><trkpt lat="37.8694883" lon="14.8880333"><ele>868.2</ele><time>2026-04-12T06:59:25.194Z</time></trkpt><trkpt lat="37.8694267" lon="14.88792"><ele>867.6</ele><time>2026-04-12T06:59:27.192Z</time></trkpt><trkpt lat="37.869365" lon="14.8878117"><ele>867.0</ele><time>2026-04-12T06:59:29.192Z</time></trkpt><trkpt lat="37.869305" lon="14.887705"><ele>867.4000000000001</ele><time>2026-04-12T06:59:31.193Z</time></trkpt><trkpt lat="37.8692433" lon="14.887595"><ele>867.8000000000001</ele><time>2026-04-12T06:59:33.194Z</time></trkpt><trkpt lat="37.8691833" lon="14.8874883"><ele>868.2</ele><time>2026-04-12T06:59:35.194Z</time></trkpt><trkpt lat="37.8691283" lon="14.8873867"><ele>868.6</ele><time>2026-04-12T06:59:37.193Z</time></trkpt><trkpt lat="37.8691517" lon="14.88728"><ele>869.0</ele><time>2026-04-12T06:59:39.192Z</time></trkpt><trkpt lat="37.8692383" lon="14.887225"><ele>869.2</ele><time>2026-04-12T06:59:41.192Z</time></trkpt><trkpt lat="37.8693333" lon="14.887215"><ele>869.4000000000001</ele><time>2026-04-12T06:59:43.193Z</time></trkpt><trkpt lat="37.8694283" lon="14.8871983"><ele>869.6</ele><time>2026-04-12T06:59:45.192Z</time></trkpt><trkpt lat="37.86952" lon="14.8871733"><ele>869.8</ele><time>2026-04-12T06:59:47.193Z</time></trkpt><trkpt lat="37.86961" lon="14.887145"><ele>870.0</ele><time>2026-04-12T06:59:49.194Z</time></trkpt><trkpt lat="37.86969" lon="14.8870983"><ele>870.0</ele><time>2026-04-12T06:59:51.193Z</time></trkpt><trkpt lat="37.8697667" lon="14.887035"><ele>870.0</ele><time>2026-04-12T06:59:53.194Z</time></trkpt><trkpt lat="37.8698383" lon="14.8869617"><ele>870.0</ele><time>2026-04-12T06:59:55.193Z</time></trkpt><trkpt lat="37.8699067" lon="14.88689"><ele>870.0</ele><time>2026-04-12T06:59:57.192Z</time></trkpt><trkpt lat="37.86998" lon="14.8868067"><ele>870.0</ele><time>2026-04-12T06:59:59.193Z</time></trkpt><trkpt lat="37.8700483" lon="14.8867233"><ele>870.4</ele><time>2026-04-12T07:00:01.194Z</time></trkpt><trkpt lat="37.8701183" lon="14.8866333"><ele>870.8</ele><time>2026-04-12T07:00:03.193Z</time></trkpt><trkpt lat="37.8701867" lon="14.88654"><ele>871.2</ele><time>2026-04-12T07:00:05.198Z</time></trkpt><trkpt lat="37.8702583" lon="14.8864517"><ele>871.6</ele><time>2026-04-12T07:00:07.194Z</time></trkpt><trkpt lat="37.8703217" lon="14.8863667"><ele>872.0</ele><time>2026-04-12T07:00:09.192Z</time></trkpt><trkpt lat="37.8703867" lon="14.8862717"><ele>872.0</ele><time>2026-04-12T07:00:11.192Z</time></trkpt><trkpt lat="37.8704517" lon="14.886185"><ele>872.0</ele><time>2026-04-12T07:00:13.192Z</time></trkpt><trkpt lat="37.870515" lon="14.8860967"><ele>872.0</ele><time>2026-04-12T07:00:15.192Z</time></trkpt><trkpt lat="37.87058" lon="14.886"><ele>872.0</ele><time>2026-04-12T07:00:17.194Z</time></trkpt><trkpt lat="37.8706417" lon="14.8858967"><ele>872.0</ele><time>2026-04-12T07:00:19.193Z</time></trkpt><trkpt lat="37.8707" lon="14.8857917"><ele>872.0</ele><time>2026-04-12T07:00:21.194Z</time></trkpt><trkpt lat="37.8707583" lon="14.8856883"><ele>872.0</ele><time>2026-04-12T07:00:23.193Z</time></trkpt><trkpt lat="37.8708167" lon="14.885595"><ele>872.0</ele><time>2026-04-12T07:00:25.192Z</time></trkpt><trkpt lat="37.870875" lon="14.8854983"><ele>872.0</ele><time>2026-04-12T07:00:27.193Z</time></trkpt><trkpt lat="37.8709317" lon="14.8853933"><ele>872.0</ele><time>2026-04-12T07:00:29.194Z</time></trkpt><trkpt lat="37.8709883" lon="14.88529"><ele>872.4000000000001</ele><time>2026-04-12T07:00:31.193Z</time></trkpt><trkpt lat="37.8710467" lon="14.8851933"><ele>872.8000000000001</ele><time>2026-04-12T07:00:33.194Z</time></trkpt><trkpt lat="37.871105" lon="14.8850967"><ele>873.2</ele><time>2026-04-12T07:00:35.193Z</time></trkpt><trkpt lat="37.8711633" lon="14.885"><ele>873.6</ele><time>2026-04-12T07:00:37.193Z</time></trkpt><trkpt lat="37.87122" lon="14.8849033"><ele>874.0</ele><time>2026-04-12T07:00:39.194Z</time></trkpt><trkpt lat="37.8712767" lon="14.8847983"><ele>874.2</ele><time>2026-04-12T07:00:41.193Z</time></trkpt><trkpt lat="37.871335" lon="14.8847"><ele>874.4000000000001</ele><time>2026-04-12T07:00:43.194Z</time></trkpt><trkpt lat="37.8713933" lon="14.8845967"><ele>874.6</ele><time>2026-04-12T07:00:45.193Z</time></trkpt><trkpt lat="37.8714517" lon="14.8844883"><ele>874.8</ele><time>2026-04-12T07:00:47.194Z</time></trkpt><trkpt lat="37.8715133" lon="14.8843867"><ele>875.0</ele><time>2026-04-12T07:00:49.195Z</time></trkpt><trkpt lat="37.8715717" lon="14.8842867"><ele>875.0</ele><time>2026-04-12T07:00:51.193Z</time></trkpt><trkpt lat="37.8716317" lon="14.8841767"><ele>875.0</ele><time>2026-04-12T07:00:53.195Z</time></trkpt><trkpt lat="37.8716883" lon="14.8840767"><ele>875.0</ele><time>2026-04-12T07:00:55.193Z</time></trkpt><trkpt lat="37.871745" lon="14.8839783"><ele>875.0</ele><time>2026-04-12T07:00:57.193Z</time></trkpt><trkpt lat="37.871795" lon="14.883875"><ele>875.0</ele><time>2026-04-12T07:00:59.194Z</time></trkpt><trkpt lat="37.8718533" lon="14.883775"><ele>875.8</ele><time>2026-04-12T07:01:01.194Z</time></trkpt><trkpt lat="37.8719017" lon="14.8836733"><ele>876.6</ele><time>2026-04-12T07:01:03.194Z</time></trkpt><trkpt lat="37.87195" lon="14.8835617"><ele>877.4000000000001</ele><time>2026-04-12T07:01:05.193Z</time></trkpt><trkpt lat="37.8719983" lon="14.88345"><ele>878.2</ele><time>2026-04-12T07:01:07.193Z</time></trkpt><trkpt lat="37.8720467" lon="14.883345"><ele>879.0</ele><time>2026-04-12T07:01:09.193Z</time></trkpt><trkpt lat="37.8720917" lon="14.8832317"><ele>879.0</ele><time>2026-04-12T07:01:11.192Z</time></trkpt><trkpt lat="37.872135" lon="14.8831217"><ele>879.0000000000001</ele><time>2026-04-12T07:01:13.193Z</time></trkpt><trkpt lat="37.8721767" lon="14.88302"><ele>879.0000000000001</ele><time>2026-04-12T07:01:15.193Z</time></trkpt><trkpt lat="37.87222" lon="14.8829117"><ele>879.0</ele><time>2026-04-12T07:01:17.194Z</time></trkpt><trkpt lat="37.8722617" lon="14.8827983"><ele>879.0</ele><time>2026-04-12T07:01:19.193Z</time></trkpt><trkpt lat="37.8722967" lon="14.882685"><ele>879.2</ele><time>2026-04-12T07:01:21.193Z</time></trkpt><trkpt lat="37.8723333" lon="14.8825717"><ele>879.4000000000001</ele><time>2026-04-12T07:01:23.193Z</time></trkpt><trkpt lat="37.8723617" lon="14.882465"><ele>879.6</ele><time>2026-04-12T07:01:25.192Z</time></trkpt><trkpt lat="37.8723967" lon="14.88236"><ele>879.8</ele><time>2026-04-12T07:01:27.193Z</time></trkpt><trkpt lat="37.87243" lon="14.8822583"><ele>880.0</ele><time>2026-04-12T07:01:29.193Z</time></trkpt><trkpt lat="37.8724667" lon="14.882155"><ele>880.0</ele><time>2026-04-12T07:01:31.192Z</time></trkpt><trkpt lat="37.8725017" lon="14.8820517"><ele>880.0</ele><time>2026-04-12T07:01:33.192Z</time></trkpt><trkpt lat="37.8725383" lon="14.8819483"><ele>880.0</ele><time>2026-04-12T07:01:35.192Z</time></trkpt><trkpt lat="37.8725733" lon="14.8818433"><ele>880.0</ele><time>2026-04-12T07:01:37.194Z</time></trkpt><trkpt lat="37.87261" lon="14.881735"><ele>880.0</ele><time>2026-04-12T07:01:39.193Z</time></trkpt><trkpt lat="37.8726467" lon="14.8816233"><ele>880.4</ele><time>2026-04-12T07:01:41.194Z</time></trkpt><trkpt lat="37.872685" lon="14.8815117"><ele>880.8</ele><time>2026-04-12T07:01:43.193Z</time></trkpt><trkpt lat="37.87272" lon="14.881405"><ele>881.2</ele><time>2026-04-12T07:01:45.193Z</time></trkpt><trkpt lat="37.8727617" lon="14.8813033"><ele>881.6</ele><time>2026-04-12T07:01:47.194Z</time></trkpt><trkpt lat="37.8727967" lon="14.8811917"><ele>882.0</ele><time>2026-04-12T07:01:49.193Z</time></trkpt><trkpt lat="37.8728267" lon="14.88108"><ele>882.0</ele><time>2026-04-12T07:01:51.193Z</time></trkpt><trkpt lat="37.8728633" lon="14.880975"><ele>882.0</ele><time>2026-04-12T07:01:53.195Z</time></trkpt><trkpt lat="37.8729" lon="14.880875"><ele>882.0</ele><time>2026-04-12T07:01:55.192Z</time></trkpt><trkpt lat="37.872935" lon="14.8807683"><ele>882.0</ele><time>2026-04-12T07:01:57.193Z</time></trkpt><trkpt lat="37.8729667" lon="14.8806683"><ele>882.0</ele><time>2026-04-12T07:01:59.193Z</time></trkpt><trkpt lat="37.8730017" lon="14.88058"><ele>882.0</ele><time>2026-04-12T07:02:01.194Z</time></trkpt><trkpt lat="37.8730367" lon="14.880485"><ele>882.5</ele><time>2026-04-12T07:02:03.192Z</time></trkpt><trkpt lat="37.873075" lon="14.880385"><ele>883.0</ele><time>2026-04-12T07:02:05.193Z</time></trkpt><trkpt lat="37.8731117" lon="14.8802867"><ele>883.5</ele><time>2026-04-12T07:02:07.193Z</time></trkpt><trkpt lat="37.8731483" lon="14.8801833"><ele>884.0</ele><time>2026-04-12T07:02:09.192Z</time></trkpt><trkpt lat="37.87318" lon="14.88009"><ele>884.5</ele><time>2026-04-12T07:02:11.193Z</time></trkpt><trkpt lat="37.87321" lon="14.8799933"><ele>885.0</ele><time>2026-04-12T07:02:13.193Z</time></trkpt><trkpt lat="37.8732383" lon="14.8799033"><ele>885.6666666666666</ele><time>2026-04-12T07:02:15.193Z</time></trkpt><trkpt lat="37.8732717" lon="14.8798267"><ele>886.3333333333333</ele><time>2026-04-12T07:02:17.194Z</time></trkpt><trkpt lat="37.8733033" lon="14.8797383"><ele>887.0</ele><time>2026-04-12T07:02:19.193Z</time></trkpt><trkpt lat="37.87333" lon="14.87964"><ele>887.6666666666666</ele><time>2026-04-12T07:02:21.193Z</time></trkpt><trkpt lat="37.87336" lon="14.879545"><ele>888.3333333333333</ele><time>2026-04-12T07:02:23.193Z</time></trkpt><trkpt lat="37.8733933" lon="14.8794517"><ele>889.0</ele><time>2026-04-12T07:02:25.194Z</time></trkpt><trkpt lat="37.873425" lon="14.8793533"><ele>889.8571428571429</ele><time>2026-04-12T07:02:27.193Z</time></trkpt><trkpt lat="37.8734517" lon="14.8792617"><ele>890.7142857142858</ele><time>2026-04-12T07:02:29.192Z</time></trkpt><trkpt lat="37.8734783" lon="14.8791683"><ele>891.5714285714286</ele><time>2026-04-12T07:02:31.194Z</time></trkpt><trkpt lat="37.8735067" lon="14.879085"><ele>892.4285714285714</ele><time>2026-04-12T07:02:33.193Z</time></trkpt><trkpt lat="37.8735367" lon="14.879005"><ele>893.2857142857143</ele><time>2026-04-12T07:02:35.194Z</time></trkpt><trkpt lat="37.8735667" lon="14.8789283"><ele>894.1428571428571</ele><time>2026-04-12T07:02:37.194Z</time></trkpt><trkpt lat="37.8735967" lon="14.878845"><ele>895.0</ele><time>2026-04-12T07:02:39.193Z</time></trkpt><trkpt lat="37.8736283" lon="14.8787583"><ele>894.9999999999999</ele><time>2026-04-12T07:02:41.195Z</time></trkpt><trkpt lat="37.8736583" lon="14.8786817"><ele>895.0</ele><time>2026-04-12T07:02:43.193Z</time></trkpt><trkpt lat="37.8736883" lon="14.878605"><ele>895.0</ele><time>2026-04-12T07:02:45.194Z</time></trkpt><trkpt lat="37.87372" lon="14.87853"><ele>895.0</ele><time>2026-04-12T07:02:47.192Z</time></trkpt><trkpt lat="37.87376" lon="14.8784367"><ele>894.9999999999999</ele><time>2026-04-12T07:02:50.192Z</time></trkpt><trkpt lat="37.8738133" lon="14.8783567"><ele>895.0</ele><time>2026-04-12T07:02:53.192Z</time></trkpt><trkpt lat="37.8738733" lon="14.8782767"><ele>895.1666666666666</ele><time>2026-04-12T07:02:56.192Z</time></trkpt><trkpt lat="37.8739417" lon="14.8782117"><ele>895.3333333333333</ele><time>2026-04-12T07:02:59.193Z</time></trkpt><trkpt lat="37.8740117" lon="14.878135"><ele>895.5</ele><time>2026-04-12T07:03:02.192Z</time></trkpt><trkpt lat="37.8740617" lon="14.878085"><ele>895.6666666666667</ele><time>2026-04-12T07:03:04.193Z</time></trkpt><trkpt lat="37.8741367" lon="14.8780233"><ele>895.8333333333334</ele><time>2026-04-12T07:03:07.195Z</time></trkpt><trkpt lat="37.8742033" lon="14.8779817"><ele>896.0</ele><time>2026-04-12T07:03:10.193Z</time></trkpt><trkpt lat="37.8742683" lon="14.87794"><ele>896.3333333333334</ele><time>2026-04-12T07:03:13.193Z</time></trkpt><trkpt lat="37.8743417" lon="14.8778733"><ele>896.6666666666667</ele><time>2026-04-12T07:03:16.193Z</time></trkpt><trkpt lat="37.8744133" lon="14.8778133"><ele>897.0</ele><time>2026-04-12T07:03:19.193Z</time></trkpt><trkpt lat="37.8744883" lon="14.8777633"><ele>897.3333333333333</ele><time>2026-04-12T07:03:22.192Z</time></trkpt><trkpt lat="37.8745683" lon="14.8777183"><ele>897.6666666666666</ele><time>2026-04-12T07:03:25.193Z</time></trkpt><trkpt lat="37.87463" lon="14.8776933"><ele>898.0</ele><time>2026-04-12T07:03:27.193Z</time></trkpt><trkpt lat="37.8747183" lon="14.877665"><ele>897.9999999999999</ele><time>2026-04-12T07:03:30.192Z</time></trkpt><trkpt lat="37.8748067" lon="14.8776383"><ele>898.0</ele><time>2026-04-12T07:03:33.193Z</time></trkpt><trkpt lat="37.8748933" lon="14.8776"><ele>898.0</ele><time>2026-04-12T07:03:36.193Z</time></trkpt><trkpt lat="37.87495" lon="14.877565"><ele>898.0</ele><time>2026-04-12T07:03:38.193Z</time></trkpt><trkpt lat="37.8750033" lon="14.8775183"><ele>897.9999999999999</ele><time>2026-04-12T07:03:40.192Z</time></trkpt><trkpt lat="37.8750517" lon="14.87746"><ele>898.0</ele><time>2026-04-12T07:03:42.194Z</time></trkpt><trkpt lat="37.8751083" lon="14.877375"><ele>899.1666666666666</ele><time>2026-04-12T07:03:45.192Z</time></trkpt><trkpt lat="37.8751583" lon="14.8772733"><ele>900.3333333333333</ele><time>2026-04-12T07:03:48.193Z</time></trkpt><trkpt lat="37.8752" lon="14.8771683"><ele>901.5</ele><time>2026-04-12T07:03:51.193Z</time></trkpt><trkpt lat="37.875245" lon="14.8770683"><ele>902.6666666666667</ele><time>2026-04-12T07:03:54.192Z</time></trkpt><trkpt lat="37.8752817" lon="14.8770033"><ele>903.8333333333334</ele><time>2026-04-12T07:03:56.194Z</time></trkpt><trkpt lat="37.8753333" lon="14.8769133"><ele>905.0</ele><time>2026-04-12T07:03:59.194Z</time></trkpt><trkpt lat="37.8754083" lon="14.87686"><ele>905.0000000000001</ele><time>2026-04-12T07:04:02.193Z</time></trkpt><trkpt lat="37.8754833" lon="14.87683"><ele>905.0</ele><time>2026-04-12T07:04:05.194Z</time></trkpt><trkpt lat="37.875555" lon="14.8768083"><ele>905.0</ele><time>2026-04-12T07:04:08.193Z</time></trkpt><trkpt lat="37.8756233" lon="14.8767867"><ele>905.0</ele><time>2026-04-12T07:04:11.194Z</time></trkpt><trkpt lat="37.8756967" lon="14.8767717"><ele>905.0000000000001</ele><time>2026-04-12T07:04:14.193Z</time></trkpt><trkpt lat="37.875775" lon="14.8767883"><ele>905.0</ele><time>2026-04-12T07:04:17.193Z</time></trkpt><trkpt lat="37.875845" lon="14.876835"><ele>905.0000000000001</ele><time>2026-04-12T07:04:20.192Z</time></trkpt><trkpt lat="37.8759033" lon="14.8768817"><ele>905.0</ele><time>2026-04-12T07:04:23.193Z</time></trkpt><trkpt lat="37.875965" lon="14.8769267"><ele>905.0</ele><time>2026-04-12T07:04:26.194Z</time></trkpt><trkpt lat="37.8760367" lon="14.87697"><ele>905.0</ele><time>2026-04-12T07:04:29.193Z</time></trkpt><trkpt lat="37.876115" lon="14.87702"><ele>905.0000000000001</ele><time>2026-04-12T07:04:32.193Z</time></trkpt><trkpt lat="37.8761767" lon="14.8770417"><ele>905.0</ele><time>2026-04-12T07:04:34.194Z</time></trkpt><trkpt lat="37.87626" lon="14.8770633"><ele>905.6666666666667</ele><time>2026-04-12T07:04:37.192Z</time></trkpt><trkpt lat="37.8763517" lon="14.8770517"><ele>906.3333333333334</ele><time>2026-04-12T07:04:40.193Z</time></trkpt><trkpt lat="37.8764417" lon="14.87703"><ele>907.0</ele><time>2026-04-12T07:04:43.193Z</time></trkpt><trkpt lat="37.876535" lon="14.8770067"><ele>907.6666666666667</ele><time>2026-04-12T07:04:46.191Z</time></trkpt><trkpt lat="37.876625" lon="14.8769667"><ele>908.3333333333334</ele><time>2026-04-12T07:04:49.193Z</time></trkpt><trkpt lat="37.8766867" lon="14.876935"><ele>909.0</ele><time>2026-04-12T07:04:51.193Z</time></trkpt><trkpt lat="37.8767683" lon="14.8768733"><ele>910.0</ele><time>2026-04-12T07:04:54.193Z</time></trkpt><trkpt lat="37.8768267" lon="14.87683"><ele>911.0</ele><time>2026-04-12T07:04:56.193Z</time></trkpt><trkpt lat="37.87689" lon="14.8767917"><ele>912.0</ele><time>2026-04-12T07:04:58.193Z</time></trkpt><trkpt lat="37.87695" lon="14.8767533"><ele>913.0</ele><time>2026-04-12T07:05:00.193Z</time></trkpt><trkpt lat="37.877015" lon="14.8767117"><ele>914.0</ele><time>2026-04-12T07:05:02.195Z</time></trkpt><trkpt lat="37.87708" lon="14.87667"><ele>915.0</ele><time>2026-04-12T07:05:04.194Z</time></trkpt><trkpt lat="37.877145" lon="14.8766333"><ele>916.0</ele><time>2026-04-12T07:05:06.193Z</time></trkpt><trkpt lat="37.8772083" lon="14.8765917"><ele>915.9999999999999</ele><time>2026-04-12T07:05:08.195Z</time></trkpt><trkpt lat="37.8772767" lon="14.876555"><ele>916.0</ele><time>2026-04-12T07:05:10.194Z</time></trkpt><trkpt lat="37.87734" lon="14.8765117"><ele>916.0</ele><time>2026-04-12T07:05:12.195Z</time></trkpt><trkpt lat="37.8774117" lon="14.8764767"><ele>916.0</ele><time>2026-04-12T07:05:14.193Z</time></trkpt><trkpt lat="37.8774783" lon="14.87643"><ele>915.9999999999999</ele><time>2026-04-12T07:05:16.194Z</time></trkpt><trkpt lat="37.8775483" lon="14.87638"><ele>916.0</ele><time>2026-04-12T07:05:18.195Z</time></trkpt><trkpt lat="37.8776117" lon="14.87633"><ele>914.8333333333333</ele><time>2026-04-12T07:05:20.194Z</time></trkpt><trkpt lat="37.8776683" lon="14.876265"><ele>913.6666666666666</ele><time>2026-04-12T07:05:22.193Z</time></trkpt><trkpt lat="37.8777233" lon="14.876195"><ele>912.5</ele><time>2026-04-12T07:05:24.194Z</time></trkpt><trkpt lat="37.8777883" lon="14.8761367"><ele>911.3333333333333</ele><time>2026-04-12T07:05:26.193Z</time></trkpt><trkpt lat="37.8778533" lon="14.8760817"><ele>910.1666666666666</ele><time>2026-04-12T07:05:28.195Z</time></trkpt><trkpt lat="37.8779267" lon="14.8760283"><ele>909.0</ele><time>2026-04-12T07:05:30.194Z</time></trkpt><trkpt lat="37.8779983" lon="14.8759917"><ele>909.0</ele><time>2026-04-12T07:05:32.194Z</time></trkpt><trkpt lat="37.8780767" lon="14.87596"><ele>909.0</ele><time>2026-04-12T07:05:34.194Z</time></trkpt><trkpt lat="37.8781533" lon="14.8759333"><ele>909.0</ele><time>2026-04-12T07:05:36.194Z</time></trkpt><trkpt lat="37.8782333" lon="14.8759217"><ele>909.0</ele><time>2026-04-12T07:05:38.193Z</time></trkpt><trkpt lat="37.8783133" lon="14.8759267"><ele>909.0</ele><time>2026-04-12T07:05:40.193Z</time></trkpt><trkpt lat="37.8783917" lon="14.87594"><ele>909.0</ele><time>2026-04-12T07:05:42.193Z</time></trkpt><trkpt lat="37.8784667" lon="14.8759433"><ele>908.7142857142857</ele><time>2026-04-12T07:05:44.194Z</time></trkpt><trkpt lat="37.8785433" lon="14.8759467"><ele>908.4285714285716</ele><time>2026-04-12T07:05:46.193Z</time></trkpt><trkpt lat="37.8786217" lon="14.87596"><ele>908.1428571428572</ele><time>2026-04-12T07:05:48.193Z</time></trkpt><trkpt lat="37.8786967" lon="14.8759733"><ele>907.8571428571429</ele><time>2026-04-12T07:05:50.194Z</time></trkpt><trkpt lat="37.8787717" lon="14.8759867"><ele>907.5714285714287</ele><time>2026-04-12T07:05:52.195Z</time></trkpt><trkpt lat="37.87884" lon="14.875995"><ele>907.2857142857144</ele><time>2026-04-12T07:05:54.194Z</time></trkpt><trkpt lat="37.8789067" lon="14.8759917"><ele>907.0000000000001</ele><time>2026-04-12T07:05:56.193Z</time></trkpt><trkpt lat="37.8789967" lon="14.8759783"><ele>907.0000000000001</ele><time>2026-04-12T07:05:59.194Z</time></trkpt><trkpt lat="37.8790617" lon="14.87596"><ele>907.0</ele><time>2026-04-12T07:06:01.194Z</time></trkpt><trkpt lat="37.8791283" lon="14.875935"><ele>907.0000000000001</ele><time>2026-04-12T07:06:03.194Z</time></trkpt><trkpt lat="37.8791983" lon="14.8759117"><ele>907.0000000000001</ele><time>2026-04-12T07:06:05.194Z</time></trkpt><trkpt lat="37.8792633" lon="14.87588"><ele>907.0</ele><time>2026-04-12T07:06:07.193Z</time></trkpt><trkpt lat="37.8793333" lon="14.875865"><ele>907.0000000000001</ele><time>2026-04-12T07:06:09.194Z</time></trkpt><trkpt lat="37.8794067" lon="14.87587"><ele>907.0000000000001</ele><time>2026-04-12T07:06:11.193Z</time></trkpt><trkpt lat="37.8794867" lon="14.875895"><ele>907.2857142857144</ele><time>2026-04-12T07:06:13.192Z</time></trkpt><trkpt lat="37.87957" lon="14.8759167"><ele>907.5714285714287</ele><time>2026-04-12T07:06:15.193Z</time></trkpt><trkpt lat="37.879645" lon="14.875935"><ele>907.8571428571429</ele><time>2026-04-12T07:06:17.193Z</time></trkpt><trkpt lat="37.8797083" lon="14.87596"><ele>908.1428571428572</ele><time>2026-04-12T07:06:19.193Z</time></trkpt><trkpt lat="37.8797717" lon="14.8759867"><ele>908.4285714285716</ele><time>2026-04-12T07:06:21.194Z</time></trkpt><trkpt lat="37.8798417" lon="14.876025"><ele>908.7142857142857</ele><time>2026-04-12T07:06:23.192Z</time></trkpt><trkpt lat="37.87991" lon="14.8760683"><ele>909.0</ele><time>2026-04-12T07:06:25.194Z</time></trkpt><trkpt lat="37.8799783" lon="14.8761083"><ele>909.0</ele><time>2026-04-12T07:06:27.192Z</time></trkpt><trkpt lat="37.88004" lon="14.8761517"><ele>909.0</ele><time>2026-04-12T07:06:29.194Z</time></trkpt><trkpt lat="37.8801017" lon="14.8761967"><ele>909.0</ele><time>2026-04-12T07:06:31.195Z</time></trkpt><trkpt lat="37.8801667" lon="14.876235"><ele>909.0</ele><time>2026-04-12T07:06:33.194Z</time></trkpt><trkpt lat="37.8802317" lon="14.8762683"><ele>909.0</ele><time>2026-04-12T07:06:35.193Z</time></trkpt><trkpt lat="37.8803033" lon="14.8762917"><ele>909.0</ele><time>2026-04-12T07:06:37.194Z</time></trkpt><trkpt lat="37.8803767" lon="14.8763133"><ele>909.0</ele><time>2026-04-12T07:06:39.193Z</time></trkpt><trkpt lat="37.8804567" lon="14.8763333"><ele>909.1428571428571</ele><time>2026-04-12T07:06:41.193Z</time></trkpt><trkpt lat="37.8805383" lon="14.8763533"><ele>909.2857142857143</ele><time>2026-04-12T07:06:43.193Z</time></trkpt><trkpt lat="37.8806167" lon="14.8763767"><ele>909.4285714285714</ele><time>2026-04-12T07:06:45.193Z</time></trkpt><trkpt lat="37.88069" lon="14.8763933"><ele>909.5714285714286</ele><time>2026-04-12T07:06:47.193Z</time></trkpt><trkpt lat="37.8807517" lon="14.8764133"><ele>909.7142857142858</ele><time>2026-04-12T07:06:49.192Z</time></trkpt><trkpt lat="37.88082" lon="14.87643"><ele>909.8571428571429</ele><time>2026-04-12T07:06:51.193Z</time></trkpt><trkpt lat="37.8808933" lon="14.876445"><ele>910.0</ele><time>2026-04-12T07:06:53.193Z</time></trkpt><trkpt lat="37.8809683" lon="14.8764567"><ele>910.3333333333333</ele><time>2026-04-12T07:06:55.193Z</time></trkpt><trkpt lat="37.8810533" lon="14.8764667"><ele>910.6666666666666</ele><time>2026-04-12T07:06:57.192Z</time></trkpt><trkpt lat="37.8811317" lon="14.8764833"><ele>911.0</ele><time>2026-04-12T07:06:59.192Z</time></trkpt><trkpt lat="37.8811983" lon="14.8765183"><ele>911.3333333333333</ele><time>2026-04-12T07:07:01.193Z</time></trkpt><trkpt lat="37.8812683" lon="14.87655"><ele>911.6666666666666</ele><time>2026-04-12T07:07:03.192Z</time></trkpt><trkpt lat="37.8813383" lon="14.8765717"><ele>912.0</ele><time>2026-04-12T07:07:05.193Z</time></trkpt><trkpt lat="37.8814117" lon="14.876585"><ele>912.0</ele><time>2026-04-12T07:07:07.194Z</time></trkpt><trkpt lat="37.8814833" lon="14.8765733"><ele>912.0</ele><time>2026-04-12T07:07:09.192Z</time></trkpt><trkpt lat="37.8815533" lon="14.87654"><ele>912.0</ele><time>2026-04-12T07:07:11.193Z</time></trkpt><trkpt lat="37.8816233" lon="14.8765033"><ele>912.0</ele><time>2026-04-12T07:07:13.192Z</time></trkpt><trkpt lat="37.8816933" lon="14.876465"><ele>912.0</ele><time>2026-04-12T07:07:15.193Z</time></trkpt><trkpt lat="37.881765" lon="14.87643"><ele>912.0</ele><time>2026-04-12T07:07:17.193Z</time></trkpt><trkpt lat="37.8818367" lon="14.876405"><ele>912.3333333333334</ele><time>2026-04-12T07:07:19.192Z</time></trkpt><trkpt lat="37.8819167" lon="14.87639"><ele>912.6666666666667</ele><time>2026-04-12T07:07:21.192Z</time></trkpt><trkpt lat="37.8819983" lon="14.8763833"><ele>913.0</ele><time>2026-04-12T07:07:23.193Z</time></trkpt><trkpt lat="37.8820767" lon="14.8763933"><ele>913.3333333333334</ele><time>2026-04-12T07:07:25.192Z</time></trkpt><trkpt lat="37.8821583" lon="14.8764067"><ele>913.6666666666667</ele><time>2026-04-12T07:07:27.193Z</time></trkpt><trkpt lat="37.8822433" lon="14.876405"><ele>914.0</ele><time>2026-04-12T07:07:29.192Z</time></trkpt><trkpt lat="37.88233" lon="14.8763917"><ele>914.0000000000001</ele><time>2026-04-12T07:07:31.194Z</time></trkpt><trkpt lat="37.88241" lon="14.8763683"><ele>914.0</ele><time>2026-04-12T07:07:33.193Z</time></trkpt><trkpt lat="37.882495" lon="14.8763467"><ele>914.0</ele><time>2026-04-12T07:07:35.192Z</time></trkpt><trkpt lat="37.8825783" lon="14.8763117"><ele>914.0</ele><time>2026-04-12T07:07:37.193Z</time></trkpt><trkpt lat="37.88266" lon="14.8763"><ele>914.0000000000001</ele><time>2026-04-12T07:07:39.192Z</time></trkpt><trkpt lat="37.8827383" lon="14.876305"><ele>914.0</ele><time>2026-04-12T07:07:41.192Z</time></trkpt><trkpt lat="37.882815" lon="14.8763183"><ele>913.857142857143</ele><time>2026-04-12T07:07:43.194Z</time></trkpt><trkpt lat="37.8828867" lon="14.8763367"><ele>913.7142857142858</ele><time>2026-04-12T07:07:45.192Z</time></trkpt><trkpt lat="37.8829583" lon="14.8763517"><ele>913.5714285714286</ele><time>2026-04-12T07:07:47.192Z</time></trkpt><trkpt lat="37.88303" lon="14.8763683"><ele>913.4285714285714</ele><time>2026-04-12T07:07:49.192Z</time></trkpt><trkpt lat="37.883105" lon="14.8763883"><ele>913.2857142857142</ele><time>2026-04-12T07:07:51.193Z</time></trkpt><trkpt lat="37.8831767" lon="14.8764133"><ele>913.142857142857</ele><time>2026-04-12T07:07:53.192Z</time></trkpt><trkpt lat="37.8832517" lon="14.8764317"><ele>912.9999999999999</ele><time>2026-04-12T07:07:55.192Z</time></trkpt><trkpt lat="37.8833283" lon="14.876435"><ele>912.9999999999999</ele><time>2026-04-12T07:07:57.193Z</time></trkpt><trkpt lat="37.8833983" lon="14.8764317"><ele>913.0</ele><time>2026-04-12T07:07:59.192Z</time></trkpt><trkpt lat="37.883475" lon="14.8764233"><ele>912.9999999999999</ele><time>2026-04-12T07:08:01.192Z</time></trkpt><trkpt lat="37.8835467" lon="14.8764067"><ele>912.9999999999999</ele><time>2026-04-12T07:08:03.192Z</time></trkpt><trkpt lat="37.8836117" lon="14.87639"><ele>913.0</ele><time>2026-04-12T07:08:05.193Z</time></trkpt><trkpt lat="37.8837017" lon="14.876375"><ele>912.9999999999999</ele><time>2026-04-12T07:08:08.194Z</time></trkpt><trkpt lat="37.8837633" lon="14.8763533"><ele>912.9999999999999</ele><time>2026-04-12T07:08:10.192Z</time></trkpt><trkpt lat="37.88383" lon="14.8763417"><ele>913.142857142857</ele><time>2026-04-12T07:08:12.192Z</time></trkpt><trkpt lat="37.8838967" lon="14.8763317"><ele>913.2857142857142</ele><time>2026-04-12T07:08:14.193Z</time></trkpt><trkpt lat="37.8839633" lon="14.8763367"><ele>913.4285714285714</ele><time>2026-04-12T07:08:16.192Z</time></trkpt><trkpt lat="37.884035" lon="14.87638"><ele>913.5714285714286</ele><time>2026-04-12T07:08:18.192Z</time></trkpt><trkpt lat="37.8841" lon="14.876435"><ele>913.7142857142858</ele><time>2026-04-12T07:08:20.194Z</time></trkpt><trkpt lat="37.8841683" lon="14.8764783"><ele>913.857142857143</ele><time>2026-04-12T07:08:22.194Z</time></trkpt><trkpt lat="37.884225" lon="14.8765283"><ele>914.0000000000001</ele><time>2026-04-12T07:08:24.193Z</time></trkpt><trkpt lat="37.884285" lon="14.8765767"><ele>914.4285714285716</ele><time>2026-04-12T07:08:26.192Z</time></trkpt><trkpt lat="37.8843483" lon="14.8766183"><ele>914.8571428571429</ele><time>2026-04-12T07:08:28.192Z</time></trkpt><trkpt lat="37.8844133" lon="14.8766483"><ele>915.2857142857143</ele><time>2026-04-12T07:08:30.194Z</time></trkpt><trkpt lat="37.8844833" lon="14.8766667"><ele>915.7142857142858</ele><time>2026-04-12T07:08:32.193Z</time></trkpt><trkpt lat="37.8845567" lon="14.876665"><ele>916.1428571428571</ele><time>2026-04-12T07:08:34.194Z</time></trkpt><trkpt lat="37.8846317" lon="14.8766617"><ele>916.5714285714286</ele><time>2026-04-12T07:08:36.194Z</time></trkpt><trkpt lat="37.884705" lon="14.876625"><ele>917.0</ele><time>2026-04-12T07:08:38.192Z</time></trkpt><trkpt lat="37.8847683" lon="14.87658"><ele>917.0</ele><time>2026-04-12T07:08:40.192Z</time></trkpt><trkpt lat="37.8848367" lon="14.8765533"><ele>917.0</ele><time>2026-04-12T07:08:42.192Z</time></trkpt><trkpt lat="37.8849017" lon="14.87653"><ele>917.0</ele><time>2026-04-12T07:08:44.193Z</time></trkpt><trkpt lat="37.8849717" lon="14.8765117"><ele>917.0</ele><time>2026-04-12T07:08:46.193Z</time></trkpt><trkpt lat="37.8850483" lon="14.8764933"><ele>917.0</ele><time>2026-04-12T07:08:48.192Z</time></trkpt><trkpt lat="37.8851233" lon="14.8765017"><ele>917.0</ele><time>2026-04-12T07:08:50.193Z</time></trkpt><trkpt lat="37.8852017" lon="14.87651"><ele>917.0</ele><time>2026-04-12T07:08:52.192Z</time></trkpt><trkpt lat="37.8852783" lon="14.8765267"><ele>917.0000000000001</ele><time>2026-04-12T07:08:54.192Z</time></trkpt><trkpt lat="37.8853467" lon="14.87657"><ele>917.0</ele><time>2026-04-12T07:08:56.192Z</time></trkpt><trkpt lat="37.8854217" lon="14.87661"><ele>917.0</ele><time>2026-04-12T07:08:58.194Z</time></trkpt><trkpt lat="37.8855" lon="14.8766433"><ele>917.0</ele><time>2026-04-12T07:09:00.192Z</time></trkpt><trkpt lat="37.88558" lon="14.8766683"><ele>917.0000000000001</ele><time>2026-04-12T07:09:02.194Z</time></trkpt><trkpt lat="37.885665" lon="14.876695"><ele>917.0</ele><time>2026-04-12T07:09:04.192Z</time></trkpt><trkpt lat="37.8857517" lon="14.8766983"><ele>917.0000000000001</ele><time>2026-04-12T07:09:06.192Z</time></trkpt><trkpt lat="37.8858333" lon="14.8766933"><ele>917.0</ele><time>2026-04-12T07:09:08.193Z</time></trkpt><trkpt lat="37.8859083" lon="14.8766817"><ele>917.0</ele><time>2026-04-12T07:09:10.193Z</time></trkpt><trkpt lat="37.8859933" lon="14.8766517"><ele>917.0</ele><time>2026-04-12T07:09:12.194Z</time></trkpt><trkpt lat="37.88607" lon="14.8766117"><ele>917.0000000000001</ele><time>2026-04-12T07:09:14.193Z</time></trkpt><trkpt lat="37.8861433" lon="14.8765783"><ele>917.0</ele><time>2026-04-12T07:09:16.192Z</time></trkpt><trkpt lat="37.8862067" lon="14.8765483"><ele>917.1666666666667</ele><time>2026-04-12T07:09:18.192Z</time></trkpt><trkpt lat="37.8862767" lon="14.8765283"><ele>917.3333333333334</ele><time>2026-04-12T07:09:20.193Z</time></trkpt><trkpt lat="37.8863533" lon="14.8765183"><ele>917.5</ele><time>2026-04-12T07:09:22.192Z</time></trkpt><trkpt lat="37.8864333" lon="14.8765183"><ele>917.6666666666667</ele><time>2026-04-12T07:09:24.193Z</time></trkpt><trkpt lat="37.8865267" lon="14.8765233"><ele>917.8333333333334</ele><time>2026-04-12T07:09:26.193Z</time></trkpt><trkpt lat="37.8866117" lon="14.8765417"><ele>918.0</ele><time>2026-04-12T07:09:28.192Z</time></trkpt><trkpt lat="37.886695" lon="14.8765633"><ele>918.0</ele><time>2026-04-12T07:09:30.192Z</time></trkpt><trkpt lat="37.8867767" lon="14.87657"><ele>918.0</ele><time>2026-04-12T07:09:32.194Z</time></trkpt><trkpt lat="37.8868533" lon="14.8765817"><ele>918.0</ele><time>2026-04-12T07:09:34.193Z</time></trkpt><trkpt lat="37.886935" lon="14.8765817"><ele>918.0</ele><time>2026-04-12T07:09:36.193Z</time></trkpt><trkpt lat="37.8870067" lon="14.876575"><ele>918.0</ele><time>2026-04-12T07:09:38.195Z</time></trkpt><trkpt lat="37.8870833" lon="14.87657"><ele>918.0</ele><time>2026-04-12T07:09:40.194Z</time></trkpt><trkpt lat="37.8871517" lon="14.8765667"><ele>918.0</ele><time>2026-04-12T07:09:42.192Z</time></trkpt><trkpt lat="37.887215" lon="14.8765617"><ele>918.0</ele><time>2026-04-12T07:09:44.193Z</time></trkpt><trkpt lat="37.887305" lon="14.876555"><ele>918.0</ele><time>2026-04-12T07:09:47.193Z</time></trkpt><trkpt lat="37.887395" lon="14.876565"><ele>918.0</ele><time>2026-04-12T07:09:50.192Z</time></trkpt><trkpt lat="37.8874567" lon="14.8765867"><ele>918.0</ele><time>2026-04-12T07:09:52.193Z</time></trkpt><trkpt lat="37.88752" lon="14.8766033"><ele>918.0</ele><time>2026-04-12T07:09:54.193Z</time></trkpt><trkpt lat="37.8875833" lon="14.8765967"><ele>918.0</ele><time>2026-04-12T07:09:56.192Z</time></trkpt><trkpt lat="37.88767" lon="14.87658"><ele>918.5</ele><time>2026-04-12T07:09:59.192Z</time></trkpt><trkpt lat="37.88776" lon="14.87655"><ele>919.0</ele><time>2026-04-12T07:10:02.193Z</time></trkpt><trkpt lat="37.88785" lon="14.87654"><ele>919.5</ele><time>2026-04-12T07:10:05.192Z</time></trkpt><trkpt lat="37.887935" lon="14.876555"><ele>920.0</ele><time>2026-04-12T07:10:08.194Z</time></trkpt><trkpt lat="37.8880067" lon="14.87658"><ele>920.5</ele><time>2026-04-12T07:10:11.194Z</time></trkpt><trkpt lat="37.8880783" lon="14.8765967"><ele>921.0</ele><time>2026-04-12T07:10:14.193Z</time></trkpt><trkpt lat="37.888155" lon="14.87662"><ele>921.0</ele><time>2026-04-12T07:10:17.194Z</time></trkpt><trkpt lat="37.88823" lon="14.8766"><ele>921.0</ele><time>2026-04-12T07:10:20.194Z</time></trkpt><trkpt lat="37.8883033" lon="14.8765667"><ele>921.0</ele><time>2026-04-12T07:10:23.193Z</time></trkpt><trkpt lat="37.8883567" lon="14.8764917"><ele>921.0</ele><time>2026-04-12T07:10:26.192Z</time></trkpt><trkpt lat="37.88838" lon="14.8763817"><ele>921.0</ele><time>2026-04-12T07:10:29.193Z</time></trkpt><trkpt lat="37.8884033" lon="14.8762717"><ele>921.0</ele><time>2026-04-12T07:10:32.193Z</time></trkpt><trkpt lat="37.8884717" lon="14.8762017"><ele>921.3333333333334</ele><time>2026-04-12T07:10:35.192Z</time></trkpt><trkpt lat="37.8885383" lon="14.876205"><ele>921.6666666666667</ele><time>2026-04-12T07:10:37.194Z</time></trkpt><trkpt lat="37.888605" lon="14.8762183"><ele>922.0</ele><time>2026-04-12T07:10:39.192Z</time></trkpt><trkpt lat="37.8886883" lon="14.876255"><ele>922.3333333333334</ele><time>2026-04-12T07:10:42.192Z</time></trkpt><trkpt lat="37.8887417" lon="14.8762983"><ele>922.6666666666667</ele><time>2026-04-12T07:10:44.194Z</time></trkpt><trkpt lat="37.888825" lon="14.8763283"><ele>923.0</ele><time>2026-04-12T07:10:47.194Z</time></trkpt><trkpt lat="37.8889167" lon="14.8763217"><ele>923.0</ele><time>2026-04-12T07:10:50.194Z</time></trkpt><trkpt lat="37.8889817" lon="14.8763067"><ele>923.0</ele><time>2026-04-12T07:10:52.192Z</time></trkpt><trkpt lat="37.8890433" lon="14.87629"><ele>923.0</ele><time>2026-04-12T07:10:54.193Z</time></trkpt><trkpt lat="37.8891067" lon="14.8762717"><ele>923.0</ele><time>2026-04-12T07:10:56.193Z</time></trkpt><trkpt lat="37.8891717" lon="14.876275"><ele>923.0</ele><time>2026-04-12T07:10:58.192Z</time></trkpt><trkpt lat="37.8892367" lon="14.8762733"><ele>923.0</ele><time>2026-04-12T07:11:00.192Z</time></trkpt><trkpt lat="37.8893083" lon="14.8762633"><ele>923.0</ele><time>2026-04-12T07:11:02.192Z</time></trkpt><trkpt lat="37.889385" lon="14.8762633"><ele>924.3333333333334</ele><time>2026-04-12T07:11:04.193Z</time></trkpt><trkpt lat="37.8894633" lon="14.8762867"><ele>925.6666666666667</ele><time>2026-04-12T07:11:06.195Z</time></trkpt><trkpt lat="37.889535" lon="14.8763317"><ele>927.0</ele><time>2026-04-12T07:11:08.193Z</time></trkpt><trkpt lat="37.889615" lon="14.87638"><ele>928.3333333333333</ele><time>2026-04-12T07:11:10.192Z</time></trkpt><trkpt lat="37.8896933" lon="14.8764317"><ele>929.6666666666666</ele><time>2026-04-12T07:11:12.193Z</time></trkpt><trkpt lat="37.88976" lon="14.876475"><ele>931.0</ele><time>2026-04-12T07:11:14.193Z</time></trkpt><trkpt lat="37.88982" lon="14.876515"><ele>931.0</ele><time>2026-04-12T07:11:16.192Z</time></trkpt><trkpt lat="37.889875" lon="14.876555"><ele>931.0</ele><time>2026-04-12T07:11:18.194Z</time></trkpt><trkpt lat="37.8899333" lon="14.8766033"><ele>931.0</ele><time>2026-04-12T07:11:20.193Z</time></trkpt><trkpt lat="37.8899933" lon="14.87665"><ele>931.0</ele><time>2026-04-12T07:11:22.192Z</time></trkpt><trkpt lat="37.8900583" lon="14.8766917"><ele>931.0</ele><time>2026-04-12T07:11:24.192Z</time></trkpt><trkpt lat="37.8901283" lon="14.8767167"><ele>931.0</ele><time>2026-04-12T07:11:26.192Z</time></trkpt><trkpt lat="37.8901933" lon="14.876735"><ele>931.0</ele><time>2026-04-12T07:11:28.192Z</time></trkpt><trkpt lat="37.89026" lon="14.8767367"><ele>931.8333333333333</ele><time>2026-04-12T07:11:30.192Z</time></trkpt><trkpt lat="37.8903383" lon="14.87673"><ele>932.6666666666666</ele><time>2026-04-12T07:11:32.192Z</time></trkpt><trkpt lat="37.8904217" lon="14.8767233"><ele>933.5</ele><time>2026-04-12T07:11:34.193Z</time></trkpt><trkpt lat="37.8905" lon="14.876715"><ele>934.3333333333333</ele><time>2026-04-12T07:11:36.192Z</time></trkpt><trkpt lat="37.890575" lon="14.876705"><ele>935.1666666666666</ele><time>2026-04-12T07:11:38.196Z</time></trkpt><trkpt lat="37.89064" lon="14.8767117"><ele>936.0</ele><time>2026-04-12T07:11:40.192Z</time></trkpt><trkpt lat="37.8907083" lon="14.876715"><ele>936.0</ele><time>2026-04-12T07:11:42.191Z</time></trkpt><trkpt lat="37.8907833" lon="14.8767167"><ele>936.0000000000001</ele><time>2026-04-12T07:11:44.193Z</time></trkpt><trkpt lat="37.8908483" lon="14.8767267"><ele>936.0</ele><time>2026-04-12T07:11:46.192Z</time></trkpt><trkpt lat="37.8909183" lon="14.8767367"><ele>936.0</ele><time>2026-04-12T07:11:48.194Z</time></trkpt><trkpt lat="37.891" lon="14.8767433"><ele>936.0000000000001</ele><time>2026-04-12T07:11:50.193Z</time></trkpt><trkpt lat="37.8910817" lon="14.8767467"><ele>936.0</ele><time>2026-04-12T07:11:52.193Z</time></trkpt><trkpt lat="37.891155" lon="14.8767433"><ele>936.0</ele><time>2026-04-12T07:11:54.193Z</time></trkpt><trkpt lat="37.8912183" lon="14.876715"><ele>935.5714285714287</ele><time>2026-04-12T07:11:56.193Z</time></trkpt><trkpt lat="37.8912833" lon="14.876695"><ele>935.1428571428572</ele><time>2026-04-12T07:11:58.193Z</time></trkpt><trkpt lat="37.8913367" lon="14.8766417"><ele>934.7142857142858</ele><time>2026-04-12T07:12:00.192Z</time></trkpt><trkpt lat="37.8913917" lon="14.8765933"><ele>934.2857142857142</ele><time>2026-04-12T07:12:02.193Z</time></trkpt><trkpt lat="37.8914567" lon="14.87656"><ele>933.8571428571428</ele><time>2026-04-12T07:12:04.194Z</time></trkpt><trkpt lat="37.8915467" lon="14.87656"><ele>933.4285714285713</ele><time>2026-04-12T07:12:07.193Z</time></trkpt><trkpt lat="37.89161" lon="14.8765833"><ele>933.0</ele><time>2026-04-12T07:12:09.192Z</time></trkpt><trkpt lat="37.8916733" lon="14.8765967"><ele>933.6666666666666</ele><time>2026-04-12T07:12:11.193Z</time></trkpt><trkpt lat="37.8917667" lon="14.87659"><ele>934.3333333333333</ele><time>2026-04-12T07:12:14.192Z</time></trkpt><trkpt lat="37.8918433" lon="14.8765367"><ele>935.0</ele><time>2026-04-12T07:12:17.193Z</time></trkpt><trkpt lat="37.8919067" lon="14.8764783"><ele>935.6666666666666</ele><time>2026-04-12T07:12:20.196Z</time></trkpt><trkpt lat="37.8919633" lon="14.8764017"><ele>936.3333333333333</ele><time>2026-04-12T07:12:23.194Z</time></trkpt><trkpt lat="37.892035" lon="14.87634"><ele>937.0</ele><time>2026-04-12T07:12:26.194Z</time></trkpt><trkpt lat="37.8921083" lon="14.876305"><ele>937.0</ele><time>2026-04-12T07:12:29.193Z</time></trkpt><trkpt lat="37.8921817" lon="14.8762983"><ele>937.0</ele><time>2026-04-12T07:12:32.194Z</time></trkpt><trkpt lat="37.8922633" lon="14.8762767"><ele>937.0</ele><time>2026-04-12T07:12:36.194Z</time></trkpt><trkpt lat="37.8923317" lon="14.87627"><ele>937.0</ele><time>2026-04-12T07:12:39.193Z</time></trkpt><trkpt lat="37.8924" lon="14.8762517"><ele>937.0</ele><time>2026-04-12T07:12:42.194Z</time></trkpt><trkpt lat="37.892465" lon="14.8762333"><ele>937.0</ele><time>2026-04-12T07:12:45.193Z</time></trkpt><trkpt lat="37.8925333" lon="14.87622"><ele>937.0</ele><time>2026-04-12T07:12:48.195Z</time></trkpt><trkpt lat="37.8926067" lon="14.8762067"><ele>937.5714285714286</ele><time>2026-04-12T07:12:51.195Z</time></trkpt><trkpt lat="37.8926767" lon="14.8762"><ele>938.1428571428571</ele><time>2026-04-12T07:12:54.194Z</time></trkpt><trkpt lat="37.89275" lon="14.876185"><ele>938.7142857142857</ele><time>2026-04-12T07:12:57.193Z</time></trkpt><trkpt lat="37.89282" lon="14.876185"><ele>939.2857142857142</ele><time>2026-04-12T07:13:00.193Z</time></trkpt><trkpt lat="37.8928983" lon="14.8761967"><ele>939.8571428571429</ele><time>2026-04-12T07:13:03.195Z</time></trkpt><trkpt lat="37.892975" lon="14.8761917"><ele>940.4285714285713</ele><time>2026-04-12T07:13:06.196Z</time></trkpt><trkpt lat="37.8930467" lon="14.876185"><ele>940.9999999999999</ele><time>2026-04-12T07:13:09.195Z</time></trkpt><trkpt lat="37.8931183" lon="14.8761867"><ele>941.0000000000001</ele><time>2026-04-12T07:13:12.194Z</time></trkpt><trkpt lat="37.89319" lon="14.87618"><ele>941.0</ele><time>2026-04-12T07:13:15.193Z</time></trkpt><trkpt lat="37.8932583" lon="14.8761717"><ele>941.0</ele><time>2026-04-12T07:13:18.194Z</time></trkpt><trkpt lat="37.8933383" lon="14.8761583"><ele>941.0</ele><time>2026-04-12T07:13:21.194Z</time></trkpt><trkpt lat="37.8934117" lon="14.8761267"><ele>941.0000000000001</ele><time>2026-04-12T07:13:24.195Z</time></trkpt><trkpt lat="37.89347" lon="14.8760633"><ele>941.0</ele><time>2026-04-12T07:13:27.195Z</time></trkpt><trkpt lat="37.8935217" lon="14.87597"><ele>943.5000000000001</ele><time>2026-04-12T07:13:30.193Z</time></trkpt><trkpt lat="37.8935717" lon="14.8758667"><ele>946.0</ele><time>2026-04-12T07:13:33.195Z</time></trkpt><trkpt lat="37.8936233" lon="14.875795"><ele>948.5</ele><time>2026-04-12T07:13:35.195Z</time></trkpt><trkpt lat="37.8936867" lon="14.875725"><ele>951.0</ele><time>2026-04-12T07:13:37.194Z</time></trkpt><trkpt lat="37.8937417" lon="14.8756733"><ele>953.5000000000001</ele><time>2026-04-12T07:13:39.194Z</time></trkpt><trkpt lat="37.89382" lon="14.8756133"><ele>956.0</ele><time>2026-04-12T07:13:42.193Z</time></trkpt><trkpt lat="37.8939" lon="14.8755633"><ele>956.0000000000001</ele><time>2026-04-12T07:13:45.194Z</time></trkpt><trkpt lat="37.8939583" lon="14.87553"><ele>956.0</ele><time>2026-04-12T07:13:47.194Z</time></trkpt><trkpt lat="37.8940433" lon="14.8755"><ele>956.0</ele><time>2026-04-12T07:13:50.195Z</time></trkpt><trkpt lat="37.8941133" lon="14.87545"><ele>956.0</ele><time>2026-04-12T07:13:53.194Z</time></trkpt><trkpt lat="37.8941767" lon="14.8754067"><ele>956.0000000000001</ele><time>2026-04-12T07:13:56.195Z</time></trkpt><trkpt lat="37.8942467" lon="14.8753483"><ele>956.0</ele><time>2026-04-12T07:13:59.193Z</time></trkpt><trkpt lat="37.8942983" lon="14.8752733"><ele>957.5000000000001</ele><time>2026-04-12T07:14:02.195Z</time></trkpt><trkpt lat="37.8943617" lon="14.8751917"><ele>959.0</ele><time>2026-04-12T07:14:05.194Z</time></trkpt><trkpt lat="37.8944367" lon="14.8751467"><ele>960.5</ele><time>2026-04-12T07:14:08.196Z</time></trkpt><trkpt lat="37.8945033" lon="14.87513"><ele>962.0</ele><time>2026-04-12T07:14:11.194Z</time></trkpt><trkpt lat="37.8945883" lon="14.8751467"><ele>963.5000000000001</ele><time>2026-04-12T07:14:14.195Z</time></trkpt><trkpt lat="37.89468" lon="14.87515"><ele>965.0</ele><time>2026-04-12T07:14:17.194Z</time></trkpt><trkpt lat="37.8947517" lon="14.8751483"><ele>965.0000000000001</ele><time>2026-04-12T07:14:20.194Z</time></trkpt><trkpt lat="37.8948217" lon="14.8751517"><ele>965.0</ele><time>2026-04-12T07:14:23.195Z</time></trkpt><trkpt lat="37.8949117" lon="14.8751883"><ele>965.0</ele><time>2026-04-12T07:16:40.195Z</time></trkpt><trkpt lat="37.894965" lon="14.8752367"><ele>965.0</ele><time>2026-04-12T07:19:23.194Z</time></trkpt><trkpt lat="37.8950367" lon="14.875245"><ele>965.0000000000001</ele><time>2026-04-12T07:19:26.194Z</time></trkpt><trkpt lat="37.8950983" lon="14.87531"><ele>965.0</ele><time>2026-04-12T07:19:30.195Z</time></trkpt><trkpt lat="37.8951333" lon="14.8753917"><ele>967.1428571428571</ele><time>2026-04-12T07:19:34.194Z</time></trkpt><trkpt lat="37.895175" lon="14.8754683"><ele>969.2857142857143</ele><time>2026-04-12T07:19:38.195Z</time></trkpt><trkpt lat="37.89521" lon="14.8755367"><ele>971.4285714285714</ele><time>2026-04-12T07:19:42.195Z</time></trkpt><trkpt lat="37.8952583" lon="14.8756117"><ele>973.5714285714286</ele><time>2026-04-12T07:19:47.194Z</time></trkpt><trkpt lat="37.8953" lon="14.875695"><ele>975.7142857142858</ele><time>2026-04-12T07:19:51.194Z</time></trkpt><trkpt lat="37.895355" lon="14.8757583"><ele>977.8571428571429</ele><time>2026-04-12T07:19:54.194Z</time></trkpt><trkpt lat="37.8954267" lon="14.8757917"><ele>980.0</ele><time>2026-04-12T07:19:57.194Z</time></trkpt><trkpt lat="37.895495" lon="14.8758083"><ele>980.0</ele><time>2026-04-12T07:20:00.194Z</time></trkpt><trkpt lat="37.895565" lon="14.8757967"><ele>980.0</ele><time>2026-04-12T07:20:03.192Z</time></trkpt><trkpt lat="37.8956333" lon="14.8757817"><ele>980.0</ele><time>2026-04-12T07:20:06.192Z</time></trkpt><trkpt lat="37.8956967" lon="14.8757633"><ele>980.0</ele><time>2026-04-12T07:20:09.193Z</time></trkpt><trkpt lat="37.8957783" lon="14.875745"><ele>980.0</ele><time>2026-04-12T07:20:13.193Z</time></trkpt><trkpt lat="37.895845" lon="14.8757283"><ele>980.0</ele><time>2026-04-12T07:20:16.194Z</time></trkpt><trkpt lat="37.8959133" lon="14.875715"><ele>980.0</ele><time>2026-04-12T07:20:19.192Z</time></trkpt><trkpt lat="37.8959767" lon="14.8756967"><ele>981.1428571428571</ele><time>2026-04-12T07:20:22.193Z</time></trkpt><trkpt lat="37.8960417" lon="14.8756833"><ele>982.2857142857142</ele><time>2026-04-12T07:20:25.192Z</time></trkpt><trkpt lat="37.8961083" lon="14.8756933"><ele>983.4285714285714</ele><time>2026-04-12T07:20:28.194Z</time></trkpt><trkpt lat="37.8961683" lon="14.87574"><ele>984.5714285714286</ele><time>2026-04-12T07:20:31.193Z</time></trkpt><trkpt lat="37.8962283" lon="14.8757817"><ele>985.7142857142857</ele><time>2026-04-12T07:20:34.195Z</time></trkpt><trkpt lat="37.8962733" lon="14.875845"><ele>986.8571428571429</ele><time>2026-04-12T07:20:37.193Z</time></trkpt><trkpt lat="37.896315" lon="14.8759083"><ele>988.0</ele><time>2026-04-12T07:20:40.193Z</time></trkpt><trkpt lat="37.896355" lon="14.875975"><ele>988.0</ele><time>2026-04-12T07:20:43.192Z</time></trkpt><trkpt lat="37.8963833" lon="14.8760517"><ele>988.0</ele><time>2026-04-12T07:20:46.192Z</time></trkpt><trkpt lat="37.8964317" lon="14.87612"><ele>988.0</ele><time>2026-04-12T07:20:49.193Z</time></trkpt><trkpt lat="37.8964817" lon="14.8761933"><ele>988.0</ele><time>2026-04-12T07:20:52.194Z</time></trkpt><trkpt lat="37.8965317" lon="14.87625"><ele>988.0</ele><time>2026-04-12T07:20:55.193Z</time></trkpt><trkpt lat="37.8965683" lon="14.87632"><ele>988.0</ele><time>2026-04-12T07:20:58.193Z</time></trkpt><trkpt lat="37.896615" lon="14.876385"><ele>988.0</ele><time>2026-04-12T07:21:01.192Z</time></trkpt><trkpt lat="37.8966667" lon="14.8764567"><ele>987.9999999999999</ele><time>2026-04-12T07:21:04.192Z</time></trkpt><trkpt lat="37.8967217" lon="14.8765317"><ele>988.0</ele><time>2026-04-12T07:21:07.193Z</time></trkpt><trkpt lat="37.8967767" lon="14.876605"><ele>988.0</ele><time>2026-04-12T07:21:10.194Z</time></trkpt><trkpt lat="37.8968383" lon="14.876675"><ele>988.0</ele><time>2026-04-12T07:21:13.193Z</time></trkpt><trkpt lat="37.896905" lon="14.87671"><ele>987.9999999999999</ele><time>2026-04-12T07:21:16.192Z</time></trkpt><trkpt lat="37.8969833" lon="14.876715"><ele>988.0</ele><time>2026-04-12T07:21:19.193Z</time></trkpt><trkpt lat="37.897065" lon="14.8767117"><ele>989.9999999999999</ele><time>2026-04-12T07:21:22.193Z</time></trkpt><trkpt lat="37.8971517" lon="14.876695"><ele>992.0</ele><time>2026-04-12T07:21:25.193Z</time></trkpt><trkpt lat="37.89724" lon="14.8766833"><ele>994.0</ele><time>2026-04-12T07:21:28.193Z</time></trkpt><trkpt lat="37.8973083" lon="14.876675"><ele>996.0</ele><time>2026-04-12T07:21:30.192Z</time></trkpt><trkpt lat="37.8973967" lon="14.8766583"><ele>997.9999999999999</ele><time>2026-04-12T07:21:33.193Z</time></trkpt><trkpt lat="37.89748" lon="14.8766667"><ele>1000.0</ele><time>2026-04-12T07:21:36.193Z</time></trkpt><trkpt lat="37.8975433" lon="14.87667"><ele>999.9999999999999</ele><time>2026-04-12T07:21:38.193Z</time></trkpt><trkpt lat="37.897635" lon="14.87666"><ele>1000.0</ele><time>2026-04-12T07:21:41.192Z</time></trkpt><trkpt lat="37.897725" lon="14.8766617"><ele>1000.0</ele><time>2026-04-12T07:21:44.193Z</time></trkpt><trkpt lat="37.8978067" lon="14.8766717"><ele>1000.0</ele><time>2026-04-12T07:21:47.194Z</time></trkpt><trkpt lat="37.8978867" lon="14.8766833"><ele>999.9999999999999</ele><time>2026-04-12T07:21:50.192Z</time></trkpt><trkpt lat="37.8979783" lon="14.8766983"><ele>1000.0</ele><time>2026-04-12T07:21:53.192Z</time></trkpt><trkpt lat="37.89807" lon="14.876715"><ele>999.9999999999999</ele><time>2026-04-12T07:21:56.193Z</time></trkpt><trkpt lat="37.89816" lon="14.876715"><ele>1000.0</ele><time>2026-04-12T07:21:59.195Z</time></trkpt><trkpt lat="37.8982483" lon="14.8767083"><ele>1000.0</ele><time>2026-04-12T07:22:02.193Z</time></trkpt><trkpt lat="37.8983383" lon="14.876685"><ele>1000.0</ele><time>2026-04-12T07:22:05.194Z</time></trkpt><trkpt lat="37.8984217" lon="14.87663"><ele>999.9999999999999</ele><time>2026-04-12T07:22:08.194Z</time></trkpt><trkpt lat="37.8984933" lon="14.876585"><ele>1000.0</ele><time>2026-04-12T07:22:10.194Z</time></trkpt><trkpt lat="37.898575" lon="14.8765417"><ele>999.8333333333333</ele><time>2026-04-12T07:22:12.193Z</time></trkpt><trkpt lat="37.8986667" lon="14.87653"><ele>999.6666666666666</ele><time>2026-04-12T07:22:14.195Z</time></trkpt><trkpt lat="37.8987567" lon="14.8765483"><ele>999.5</ele><time>2026-04-12T07:22:16.194Z</time></trkpt><trkpt lat="37.8988367" lon="14.8765883"><ele>999.3333333333333</ele><time>2026-04-12T07:22:18.193Z</time></trkpt><trkpt lat="37.8989117" lon="14.8766483"><ele>999.1666666666666</ele><time>2026-04-12T07:22:20.193Z</time></trkpt><trkpt lat="37.898985" lon="14.8767017"><ele>999.0</ele><time>2026-04-12T07:22:22.193Z</time></trkpt><trkpt lat="37.8990583" lon="14.8767633"><ele>997.3333333333334</ele><time>2026-04-12T07:22:24.192Z</time></trkpt><trkpt lat="37.8991367" lon="14.87681"><ele>995.6666666666667</ele><time>2026-04-12T07:22:26.193Z</time></trkpt><trkpt lat="37.8992217" lon="14.8768333"><ele>994.0</ele><time>2026-04-12T07:22:28.193Z</time></trkpt><trkpt lat="37.8993067" lon="14.876855"><ele>992.3333333333334</ele><time>2026-04-12T07:22:30.192Z</time></trkpt><trkpt lat="37.8994" lon="14.8768817"><ele>990.6666666666667</ele><time>2026-04-12T07:22:32.192Z</time></trkpt><trkpt lat="37.8994783" lon="14.8769067"><ele>989.0</ele><time>2026-04-12T07:22:34.194Z</time></trkpt><trkpt lat="37.899545" lon="14.8769283"><ele>988.6666666666667</ele><time>2026-04-12T07:22:36.193Z</time></trkpt><trkpt lat="37.899615" lon="14.87697"><ele>988.3333333333334</ele><time>2026-04-12T07:22:38.194Z</time></trkpt><trkpt lat="37.89969" lon="14.877025"><ele>988.0</ele><time>2026-04-12T07:22:40.192Z</time></trkpt><trkpt lat="37.899755" lon="14.8770733"><ele>987.6666666666667</ele><time>2026-04-12T07:22:42.192Z</time></trkpt><trkpt lat="37.8998267" lon="14.87712"><ele>987.3333333333334</ele><time>2026-04-12T07:22:44.194Z</time></trkpt><trkpt lat="37.8999033" lon="14.877155"><ele>987.0</ele><time>2026-04-12T07:22:46.193Z</time></trkpt><trkpt lat="37.8999933" lon="14.8771683"><ele>987.0</ele><time>2026-04-12T07:22:48.192Z</time></trkpt><trkpt lat="37.90008" lon="14.8771733"><ele>987.0</ele><time>2026-04-12T07:22:50.194Z</time></trkpt><trkpt lat="37.9001683" lon="14.8771633"><ele>987.0</ele><time>2026-04-12T07:22:52.193Z</time></trkpt><trkpt lat="37.900275" lon="14.877155"><ele>987.0</ele><time>2026-04-12T07:22:54.197Z</time></trkpt><trkpt lat="37.9003883" lon="14.8771517"><ele>987.0</ele><time>2026-04-12T07:22:56.193Z</time></trkpt><trkpt lat="37.9005017" lon="14.8771433"><ele>987.0</ele><time>2026-04-12T07:22:58.192Z</time></trkpt><trkpt lat="37.9006033" lon="14.8771267"><ele>987.0</ele><time>2026-04-12T07:23:00.193Z</time></trkpt><trkpt lat="37.90071" lon="14.877095"><ele>987.0</ele><time>2026-04-12T07:23:02.193Z</time></trkpt><trkpt lat="37.9008067" lon="14.8770267"><ele>987.0</ele><time>2026-04-12T07:23:04.193Z</time></trkpt><trkpt lat="37.9008883" lon="14.8769217"><ele>987.0</ele><time>2026-04-12T07:23:06.192Z</time></trkpt><trkpt lat="37.9009717" lon="14.87682"><ele>990.1666666666666</ele><time>2026-04-12T07:23:08.195Z</time></trkpt><trkpt lat="37.9010567" lon="14.8767467"><ele>993.3333333333333</ele><time>2026-04-12T07:23:10.192Z</time></trkpt><trkpt lat="37.9011533" lon="14.8767"><ele>996.5</ele><time>2026-04-12T07:23:12.193Z</time></trkpt><trkpt lat="37.90122" lon="14.8766817"><ele>999.6666666666666</ele><time>2026-04-12T07:23:14.192Z</time></trkpt><trkpt lat="37.901285" lon="14.8766683"><ele>1002.8333333333333</ele><time>2026-04-12T07:23:16.192Z</time></trkpt><trkpt lat="37.9013633" lon="14.8766583"><ele>1006.0</ele><time>2026-04-12T07:23:19.193Z</time></trkpt><trkpt lat="37.901455" lon="14.8766517"><ele>1006.0</ele><time>2026-04-12T07:23:22.194Z</time></trkpt><trkpt lat="37.90155" lon="14.876645"><ele>1006.0000000000001</ele><time>2026-04-12T07:23:25.192Z</time></trkpt><trkpt lat="37.901615" lon="14.8766417"><ele>1006.0</ele><time>2026-04-12T07:23:27.193Z</time></trkpt><trkpt lat="37.9016817" lon="14.8766417"><ele>1006.0</ele><time>2026-04-12T07:23:29.193Z</time></trkpt><trkpt lat="37.9017667" lon="14.87664"><ele>1006.0000000000001</ele><time>2026-04-12T07:23:32.192Z</time></trkpt><trkpt lat="37.901835" lon="14.87664"><ele>1006.0</ele><time>2026-04-12T07:23:34.193Z</time></trkpt><trkpt lat="37.9019" lon="14.8766433"><ele>1006.0</ele><time>2026-04-12T07:23:36.192Z</time></trkpt><trkpt lat="37.9019633" lon="14.876655"><ele>1007.4999999999999</ele><time>2026-04-12T07:23:38.193Z</time></trkpt><trkpt lat="37.90204" lon="14.87668"><ele>1009.0</ele><time>2026-04-12T07:23:41.193Z</time></trkpt><trkpt lat="37.9021283" lon="14.8767083"><ele>1010.5</ele><time>2026-04-12T07:23:44.193Z</time></trkpt><trkpt lat="37.9022167" lon="14.876735"><ele>1012.0</ele><time>2026-04-12T07:23:47.192Z</time></trkpt><trkpt lat="37.90228" lon="14.8767467"><ele>1013.4999999999999</ele><time>2026-04-12T07:23:49.193Z</time></trkpt><trkpt lat="37.9023433" lon="14.87675"><ele>1015.0</ele><time>2026-04-12T07:23:51.193Z</time></trkpt><trkpt lat="37.9024283" lon="14.8767617"><ele>1016.1666666666666</ele><time>2026-04-12T07:23:54.193Z</time></trkpt><trkpt lat="37.9025183" lon="14.87677"><ele>1017.3333333333333</ele><time>2026-04-12T07:23:57.192Z</time></trkpt><trkpt lat="37.9026033" lon="14.8767783"><ele>1018.5</ele><time>2026-04-12T07:24:00.196Z</time></trkpt><trkpt lat="37.9026683" lon="14.876775"><ele>1019.6666666666667</ele><time>2026-04-12T07:24:02.192Z</time></trkpt><trkpt lat="37.9027517" lon="14.8767633"><ele>1020.8333333333334</ele><time>2026-04-12T07:24:05.192Z</time></trkpt><trkpt lat="37.9028367" lon="14.8767667"><ele>1022.0</ele><time>2026-04-12T07:24:08.193Z</time></trkpt><trkpt lat="37.902915" lon="14.876785"><ele>1019.3333333333334</ele><time>2026-04-12T07:24:11.194Z</time></trkpt><trkpt lat="37.902995" lon="14.8768317"><ele>1016.6666666666667</ele><time>2026-04-12T07:24:14.194Z</time></trkpt><trkpt lat="37.903055" lon="14.87686"><ele>1014.0</ele><time>2026-04-12T07:24:16.191Z</time></trkpt><trkpt lat="37.903135" lon="14.8769167"><ele>1011.3333333333333</ele><time>2026-04-12T07:24:19.193Z</time></trkpt><trkpt lat="37.9032167" lon="14.8769633"><ele>1008.6666666666666</ele><time>2026-04-12T07:24:22.192Z</time></trkpt><trkpt lat="37.9032767" lon="14.8770367"><ele>1006.0</ele><time>2026-04-12T07:24:25.192Z</time></trkpt><trkpt lat="37.903355" lon="14.8770867"><ele>1007.8333333333333</ele><time>2026-04-12T07:24:28.193Z</time></trkpt><trkpt lat="37.9034267" lon="14.8771333"><ele>1009.6666666666666</ele><time>2026-04-12T07:24:31.191Z</time></trkpt><trkpt lat="37.9035067" lon="14.87717"><ele>1011.5</ele><time>2026-04-12T07:24:34.192Z</time></trkpt><trkpt lat="37.903585" lon="14.8772067"><ele>1013.3333333333333</ele><time>2026-04-12T07:24:37.192Z</time></trkpt><trkpt lat="37.90367" lon="14.87724"><ele>1015.1666666666666</ele><time>2026-04-12T07:24:40.192Z</time></trkpt><trkpt lat="37.9037483" lon="14.8772667"><ele>1017.0</ele><time>2026-04-12T07:24:43.193Z</time></trkpt><trkpt lat="37.90383" lon="14.87729"><ele>1017.0</ele><time>2026-04-12T07:24:46.191Z</time></trkpt><trkpt lat="37.9039183" lon="14.8773083"><ele>1017.0</ele><time>2026-04-12T07:24:49.193Z</time></trkpt><trkpt lat="37.904005" lon="14.8773183"><ele>1017.0</ele><time>2026-04-12T07:24:52.192Z</time></trkpt><trkpt lat="37.9040933" lon="14.87731"><ele>1017.0</ele><time>2026-04-12T07:24:55.192Z</time></trkpt><trkpt lat="37.9041783" lon="14.877295"><ele>1017.0</ele><time>2026-04-12T07:24:58.193Z</time></trkpt><trkpt lat="37.9042583" lon="14.8772917"><ele>1017.0</ele><time>2026-04-12T07:25:01.193Z</time></trkpt><trkpt lat="37.9043383" lon="14.87728"><ele>1017.5</ele><time>2026-04-12T07:25:04.192Z</time></trkpt><trkpt lat="37.9044233" lon="14.877265"><ele>1018.0</ele><time>2026-04-12T07:25:07.191Z</time></trkpt><trkpt lat="37.9045033" lon="14.877235"><ele>1018.5</ele><time>2026-04-12T07:25:10.192Z</time></trkpt><trkpt lat="37.9045833" lon="14.8772083"><ele>1019.0</ele><time>2026-04-12T07:25:13.192Z</time></trkpt><trkpt lat="37.9046633" lon="14.877175"><ele>1019.5</ele><time>2026-04-12T07:25:16.192Z</time></trkpt><trkpt lat="37.90474" lon="14.8771383"><ele>1020.0</ele><time>2026-04-12T07:25:19.193Z</time></trkpt><trkpt lat="37.90481" lon="14.877095"><ele>1020.0</ele><time>2026-04-12T07:25:22.194Z</time></trkpt><trkpt lat="37.9048833" lon="14.87704"><ele>1020.0</ele><time>2026-04-12T07:25:25.193Z</time></trkpt><trkpt lat="37.904945" lon="14.8769633"><ele>1020.0</ele><time>2026-04-12T07:25:28.192Z</time></trkpt><trkpt lat="37.9049833" lon="14.8768983"><ele>1020.0</ele><time>2026-04-12T07:25:30.193Z</time></trkpt><trkpt lat="37.90504" lon="14.876805"><ele>1020.0</ele><time>2026-04-12T07:25:33.194Z</time></trkpt><trkpt lat="37.90507" lon="14.8767333"><ele>1020.0</ele><time>2026-04-12T07:25:35.193Z</time></trkpt><trkpt lat="37.90511" lon="14.8766283"><ele>1022.5</ele><time>2026-04-12T07:25:38.193Z</time></trkpt><trkpt lat="37.90515" lon="14.8765367"><ele>1025.0</ele><time>2026-04-12T07:25:41.191Z</time></trkpt><trkpt lat="37.9052" lon="14.8764667"><ele>1027.5</ele><time>2026-04-12T07:25:44.192Z</time></trkpt><trkpt lat="37.90527" lon="14.87641"><ele>1030.0</ele><time>2026-04-12T07:25:47.191Z</time></trkpt><trkpt lat="37.9053417" lon="14.8763667"><ele>1032.5</ele><time>2026-04-12T07:25:50.193Z</time></trkpt><trkpt lat="37.9054217" lon="14.8763583"><ele>1035.0</ele><time>2026-04-12T07:25:53.193Z</time></trkpt><trkpt lat="37.9055133" lon="14.8763567"><ele>1035.0</ele><time>2026-04-12T07:25:56.192Z</time></trkpt><trkpt lat="37.9055933" lon="14.8763617"><ele>1035.0</ele><time>2026-04-12T07:25:59.191Z</time></trkpt><trkpt lat="37.9056733" lon="14.8763717"><ele>1035.0</ele><time>2026-04-12T07:26:02.194Z</time></trkpt><trkpt lat="37.9057367" lon="14.87638"><ele>1035.0</ele><time>2026-04-12T07:26:04.192Z</time></trkpt><trkpt lat="37.9058217" lon="14.876395"><ele>1035.0</ele><time>2026-04-12T07:26:07.192Z</time></trkpt><trkpt lat="37.9058867" lon="14.8763933"><ele>1035.0</ele><time>2026-04-12T07:26:09.193Z</time></trkpt><trkpt lat="37.9059717" lon="14.8763817"><ele>1036.5</ele><time>2026-04-12T07:26:12.192Z</time></trkpt><trkpt lat="37.906035" lon="14.8763533"><ele>1038.0</ele><time>2026-04-12T07:26:14.192Z</time></trkpt><trkpt lat="37.9061067" lon="14.8762883"><ele>1039.5</ele><time>2026-04-12T07:26:17.192Z</time></trkpt><trkpt lat="37.9061667" lon="14.8762083"><ele>1041.0</ele><time>2026-04-12T07:26:20.193Z</time></trkpt><trkpt lat="37.90624" lon="14.8761467"><ele>1042.5</ele><time>2026-04-12T07:26:23.194Z</time></trkpt><trkpt lat="37.9063233" lon="14.8761267"><ele>1044.0</ele><time>2026-04-12T07:26:26.193Z</time></trkpt><trkpt lat="37.9063883" lon="14.87612"><ele>1044.0</ele><time>2026-04-12T07:26:28.193Z</time></trkpt><trkpt lat="37.9064533" lon="14.87613"><ele>1044.0</ele><time>2026-04-12T07:26:30.192Z</time></trkpt><trkpt lat="37.906525" lon="14.8761867"><ele>1044.0</ele><time>2026-04-12T07:26:33.193Z</time></trkpt><trkpt lat="37.906585" lon="14.8762267"><ele>1044.0</ele><time>2026-04-12T07:26:36.193Z</time></trkpt><trkpt lat="37.9066567" lon="14.87628"><ele>1044.0</ele><time>2026-04-12T07:26:40.193Z</time></trkpt><trkpt lat="37.9067167" lon="14.876305"><ele>1044.0</ele><time>2026-04-12T07:26:43.194Z</time></trkpt><trkpt lat="37.9067867" lon="14.8763083"><ele>1044.0</ele><time>2026-04-12T07:26:46.193Z</time></trkpt><trkpt lat="37.9068617" lon="14.87628"><ele>1046.2857142857142</ele><time>2026-04-12T07:26:50.194Z</time></trkpt><trkpt lat="37.9069133" lon="14.8762333"><ele>1048.5714285714284</ele><time>2026-04-12T07:26:53.194Z</time></trkpt><trkpt lat="37.9069567" lon="14.8761667"><ele>1050.8571428571427</ele><time>2026-04-12T07:26:56.195Z</time></trkpt><trkpt lat="37.90701" lon="14.8761067"><ele>1053.142857142857</ele><time>2026-04-12T07:26:59.2Z</time></trkpt><trkpt lat="37.9070567" lon="14.8760417"><ele>1055.4285714285713</ele><time>2026-04-12T07:27:02.193Z</time></trkpt><trkpt lat="37.9071233" lon="14.87598"><ele>1057.7142857142856</ele><time>2026-04-12T07:27:06.193Z</time></trkpt><trkpt lat="37.9071833" lon="14.8759533"><ele>1060.0</ele><time>2026-04-12T07:27:09.194Z</time></trkpt><trkpt lat="37.907255" lon="14.8759583"><ele>1059.9999999999998</ele><time>2026-04-12T07:27:12.194Z</time></trkpt><trkpt lat="37.9073217" lon="14.8759967"><ele>1060.0</ele><time>2026-04-12T07:27:15.193Z</time></trkpt><trkpt lat="37.9073767" lon="14.8760567"><ele>1060.0</ele><time>2026-04-12T07:27:18.193Z</time></trkpt><trkpt lat="37.9074167" lon="14.8761233"><ele>1060.0</ele><time>2026-04-12T07:27:21.194Z</time></trkpt><trkpt lat="37.9074483" lon="14.8761967"><ele>1060.0</ele><time>2026-04-12T07:27:24.193Z</time></trkpt><trkpt lat="37.90749" lon="14.8762567"><ele>1059.9999999999998</ele><time>2026-04-12T07:27:27.192Z</time></trkpt><trkpt lat="37.9075233" lon="14.8763317"><ele>1060.0</ele><time>2026-04-12T07:27:30.193Z</time></trkpt><trkpt lat="37.907545" lon="14.8764133"><ele>1060.0</ele><time>2026-04-12T07:27:33.192Z</time></trkpt><trkpt lat="37.9075767" lon="14.8764833"><ele>1060.0</ele><time>2026-04-12T07:27:36.193Z</time></trkpt><trkpt lat="37.9076167" lon="14.876555"><ele>1060.0</ele><time>2026-04-12T07:27:39.193Z</time></trkpt><trkpt lat="37.9076583" lon="14.8766267"><ele>1060.0</ele><time>2026-04-12T07:27:42.193Z</time></trkpt><trkpt lat="37.9077133" lon="14.8766817"><ele>1060.0</ele><time>2026-04-12T07:27:45.193Z</time></trkpt><trkpt lat="37.909355" lon="14.8755283"><ele>1064.1666666666665</ele><time>2026-04-12T07:29:04.192Z</time></trkpt><trkpt lat="37.90942" lon="14.8755117"><ele>1068.3333333333333</ele><time>2026-04-12T07:29:07.193Z</time></trkpt><trkpt lat="37.90949" lon="14.8754867"><ele>1072.5</ele><time>2026-04-12T07:29:10.193Z</time></trkpt><trkpt lat="37.90957" lon="14.8754617"><ele>1076.6666666666667</ele><time>2026-04-12T07:29:13.193Z</time></trkpt><trkpt lat="37.9096517" lon="14.8754583"><ele>1080.8333333333335</ele><time>2026-04-12T07:29:16.193Z</time></trkpt><trkpt lat="37.90973" lon="14.8755067"><ele>1085.0</ele><time>2026-04-12T07:29:19.194Z</time></trkpt><trkpt lat="37.909805" lon="14.8755767"><ele>1085.0</ele><time>2026-04-12T07:29:22.193Z</time></trkpt><trkpt lat="37.9098683" lon="14.875645"><ele>1085.0</ele><time>2026-04-12T07:29:25.193Z</time></trkpt><trkpt lat="37.9099283" lon="14.8757183"><ele>1085.0</ele><time>2026-04-12T07:29:28.193Z</time></trkpt><trkpt lat="37.9099917" lon="14.8757867"><ele>1085.0</ele><time>2026-04-12T07:29:31.194Z</time></trkpt><trkpt lat="37.9100467" lon="14.8758467"><ele>1085.0</ele><time>2026-04-12T07:29:34.193Z</time></trkpt><trkpt lat="37.91012" lon="14.8758967"><ele>1085.0</ele><time>2026-04-12T07:29:38.193Z</time></trkpt><trkpt lat="37.9101817" lon="14.8759533"><ele>1085.5</ele><time>2026-04-12T07:29:41.194Z</time></trkpt><trkpt lat="37.91026" lon="14.8759933"><ele>1086.0</ele><time>2026-04-12T07:29:44.194Z</time></trkpt><trkpt lat="37.9103283" lon="14.8760317"><ele>1086.5</ele><time>2026-04-12T07:29:47.195Z</time></trkpt><trkpt lat="37.9103967" lon="14.8760717"><ele>1087.0</ele><time>2026-04-12T07:29:50.195Z</time></trkpt><trkpt lat="37.9104683" lon="14.876125"><ele>1087.5</ele><time>2026-04-12T07:29:53.193Z</time></trkpt><trkpt lat="37.9105383" lon="14.876165"><ele>1088.0</ele><time>2026-04-12T07:29:56.193Z</time></trkpt><trkpt lat="37.9106183" lon="14.8762067"><ele>1088.0</ele><time>2026-04-12T07:29:59.194Z</time></trkpt><trkpt lat="37.9106933" lon="14.8762467"><ele>1088.0</ele><time>2026-04-12T07:30:02.194Z</time></trkpt><trkpt lat="37.9107617" lon="14.876275"><ele>1088.0</ele><time>2026-04-12T07:30:05.194Z</time></trkpt><trkpt lat="37.910835" lon="14.8763233"><ele>1088.0</ele><time>2026-04-12T07:30:08.194Z</time></trkpt><trkpt lat="37.9109067" lon="14.876375"><ele>1088.0</ele><time>2026-04-12T07:30:11.193Z</time></trkpt><trkpt lat="37.9109767" lon="14.8764333"><ele>1088.0</ele><time>2026-04-12T07:30:14.193Z</time></trkpt><trkpt lat="37.9110383" lon="14.87649"><ele>1088.3333333333335</ele><time>2026-04-12T07:30:17.192Z</time></trkpt><trkpt lat="37.9110967" lon="14.876555"><ele>1088.6666666666667</ele><time>2026-04-12T07:30:20.194Z</time></trkpt><trkpt lat="37.911155" lon="14.876615"><ele>1089.0</ele><time>2026-04-12T07:30:23.193Z</time></trkpt><trkpt lat="37.9112067" lon="14.876685"><ele>1089.3333333333333</ele><time>2026-04-12T07:30:27.193Z</time></trkpt><trkpt lat="37.911255" lon="14.876745"><ele>1089.6666666666665</ele><time>2026-04-12T07:30:30.194Z</time></trkpt><trkpt lat="37.91133" lon="14.87679"><ele>1090.0</ele><time>2026-04-12T07:30:34.193Z</time></trkpt><trkpt lat="37.9114083" lon="14.87681"><ele>1090.0</ele><time>2026-04-12T07:30:37.194Z</time></trkpt><trkpt lat="37.9114817" lon="14.8768183"><ele>1090.0</ele><time>2026-04-12T07:30:40.194Z</time></trkpt><trkpt lat="37.9115633" lon="14.8768183"><ele>1090.0</ele><time>2026-04-12T07:30:43.193Z</time></trkpt><trkpt lat="37.9116267" lon="14.876795"><ele>1090.0</ele><time>2026-04-12T07:30:46.192Z</time></trkpt><trkpt lat="37.9116833" lon="14.8767433"><ele>1090.0</ele><time>2026-04-12T07:30:49.193Z</time></trkpt><trkpt lat="37.911745" lon="14.8766967"><ele>1090.0</ele><time>2026-04-12T07:30:52.194Z</time></trkpt><trkpt lat="37.9118033" lon="14.876635"><ele>1090.0</ele><time>2026-04-12T07:30:55.193Z</time></trkpt><trkpt lat="37.9118533" lon="14.87656"><ele>1091.2857142857142</ele><time>2026-04-12T07:30:59.193Z</time></trkpt><trkpt lat="37.91187" lon="14.87646"><ele>1092.5714285714287</ele><time>2026-04-12T07:31:03.193Z</time></trkpt><trkpt lat="37.9118633" lon="14.8763583"><ele>1093.857142857143</ele><time>2026-04-12T07:31:06.192Z</time></trkpt><trkpt lat="37.911845" lon="14.8762767"><ele>1095.142857142857</ele><time>2026-04-12T07:31:09.193Z</time></trkpt><trkpt lat="37.9118233" lon="14.876195"><ele>1096.4285714285716</ele><time>2026-04-12T07:31:12.192Z</time></trkpt><trkpt lat="37.9117933" lon="14.8761233"><ele>1097.7142857142858</ele><time>2026-04-12T07:31:15.193Z</time></trkpt><trkpt lat="37.9117733" lon="14.87603"><ele>1099.0</ele><time>2026-04-12T07:31:18.192Z</time></trkpt><trkpt lat="37.911755" lon="14.87594"><ele>1101.0</ele><time>2026-04-12T07:31:21.193Z</time></trkpt><trkpt lat="37.9117533" lon="14.87585"><ele>1103.0</ele><time>2026-04-12T07:31:24.192Z</time></trkpt><trkpt lat="37.9117517" lon="14.8757533"><ele>1105.0</ele><time>2026-04-12T07:31:27.193Z</time></trkpt><trkpt lat="37.9117667" lon="14.8756533"><ele>1107.0</ele><time>2026-04-12T07:31:30.193Z</time></trkpt><trkpt lat="37.91181" lon="14.8755783"><ele>1109.0</ele><time>2026-04-12T07:31:33.193Z</time></trkpt><trkpt lat="37.911885" lon="14.8755333"><ele>1111.0</ele><time>2026-04-12T07:31:36.192Z</time></trkpt><trkpt lat="37.9119667" lon="14.8755133"><ele>1111.0</ele><time>2026-04-12T07:31:39.193Z</time></trkpt><trkpt lat="37.9120367" lon="14.8754917"><ele>1111.0</ele><time>2026-04-12T07:31:42.192Z</time></trkpt><trkpt lat="37.9121117" lon="14.8754517"><ele>1111.0</ele><time>2026-04-12T07:31:45.193Z</time></trkpt><trkpt lat="37.9121833" lon="14.8754033"><ele>1111.0</ele><time>2026-04-12T07:31:48.192Z</time></trkpt><trkpt lat="37.9122233" lon="14.8753367"><ele>1111.0</ele><time>2026-04-12T07:31:51.193Z</time></trkpt><trkpt lat="37.912245" lon="14.8752483"><ele>1111.0</ele><time>2026-04-12T07:31:54.192Z</time></trkpt><trkpt lat="37.9122583" lon="14.875155"><ele>1111.0</ele><time>2026-04-12T07:31:57.193Z</time></trkpt><trkpt lat="37.9122633" lon="14.8750633"><ele>1113.0</ele><time>2026-04-12T07:32:00.194Z</time></trkpt><trkpt lat="37.9122467" lon="14.8749717"><ele>1115.0</ele><time>2026-04-12T07:32:03.192Z</time></trkpt><trkpt lat="37.9122267" lon="14.87488"><ele>1117.0</ele><time>2026-04-12T07:32:06.194Z</time></trkpt><trkpt lat="37.912205" lon="14.8748017"><ele>1119.0</ele><time>2026-04-12T07:32:09.192Z</time></trkpt><trkpt lat="37.9121717" lon="14.87472"><ele>1121.0</ele><time>2026-04-12T07:32:12.193Z</time></trkpt><trkpt lat="37.912125" lon="14.87465"><ele>1123.0</ele><time>2026-04-12T07:32:15.193Z</time></trkpt><trkpt lat="37.9120833" lon="14.8745783"><ele>1125.0</ele><time>2026-04-12T07:32:18.193Z</time></trkpt><trkpt lat="37.9120383" lon="14.8745067"><ele>1125.0</ele><time>2026-04-12T07:32:21.193Z</time></trkpt><trkpt lat="37.9119817" lon="14.87444"><ele>1125.0</ele><time>2026-04-12T07:32:24.193Z</time></trkpt><trkpt lat="37.9119317" lon="14.87437"><ele>1125.0</ele><time>2026-04-12T07:32:27.192Z</time></trkpt><trkpt lat="37.9118683" lon="14.8743017"><ele>1125.0</ele><time>2026-04-12T07:32:30.192Z</time></trkpt><trkpt lat="37.911815" lon="14.8742283"><ele>1125.0</ele><time>2026-04-12T07:32:33.193Z</time></trkpt><trkpt lat="37.91178" lon="14.874145"><ele>1125.0</ele><time>2026-04-12T07:32:36.192Z</time></trkpt><trkpt lat="37.9117717" lon="14.8740517"><ele>1127.0</ele><time>2026-04-12T07:32:39.193Z</time></trkpt><trkpt lat="37.91179" lon="14.8739617"><ele>1129.0</ele><time>2026-04-12T07:32:42.193Z</time></trkpt><trkpt lat="37.9118167" lon="14.87387"><ele>1131.0</ele><time>2026-04-12T07:32:45.192Z</time></trkpt><trkpt lat="37.9118483" lon="14.873785"><ele>1133.0</ele><time>2026-04-12T07:32:48.193Z</time></trkpt><trkpt lat="37.9119033" lon="14.8737183"><ele>1135.0</ele><time>2026-04-12T07:32:51.192Z</time></trkpt><trkpt lat="37.9119467" lon="14.87365"><ele>1137.0</ele><time>2026-04-12T07:32:54.193Z</time></trkpt><trkpt lat="37.9120033" lon="14.8735767"><ele>1136.9999999999998</ele><time>2026-04-12T07:32:57.193Z</time></trkpt><trkpt lat="37.9120567" lon="14.87351"><ele>1137.0</ele><time>2026-04-12T07:33:00.193Z</time></trkpt><trkpt lat="37.9121017" lon="14.8734433"><ele>1137.0</ele><time>2026-04-12T07:33:03.193Z</time></trkpt><trkpt lat="37.9121433" lon="14.87337"><ele>1137.0</ele><time>2026-04-12T07:33:06.192Z</time></trkpt><trkpt lat="37.912185" lon="14.87331"><ele>1137.0</ele><time>2026-04-12T07:33:09.194Z</time></trkpt><trkpt lat="37.9122117" lon="14.8732317"><ele>1136.9999999999998</ele><time>2026-04-12T07:33:12.194Z</time></trkpt><trkpt lat="37.9122283" lon="14.8731433"><ele>1137.0</ele><time>2026-04-12T07:33:15.193Z</time></trkpt><trkpt lat="37.9122367" lon="14.8730533"><ele>1138.7142857142856</ele><time>2026-04-12T07:33:18.192Z</time></trkpt><trkpt lat="37.9122383" lon="14.8729633"><ele>1140.4285714285713</ele><time>2026-04-12T07:33:21.192Z</time></trkpt><trkpt lat="37.9122433" lon="14.8728833"><ele>1142.142857142857</ele><time>2026-04-12T07:33:24.192Z</time></trkpt><trkpt lat="37.91224" lon="14.8727967"><ele>1143.8571428571427</ele><time>2026-04-12T07:33:27.192Z</time></trkpt><trkpt lat="37.9122367" lon="14.872715"><ele>1145.5714285714284</ele><time>2026-04-12T07:33:30.192Z</time></trkpt><trkpt lat="37.9122083" lon="14.8726333"><ele>1147.2857142857142</ele><time>2026-04-12T07:33:33.193Z</time></trkpt><trkpt lat="37.9121683" lon="14.872555"><ele>1149.0</ele><time>2026-04-12T07:33:36.192Z</time></trkpt><trkpt lat="37.9121317" lon="14.8724767"><ele>1150.4285714285716</ele><time>2026-04-12T07:33:39.192Z</time></trkpt><trkpt lat="37.9120867" lon="14.8724"><ele>1151.857142857143</ele><time>2026-04-12T07:33:42.193Z</time></trkpt><trkpt lat="37.912045" lon="14.8723283"><ele>1153.2857142857142</ele><time>2026-04-12T07:33:45.193Z</time></trkpt><trkpt lat="37.9119967" lon="14.87226"><ele>1154.7142857142858</ele><time>2026-04-12T07:33:48.192Z</time></trkpt><trkpt lat="37.9119433" lon="14.8721833"><ele>1156.142857142857</ele><time>2026-04-12T07:33:51.194Z</time></trkpt><trkpt lat="37.9119" lon="14.87212"><ele>1157.5714285714287</ele><time>2026-04-12T07:33:54.191Z</time></trkpt><trkpt lat="37.911855" lon="14.8720383"><ele>1159.0</ele><time>2026-04-12T07:33:57.193Z</time></trkpt><trkpt lat="37.9118117" lon="14.8719583"><ele>1159.0</ele><time>2026-04-12T07:34:00.193Z</time></trkpt><trkpt lat="37.9117667" lon="14.8718833"><ele>1159.0</ele><time>2026-04-12T07:34:03.193Z</time></trkpt><trkpt lat="37.9117117" lon="14.8718083"><ele>1159.0</ele><time>2026-04-12T07:34:06.193Z</time></trkpt><trkpt lat="37.91165" lon="14.8717383"><ele>1159.0</ele><time>2026-04-12T07:34:09.193Z</time></trkpt><trkpt lat="37.9115933" lon="14.8716683"><ele>1159.0</ele><time>2026-04-12T07:34:12.193Z</time></trkpt><trkpt lat="37.9115367" lon="14.8716"><ele>1159.0</ele><time>2026-04-12T07:34:15.192Z</time></trkpt><trkpt lat="37.9114867" lon="14.871525"><ele>1160.4285714285716</ele><time>2026-04-12T07:34:18.193Z</time></trkpt><trkpt lat="37.9114417" lon="14.87145"><ele>1161.857142857143</ele><time>2026-04-12T07:34:21.194Z</time></trkpt><trkpt lat="37.9114033" lon="14.871365"><ele>1163.2857142857142</ele><time>2026-04-12T07:34:24.192Z</time></trkpt><trkpt lat="37.9113733" lon="14.8712733"><ele>1164.7142857142858</ele><time>2026-04-12T07:34:27.192Z</time></trkpt><trkpt lat="37.9113533" lon="14.8711867"><ele>1166.142857142857</ele><time>2026-04-12T07:34:30.192Z</time></trkpt><trkpt lat="37.9113417" lon="14.8710967"><ele>1167.5714285714287</ele><time>2026-04-12T07:34:33.194Z</time></trkpt><trkpt lat="37.9113583" lon="14.871015"><ele>1169.0</ele><time>2026-04-12T07:34:36.193Z</time></trkpt><trkpt lat="37.9113967" lon="14.8709433"><ele>1170.8333333333335</ele><time>2026-04-12T07:34:39.192Z</time></trkpt><trkpt lat="37.9114517" lon="14.8708667"><ele>1172.6666666666667</ele><time>2026-04-12T07:34:42.194Z</time></trkpt><trkpt lat="37.9115233" lon="14.870815"><ele>1174.5</ele><time>2026-04-12T07:34:45.195Z</time></trkpt><trkpt lat="37.911595" lon="14.8707767"><ele>1176.3333333333333</ele><time>2026-04-12T07:34:48.193Z</time></trkpt><trkpt lat="37.9116683" lon="14.87074"><ele>1178.1666666666665</ele><time>2026-04-12T07:34:51.192Z</time></trkpt><trkpt lat="37.911745" lon="14.8707017"><ele>1180.0</ele><time>2026-04-12T07:34:54.193Z</time></trkpt><trkpt lat="37.9118" lon="14.87064"><ele>1181.2857142857144</ele><time>2026-04-12T07:34:57.194Z</time></trkpt><trkpt lat="37.9118383" lon="14.8705667"><ele>1182.5714285714287</ele><time>2026-04-12T07:35:00.193Z</time></trkpt><trkpt lat="37.9118483" lon="14.8704767"><ele>1183.857142857143</ele><time>2026-04-12T07:35:03.193Z</time></trkpt><trkpt lat="37.911845" lon="14.8703967"><ele>1185.1428571428573</ele><time>2026-04-12T07:35:06.193Z</time></trkpt><trkpt lat="37.9118383" lon="14.8702967"><ele>1186.4285714285716</ele><time>2026-04-12T07:35:09.193Z</time></trkpt><trkpt lat="37.91184" lon="14.870215"><ele>1187.7142857142858</ele><time>2026-04-12T07:35:12.193Z</time></trkpt><trkpt lat="37.911855" lon="14.87013"><ele>1189.0</ele><time>2026-04-12T07:35:15.194Z</time></trkpt><trkpt lat="37.9118583" lon="14.8700367"><ele>1189.3333333333333</ele><time>2026-04-12T07:35:18.194Z</time></trkpt><trkpt lat="37.9118433" lon="14.869945"><ele>1189.6666666666665</ele><time>2026-04-12T07:35:21.194Z</time></trkpt><trkpt lat="37.911795" lon="14.86986"><ele>1190.0</ele><time>2026-04-12T07:35:24.195Z</time></trkpt><trkpt lat="37.911755" lon="14.8697867"><ele>1190.3333333333333</ele><time>2026-04-12T07:35:27.193Z</time></trkpt><trkpt lat="37.9116933" lon="14.8697133"><ele>1190.6666666666667</ele><time>2026-04-12T07:35:30.193Z</time></trkpt><trkpt lat="37.911635" lon="14.869655"><ele>1191.0</ele><time>2026-04-12T07:35:33.193Z</time></trkpt><trkpt lat="37.9115667" lon="14.8696133"><ele>1191.0</ele><time>2026-04-12T07:35:36.193Z</time></trkpt><trkpt lat="37.9114917" lon="14.869585"><ele>1191.0</ele><time>2026-04-12T07:35:39.194Z</time></trkpt><trkpt lat="37.9114083" lon="14.8695717"><ele>1191.0</ele><time>2026-04-12T07:35:42.193Z</time></trkpt><trkpt lat="37.911335" lon="14.8695517"><ele>1191.0</ele><time>2026-04-12T07:35:45.192Z</time></trkpt><trkpt lat="37.9112667" lon="14.8695"><ele>1191.0</ele><time>2026-04-12T07:35:48.193Z</time></trkpt><trkpt lat="37.9112383" lon="14.869415"><ele>1191.0</ele><time>2026-04-12T07:35:51.194Z</time></trkpt><trkpt lat="37.9112483" lon="14.8693183"><ele>1193.2857142857142</ele><time>2026-04-12T07:35:54.195Z</time></trkpt><trkpt lat="37.9112533" lon="14.8692217"><ele>1195.5714285714284</ele><time>2026-04-12T07:35:57.193Z</time></trkpt><trkpt lat="37.9112783" lon="14.86913"><ele>1197.8571428571427</ele><time>2026-04-12T07:36:00.194Z</time></trkpt><trkpt lat="37.9113183" lon="14.8690533"><ele>1200.142857142857</ele><time>2026-04-12T07:36:03.193Z</time></trkpt><trkpt lat="37.9113667" lon="14.8689917"><ele>1202.4285714285713</ele><time>2026-04-12T07:36:06.194Z</time></trkpt><trkpt lat="37.9114217" lon="14.86893"><ele>1204.7142857142856</ele><time>2026-04-12T07:36:09.193Z</time></trkpt><trkpt lat="37.911485" lon="14.868875"><ele>1207.0</ele><time>2026-04-12T07:36:12.193Z</time></trkpt><trkpt lat="37.9115433" lon="14.868805"><ele>1207.0</ele><time>2026-04-12T07:36:15.192Z</time></trkpt><trkpt lat="37.9115733" lon="14.8687"><ele>1207.0</ele><time>2026-04-12T07:36:19.193Z</time></trkpt><trkpt lat="37.9115767" lon="14.8686117"><ele>1207.0</ele><time>2026-04-12T07:36:22.192Z</time></trkpt><trkpt lat="37.91156" lon="14.8685083"><ele>1207.0</ele><time>2026-04-12T07:36:26.194Z</time></trkpt><trkpt lat="37.9115283" lon="14.86842"><ele>1207.0</ele><time>2026-04-12T07:36:29.196Z</time></trkpt><trkpt lat="37.911485" lon="14.8683333"><ele>1207.0</ele><time>2026-04-12T07:36:32.196Z</time></trkpt><trkpt lat="37.9114317" lon="14.868265"><ele>1208.5714285714284</ele><time>2026-04-12T07:36:35.194Z</time></trkpt><trkpt lat="37.911375" lon="14.8682033"><ele>1210.142857142857</ele><time>2026-04-12T07:36:38.194Z</time></trkpt><trkpt lat="37.911325" lon="14.8681367"><ele>1211.7142857142858</ele><time>2026-04-12T07:36:41.193Z</time></trkpt><trkpt lat="37.9112833" lon="14.868075"><ele>1213.2857142857142</ele><time>2026-04-12T07:36:44.194Z</time></trkpt><trkpt lat="37.9112433" lon="14.8680133"><ele>1214.857142857143</ele><time>2026-04-12T07:36:47.193Z</time></trkpt><trkpt lat="37.9111883" lon="14.86795"><ele>1216.4285714285713</ele><time>2026-04-12T07:36:50.193Z</time></trkpt><trkpt lat="37.91114" lon="14.86789"><ele>1218.0</ele><time>2026-04-12T07:36:53.194Z</time></trkpt><trkpt lat="37.9110917" lon="14.8678333"><ele>1218.0</ele><time>2026-04-12T07:36:56.192Z</time></trkpt><trkpt lat="37.9110367" lon="14.8677533"><ele>1218.0</ele><time>2026-04-12T07:36:59.193Z</time></trkpt><trkpt lat="37.9109917" lon="14.867675"><ele>1218.0</ele><time>2026-04-12T07:37:02.195Z</time></trkpt><trkpt lat="37.910965" lon="14.8675883"><ele>1218.0</ele><time>2026-04-12T07:37:05.194Z</time></trkpt><trkpt lat="37.91094" lon="14.8674983"><ele>1218.0</ele><time>2026-04-12T07:37:08.193Z</time></trkpt><trkpt lat="37.9109383" lon="14.8673983"><ele>1218.0</ele><time>2026-04-12T07:37:11.193Z</time></trkpt><trkpt lat="37.91093" lon="14.8673"><ele>1218.5714285714287</ele><time>2026-04-12T07:37:14.195Z</time></trkpt><trkpt lat="37.91091" lon="14.8672067"><ele>1219.142857142857</ele><time>2026-04-12T07:37:17.194Z</time></trkpt><trkpt lat="37.9108867" lon="14.8671133"><ele>1219.7142857142858</ele><time>2026-04-12T07:37:20.194Z</time></trkpt><trkpt lat="37.9108517" lon="14.8670267"><ele>1220.2857142857142</ele><time>2026-04-12T07:37:23.195Z</time></trkpt><trkpt lat="37.9108133" lon="14.8669567"><ele>1220.857142857143</ele><time>2026-04-12T07:37:26.193Z</time></trkpt><trkpt lat="37.9107533" lon="14.8669067"><ele>1221.4285714285716</ele><time>2026-04-12T07:37:29.193Z</time></trkpt><trkpt lat="37.9106883" lon="14.86685"><ele>1222.0</ele><time>2026-04-12T07:37:32.193Z</time></trkpt><trkpt lat="37.91062" lon="14.8667867"><ele>1224.5</ele><time>2026-04-12T07:37:35.193Z</time></trkpt><trkpt lat="37.9105683" lon="14.866705"><ele>1227.0</ele><time>2026-04-12T07:37:38.193Z</time></trkpt><trkpt lat="37.910545" lon="14.86661"><ele>1229.5</ele><time>2026-04-12T07:37:41.194Z</time></trkpt><trkpt lat="37.9105633" lon="14.86652"><ele>1232.0</ele><time>2026-04-12T07:37:44.194Z</time></trkpt><trkpt lat="37.9106" lon="14.8664267"><ele>1234.5</ele><time>2026-04-12T07:37:47.192Z</time></trkpt><trkpt lat="37.9106717" lon="14.8663617"><ele>1237.0</ele><time>2026-04-12T07:37:50.192Z</time></trkpt><trkpt lat="37.91075" lon="14.866345"><ele>1237.0</ele><time>2026-04-12T07:37:53.193Z</time></trkpt><trkpt lat="37.9108133" lon="14.8663467"><ele>1237.0</ele><time>2026-04-12T07:37:55.192Z</time></trkpt><trkpt lat="37.9108917" lon="14.8663383"><ele>1237.0</ele><time>2026-04-12T07:37:58.195Z</time></trkpt><trkpt lat="37.910965" lon="14.86634"><ele>1237.0</ele><time>2026-04-12T07:38:01.195Z</time></trkpt><trkpt lat="37.9110417" lon="14.866285"><ele>1237.0</ele><time>2026-04-12T07:38:04.194Z</time></trkpt><trkpt lat="37.911065" lon="14.866195"><ele>1237.0</ele><time>2026-04-12T07:38:07.193Z</time></trkpt><trkpt lat="37.9110417" lon="14.8661117"><ele>1237.0</ele><time>2026-04-12T07:38:10.192Z</time></trkpt><trkpt lat="37.9109983" lon="14.8660333"><ele>1238.1666666666665</ele><time>2026-04-12T07:38:13.192Z</time></trkpt><trkpt lat="37.9109383" lon="14.8659683"><ele>1239.3333333333333</ele><time>2026-04-12T07:38:16.193Z</time></trkpt><trkpt lat="37.9108833" lon="14.8659083"><ele>1240.5</ele><time>2026-04-12T07:38:19.193Z</time></trkpt><trkpt lat="37.9108167" lon="14.8658667"><ele>1241.6666666666667</ele><time>2026-04-12T07:38:22.194Z</time></trkpt><trkpt lat="37.9107433" lon="14.8658367"><ele>1242.8333333333335</ele><time>2026-04-12T07:38:25.192Z</time></trkpt><trkpt lat="37.9106617" lon="14.8658083"><ele>1244.0</ele><time>2026-04-12T07:38:28.192Z</time></trkpt><trkpt lat="37.9105833" lon="14.8657833"><ele>1245.8333333333335</ele><time>2026-04-12T07:38:31.194Z</time></trkpt><trkpt lat="37.9104983" lon="14.8657683"><ele>1247.6666666666667</ele><time>2026-04-12T07:38:34.193Z</time></trkpt><trkpt lat="37.9104217" lon="14.8657333"><ele>1249.5</ele><time>2026-04-12T07:38:37.194Z</time></trkpt><trkpt lat="37.9103467" lon="14.86573"><ele>1251.3333333333333</ele><time>2026-04-12T07:38:40.193Z</time></trkpt><trkpt lat="37.9102683" lon="14.865715"><ele>1253.1666666666665</ele><time>2026-04-12T07:38:43.193Z</time></trkpt><trkpt lat="37.9102033" lon="14.8657133"><ele>1255.0</ele><time>2026-04-12T07:38:45.192Z</time></trkpt><trkpt lat="37.9101367" lon="14.86571"><ele>1254.142857142857</ele><time>2026-04-12T07:38:47.194Z</time></trkpt><trkpt lat="37.9100717" lon="14.8656917"><ele>1253.2857142857142</ele><time>2026-04-12T07:38:49.194Z</time></trkpt><trkpt lat="37.91" lon="14.8656683"><ele>1252.4285714285713</ele><time>2026-04-12T07:38:51.193Z</time></trkpt><trkpt lat="37.9099367" lon="14.8656267"><ele>1251.5714285714284</ele><time>2026-04-12T07:38:53.193Z</time></trkpt><trkpt lat="37.909885" lon="14.8655667"><ele>1250.7142857142858</ele><time>2026-04-12T07:38:55.192Z</time></trkpt><trkpt lat="37.9098467" lon="14.8655"><ele>1249.8571428571427</ele><time>2026-04-12T07:38:57.192Z</time></trkpt><trkpt lat="37.9098133" lon="14.865425"><ele>1249.0</ele><time>2026-04-12T07:38:59.193Z</time></trkpt><trkpt lat="37.90978" lon="14.8653483"><ele>1248.9999999999998</ele><time>2026-04-12T07:39:01.193Z</time></trkpt><trkpt lat="37.9097433" lon="14.86527"><ele>1249.0</ele><time>2026-04-12T07:39:03.194Z</time></trkpt><trkpt lat="37.9097" lon="14.8651617"><ele>1249.0</ele><time>2026-04-12T07:39:06.193Z</time></trkpt><trkpt lat="37.9096667" lon="14.8650817"><ele>1249.0</ele><time>2026-04-12T07:39:08.193Z</time></trkpt><trkpt lat="37.9096317" lon="14.8650067"><ele>1249.0</ele><time>2026-04-12T07:39:10.192Z</time></trkpt><trkpt lat="37.909595" lon="14.8649367"><ele>1248.9999999999998</ele><time>2026-04-12T07:39:12.194Z</time></trkpt><trkpt lat="37.9095583" lon="14.8648633"><ele>1249.0</ele><time>2026-04-12T07:39:14.192Z</time></trkpt><trkpt lat="37.909515" lon="14.8648"><ele>1250.8333333333333</ele><time>2026-04-12T07:39:16.193Z</time></trkpt><trkpt lat="37.9094583" lon="14.86475"><ele>1252.6666666666665</ele><time>2026-04-12T07:39:18.192Z</time></trkpt><trkpt lat="37.9094067" lon="14.864695"><ele>1254.5</ele><time>2026-04-12T07:39:20.193Z</time></trkpt><trkpt lat="37.9093417" lon="14.8646533"><ele>1256.3333333333333</ele><time>2026-04-12T07:39:22.194Z</time></trkpt><trkpt lat="37.9092717" lon="14.86462"><ele>1258.1666666666667</ele><time>2026-04-12T07:39:24.192Z</time></trkpt><trkpt lat="37.909185" lon="14.8645983"><ele>1260.0</ele><time>2026-04-12T07:39:27.193Z</time></trkpt><trkpt lat="37.9090967" lon="14.8645633"><ele>1260.0</ele><time>2026-04-12T07:39:30.192Z</time></trkpt><trkpt lat="37.9090067" lon="14.8645267"><ele>1260.0</ele><time>2026-04-12T07:39:33.192Z</time></trkpt><trkpt lat="37.908935" lon="14.864505"><ele>1260.0</ele><time>2026-04-12T07:39:35.195Z</time></trkpt><trkpt lat="37.908865" lon="14.8644883"><ele>1260.0</ele><time>2026-04-12T07:39:37.193Z</time></trkpt><trkpt lat="37.9088" lon="14.8644667"><ele>1260.0</ele><time>2026-04-12T07:39:39.192Z</time></trkpt><trkpt lat="37.908735" lon="14.8644433"><ele>1260.0</ele><time>2026-04-12T07:39:41.192Z</time></trkpt><trkpt lat="37.9086767" lon="14.8644117"><ele>1260.0</ele><time>2026-04-12T07:39:43.193Z</time></trkpt><trkpt lat="37.9085917" lon="14.864375"><ele>1260.0</ele><time>2026-04-12T07:39:46.195Z</time></trkpt><trkpt lat="37.908515" lon="14.8643083"><ele>1260.0</ele><time>2026-04-12T07:39:49.193Z</time></trkpt><trkpt lat="37.90847" lon="14.8642433"><ele>1260.0</ele><time>2026-04-12T07:39:51.193Z</time></trkpt><trkpt lat="37.9084383" lon="14.8641383"><ele>1260.0</ele><time>2026-04-12T07:39:54.193Z</time></trkpt><trkpt lat="37.9084467" lon="14.8640283"><ele>1260.0</ele><time>2026-04-12T07:39:57.192Z</time></trkpt><trkpt lat="37.9084617" lon="14.8639467"><ele>1260.0</ele><time>2026-04-12T07:39:59.193Z</time></trkpt><trkpt lat="37.9084983" lon="14.8638733"><ele>1261.6666666666667</ele><time>2026-04-12T07:40:01.193Z</time></trkpt><trkpt lat="37.908575" lon="14.8638067"><ele>1263.3333333333333</ele><time>2026-04-12T07:40:04.194Z</time></trkpt><trkpt lat="37.9086517" lon="14.8637517"><ele>1265.0</ele><time>2026-04-12T07:40:07.194Z</time></trkpt><trkpt lat="37.9087167" lon="14.8637233"><ele>1266.6666666666665</ele><time>2026-04-12T07:40:09.195Z</time></trkpt><trkpt lat="37.9088033" lon="14.86369"><ele>1268.3333333333333</ele><time>2026-04-12T07:40:12.192Z</time></trkpt><trkpt lat="37.9088667" lon="14.8636467"><ele>1270.0</ele><time>2026-04-12T07:40:15.193Z</time></trkpt><trkpt lat="37.90893" lon="14.8636317"><ele>1270.0</ele><time>2026-04-12T07:40:18.193Z</time></trkpt><trkpt lat="37.90901" lon="14.863605"><ele>1270.0</ele><time>2026-04-12T07:40:22.194Z</time></trkpt><trkpt lat="37.9090867" lon="14.8635683"><ele>1270.0</ele><time>2026-04-12T07:40:26.194Z</time></trkpt></trkseg><trkseg><trkpt lat="37.9103817" lon="14.8621333"><ele>1299.0</ele><time>2026-04-12T07:52:45.192Z</time></trkpt><trkpt lat="37.9104" lon="14.862055"><ele>1299.0</ele><time>2026-04-12T07:52:47.192Z</time></trkpt><trkpt lat="37.9104383" lon="14.8619567"><ele>1299.0</ele><time>2026-04-12T07:52:50.192Z</time></trkpt><trkpt lat="37.9104583" lon="14.8618417"><ele>1299.0</ele><time>2026-04-12T07:52:53.193Z</time></trkpt><trkpt lat="37.9104833" lon="14.86176"><ele>1299.0</ele><time>2026-04-12T07:52:55.195Z</time></trkpt><trkpt lat="37.910515" lon="14.8616767"><ele>1299.0</ele><time>2026-04-12T07:52:57.194Z</time></trkpt><trkpt lat="37.9105533" lon="14.8616017"><ele>1296.7142857142858</ele><time>2026-04-12T07:52:59.192Z</time></trkpt><trkpt lat="37.9105933" lon="14.8615017"><ele>1294.4285714285716</ele><time>2026-04-12T07:53:02.192Z</time></trkpt><trkpt lat="37.91063" lon="14.861435"><ele>1292.1428571428573</ele><time>2026-04-12T07:53:04.193Z</time></trkpt><trkpt lat="37.91067" lon="14.861365"><ele>1289.857142857143</ele><time>2026-04-12T07:53:06.193Z</time></trkpt><trkpt lat="37.91071" lon="14.8613017"><ele>1287.5714285714284</ele><time>2026-04-12T07:53:08.192Z</time></trkpt><trkpt lat="37.9107733" lon="14.8612117"><ele>1285.2857142857144</ele><time>2026-04-12T07:53:11.192Z</time></trkpt><trkpt lat="37.9108167" lon="14.8611467"><ele>1283.0</ele><time>2026-04-12T07:53:13.192Z</time></trkpt><trkpt lat="37.910855" lon="14.8610767"><ele>1283.0</ele><time>2026-04-12T07:53:15.193Z</time></trkpt><trkpt lat="37.9109017" lon="14.8610133"><ele>1283.0</ele><time>2026-04-12T07:53:17.193Z</time></trkpt><trkpt lat="37.91095" lon="14.8609533"><ele>1283.0</ele><time>2026-04-12T07:53:19.193Z</time></trkpt><trkpt lat="37.91099" lon="14.8608783"><ele>1283.0</ele><time>2026-04-12T07:53:21.192Z</time></trkpt><trkpt lat="37.9110317" lon="14.8608033"><ele>1283.0</ele><time>2026-04-12T07:53:23.192Z</time></trkpt><trkpt lat="37.911075" lon="14.8607317"><ele>1283.0</ele><time>2026-04-12T07:53:25.193Z</time></trkpt><trkpt lat="37.9111183" lon="14.860665"><ele>1283.0</ele><time>2026-04-12T07:53:27.191Z</time></trkpt><trkpt lat="37.911155" lon="14.8605817"><ele>1283.142857142857</ele><time>2026-04-12T07:53:29.193Z</time></trkpt><trkpt lat="37.9111917" lon="14.8604967"><ele>1283.2857142857142</ele><time>2026-04-12T07:53:31.192Z</time></trkpt><trkpt lat="37.911235" lon="14.86042"><ele>1283.4285714285713</ele><time>2026-04-12T07:53:33.191Z</time></trkpt><trkpt lat="37.9112783" lon="14.860345"><ele>1283.5714285714284</ele><time>2026-04-12T07:53:35.193Z</time></trkpt><trkpt lat="37.9113233" lon="14.8602667"><ele>1283.7142857142858</ele><time>2026-04-12T07:53:37.191Z</time></trkpt><trkpt lat="37.9113617" lon="14.8601783"><ele>1283.8571428571427</ele><time>2026-04-12T07:53:39.192Z</time></trkpt><trkpt lat="37.9114033" lon="14.86011"><ele>1284.0</ele><time>2026-04-12T07:53:41.192Z</time></trkpt><trkpt lat="37.9114433" lon="14.8600333"><ele>1284.0</ele><time>2026-04-12T07:53:43.191Z</time></trkpt><trkpt lat="37.9114867" lon="14.8599567"><ele>1284.0</ele><time>2026-04-12T07:53:45.193Z</time></trkpt><trkpt lat="37.9115317" lon="14.8598767"><ele>1284.0</ele><time>2026-04-12T07:53:47.194Z</time></trkpt><trkpt lat="37.9115817" lon="14.8598"><ele>1284.0</ele><time>2026-04-12T07:53:49.194Z</time></trkpt><trkpt lat="37.91163" lon="14.859725"><ele>1284.0</ele><time>2026-04-12T07:53:51.192Z</time></trkpt><trkpt lat="37.9116833" lon="14.8596583"><ele>1284.0</ele><time>2026-04-12T07:53:53.194Z</time></trkpt><trkpt lat="37.9117367" lon="14.8596"><ele>1284.6666666666667</ele><time>2026-04-12T07:53:55.192Z</time></trkpt><trkpt lat="37.9117883" lon="14.85954"><ele>1285.3333333333333</ele><time>2026-04-12T07:53:57.193Z</time></trkpt><trkpt lat="37.911845" lon="14.859475"><ele>1286.0</ele><time>2026-04-12T07:53:59.192Z</time></trkpt><trkpt lat="37.9119033" lon="14.859415"><ele>1286.6666666666665</ele><time>2026-04-12T07:54:01.193Z</time></trkpt><trkpt lat="37.91195" lon="14.85935"><ele>1287.3333333333333</ele><time>2026-04-12T07:54:03.193Z</time></trkpt><trkpt lat="37.9120133" lon="14.8592717"><ele>1288.0</ele><time>2026-04-12T07:54:06.192Z</time></trkpt><trkpt lat="37.9120867" lon="14.8592033"><ele>1288.0</ele><time>2026-04-12T07:54:09.193Z</time></trkpt><trkpt lat="37.9121483" lon="14.859135"><ele>1288.0</ele><time>2026-04-12T07:54:12.192Z</time></trkpt><trkpt lat="37.9122133" lon="14.85906"><ele>1288.0</ele><time>2026-04-12T07:54:15.193Z</time></trkpt><trkpt lat="37.9122883" lon="14.8589917"><ele>1288.0</ele><time>2026-04-12T07:54:18.192Z</time></trkpt><trkpt lat="37.91236" lon="14.8589333"><ele>1288.0</ele><time>2026-04-12T07:54:21.193Z</time></trkpt><trkpt lat="37.9124367" lon="14.8588667"><ele>1288.0</ele><time>2026-04-12T07:54:24.193Z</time></trkpt><trkpt lat="37.9124883" lon="14.858815"><ele>1288.0</ele><time>2026-04-12T07:54:26.192Z</time></trkpt><trkpt lat="37.9125667" lon="14.8587567"><ele>1288.0</ele><time>2026-04-12T07:54:29.193Z</time></trkpt><trkpt lat="37.91264" lon="14.8586917"><ele>1288.0</ele><time>2026-04-12T07:54:32.196Z</time></trkpt><trkpt lat="37.9126833" lon="14.8586233"><ele>1288.0</ele><time>2026-04-12T07:54:34.193Z</time></trkpt><trkpt lat="37.9127367" lon="14.8585317"><ele>1288.0</ele><time>2026-04-12T07:54:37.194Z</time></trkpt><trkpt lat="37.9127667" lon="14.8584367"><ele>1288.0</ele><time>2026-04-12T07:54:40.196Z</time></trkpt><trkpt lat="37.9127917" lon="14.8583367"><ele>1290.0</ele><time>2026-04-12T07:54:43.194Z</time></trkpt><trkpt lat="37.912815" lon="14.8582233"><ele>1292.0</ele><time>2026-04-12T07:54:46.193Z</time></trkpt><trkpt lat="37.9128383" lon="14.8581433"><ele>1294.0</ele><time>2026-04-12T07:54:48.192Z</time></trkpt><trkpt lat="37.9128667" lon="14.85805"><ele>1296.0</ele><time>2026-04-12T07:54:50.192Z</time></trkpt><trkpt lat="37.9129033" lon="14.8579817"><ele>1298.0</ele><time>2026-04-12T07:54:52.193Z</time></trkpt><trkpt lat="37.9129483" lon="14.8579067"><ele>1300.0</ele><time>2026-04-12T07:54:54.193Z</time></trkpt><trkpt lat="37.912995" lon="14.85783"><ele>1300.0</ele><time>2026-04-12T07:54:56.194Z</time></trkpt><trkpt lat="37.9130383" lon="14.8577667"><ele>1300.0</ele><time>2026-04-12T07:54:58.193Z</time></trkpt><trkpt lat="37.9130783" lon="14.8577017"><ele>1300.0</ele><time>2026-04-12T07:55:00.192Z</time></trkpt><trkpt lat="37.9131133" lon="14.8576333"><ele>1300.0</ele><time>2026-04-12T07:55:02.193Z</time></trkpt><trkpt lat="37.9131517" lon="14.8575633"><ele>1300.0</ele><time>2026-04-12T07:55:04.195Z</time></trkpt><trkpt lat="37.91319" lon="14.857495"><ele>1300.0</ele><time>2026-04-12T07:55:06.194Z</time></trkpt><trkpt lat="37.9132317" lon="14.8574283"><ele>1300.0</ele><time>2026-04-12T07:55:08.193Z</time></trkpt><trkpt lat="37.9132667" lon="14.857355"><ele>1299.142857142857</ele><time>2026-04-12T07:55:10.193Z</time></trkpt><trkpt lat="37.913305" lon="14.8572883"><ele>1298.2857142857144</ele><time>2026-04-12T07:55:12.193Z</time></trkpt><trkpt lat="37.9133433" lon="14.857215"><ele>1297.4285714285716</ele><time>2026-04-12T07:55:14.194Z</time></trkpt><trkpt lat="37.9133917" lon="14.8571533"><ele>1296.5714285714284</ele><time>2026-04-12T07:55:16.193Z</time></trkpt><trkpt lat="37.91345" lon="14.8571117"><ele>1295.7142857142858</ele><time>2026-04-12T07:55:18.193Z</time></trkpt><trkpt lat="37.9135167" lon="14.857085"><ele>1294.857142857143</ele><time>2026-04-12T07:55:20.194Z</time></trkpt><trkpt lat="37.9135867" lon="14.8570617"><ele>1294.0</ele><time>2026-04-12T07:55:22.192Z</time></trkpt><trkpt lat="37.9136567" lon="14.8570417"><ele>1295.7142857142858</ele><time>2026-04-12T07:55:24.193Z</time></trkpt><trkpt lat="37.9137267" lon="14.857025"><ele>1297.4285714285716</ele><time>2026-04-12T07:55:26.193Z</time></trkpt><trkpt lat="37.9137917" lon="14.857025"><ele>1299.1428571428573</ele><time>2026-04-12T07:55:28.192Z</time></trkpt><trkpt lat="37.913855" lon="14.8570333"><ele>1300.857142857143</ele><time>2026-04-12T07:55:30.192Z</time></trkpt><trkpt lat="37.9139183" lon="14.857045"><ele>1302.5714285714287</ele><time>2026-04-12T07:55:32.193Z</time></trkpt><trkpt lat="37.9139817" lon="14.8570467"><ele>1304.2857142857144</ele><time>2026-04-12T07:55:34.194Z</time></trkpt><trkpt lat="37.9140417" lon="14.8570767"><ele>1306.0</ele><time>2026-04-12T07:55:36.193Z</time></trkpt><trkpt lat="37.9141167" lon="14.857135"><ele>1306.0</ele><time>2026-04-12T07:55:39.192Z</time></trkpt><trkpt lat="37.914195" lon="14.85715"><ele>1306.0</ele><time>2026-04-12T07:55:42.193Z</time></trkpt><trkpt lat="37.9142733" lon="14.8571883"><ele>1306.0</ele><time>2026-04-12T07:55:45.194Z</time></trkpt><trkpt lat="37.91436" lon="14.857225"><ele>1306.0</ele><time>2026-04-12T07:55:48.193Z</time></trkpt><trkpt lat="37.9144467" lon="14.85724"><ele>1306.0</ele><time>2026-04-12T07:55:51.193Z</time></trkpt><trkpt lat="37.9145333" lon="14.85724"><ele>1306.0</ele><time>2026-04-12T07:55:54.193Z</time></trkpt><trkpt lat="37.9146167" lon="14.8572283"><ele>1307.6666666666665</ele><time>2026-04-12T07:55:57.193Z</time></trkpt><trkpt lat="37.9147033" lon="14.8571983"><ele>1309.3333333333333</ele><time>2026-04-12T07:56:00.194Z</time></trkpt><trkpt lat="37.9147917" lon="14.8571667"><ele>1311.0</ele><time>2026-04-12T07:56:03.194Z</time></trkpt><trkpt lat="37.9148767" lon="14.8571483"><ele>1312.6666666666667</ele><time>2026-04-12T07:56:06.192Z</time></trkpt><trkpt lat="37.914965" lon="14.857125"><ele>1314.3333333333335</ele><time>2026-04-12T07:56:09.193Z</time></trkpt><trkpt lat="37.91505" lon="14.8571"><ele>1316.0</ele><time>2026-04-12T07:56:12.192Z</time></trkpt><trkpt lat="37.9151383" lon="14.8570883"><ele>1318.0</ele><time>2026-04-12T07:56:15.193Z</time></trkpt><trkpt lat="37.915225" lon="14.8570717"><ele>1320.0</ele><time>2026-04-12T07:56:18.192Z</time></trkpt><trkpt lat="37.9153133" lon="14.857055"><ele>1322.0</ele><time>2026-04-12T07:56:21.193Z</time></trkpt><trkpt lat="37.9153967" lon="14.8570417"><ele>1324.0</ele><time>2026-04-12T07:56:24.193Z</time></trkpt><trkpt lat="37.915485" lon="14.8570233"><ele>1326.0</ele><time>2026-04-12T07:56:27.193Z</time></trkpt><trkpt lat="37.9155667" lon="14.8569983"><ele>1328.0</ele><time>2026-04-12T07:56:30.193Z</time></trkpt><trkpt lat="37.9156517" lon="14.8569767"><ele>1328.0</ele><time>2026-04-12T07:56:33.192Z</time></trkpt><trkpt lat="37.9157133" lon="14.85696"><ele>1328.0</ele><time>2026-04-12T07:56:35.193Z</time></trkpt><trkpt lat="37.915795" lon="14.856925"><ele>1328.0</ele><time>2026-04-12T07:56:38.192Z</time></trkpt><trkpt lat="37.915875" lon="14.856885"><ele>1328.0</ele><time>2026-04-12T07:56:41.198Z</time></trkpt><trkpt lat="37.9159467" lon="14.8568733"><ele>1328.0</ele><time>2026-04-12T07:56:44.193Z</time></trkpt><trkpt lat="37.9160317" lon="14.8568433"><ele>1328.0</ele><time>2026-04-12T07:56:47.192Z</time></trkpt><trkpt lat="37.916115" lon="14.85682"><ele>1329.6666666666667</ele><time>2026-04-12T07:56:50.194Z</time></trkpt><trkpt lat="37.9162017" lon="14.856805"><ele>1331.3333333333335</ele><time>2026-04-12T07:56:53.194Z</time></trkpt><trkpt lat="37.9162767" lon="14.8567833"><ele>1333.0</ele><time>2026-04-12T07:56:56.193Z</time></trkpt><trkpt lat="37.9163583" lon="14.8567567"><ele>1334.6666666666667</ele><time>2026-04-12T07:56:59.192Z</time></trkpt><trkpt lat="37.9164233" lon="14.8567433"><ele>1336.3333333333333</ele><time>2026-04-12T07:57:01.193Z</time></trkpt><trkpt lat="37.91651" lon="14.8567517"><ele>1338.0</ele><time>2026-04-12T07:57:04.192Z</time></trkpt><trkpt lat="37.9165983" lon="14.856785"><ele>1338.0</ele><time>2026-04-12T07:57:07.193Z</time></trkpt><trkpt lat="37.9166633" lon="14.856815"><ele>1338.0</ele><time>2026-04-12T07:57:09.193Z</time></trkpt><trkpt lat="37.9167467" lon="14.8568517"><ele>1338.0</ele><time>2026-04-12T07:57:12.193Z</time></trkpt><trkpt lat="37.9168167" lon="14.85685"><ele>1338.0</ele><time>2026-04-12T07:57:14.193Z</time></trkpt><trkpt lat="37.9168817" lon="14.8568233"><ele>1338.0</ele><time>2026-04-12T07:57:16.193Z</time></trkpt><trkpt lat="37.9169617" lon="14.856765"><ele>1338.0</ele><time>2026-04-12T07:57:19.193Z</time></trkpt><trkpt lat="37.9170317" lon="14.8566917"><ele>1336.4285714285716</ele><time>2026-04-12T07:57:22.192Z</time></trkpt><trkpt lat="37.917075" lon="14.8566267"><ele>1334.857142857143</ele><time>2026-04-12T07:57:24.192Z</time></trkpt><trkpt lat="37.9171333" lon="14.8565333"><ele>1333.2857142857142</ele><time>2026-04-12T07:57:27.193Z</time></trkpt><trkpt lat="37.9171733" lon="14.856465"><ele>1331.7142857142858</ele><time>2026-04-12T07:57:29.192Z</time></trkpt><trkpt lat="37.917215" lon="14.8564"><ele>1330.142857142857</ele><time>2026-04-12T07:57:31.193Z</time></trkpt><trkpt lat="37.91726" lon="14.8563367"><ele>1328.5714285714287</ele><time>2026-04-12T07:57:33.193Z</time></trkpt><trkpt lat="37.9173" lon="14.85627"><ele>1327.0</ele><time>2026-04-12T07:57:35.193Z</time></trkpt><trkpt lat="37.91735" lon="14.8561683"><ele>1327.0</ele><time>2026-04-12T07:57:38.192Z</time></trkpt><trkpt lat="37.9173867" lon="14.8561033"><ele>1327.0</ele><time>2026-04-12T07:57:40.193Z</time></trkpt><trkpt lat="37.9174467" lon="14.8560317"><ele>1327.0</ele><time>2026-04-12T07:57:43.192Z</time></trkpt><trkpt lat="37.9175133" lon="14.855945"><ele>1327.0</ele><time>2026-04-12T07:57:46.193Z</time></trkpt><trkpt lat="37.9175667" lon="14.8558567"><ele>1327.0</ele><time>2026-04-12T07:57:49.192Z</time></trkpt><trkpt lat="37.9176183" lon="14.8557633"><ele>1327.0</ele><time>2026-04-12T07:57:52.192Z</time></trkpt><trkpt lat="37.9176667" lon="14.8556767"><ele>1327.6666666666665</ele><time>2026-04-12T07:57:55.192Z</time></trkpt><trkpt lat="37.9177183" lon="14.8555817"><ele>1328.3333333333333</ele><time>2026-04-12T07:59:31.193Z</time></trkpt><trkpt lat="37.917765" lon="14.8555233"><ele>1329.0</ele><time>2026-04-12T07:59:35.193Z</time></trkpt><trkpt lat="37.91782" lon="14.8554533"><ele>1329.6666666666667</ele><time>2026-04-12T08:06:28.193Z</time></trkpt><trkpt lat="37.9178617" lon="14.8553767"><ele>1330.3333333333335</ele><time>2026-04-12T08:06:32.191Z</time></trkpt><trkpt lat="37.9179267" lon="14.85531"><ele>1331.0</ele><time>2026-04-12T08:06:36.192Z</time></trkpt><trkpt lat="37.917965" lon="14.855235"><ele>1331.0</ele><time>2026-04-12T08:06:40.191Z</time></trkpt><trkpt lat="37.9180167" lon="14.855175"><ele>1331.0</ele><time>2026-04-12T08:06:44.192Z</time></trkpt><trkpt lat="37.91808" lon="14.8551167"><ele>1331.0</ele><time>2026-04-12T08:06:48.192Z</time></trkpt><trkpt lat="37.9181333" lon="14.8550717"><ele>1331.0</ele><time>2026-04-12T08:06:51.191Z</time></trkpt><trkpt lat="37.9182083" lon="14.8550467"><ele>1331.0</ele><time>2026-04-12T08:06:55.192Z</time></trkpt><trkpt lat="37.9181367" lon="14.8550833"><ele>1331.0</ele><time>2026-04-12T08:07:04.193Z</time></trkpt><trkpt lat="37.9180667" lon="14.8551233"><ele>1331.0</ele><time>2026-04-12T08:07:06.193Z</time></trkpt><trkpt lat="37.9179983" lon="14.8551867"><ele>1331.0</ele><time>2026-04-12T08:07:08.193Z</time></trkpt><trkpt lat="37.917955" lon="14.855245"><ele>1331.0</ele><time>2026-04-12T08:07:10.192Z</time></trkpt><trkpt lat="37.917915" lon="14.8553083"><ele>1331.0</ele><time>2026-04-12T08:07:13.194Z</time></trkpt><trkpt lat="37.9178867" lon="14.8553979"><ele>1331.0</ele><time>2026-04-12T08:11:19.274Z</time></trkpt><trkpt lat="37.9179381" lon="14.8552927"><ele>1331.0</ele><time>2026-04-12T08:11:28.272Z</time></trkpt><trkpt lat="37.9179606" lon="14.8552177"><ele>1331.0</ele><time>2026-04-12T08:11:32.271Z</time></trkpt><trkpt lat="37.9179227" lon="14.8553029"><ele>1331.0</ele><time>2026-04-12T08:11:40.249Z</time></trkpt><trkpt lat="37.9179896" lon="14.855251"><ele>1331.0</ele><time>2026-04-12T08:13:45.28Z</time></trkpt><trkpt lat="37.9180468" lon="14.8551636"><ele>1331.0</ele><time>2026-04-12T08:13:49.339Z</time></trkpt><trkpt lat="37.918111" lon="14.8550887"><ele>1331.0</ele><time>2026-04-12T08:13:53.195Z</time></trkpt><trkpt lat="37.9181772" lon="14.8550566"><ele>1331.0</ele><time>2026-04-12T08:13:57.275Z</time></trkpt><trkpt lat="37.9182543" lon="14.8550365"><ele>1331.0</ele><time>2026-04-12T08:14:01.233Z</time></trkpt><trkpt lat="37.9183334" lon="14.8550216"><ele>1331.0</ele><time>2026-04-12T08:14:04.23Z</time></trkpt><trkpt lat="37.918403" lon="14.8550131"><ele>1332.0</ele><time>2026-04-12T08:14:06.27Z</time></trkpt><trkpt lat="37.9184819" lon="14.8549974"><ele>1333.0</ele><time>2026-04-12T08:14:09.216Z</time></trkpt><trkpt lat="37.9185554" lon="14.854957"><ele>1334.0</ele><time>2026-04-12T08:14:12.267Z</time></trkpt><trkpt lat="37.9186226" lon="14.8548862"><ele>1335.0</ele><time>2026-04-12T08:14:15.267Z</time></trkpt><trkpt lat="37.9186735" lon="14.8548096"><ele>1336.0</ele><time>2026-04-12T08:14:18.09Z</time></trkpt><trkpt lat="37.9187159" lon="14.8547244"><ele>1337.0</ele><time>2026-04-12T08:14:21.264Z</time></trkpt><trkpt lat="37.9187431" lon="14.8546371"><ele>1337.0</ele><time>2026-04-12T08:14:24.263Z</time></trkpt><trkpt lat="37.9188036" lon="14.854564"><ele>1337.0</ele><time>2026-04-12T08:14:27.261Z</time></trkpt><trkpt lat="37.9188549" lon="14.8544842"><ele>1337.0</ele><time>2026-04-12T08:14:30.24Z</time></trkpt><trkpt lat="37.9188985" lon="14.8544041"><ele>1337.0</ele><time>2026-04-12T08:14:33.238Z</time></trkpt><trkpt lat="37.9189275" lon="14.8543011"><ele>1337.0</ele><time>2026-04-12T08:14:36.237Z</time></trkpt><trkpt lat="37.9189421" lon="14.8542167"><ele>1337.0</ele><time>2026-04-12T08:14:39.236Z</time></trkpt><trkpt lat="37.918967" lon="14.8541193"><ele>1336.1666666666667</ele><time>2026-04-12T08:14:43.195Z</time></trkpt><trkpt lat="37.9190104" lon="14.8540209"><ele>1335.3333333333335</ele><time>2026-04-12T08:14:47.24Z</time></trkpt><trkpt lat="37.9190553" lon="14.8539422"><ele>1334.5</ele><time>2026-04-12T08:14:51.176Z</time></trkpt><trkpt lat="37.9190934" lon="14.8538651"><ele>1333.6666666666667</ele><time>2026-04-12T08:14:54.292Z</time></trkpt><trkpt lat="37.9191498" lon="14.8537953"><ele>1332.8333333333333</ele><time>2026-04-12T08:14:58.192Z</time></trkpt><trkpt lat="37.9192189" lon="14.8537441"><ele>1332.0</ele><time>2026-04-12T08:15:02.229Z</time></trkpt><trkpt lat="37.919269" lon="14.8536844"><ele>1334.0</ele><time>2026-04-12T08:15:06.229Z</time></trkpt><trkpt lat="37.9193434" lon="14.8536597"><ele>1336.0</ele><time>2026-04-12T08:15:09.268Z</time></trkpt><trkpt lat="37.9194101" lon="14.8536457"><ele>1338.0</ele><time>2026-04-12T08:15:12.192Z</time></trkpt><trkpt lat="37.9194947" lon="14.8536411"><ele>1340.0</ele><time>2026-04-12T08:15:16.248Z</time></trkpt><trkpt lat="37.9195608" lon="14.853639"><ele>1342.0</ele><time>2026-04-12T08:15:18.208Z</time></trkpt><trkpt lat="37.919634" lon="14.8536144"><ele>1344.0</ele><time>2026-04-12T08:15:20.193Z</time></trkpt><trkpt lat="37.9197085" lon="14.853583"><ele>1344.0</ele><time>2026-04-12T08:15:22.207Z</time></trkpt><trkpt lat="37.9197794" lon="14.853544"><ele>1344.0</ele><time>2026-04-12T08:15:24.246Z</time></trkpt><trkpt lat="37.9198542" lon="14.8535089"><ele>1344.0</ele><time>2026-04-12T08:15:26.285Z</time></trkpt><trkpt lat="37.919939" lon="14.8534815"><ele>1344.0</ele><time>2026-04-12T08:15:28.193Z</time></trkpt><trkpt lat="37.920023" lon="14.853427"><ele>1344.0</ele><time>2026-04-12T08:15:30.164Z</time></trkpt><trkpt lat="37.9201064" lon="14.8533527"><ele>1344.0</ele><time>2026-04-12T08:15:32.284Z</time></trkpt><trkpt lat="37.9201587" lon="14.8532894"><ele>1343.8333333333333</ele><time>2026-04-12T08:15:34.192Z</time></trkpt><trkpt lat="37.9201976" lon="14.8532059"><ele>1343.6666666666667</ele><time>2026-04-12T08:15:36.221Z</time></trkpt><trkpt lat="37.9202206" lon="14.8531268"><ele>1343.5</ele><time>2026-04-12T08:15:38.097Z</time></trkpt><trkpt lat="37.920235" lon="14.8530084"><ele>1343.3333333333335</ele><time>2026-04-12T08:15:40.279Z</time></trkpt><trkpt lat="37.9202519" lon="14.8528946"><ele>1343.1666666666667</ele><time>2026-04-12T08:15:42.192Z</time></trkpt><trkpt lat="37.9202662" lon="14.8527773"><ele>1343.0</ele><time>2026-04-12T08:15:44.194Z</time></trkpt><trkpt lat="37.9202891" lon="14.8526585"><ele>1341.0</ele><time>2026-04-12T08:15:46.192Z</time></trkpt><trkpt lat="37.9203272" lon="14.8525518"><ele>1339.0</ele><time>2026-04-12T08:15:48.193Z</time></trkpt><trkpt lat="37.9203731" lon="14.8524407"><ele>1337.0</ele><time>2026-04-12T08:15:50.196Z</time></trkpt><trkpt lat="37.9204321" lon="14.8523441"><ele>1335.0</ele><time>2026-04-12T08:15:52.194Z</time></trkpt><trkpt lat="37.9204922" lon="14.8522453"><ele>1333.0</ele><time>2026-04-12T08:15:54.195Z</time></trkpt><trkpt lat="37.9205645" lon="14.8521592"><ele>1333.0</ele><time>2026-04-12T08:15:56.195Z</time></trkpt><trkpt lat="37.920658" lon="14.8521121"><ele>1333.0</ele><time>2026-04-12T08:15:58.195Z</time></trkpt><trkpt lat="37.9207696" lon="14.8521005"><ele>1333.0</ele><time>2026-04-12T08:16:00.193Z</time></trkpt><trkpt lat="37.9208826" lon="14.8521001"><ele>1333.0</ele><time>2026-04-12T08:16:02.193Z</time></trkpt><trkpt lat="37.9209996" lon="14.8520666"><ele>1333.0</ele><time>2026-04-12T08:16:04.192Z</time></trkpt><trkpt lat="37.9210575" lon="14.8520333"><ele>1334.1666666666665</ele><time>2026-04-12T08:16:05.195Z</time></trkpt><trkpt lat="37.9211192" lon="14.8519796"><ele>1335.3333333333333</ele><time>2026-04-12T08:16:06.192Z</time></trkpt><trkpt lat="37.9211719" lon="14.8519127"><ele>1336.5</ele><time>2026-04-12T08:16:07.193Z</time></trkpt><trkpt lat="37.9212129" lon="14.8518421"><ele>1337.6666666666667</ele><time>2026-04-12T08:16:08.193Z</time></trkpt><trkpt lat="37.9212387" lon="14.8517624"><ele>1338.8333333333335</ele><time>2026-04-12T08:16:09.193Z</time></trkpt><trkpt lat="37.9212699" lon="14.8515996"><ele>1340.0</ele><time>2026-04-12T08:16:11.192Z</time></trkpt><trkpt lat="37.9212818" lon="14.8515186"><ele>1340.0</ele><time>2026-04-12T08:16:12.192Z</time></trkpt><trkpt lat="37.9212927" lon="14.8514366"><ele>1340.0</ele><time>2026-04-12T08:16:13.193Z</time></trkpt><trkpt lat="37.9213076" lon="14.8513546"><ele>1340.0</ele><time>2026-04-12T08:16:14.193Z</time></trkpt><trkpt lat="37.9213265" lon="14.8512777"><ele>1340.0</ele><time>2026-04-12T08:16:15.192Z</time></trkpt><trkpt lat="37.9213741" lon="14.8511353"><ele>1340.0</ele><time>2026-04-12T08:16:17.192Z</time></trkpt><trkpt lat="37.9214305" lon="14.8510014"><ele>1340.0</ele><time>2026-04-12T08:16:19.194Z</time></trkpt><trkpt lat="37.9214897" lon="14.8508845"><ele>1341.0</ele><time>2026-04-12T08:16:21.193Z</time></trkpt><trkpt lat="37.921548" lon="14.850762"><ele>1342.0</ele><time>2026-04-12T08:16:23.194Z</time></trkpt><trkpt lat="37.921597" lon="14.8506325"><ele>1343.0</ele><time>2026-04-12T08:16:25.193Z</time></trkpt><trkpt lat="37.9216425" lon="14.8505027"><ele>1344.0</ele><time>2026-04-12T08:16:27.194Z</time></trkpt><trkpt lat="37.9216924" lon="14.8503771"><ele>1345.0</ele><time>2026-04-12T08:16:29.192Z</time></trkpt><trkpt lat="37.9217417" lon="14.850255"><ele>1345.0</ele><time>2026-04-12T08:16:31.193Z</time></trkpt><trkpt lat="37.9217933" lon="14.8501467"><ele>1345.0</ele><time>2026-04-12T08:16:33.193Z</time></trkpt><trkpt lat="37.9218517" lon="14.850065"><ele>1345.0</ele><time>2026-04-12T08:16:35.193Z</time></trkpt><trkpt lat="37.92192" lon="14.850015"><ele>1345.0</ele><time>2026-04-12T08:16:37.193Z</time></trkpt><trkpt lat="37.9219933" lon="14.8499717"><ele>1345.0</ele><time>2026-04-12T08:16:39.192Z</time></trkpt><trkpt lat="37.9220667" lon="14.8499667"><ele>1345.0</ele><time>2026-04-12T08:16:41.192Z</time></trkpt><trkpt lat="37.9221517" lon="14.84999"><ele>1343.2</ele><time>2026-04-12T08:16:43.194Z</time></trkpt><trkpt lat="37.922245" lon="14.8500283"><ele>1341.4</ele><time>2026-04-12T08:16:45.193Z</time></trkpt><trkpt lat="37.9223483" lon="14.85006"><ele>1339.6</ele><time>2026-04-12T08:16:47.192Z</time></trkpt><trkpt lat="37.9224583" lon="14.85007"><ele>1337.8</ele><time>2026-04-12T08:16:49.194Z</time></trkpt><trkpt lat="37.9225633" lon="14.85003"><ele>1336.0</ele><time>2026-04-12T08:16:51.192Z</time></trkpt><trkpt lat="37.9226483" lon="14.84996"><ele>1336.0</ele><time>2026-04-12T08:16:53.194Z</time></trkpt><trkpt lat="37.9227067" lon="14.8498583"><ele>1336.0</ele><time>2026-04-12T08:16:55.194Z</time></trkpt><trkpt lat="37.9227317" lon="14.849745"><ele>1336.0</ele><time>2026-04-12T08:16:57.193Z</time></trkpt><trkpt lat="37.92277" lon="14.84963"><ele>1336.0</ele><time>2026-04-12T08:16:59.193Z</time></trkpt><trkpt lat="37.9228283" lon="14.8495283"><ele>1336.0</ele><time>2026-04-12T08:17:01.192Z</time></trkpt><trkpt lat="37.9229083" lon="14.849435"><ele>1336.0</ele><time>2026-04-12T08:17:03.192Z</time></trkpt><trkpt lat="37.9230033" lon="14.8493533"><ele>1336.0</ele><time>2026-04-12T08:17:05.193Z</time></trkpt><trkpt lat="37.9231083" lon="14.8492967"><ele>1336.0</ele><time>2026-04-12T08:17:07.192Z</time></trkpt><trkpt lat="37.9232233" lon="14.8492783"><ele>1336.0</ele><time>2026-04-12T08:17:09.193Z</time></trkpt><trkpt lat="37.9233433" lon="14.849255"><ele>1333.75</ele><time>2026-04-12T08:17:11.193Z</time></trkpt><trkpt lat="37.9234617" lon="14.8492317"><ele>1331.5</ele><time>2026-04-12T08:17:13.193Z</time></trkpt><trkpt lat="37.9235817" lon="14.8491983"><ele>1329.25</ele><time>2026-04-12T08:17:15.192Z</time></trkpt><trkpt lat="37.9236967" lon="14.84917"><ele>1327.0</ele><time>2026-04-12T08:17:17.192Z</time></trkpt><trkpt lat="37.9238" lon="14.8491717"><ele>1327.0</ele><time>2026-04-12T08:17:19.193Z</time></trkpt><trkpt lat="37.9238983" lon="14.8491483"><ele>1327.0</ele><time>2026-04-12T08:17:21.192Z</time></trkpt><trkpt lat="37.9240017" lon="14.8490967"><ele>1327.0</ele><time>2026-04-12T08:17:23.194Z</time></trkpt><trkpt lat="37.9240917" lon="14.8490067"><ele>1327.0</ele><time>2026-04-12T08:17:25.192Z</time></trkpt><trkpt lat="37.924165" lon="14.8488967"><ele>1327.0</ele><time>2026-04-12T08:17:27.194Z</time></trkpt><trkpt lat="37.9242383" lon="14.8487883"><ele>1327.6</ele><time>2026-04-12T08:17:29.194Z</time></trkpt><trkpt lat="37.92432" lon="14.8486683"><ele>1328.1999999999998</ele><time>2026-04-12T08:17:31.192Z</time></trkpt><trkpt lat="37.92435" lon="14.8485917"><ele>1328.8</ele><time>2026-04-12T08:17:32.193Z</time></trkpt><trkpt lat="37.9243733" lon="14.8485167"><ele>1329.4</ele><time>2026-04-12T08:17:33.193Z</time></trkpt><trkpt lat="37.9243667" lon="14.8483717"><ele>1330.0</ele><time>2026-04-12T08:17:35.193Z</time></trkpt><trkpt lat="37.92431" lon="14.8482367"><ele>1330.0</ele><time>2026-04-12T08:17:37.193Z</time></trkpt><trkpt lat="37.9242617" lon="14.8481083"><ele>1330.0</ele><time>2026-04-12T08:17:39.192Z</time></trkpt><trkpt lat="37.9242467" lon="14.8479567"><ele>1330.0</ele><time>2026-04-12T08:17:41.194Z</time></trkpt><trkpt lat="37.9242433" lon="14.8478767"><ele>1330.0</ele><time>2026-04-12T08:17:42.193Z</time></trkpt><trkpt lat="37.9242433" lon="14.8477967"><ele>1330.0</ele><time>2026-04-12T08:17:43.193Z</time></trkpt><trkpt lat="37.9242433" lon="14.8477117"><ele>1330.0</ele><time>2026-04-12T08:17:44.194Z</time></trkpt><trkpt lat="37.924245" lon="14.8476233"><ele>1329.1666666666665</ele><time>2026-04-12T08:17:45.193Z</time></trkpt><trkpt lat="37.9242567" lon="14.84753"><ele>1328.3333333333333</ele><time>2026-04-12T08:17:46.192Z</time></trkpt><trkpt lat="37.9242767" lon="14.84743"><ele>1327.5</ele><time>2026-04-12T08:17:47.194Z</time></trkpt><trkpt lat="37.9243083" lon="14.8473317"><ele>1326.6666666666667</ele><time>2026-04-12T08:17:48.193Z</time></trkpt><trkpt lat="37.924345" lon="14.8472383"><ele>1325.8333333333335</ele><time>2026-04-12T08:17:49.192Z</time></trkpt><trkpt lat="37.9243867" lon="14.8471517"><ele>1325.0</ele><time>2026-04-12T08:17:50.193Z</time></trkpt><trkpt lat="37.9244267" lon="14.8470617"><ele>1325.0</ele><time>2026-04-12T08:17:51.192Z</time></trkpt><trkpt lat="37.9244733" lon="14.8469933"><ele>1325.0</ele><time>2026-04-12T08:17:52.193Z</time></trkpt><trkpt lat="37.9245117" lon="14.8469"><ele>1325.0</ele><time>2026-04-12T08:17:53.193Z</time></trkpt><trkpt lat="37.9245567" lon="14.8468117"><ele>1325.0</ele><time>2026-04-12T08:17:54.193Z</time></trkpt><trkpt lat="37.9246067" lon="14.8467233"><ele>1325.0</ele><time>2026-04-12T08:17:55.194Z</time></trkpt><trkpt lat="37.9246667" lon="14.8466517"><ele>1325.0</ele><time>2026-04-12T08:17:56.193Z</time></trkpt><trkpt lat="37.9247383" lon="14.8465933"><ele>1322.1666666666667</ele><time>2026-04-12T08:17:57.192Z</time></trkpt><trkpt lat="37.9248167" lon="14.84655"><ele>1319.3333333333335</ele><time>2026-04-12T08:17:58.194Z</time></trkpt><trkpt lat="37.9249017" lon="14.8465283"><ele>1316.5</ele><time>2026-04-12T08:17:59.194Z</time></trkpt><trkpt lat="37.9249883" lon="14.84653"><ele>1313.6666666666667</ele><time>2026-04-12T08:18:00.192Z</time></trkpt><trkpt lat="37.92507" lon="14.8465467"><ele>1310.8333333333333</ele><time>2026-04-12T08:18:01.192Z</time></trkpt><trkpt lat="37.925155" lon="14.8465633"><ele>1308.0</ele><time>2026-04-12T08:18:02.194Z</time></trkpt><trkpt lat="37.9252417" lon="14.8465783"><ele>1307.5</ele><time>2026-04-12T08:18:03.192Z</time></trkpt><trkpt lat="37.92533" lon="14.846595"><ele>1307.0</ele><time>2026-04-12T08:18:04.194Z</time></trkpt><trkpt lat="37.9254183" lon="14.84661"><ele>1306.5</ele><time>2026-04-12T08:18:05.193Z</time></trkpt><trkpt lat="37.9255033" lon="14.8466283"><ele>1306.0</ele><time>2026-04-12T08:18:06.192Z</time></trkpt><trkpt lat="37.9255883" lon="14.84665"><ele>1305.5</ele><time>2026-04-12T08:18:07.193Z</time></trkpt><trkpt lat="37.9256767" lon="14.8466783"><ele>1305.0</ele><time>2026-04-12T08:18:08.193Z</time></trkpt><trkpt lat="37.9257583" lon="14.846715"><ele>1305.0</ele><time>2026-04-12T08:18:09.193Z</time></trkpt><trkpt lat="37.92584" lon="14.84675"><ele>1305.0</ele><time>2026-04-12T08:18:10.192Z</time></trkpt><trkpt lat="37.9259267" lon="14.84678"><ele>1305.0</ele><time>2026-04-12T08:18:11.193Z</time></trkpt><trkpt lat="37.926015" lon="14.84681"><ele>1305.0</ele><time>2026-04-12T08:18:12.193Z</time></trkpt><trkpt lat="37.9261017" lon="14.8468383"><ele>1305.0</ele><time>2026-04-12T08:18:13.192Z</time></trkpt><trkpt lat="37.926185" lon="14.84686"><ele>1305.0</ele><time>2026-04-12T08:18:14.193Z</time></trkpt><trkpt lat="37.9262717" lon="14.846865"><ele>1304.6666666666667</ele><time>2026-04-12T08:18:15.192Z</time></trkpt><trkpt lat="37.9263583" lon="14.8468533"><ele>1304.3333333333333</ele><time>2026-04-12T08:18:16.194Z</time></trkpt><trkpt lat="37.9264483" lon="14.84683"><ele>1304.0</ele><time>2026-04-12T08:18:17.192Z</time></trkpt><trkpt lat="37.926535" lon="14.8467967"><ele>1303.6666666666665</ele><time>2026-04-12T08:18:18.192Z</time></trkpt><trkpt lat="37.9266067" lon="14.846755"><ele>1303.3333333333333</ele><time>2026-04-12T08:18:19.193Z</time></trkpt><trkpt lat="37.9266733" lon="14.8467117"><ele>1303.0</ele><time>2026-04-12T08:18:20.193Z</time></trkpt><trkpt lat="37.9267417" lon="14.8466633"><ele>1305.0</ele><time>2026-04-12T08:18:21.193Z</time></trkpt><trkpt lat="37.9268017" lon="14.8466"><ele>1307.0</ele><time>2026-04-12T08:18:22.192Z</time></trkpt><trkpt lat="37.926845" lon="14.8465167"><ele>1309.0</ele><time>2026-04-12T08:18:23.192Z</time></trkpt><trkpt lat="37.9268717" lon="14.8464183"><ele>1311.0</ele><time>2026-04-12T08:18:24.194Z</time></trkpt><trkpt lat="37.9269" lon="14.84632"><ele>1313.0</ele><time>2026-04-12T08:18:25.193Z</time></trkpt><trkpt lat="37.9269283" lon="14.8462233"><ele>1315.0</ele><time>2026-04-12T08:18:26.193Z</time></trkpt><trkpt lat="37.9269583" lon="14.8461167"><ele>1315.0</ele><time>2026-04-12T08:18:27.192Z</time></trkpt><trkpt lat="37.9269883" lon="14.8460083"><ele>1315.0</ele><time>2026-04-12T08:18:28.192Z</time></trkpt><trkpt lat="37.9270183" lon="14.8459"><ele>1315.0</ele><time>2026-04-12T08:18:29.192Z</time></trkpt><trkpt lat="37.92705" lon="14.8457867"><ele>1315.0</ele><time>2026-04-12T08:18:30.193Z</time></trkpt><trkpt lat="37.927085" lon="14.8456833"><ele>1315.0</ele><time>2026-04-12T08:18:31.192Z</time></trkpt><trkpt lat="37.9271133" lon="14.845585"><ele>1315.0</ele><time>2026-04-12T08:18:32.193Z</time></trkpt><trkpt lat="37.927145" lon="14.8455067"><ele>1312.8333333333333</ele><time>2026-04-12T08:18:33.193Z</time></trkpt><trkpt lat="37.9271317" lon="14.84537"><ele>1310.6666666666665</ele><time>2026-04-12T08:18:35.193Z</time></trkpt><trkpt lat="37.9270783" lon="14.8453067"><ele>1308.5</ele><time>2026-04-12T08:18:36.193Z</time></trkpt><trkpt lat="37.92701" lon="14.8452333"><ele>1306.3333333333333</ele><time>2026-04-12T08:18:37.193Z</time></trkpt><trkpt lat="37.92695" lon="14.84517"><ele>1304.1666666666667</ele><time>2026-04-12T08:18:38.192Z</time></trkpt><trkpt lat="37.9269083" lon="14.8451033"><ele>1302.0</ele><time>2026-04-12T08:18:39.194Z</time></trkpt><trkpt lat="37.92688" lon="14.84503"><ele>1299.1666666666667</ele><time>2026-04-12T08:18:40.194Z</time></trkpt><trkpt lat="37.9269017" lon="14.84488"><ele>1296.3333333333333</ele><time>2026-04-12T08:18:42.193Z</time></trkpt><trkpt lat="37.926945" lon="14.8447983"><ele>1293.5</ele><time>2026-04-12T08:18:43.195Z</time></trkpt><trkpt lat="37.9270067" lon="14.8447417"><ele>1290.6666666666665</ele><time>2026-04-12T08:18:44.192Z</time></trkpt><trkpt lat="37.9270833" lon="14.8447133"><ele>1287.8333333333333</ele><time>2026-04-12T08:18:45.194Z</time></trkpt><trkpt lat="37.927175" lon="14.8447117"><ele>1285.0</ele><time>2026-04-12T08:18:46.193Z</time></trkpt><trkpt lat="37.9272633" lon="14.8447167"><ele>1285.0</ele><time>2026-04-12T08:18:47.192Z</time></trkpt><trkpt lat="37.9273433" lon="14.8447283"><ele>1285.0</ele><time>2026-04-12T08:18:48.192Z</time></trkpt><trkpt lat="37.9274133" lon="14.8447417"><ele>1285.0</ele><time>2026-04-12T08:18:49.193Z</time></trkpt><trkpt lat="37.92753" lon="14.844755"><ele>1285.0</ele><time>2026-04-12T08:18:51.194Z</time></trkpt><trkpt lat="37.9276417" lon="14.8447333"><ele>1285.0</ele><time>2026-04-12T08:18:53.193Z</time></trkpt><trkpt lat="37.9277017" lon="14.84469"><ele>1284.1666666666665</ele><time>2026-04-12T08:18:54.193Z</time></trkpt><trkpt lat="37.9277467" lon="14.84463"><ele>1283.3333333333333</ele><time>2026-04-12T08:18:55.192Z</time></trkpt><trkpt lat="37.9277817" lon="14.844555"><ele>1282.5</ele><time>2026-04-12T08:18:56.193Z</time></trkpt><trkpt lat="37.9278133" lon="14.8444817"><ele>1281.6666666666667</ele><time>2026-04-12T08:18:57.193Z</time></trkpt><trkpt lat="37.9278583" lon="14.8443633"><ele>1280.8333333333335</ele><time>2026-04-12T08:18:59.192Z</time></trkpt><trkpt lat="37.9278983" lon="14.844275"><ele>1280.0</ele><time>2026-04-12T08:19:01.193Z</time></trkpt><trkpt lat="37.927935" lon="14.844185"><ele>1280.0</ele><time>2026-04-12T08:19:03.192Z</time></trkpt><trkpt lat="37.9279833" lon="14.8441"><ele>1280.0</ele><time>2026-04-12T08:19:05.194Z</time></trkpt><trkpt lat="37.9280417" lon="14.8440183"><ele>1280.0</ele><time>2026-04-12T08:19:07.193Z</time></trkpt><trkpt lat="37.9281067" lon="14.8439317"><ele>1280.0</ele><time>2026-04-12T08:19:09.191Z</time></trkpt><trkpt lat="37.9281767" lon="14.843845"><ele>1280.0</ele><time>2026-04-12T08:19:11.193Z</time></trkpt><trkpt lat="37.9282033" lon="14.843735"><ele>1280.0</ele><time>2026-04-12T08:19:13.193Z</time></trkpt><trkpt lat="37.9282283" lon="14.8436183"><ele>1280.0</ele><time>2026-04-12T08:19:15.193Z</time></trkpt><trkpt lat="37.9282817" lon="14.8435017"><ele>1280.0</ele><time>2026-04-12T08:19:17.193Z</time></trkpt><trkpt lat="37.9283617" lon="14.8434133"><ele>1280.0</ele><time>2026-04-12T08:19:19.193Z</time></trkpt><trkpt lat="37.9284283" lon="14.8433717"><ele>1280.0</ele><time>2026-04-12T08:19:21.193Z</time></trkpt><trkpt lat="37.9284933" lon="14.8433483"><ele>1279.6666666666667</ele><time>2026-04-12T08:19:23.193Z</time></trkpt><trkpt lat="37.9285583" lon="14.8433483"><ele>1279.3333333333335</ele><time>2026-04-12T08:19:26.193Z</time></trkpt><trkpt lat="37.9286383" lon="14.84334"><ele>1279.0</ele><time>2026-04-12T08:19:30.193Z</time></trkpt><trkpt lat="37.9287117" lon="14.8433417"><ele>1278.6666666666667</ele><time>2026-04-12T08:19:33.194Z</time></trkpt><trkpt lat="37.9287833" lon="14.843375"><ele>1278.3333333333333</ele><time>2026-04-12T08:19:36.192Z</time></trkpt><trkpt lat="37.9288567" lon="14.8434267"><ele>1278.0</ele><time>2026-04-12T08:19:39.192Z</time></trkpt><trkpt lat="37.9289317" lon="14.8434267"><ele>1278.0</ele><time>2026-04-12T08:19:50.193Z</time></trkpt><trkpt lat="37.9290133" lon="14.8433733"><ele>1278.0</ele><time>2026-04-12T08:19:53.193Z</time></trkpt><trkpt lat="37.9290883" lon="14.8433233"><ele>1278.0</ele><time>2026-04-12T08:19:56.194Z</time></trkpt><trkpt lat="37.929165" lon="14.84328"><ele>1278.0</ele><time>2026-04-12T08:19:59.192Z</time></trkpt><trkpt lat="37.9292417" lon="14.8432567"><ele>1278.0</ele><time>2026-04-12T08:20:02.194Z</time></trkpt><trkpt lat="37.9293067" lon="14.843245"><ele>1278.0</ele><time>2026-04-12T08:20:05.193Z</time></trkpt><trkpt lat="37.9293567" lon="14.84319"><ele>1280.2857142857144</ele><time>2026-04-12T08:20:08.194Z</time></trkpt><trkpt lat="37.9294283" lon="14.8431583"><ele>1282.5714285714287</ele><time>2026-04-12T08:20:12.193Z</time></trkpt><trkpt lat="37.9294883" lon="14.8431167"><ele>1284.857142857143</ele><time>2026-04-12T08:20:15.193Z</time></trkpt><trkpt lat="37.9295333" lon="14.8430517"><ele>1287.1428571428573</ele><time>2026-04-12T08:20:18.193Z</time></trkpt><trkpt lat="37.929585" lon="14.842965"><ele>1289.4285714285716</ele><time>2026-04-12T08:20:22.192Z</time></trkpt><trkpt lat="37.929625" lon="14.8428867"><ele>1291.7142857142858</ele><time>2026-04-12T08:20:25.193Z</time></trkpt><trkpt lat="37.9296733" lon="14.8428233"><ele>1294.0</ele><time>2026-04-12T08:20:28.192Z</time></trkpt><trkpt lat="37.929715" lon="14.84274"><ele>1294.0</ele><time>2026-04-12T08:20:31.192Z</time></trkpt><trkpt lat="37.9297533" lon="14.8426533"><ele>1294.0</ele><time>2026-04-12T08:20:34.193Z</time></trkpt><trkpt lat="37.92979" lon="14.8425667"><ele>1294.0</ele><time>2026-04-12T08:20:37.193Z</time></trkpt><trkpt lat="37.9298017" lon="14.8424767"><ele>1294.0</ele><time>2026-04-12T08:20:41.192Z</time></trkpt><trkpt lat="37.9297967" lon="14.8423883"><ele>1294.0</ele><time>2026-04-12T08:20:45.192Z</time></trkpt><trkpt lat="37.9297883" lon="14.84229"><ele>1294.0</ele><time>2026-04-12T08:21:28.192Z</time></trkpt><trkpt lat="37.9298083" lon="14.84221"><ele>1294.0</ele><time>2026-04-12T08:21:31.193Z</time></trkpt><trkpt lat="37.92982" lon="14.8421117"><ele>1292.8333333333333</ele><time>2026-04-12T08:21:34.193Z</time></trkpt><trkpt lat="37.9298217" lon="14.8420133"><ele>1291.6666666666665</ele><time>2026-04-12T08:21:37.192Z</time></trkpt><trkpt lat="37.9298217" lon="14.8419083"><ele>1290.5</ele><time>2026-04-12T08:21:40.192Z</time></trkpt><trkpt lat="37.9298233" lon="14.841815"><ele>1289.3333333333333</ele><time>2026-04-12T08:21:43.193Z</time></trkpt><trkpt lat="37.9298133" lon="14.841725"><ele>1288.1666666666667</ele><time>2026-04-12T08:21:46.192Z</time></trkpt><trkpt lat="37.9297917" lon="14.8416283"><ele>1287.0</ele><time>2026-04-12T08:21:49.192Z</time></trkpt><trkpt lat="37.9297767" lon="14.8415333"><ele>1286.7142857142858</ele><time>2026-04-12T08:21:52.193Z</time></trkpt><trkpt lat="37.9297817" lon="14.8414433"><ele>1286.4285714285716</ele><time>2026-04-12T08:21:55.193Z</time></trkpt><trkpt lat="37.9298317" lon="14.841365"><ele>1286.1428571428573</ele><time>2026-04-12T08:21:58.193Z</time></trkpt><trkpt lat="37.9299017" lon="14.841335"><ele>1285.857142857143</ele><time>2026-04-12T08:22:01.191Z</time></trkpt><trkpt lat="37.929975" lon="14.84132"><ele>1285.5714285714287</ele><time>2026-04-12T08:22:04.192Z</time></trkpt><trkpt lat="37.93005" lon="14.8412883"><ele>1285.2857142857144</ele><time>2026-04-12T08:22:07.193Z</time></trkpt><trkpt lat="37.93011" lon="14.8412567"><ele>1285.0</ele><time>2026-04-12T08:22:10.194Z</time></trkpt><trkpt lat="37.93017" lon="14.84122"><ele>1287.5</ele><time>2026-04-12T08:22:13.192Z</time></trkpt><trkpt lat="37.9302333" lon="14.841155"><ele>1290.0</ele><time>2026-04-12T08:22:17.192Z</time></trkpt><trkpt lat="37.9302983" lon="14.8411183"><ele>1292.5</ele><time>2026-04-12T08:22:20.193Z</time></trkpt><trkpt lat="37.9303733" lon="14.8411433"><ele>1295.0</ele><time>2026-04-12T08:22:23.193Z</time></trkpt><trkpt lat="37.9304183" lon="14.8412217"><ele>1297.5</ele><time>2026-04-12T08:22:26.192Z</time></trkpt><trkpt lat="37.93041" lon="14.8413167"><ele>1300.0</ele><time>2026-04-12T08:22:29.192Z</time></trkpt><trkpt lat="37.9303767" lon="14.8413983"><ele>1300.0</ele><time>2026-04-12T08:22:32.193Z</time></trkpt><trkpt lat="37.9303567" lon="14.8414817"><ele>1300.0</ele><time>2026-04-12T08:22:35.195Z</time></trkpt><trkpt lat="37.9303517" lon="14.8415717"><ele>1300.0</ele><time>2026-04-12T08:22:38.193Z</time></trkpt><trkpt lat="37.9303633" lon="14.8416583"><ele>1300.0</ele><time>2026-04-12T08:22:41.193Z</time></trkpt><trkpt lat="37.9304067" lon="14.8417183"><ele>1300.0</ele><time>2026-04-12T08:22:44.192Z</time></trkpt><trkpt lat="37.93048" lon="14.8417467"><ele>1300.0</ele><time>2026-04-12T08:22:47.192Z</time></trkpt><trkpt lat="37.93055" lon="14.8417067"><ele>1300.0</ele><time>2026-04-12T08:22:50.192Z</time></trkpt><trkpt lat="37.9306017" lon="14.8416517"><ele>1300.0</ele><time>2026-04-12T08:22:53.193Z</time></trkpt><trkpt lat="37.9306517" lon="14.8415717"><ele>1300.0</ele><time>2026-04-12T08:22:57.192Z</time></trkpt><trkpt lat="37.9307033" lon="14.84152"><ele>1300.0</ele><time>2026-04-12T08:23:00.193Z</time></trkpt><trkpt lat="37.9307567" lon="14.8414533"><ele>1300.0</ele><time>2026-04-12T08:23:03.192Z</time></trkpt><trkpt lat="37.930815" lon="14.8414183"><ele>1300.0</ele><time>2026-04-12T08:23:06.192Z</time></trkpt><trkpt lat="37.9308717" lon="14.8413783"><ele>1300.0</ele><time>2026-04-12T08:23:09.193Z</time></trkpt><trkpt lat="37.93095" lon="14.8413733"><ele>1300.0</ele><time>2026-04-12T08:23:12.193Z</time></trkpt><trkpt lat="37.9310333" lon="14.84137"><ele>1301.7142857142856</ele><time>2026-04-12T08:23:15.191Z</time></trkpt><trkpt lat="37.9311117" lon="14.8413717"><ele>1303.4285714285716</ele><time>2026-04-12T08:23:18.192Z</time></trkpt><trkpt lat="37.9311883" lon="14.8413667"><ele>1305.142857142857</ele><time>2026-04-12T08:23:21.192Z</time></trkpt><trkpt lat="37.931255" lon="14.8413633"><ele>1306.8571428571427</ele><time>2026-04-12T08:23:24.193Z</time></trkpt><trkpt lat="37.9313217" lon="14.8413617"><ele>1308.5714285714284</ele><time>2026-04-12T08:23:27.191Z</time></trkpt><trkpt lat="37.9313967" lon="14.8413533"><ele>1310.2857142857142</ele><time>2026-04-12T08:23:31.193Z</time></trkpt><trkpt lat="37.931475" lon="14.8413633"><ele>1312.0</ele><time>2026-04-12T08:23:35.192Z</time></trkpt><trkpt lat="37.93154" lon="14.8413717"><ele>1311.9999999999998</ele><time>2026-04-12T08:23:38.192Z</time></trkpt><trkpt lat="37.9316067" lon="14.8413283"><ele>1312.0</ele><time>2026-04-12T08:23:52.193Z</time></trkpt><trkpt lat="37.9316767" lon="14.84134"><ele>1312.0</ele><time>2026-04-12T08:23:55.193Z</time></trkpt><trkpt lat="37.9317467" lon="14.84135"><ele>1312.0</ele><time>2026-04-12T08:23:58.192Z</time></trkpt><trkpt lat="37.93182" lon="14.841345"><ele>1312.0</ele><time>2026-04-12T08:24:01.192Z</time></trkpt><trkpt lat="37.9318833" lon="14.841315"><ele>1311.9999999999998</ele><time>2026-04-12T08:24:03.192Z</time></trkpt><trkpt lat="37.9319267" lon="14.841255"><ele>1312.0</ele><time>2026-04-12T08:24:05.193Z</time></trkpt><trkpt lat="37.93195" lon="14.841155"><ele>1313.142857142857</ele><time>2026-04-12T08:24:08.192Z</time></trkpt><trkpt lat="37.9319733" lon="14.8410717"><ele>1314.2857142857142</ele><time>2026-04-12T08:24:11.192Z</time></trkpt><trkpt lat="37.9320317" lon="14.8410117"><ele>1315.4285714285716</ele><time>2026-04-12T08:24:14.194Z</time></trkpt><trkpt lat="37.932105" lon="14.8410067"><ele>1316.5714285714284</ele><time>2026-04-12T08:24:17.194Z</time></trkpt><trkpt lat="37.9321817" lon="14.8410367"><ele>1317.7142857142858</ele><time>2026-04-12T08:24:20.192Z</time></trkpt><trkpt lat="37.9322367" lon="14.8410933"><ele>1318.857142857143</ele><time>2026-04-12T08:24:23.193Z</time></trkpt><trkpt lat="37.9323017" lon="14.8411267"><ele>1320.0</ele><time>2026-04-12T08:24:26.192Z</time></trkpt><trkpt lat="37.932365" lon="14.8411633"><ele>1320.0000000000002</ele><time>2026-04-12T08:24:29.192Z</time></trkpt><trkpt lat="37.9324233" lon="14.8411967"><ele>1320.0</ele><time>2026-04-12T08:24:32.193Z</time></trkpt><trkpt lat="37.9324883" lon="14.8412233"><ele>1320.0</ele><time>2026-04-12T08:24:35.192Z</time></trkpt><trkpt lat="37.9325517" lon="14.8412383"><ele>1320.0</ele><time>2026-04-12T08:24:38.193Z</time></trkpt><trkpt lat="37.9326267" lon="14.84125"><ele>1320.0</ele><time>2026-04-12T08:24:41.193Z</time></trkpt><trkpt lat="37.932695" lon="14.8412617"><ele>1320.0000000000002</ele><time>2026-04-12T08:24:44.193Z</time></trkpt><trkpt lat="37.932765" lon="14.841315"><ele>1320.0</ele><time>2026-04-12T08:24:48.193Z</time></trkpt><trkpt lat="37.93279" lon="14.8413917"><ele>1321.3333333333333</ele><time>2026-04-12T08:24:51.192Z</time></trkpt><trkpt lat="37.93276" lon="14.8414933"><ele>1322.6666666666667</ele><time>2026-04-12T08:24:55.193Z</time></trkpt><trkpt lat="37.932725" lon="14.8415833"><ele>1324.0</ele><time>2026-04-12T08:24:58.193Z</time></trkpt><trkpt lat="37.9326933" lon="14.84168"><ele>1325.3333333333335</ele><time>2026-04-12T08:25:01.193Z</time></trkpt><trkpt lat="37.93266" lon="14.8417817"><ele>1326.6666666666667</ele><time>2026-04-12T08:25:04.193Z</time></trkpt><trkpt lat="37.93263" lon="14.8418733"><ele>1328.0</ele><time>2026-04-12T08:25:07.192Z</time></trkpt><trkpt lat="37.9325967" lon="14.8419683"><ele>1328.2857142857142</ele><time>2026-04-12T08:25:10.192Z</time></trkpt><trkpt lat="37.9325683" lon="14.84206"><ele>1328.5714285714287</ele><time>2026-04-12T08:25:13.193Z</time></trkpt><trkpt lat="37.9325517" lon="14.8421517"><ele>1328.857142857143</ele><time>2026-04-12T08:25:16.193Z</time></trkpt><trkpt lat="37.932555" lon="14.84224"><ele>1329.142857142857</ele><time>2026-04-12T08:25:19.192Z</time></trkpt><trkpt lat="37.9325867" lon="14.84233"><ele>1329.4285714285716</ele><time>2026-04-12T08:25:23.194Z</time></trkpt><trkpt lat="37.9326433" lon="14.8423667"><ele>1329.7142857142858</ele><time>2026-04-12T08:25:26.192Z</time></trkpt><trkpt lat="37.9327117" lon="14.8423517"><ele>1330.0</ele><time>2026-04-12T08:25:29.193Z</time></trkpt><trkpt lat="37.93277" lon="14.8422883"><ele>1331.857142857143</ele><time>2026-04-12T08:25:32.193Z</time></trkpt><trkpt lat="37.932825" lon="14.84224"><ele>1333.7142857142858</ele><time>2026-04-12T08:25:35.192Z</time></trkpt><trkpt lat="37.9328867" lon="14.8421967"><ele>1335.5714285714284</ele><time>2026-04-12T08:25:38.192Z</time></trkpt><trkpt lat="37.9329517" lon="14.8421583"><ele>1337.4285714285716</ele><time>2026-04-12T08:25:41.193Z</time></trkpt><trkpt lat="37.93301" lon="14.8421117"><ele>1339.2857142857142</ele><time>2026-04-12T08:25:44.192Z</time></trkpt><trkpt lat="37.9330767" lon="14.8420733"><ele>1341.142857142857</ele><time>2026-04-12T08:25:47.192Z</time></trkpt><trkpt lat="37.9331417" lon="14.8420283"><ele>1343.0</ele><time>2026-04-12T08:25:51.192Z</time></trkpt><trkpt lat="37.93322" lon="14.8419883"><ele>1343.0</ele><time>2026-04-12T08:25:55.192Z</time></trkpt><trkpt lat="37.9332917" lon="14.8419433"><ele>1343.0</ele><time>2026-04-12T08:25:59.192Z</time></trkpt><trkpt lat="37.9333733" lon="14.8419183"><ele>1343.0</ele><time>2026-04-12T08:26:03.192Z</time></trkpt><trkpt lat="37.9334367" lon="14.84192"><ele>1343.0</ele><time>2026-04-12T08:26:06.193Z</time></trkpt><trkpt lat="37.933505" lon="14.8419417"><ele>1343.0</ele><time>2026-04-12T08:26:09.193Z</time></trkpt><trkpt lat="37.9335733" lon="14.8419967"><ele>1343.0</ele><time>2026-04-12T08:26:13.194Z</time></trkpt><trkpt lat="37.9336217" lon="14.8420483"><ele>1343.0</ele><time>2026-04-12T08:26:16.192Z</time></trkpt><trkpt lat="37.9336783" lon="14.8421033"><ele>1344.0</ele><time>2026-04-12T08:26:19.191Z</time></trkpt><trkpt lat="37.9337283" lon="14.842165"><ele>1345.0</ele><time>2026-04-12T08:26:22.192Z</time></trkpt><trkpt lat="37.9337983" lon="14.8421733"><ele>1346.0</ele><time>2026-04-12T08:26:25.192Z</time></trkpt><trkpt lat="37.9338683" lon="14.8421283"><ele>1347.0</ele><time>2026-04-12T08:26:29.192Z</time></trkpt><trkpt lat="37.933945" lon="14.8421033"><ele>1348.0</ele><time>2026-04-12T08:26:33.193Z</time></trkpt><trkpt lat="37.9340083" lon="14.8420917"><ele>1349.0</ele><time>2026-04-12T08:26:36.192Z</time></trkpt><trkpt lat="37.934085" lon="14.8420867"><ele>1350.0</ele><time>2026-04-12T08:26:40.192Z</time></trkpt><trkpt lat="37.9341667" lon="14.8421183"><ele>1350.0</ele><time>2026-04-12T08:26:44.191Z</time></trkpt><trkpt lat="37.93422" lon="14.8421933"><ele>1350.0</ele><time>2026-04-12T08:26:48.192Z</time></trkpt><trkpt lat="37.9342883" lon="14.8422567"><ele>1350.0</ele><time>2026-04-12T08:26:52.191Z</time></trkpt><trkpt lat="37.9343483" lon="14.8422883"><ele>1350.0</ele><time>2026-04-12T08:26:55.191Z</time></trkpt><trkpt lat="37.9344167" lon="14.8422933"><ele>1350.0</ele><time>2026-04-12T08:26:59.193Z</time></trkpt><trkpt lat="37.9344833" lon="14.8422633"><ele>1350.0</ele><time>2026-04-12T08:27:04.192Z</time></trkpt><trkpt lat="37.9345033" lon="14.8421767"><ele>1350.0</ele><time>2026-04-12T08:27:08.193Z</time></trkpt><trkpt lat="37.9345033" lon="14.8420867"><ele>1350.857142857143</ele><time>2026-04-12T08:27:11.191Z</time></trkpt><trkpt lat="37.9345183" lon="14.8420017"><ele>1351.7142857142858</ele><time>2026-04-12T08:27:14.192Z</time></trkpt><trkpt lat="37.9345417" lon="14.84191"><ele>1352.5714285714284</ele><time>2026-04-12T08:27:17.193Z</time></trkpt><trkpt lat="37.9345733" lon="14.8418333"><ele>1353.4285714285716</ele><time>2026-04-12T08:27:20.193Z</time></trkpt><trkpt lat="37.93462" lon="14.8417767"><ele>1354.2857142857144</ele><time>2026-04-12T08:27:23.191Z</time></trkpt><trkpt lat="37.934685" lon="14.8417517"><ele>1355.142857142857</ele><time>2026-04-12T08:27:26.193Z</time></trkpt><trkpt lat="37.9347583" lon="14.8417567"><ele>1356.0</ele><time>2026-04-12T08:27:29.192Z</time></trkpt><trkpt lat="37.9348283" lon="14.8417767"><ele>1356.0</ele><time>2026-04-12T08:27:32.193Z</time></trkpt><trkpt lat="37.934905" lon="14.84178"><ele>1356.0</ele><time>2026-04-12T08:27:36.194Z</time></trkpt><trkpt lat="37.9349833" lon="14.8417367"><ele>1356.0</ele><time>2026-04-12T08:27:40.194Z</time></trkpt><trkpt lat="37.935045" lon="14.84169"><ele>1356.0</ele><time>2026-04-12T08:27:44.193Z</time></trkpt><trkpt lat="37.9351" lon="14.841625"><ele>1356.0</ele><time>2026-04-12T08:27:48.192Z</time></trkpt><trkpt lat="37.9351417" lon="14.8415467"><ele>1356.0</ele><time>2026-04-12T08:27:52.193Z</time></trkpt><trkpt lat="37.9351583" lon="14.84146"><ele>1359.6666666666667</ele><time>2026-04-12T08:27:56.193Z</time></trkpt><trkpt lat="37.9352067" lon="14.8413883"><ele>1363.3333333333333</ele><time>2026-04-12T08:28:01.192Z</time></trkpt><trkpt lat="37.9353083" lon="14.8413183"><ele>1367.0</ele><time>2026-04-12T08:28:38.195Z</time></trkpt><trkpt lat="37.9353683" lon="14.8412767"><ele>1370.6666666666665</ele><time>2026-04-12T08:28:42.193Z</time></trkpt><trkpt lat="37.935445" lon="14.8412633"><ele>1374.3333333333333</ele><time>2026-04-12T08:28:46.193Z</time></trkpt><trkpt lat="37.9355183" lon="14.8412867"><ele>1378.0</ele><time>2026-04-12T08:28:49.194Z</time></trkpt><trkpt lat="37.9355817" lon="14.8413333"><ele>1378.0</ele><time>2026-04-12T08:28:52.194Z</time></trkpt><trkpt lat="37.93562" lon="14.8413967"><ele>1378.0</ele><time>2026-04-12T08:28:55.195Z</time></trkpt><trkpt lat="37.93568" lon="14.8414383"><ele>1378.0</ele><time>2026-04-12T08:28:58.195Z</time></trkpt><trkpt lat="37.9357533" lon="14.841445"><ele>1378.0</ele><time>2026-04-12T08:29:01.193Z</time></trkpt><trkpt lat="37.9358183" lon="14.8414367"><ele>1378.0</ele><time>2026-04-12T08:29:04.193Z</time></trkpt><trkpt lat="37.9358883" lon="14.84138"><ele>1378.0</ele><time>2026-04-12T08:29:08.194Z</time></trkpt><trkpt lat="37.9359467" lon="14.8413483"><ele>1378.0</ele><time>2026-04-12T08:29:11.193Z</time></trkpt><trkpt lat="37.93601" lon="14.8413167"><ele>1379.5714285714284</ele><time>2026-04-12T08:29:14.195Z</time></trkpt><trkpt lat="37.936075" lon="14.8413"><ele>1381.142857142857</ele><time>2026-04-12T08:29:17.192Z</time></trkpt><trkpt lat="37.9361517" lon="14.8412783"><ele>1382.7142857142858</ele><time>2026-04-12T08:29:21.192Z</time></trkpt><trkpt lat="37.9362117" lon="14.8412267"><ele>1384.2857142857142</ele><time>2026-04-12T08:29:24.194Z</time></trkpt><trkpt lat="37.9362383" lon="14.8411467"><ele>1385.857142857143</ele><time>2026-04-12T08:29:28.194Z</time></trkpt><trkpt lat="37.9362767" lon="14.841075"><ele>1387.4285714285713</ele><time>2026-04-12T08:29:32.194Z</time></trkpt><trkpt lat="37.9363367" lon="14.8410117"><ele>1389.0</ele><time>2026-04-12T08:29:36.192Z</time></trkpt><trkpt lat="37.9364017" lon="14.840985"><ele>1388.9999999999998</ele><time>2026-04-12T08:29:39.193Z</time></trkpt><trkpt lat="37.9364767" lon="14.84097"><ele>1389.0</ele><time>2026-04-12T08:29:43.193Z</time></trkpt><trkpt lat="37.9365283" lon="14.840905"><ele>1389.0</ele><time>2026-04-12T08:29:47.194Z</time></trkpt><trkpt lat="37.936545" lon="14.840805"><ele>1389.0</ele><time>2026-04-12T08:29:51.194Z</time></trkpt><trkpt lat="37.9365533" lon="14.8407167"><ele>1389.0</ele><time>2026-04-12T08:29:54.194Z</time></trkpt><trkpt lat="37.9365567" lon="14.8406367"><ele>1388.9999999999998</ele><time>2026-04-12T08:29:57.193Z</time></trkpt><trkpt lat="37.9365617" lon="14.8405383"><ele>1389.0</ele><time>2026-04-12T08:30:00.194Z</time></trkpt><trkpt lat="37.9365617" lon="14.840445"><ele>1387.8571428571427</ele><time>2026-04-12T08:30:03.194Z</time></trkpt><trkpt lat="37.936555" lon="14.8403567"><ele>1386.7142857142858</ele><time>2026-04-12T08:30:06.193Z</time></trkpt><trkpt lat="37.9365433" lon="14.8402533"><ele>1385.5714285714284</ele><time>2026-04-12T08:30:10.194Z</time></trkpt><trkpt lat="37.9365283" lon="14.840165"><ele>1384.4285714285713</ele><time>2026-04-12T08:30:14.193Z</time></trkpt><trkpt lat="37.936535" lon="14.8400733"><ele>1383.2857142857142</ele><time>2026-04-12T08:30:18.193Z</time></trkpt><trkpt lat="37.936545" lon="14.8399767"><ele>1382.142857142857</ele><time>2026-04-12T08:30:22.193Z</time></trkpt><trkpt lat="37.9365617" lon="14.8398933"><ele>1381.0</ele><time>2026-04-12T08:30:25.193Z</time></trkpt><trkpt lat="37.9366083" lon="14.839825"><ele>1380.2857142857144</ele><time>2026-04-12T08:30:28.193Z</time></trkpt><trkpt lat="37.936665" lon="14.8397833"><ele>1379.5714285714284</ele><time>2026-04-12T08:30:31.193Z</time></trkpt><trkpt lat="37.936735" lon="14.8397933"><ele>1378.857142857143</ele><time>2026-04-12T08:30:34.194Z</time></trkpt><trkpt lat="37.9367917" lon="14.8398383"><ele>1378.1428571428573</ele><time>2026-04-12T08:30:37.193Z</time></trkpt><trkpt lat="37.9368483" lon="14.8398867"><ele>1377.4285714285716</ele><time>2026-04-12T08:30:40.195Z</time></trkpt><trkpt lat="37.9369067" lon="14.83992"><ele>1376.7142857142858</ele><time>2026-04-12T08:30:43.192Z</time></trkpt><trkpt lat="37.936985" lon="14.8399317"><ele>1376.0</ele><time>2026-04-12T08:30:47.194Z</time></trkpt><trkpt lat="37.9370617" lon="14.8399517"><ele>1377.8333333333335</ele><time>2026-04-12T08:30:51.192Z</time></trkpt><trkpt lat="37.9371367" lon="14.839975"><ele>1379.6666666666667</ele><time>2026-04-12T08:30:55.193Z</time></trkpt><trkpt lat="37.9372117" lon="14.8400167"><ele>1381.5</ele><time>2026-04-12T08:30:59.194Z</time></trkpt><trkpt lat="37.93728" lon="14.840065"><ele>1383.3333333333333</ele><time>2026-04-12T08:31:03.194Z</time></trkpt><trkpt lat="37.9373333" lon="14.840135"><ele>1385.1666666666665</ele><time>2026-04-12T08:31:07.194Z</time></trkpt><trkpt lat="37.937375" lon="14.8402183"><ele>1387.0</ele><time>2026-04-12T08:31:11.194Z</time></trkpt><trkpt lat="37.9374033" lon="14.840295"><ele>1388.142857142857</ele><time>2026-04-12T08:31:14.193Z</time></trkpt><trkpt lat="37.9374183" lon="14.8404017"><ele>1389.2857142857142</ele><time>2026-04-12T08:31:18.193Z</time></trkpt><trkpt lat="37.9374083" lon="14.840505"><ele>1390.4285714285716</ele><time>2026-04-12T08:31:22.193Z</time></trkpt><trkpt lat="37.9373783" lon="14.8405833"><ele>1391.5714285714284</ele><time>2026-04-12T08:31:25.193Z</time></trkpt><trkpt lat="37.9373533" lon="14.840665"><ele>1392.7142857142856</ele><time>2026-04-12T08:31:28.193Z</time></trkpt><trkpt lat="37.9373283" lon="14.8407433"><ele>1393.857142857143</ele><time>2026-04-12T08:31:31.194Z</time></trkpt><trkpt lat="37.93731" lon="14.8408217"><ele>1395.0</ele><time>2026-04-12T08:31:34.194Z</time></trkpt><trkpt lat="37.9373017" lon="14.8409133"><ele>1396.2857142857144</ele><time>2026-04-12T08:31:37.194Z</time></trkpt><trkpt lat="37.9373017" lon="14.8410083"><ele>1397.5714285714284</ele><time>2026-04-12T08:31:40.194Z</time></trkpt><trkpt lat="37.937315" lon="14.84109"><ele>1398.857142857143</ele><time>2026-04-12T08:31:43.192Z</time></trkpt><trkpt lat="37.9373417" lon="14.841165"><ele>1400.1428571428573</ele><time>2026-04-12T08:31:46.192Z</time></trkpt><trkpt lat="37.937385" lon="14.8412267"><ele>1401.4285714285716</ele><time>2026-04-12T08:31:49.192Z</time></trkpt><trkpt lat="37.9374483" lon="14.84128"><ele>1402.7142857142858</ele><time>2026-04-12T08:31:52.192Z</time></trkpt><trkpt lat="37.9375217" lon="14.8412917"><ele>1404.0</ele><time>2026-04-12T08:31:55.193Z</time></trkpt><trkpt lat="37.937595" lon="14.8412717"><ele>1405.2857142857144</ele><time>2026-04-12T08:31:58.193Z</time></trkpt><trkpt lat="37.9376683" lon="14.8412517"><ele>1406.5714285714287</ele><time>2026-04-12T08:32:01.194Z</time></trkpt><trkpt lat="37.9377417" lon="14.8412183"><ele>1407.857142857143</ele><time>2026-04-12T08:32:04.193Z</time></trkpt><trkpt lat="37.9378117" lon="14.841175"><ele>1409.1428571428573</ele><time>2026-04-12T08:32:07.194Z</time></trkpt><trkpt lat="37.9378633" lon="14.8411083"><ele>1410.4285714285716</ele><time>2026-04-12T08:32:10.192Z</time></trkpt><trkpt lat="37.9378883" lon="14.841035"><ele>1411.7142857142858</ele><time>2026-04-12T08:32:13.194Z</time></trkpt><trkpt lat="37.937905" lon="14.84094"><ele>1413.0</ele><time>2026-04-12T08:32:17.194Z</time></trkpt><trkpt lat="37.9379133" lon="14.840855"><ele>1413.0</ele><time>2026-04-12T08:32:20.194Z</time></trkpt><trkpt lat="37.937925" lon="14.8407633"><ele>1413.0</ele><time>2026-04-12T08:32:23.192Z</time></trkpt><trkpt lat="37.93796" lon="14.8406867"><ele>1413.0</ele><time>2026-04-12T08:32:26.193Z</time></trkpt><trkpt lat="37.93802" lon="14.8406217"><ele>1413.0</ele><time>2026-04-12T08:32:29.194Z</time></trkpt><trkpt lat="37.9380833" lon="14.8405817"><ele>1413.0</ele><time>2026-04-12T08:32:33.194Z</time></trkpt><trkpt lat="37.9381517" lon="14.8405433"><ele>1413.0</ele><time>2026-04-12T08:32:37.195Z</time></trkpt><trkpt lat="37.93822" lon="14.8404917"><ele>1413.0</ele><time>2026-04-12T08:32:41.194Z</time></trkpt><trkpt lat="37.9382733" lon="14.840445"><ele>1413.0</ele><time>2026-04-12T08:32:44.193Z</time></trkpt><trkpt lat="37.9383283" lon="14.8403933"><ele>1413.0</ele><time>2026-04-12T08:32:47.193Z</time></trkpt><trkpt lat="37.93838" lon="14.8403333"><ele>1413.0</ele><time>2026-04-12T08:32:50.193Z</time></trkpt><trkpt lat="37.9384183" lon="14.8402433"><ele>1413.0</ele><time>2026-04-12T08:32:54.193Z</time></trkpt><trkpt lat="37.9384383" lon="14.8401483"><ele>1413.0</ele><time>2026-04-12T08:32:58.193Z</time></trkpt><trkpt lat="37.93847" lon="14.8400783"><ele>1413.0</ele><time>2026-04-12T08:33:01.195Z</time></trkpt><trkpt lat="37.93851" lon="14.840015"><ele>1413.0</ele><time>2026-04-12T08:33:04.194Z</time></trkpt><trkpt lat="37.9385633" lon="14.839965"><ele>1415.142857142857</ele><time>2026-04-12T08:33:07.193Z</time></trkpt><trkpt lat="37.9386383" lon="14.8399317"><ele>1417.2857142857142</ele><time>2026-04-12T08:33:11.192Z</time></trkpt><trkpt lat="37.9387067" lon="14.839905"><ele>1419.4285714285716</ele><time>2026-04-12T08:33:15.192Z</time></trkpt><trkpt lat="37.9387883" lon="14.8399033"><ele>1421.5714285714284</ele><time>2026-04-12T08:33:19.193Z</time></trkpt><trkpt lat="37.9388567" lon="14.8399017"><ele>1423.7142857142858</ele><time>2026-04-12T08:33:22.193Z</time></trkpt><trkpt lat="37.9389283" lon="14.8398767"><ele>1425.857142857143</ele><time>2026-04-12T08:33:26.193Z</time></trkpt><trkpt lat="37.938985" lon="14.83984"><ele>1428.0</ele><time>2026-04-12T08:33:29.193Z</time></trkpt><trkpt lat="37.9390383" lon="14.8397783"><ele>1428.0</ele><time>2026-04-12T08:33:32.193Z</time></trkpt><trkpt lat="37.9390783" lon="14.8396933"><ele>1428.0</ele><time>2026-04-12T08:33:35.193Z</time></trkpt><trkpt lat="37.9391017" lon="14.8396083"><ele>1428.0</ele><time>2026-04-12T08:33:38.194Z</time></trkpt><trkpt lat="37.9391083" lon="14.839525"><ele>1428.0</ele><time>2026-04-12T08:33:41.194Z</time></trkpt><trkpt lat="37.9391267" lon="14.8394433"><ele>1428.0</ele><time>2026-04-12T08:33:44.193Z</time></trkpt><trkpt lat="37.93916" lon="14.8393583"><ele>1428.0</ele><time>2026-04-12T08:33:47.192Z</time></trkpt><trkpt lat="37.9392133" lon="14.8392933"><ele>1428.0</ele><time>2026-04-12T08:33:50.193Z</time></trkpt><trkpt lat="37.9392683" lon="14.8392367"><ele>1430.0</ele><time>2026-04-12T08:33:53.194Z</time></trkpt><trkpt lat="37.9393267" lon="14.8391833"><ele>1432.0</ele><time>2026-04-12T08:33:56.195Z</time></trkpt><trkpt lat="37.93938" lon="14.8391283"><ele>1434.0</ele><time>2026-04-12T08:33:59.192Z</time></trkpt><trkpt lat="37.9394433" lon="14.839075"><ele>1436.0</ele><time>2026-04-12T08:34:02.193Z</time></trkpt><trkpt lat="37.9395" lon="14.8389967"><ele>1438.0</ele><time>2026-04-12T08:34:05.192Z</time></trkpt><trkpt lat="37.9395383" lon="14.838905"><ele>1440.0</ele><time>2026-04-12T08:34:08.194Z</time></trkpt><trkpt lat="37.9395483" lon="14.83881"><ele>1440.0</ele><time>2026-04-12T08:34:11.192Z</time></trkpt><trkpt lat="37.9395367" lon="14.8387217"><ele>1440.0</ele><time>2026-04-12T08:34:13.193Z</time></trkpt><trkpt lat="37.9395217" lon="14.83863"><ele>1440.0</ele><time>2026-04-12T08:34:15.193Z</time></trkpt><trkpt lat="37.9395083" lon="14.8385167"><ele>1440.0</ele><time>2026-04-12T08:34:18.193Z</time></trkpt><trkpt lat="37.9394933" lon="14.8384"><ele>1440.0</ele><time>2026-04-12T08:34:21.192Z</time></trkpt><trkpt lat="37.9394833" lon="14.8382917"><ele>1440.0</ele><time>2026-04-12T08:34:24.193Z</time></trkpt><trkpt lat="37.9394567" lon="14.8381833"><ele>1439.0</ele><time>2026-04-12T08:34:27.192Z</time></trkpt><trkpt lat="37.9394283" lon="14.8381117"><ele>1438.0</ele><time>2026-04-12T08:34:29.193Z</time></trkpt><trkpt lat="37.9393883" lon="14.8380183"><ele>1437.0</ele><time>2026-04-12T08:34:32.194Z</time></trkpt><trkpt lat="37.93937" lon="14.8379217"><ele>1436.0</ele><time>2026-04-12T08:34:35.193Z</time></trkpt><trkpt lat="37.9393867" lon="14.8378233"><ele>1435.0</ele><time>2026-04-12T08:34:38.192Z</time></trkpt><trkpt lat="37.939415" lon="14.8377367"><ele>1434.0</ele><time>2026-04-12T08:34:42.194Z</time></trkpt><trkpt lat="37.93936" lon="14.8376583"><ele>1431.5</ele><time>2026-04-12T08:34:45.193Z</time></trkpt><trkpt lat="37.93931" lon="14.8375967"><ele>1429.0</ele><time>2026-04-12T08:34:48.194Z</time></trkpt><trkpt lat="37.939245" lon="14.8375433"><ele>1426.5</ele><time>2026-04-12T08:34:51.194Z</time></trkpt><trkpt lat="37.9391567" lon="14.8375367"><ele>1424.0</ele><time>2026-04-12T08:34:54.193Z</time></trkpt><trkpt lat="37.9390767" lon="14.8374983"><ele>1421.5</ele><time>2026-04-12T08:34:57.192Z</time></trkpt><trkpt lat="37.939005" lon="14.8374733"><ele>1419.0</ele><time>2026-04-12T08:35:00.192Z</time></trkpt><trkpt lat="37.938935" lon="14.83744"><ele>1418.0</ele><time>2026-04-12T08:35:03.192Z</time></trkpt><trkpt lat="37.9388483" lon="14.837435"><ele>1417.0</ele><time>2026-04-12T08:35:06.192Z</time></trkpt><trkpt lat="37.9387883" lon="14.8374683"><ele>1416.0</ele><time>2026-04-12T08:35:09.192Z</time></trkpt><trkpt lat="37.93876" lon="14.8375583"><ele>1415.0</ele><time>2026-04-12T08:35:12.192Z</time></trkpt><trkpt lat="37.93875" lon="14.8376383"><ele>1414.0</ele><time>2026-04-12T08:35:15.193Z</time></trkpt><trkpt lat="37.9387283" lon="14.8377417"><ele>1413.0</ele><time>2026-04-12T08:35:19.194Z</time></trkpt><trkpt lat="37.9387067" lon="14.837845"><ele>1413.0</ele><time>2026-04-12T08:35:22.194Z</time></trkpt><trkpt lat="37.9387083" lon="14.8379367"><ele>1413.0</ele><time>2026-04-12T08:35:24.193Z</time></trkpt><trkpt lat="37.93873" lon="14.8380317"><ele>1413.0</ele><time>2026-04-12T08:35:26.193Z</time></trkpt><trkpt lat="37.93877" lon="14.83811"><ele>1413.0</ele><time>2026-04-12T08:35:28.193Z</time></trkpt><trkpt lat="37.9388033" lon="14.8381917"><ele>1413.0</ele><time>2026-04-12T08:35:31.192Z</time></trkpt><trkpt lat="37.93878" lon="14.8383017"><ele>1413.0</ele><time>2026-04-12T08:35:34.193Z</time></trkpt><trkpt lat="37.938795" lon="14.8383967"><ele>1413.0</ele><time>2026-04-12T08:35:37.192Z</time></trkpt><trkpt lat="37.93877" lon="14.8383067"><ele>1413.0</ele><time>2026-04-12T08:45:14.192Z</time></trkpt><trkpt lat="37.9387933" lon="14.8382133"><ele>1413.0</ele><time>2026-04-12T08:45:18.194Z</time></trkpt><trkpt lat="37.938765" lon="14.8381117"><ele>1413.0</ele><time>2026-04-12T08:45:22.192Z</time></trkpt><trkpt lat="37.9387183" lon="14.8380383"><ele>1413.0</ele><time>2026-04-12T08:45:25.193Z</time></trkpt><trkpt lat="37.938685" lon="14.8379517"><ele>1413.0</ele><time>2026-04-12T08:45:28.193Z</time></trkpt><trkpt lat="37.9386767" lon="14.83786"><ele>1413.0</ele><time>2026-04-12T08:45:31.191Z</time></trkpt><trkpt lat="37.9386933" lon="14.837775"><ele>1413.0</ele><time>2026-04-12T08:45:35.193Z</time></trkpt><trkpt lat="37.938715" lon="14.8376867"><ele>1413.0</ele><time>2026-04-12T08:45:39.193Z</time></trkpt><trkpt lat="37.9387533" lon="14.8375933"><ele>1413.0</ele><time>2026-04-12T08:45:43.194Z</time></trkpt><trkpt lat="37.9387833" lon="14.837515"><ele>1413.0</ele><time>2026-04-12T08:45:46.193Z</time></trkpt><trkpt lat="37.9388417" lon="14.837445"><ele>1413.0</ele><time>2026-04-12T08:45:49.191Z</time></trkpt><trkpt lat="37.9389083" lon="14.8374283"><ele>1413.0</ele><time>2026-04-12T08:45:52.195Z</time></trkpt><trkpt lat="37.93898" lon="14.8374367"><ele>1412.6666666666667</ele><time>2026-04-12T08:45:55.192Z</time></trkpt><trkpt lat="37.939055" lon="14.837475"><ele>1412.3333333333333</ele><time>2026-04-12T08:45:58.192Z</time></trkpt><trkpt lat="37.93913" lon="14.8375233"><ele>1412.0</ele><time>2026-04-12T08:46:01.191Z</time></trkpt><trkpt lat="37.93921" lon="14.8375517"><ele>1411.6666666666665</ele><time>2026-04-12T08:46:04.194Z</time></trkpt><trkpt lat="37.9392733" lon="14.8375783"><ele>1411.3333333333333</ele><time>2026-04-12T08:46:07.192Z</time></trkpt><trkpt lat="37.9393333" lon="14.83763"><ele>1411.0</ele><time>2026-04-12T08:46:10.193Z</time></trkpt><trkpt lat="37.9393917" lon="14.8377083"><ele>1414.2857142857144</ele><time>2026-04-12T08:46:13.192Z</time></trkpt><trkpt lat="37.9393767" lon="14.837795"><ele>1417.5714285714287</ele><time>2026-04-12T08:46:55.192Z</time></trkpt><trkpt lat="37.9394433" lon="14.8377767"><ele>1420.857142857143</ele><time>2026-04-12T08:47:15.192Z</time></trkpt><trkpt lat="37.93951" lon="14.8377783"><ele>1424.1428571428573</ele><time>2026-04-12T08:47:18.192Z</time></trkpt><trkpt lat="37.939585" lon="14.83778"><ele>1427.4285714285713</ele><time>2026-04-12T08:47:50.194Z</time></trkpt><trkpt lat="37.9396433" lon="14.8378233"><ele>1430.7142857142858</ele><time>2026-04-12T08:47:54.192Z</time></trkpt><trkpt lat="37.9397133" lon="14.83785"><ele>1434.0</ele><time>2026-04-12T08:47:58.191Z</time></trkpt><trkpt lat="37.93978" lon="14.8378783"><ele>1434.0</ele><time>2026-04-12T08:48:01.192Z</time></trkpt><trkpt lat="37.939855" lon="14.8378783"><ele>1434.0</ele><time>2026-04-12T08:48:04.192Z</time></trkpt><trkpt lat="37.9399267" lon="14.8378567"><ele>1434.0</ele><time>2026-04-12T08:48:07.193Z</time></trkpt><trkpt lat="37.94" lon="14.83784"><ele>1434.0</ele><time>2026-04-12T08:48:11.193Z</time></trkpt><trkpt lat="37.94007" lon="14.837845"><ele>1434.0</ele><time>2026-04-12T08:48:14.193Z</time></trkpt><trkpt lat="37.9401383" lon="14.8378517"><ele>1434.0</ele><time>2026-04-12T08:48:17.192Z</time></trkpt><trkpt lat="37.94021" lon="14.8378533"><ele>1434.0</ele><time>2026-04-12T08:48:20.194Z</time></trkpt><trkpt lat="37.9402783" lon="14.8378567"><ele>1433.857142857143</ele><time>2026-04-12T08:48:23.195Z</time></trkpt><trkpt lat="37.9403433" lon="14.8378667"><ele>1433.7142857142858</ele><time>2026-04-12T08:48:26.193Z</time></trkpt><trkpt lat="37.9404067" lon="14.837895"><ele>1433.5714285714284</ele><time>2026-04-12T08:48:29.193Z</time></trkpt><trkpt lat="37.9404817" lon="14.8379283"><ele>1433.4285714285716</ele><time>2026-04-12T08:48:33.192Z</time></trkpt><trkpt lat="37.9405417" lon="14.8379583"><ele>1433.2857142857144</ele><time>2026-04-12T08:48:36.193Z</time></trkpt><trkpt lat="37.94061" lon="14.8379967"><ele>1433.142857142857</ele><time>2026-04-12T08:48:41.194Z</time></trkpt><trkpt lat="37.9406783" lon="14.8380417"><ele>1433.0</ele><time>2026-04-12T08:48:45.193Z</time></trkpt><trkpt lat="37.940745" lon="14.8381067"><ele>1433.0</ele><time>2026-04-12T08:48:49.194Z</time></trkpt><trkpt lat="37.9408067" lon="14.8381467"><ele>1433.0</ele><time>2026-04-12T08:48:52.194Z</time></trkpt><trkpt lat="37.9408733" lon="14.8382067"><ele>1433.0</ele><time>2026-04-12T08:48:56.194Z</time></trkpt><trkpt lat="37.9409283" lon="14.838255"><ele>1433.0</ele><time>2026-04-12T08:48:59.193Z</time></trkpt><trkpt lat="37.9409883" lon="14.838315"><ele>1433.0</ele><time>2026-04-12T08:49:02.194Z</time></trkpt><trkpt lat="37.9410483" lon="14.83837"><ele>1433.0</ele><time>2026-04-12T08:49:05.196Z</time></trkpt><trkpt lat="37.9411167" lon="14.8384167"><ele>1433.0</ele><time>2026-04-12T08:49:08.194Z</time></trkpt><trkpt lat="37.9412017" lon="14.8384317"><ele>1433.3333333333335</ele><time>2026-04-12T08:49:11.193Z</time></trkpt><trkpt lat="37.9412883" lon="14.8384133"><ele>1433.6666666666667</ele><time>2026-04-12T08:49:14.193Z</time></trkpt><trkpt lat="37.9413617" lon="14.8383617"><ele>1434.0</ele><time>2026-04-12T08:49:17.193Z</time></trkpt><trkpt lat="37.94142" lon="14.8383083"><ele>1434.3333333333333</ele><time>2026-04-12T08:49:20.193Z</time></trkpt><trkpt lat="37.9414683" lon="14.8382483"><ele>1434.6666666666665</ele><time>2026-04-12T08:49:23.194Z</time></trkpt><trkpt lat="37.9415267" lon="14.8381883"><ele>1435.0</ele><time>2026-04-12T08:49:26.193Z</time></trkpt><trkpt lat="37.941585" lon="14.8381283"><ele>1435.0</ele><time>2026-04-12T08:49:29.194Z</time></trkpt><trkpt lat="37.941645" lon="14.8380717"><ele>1435.0</ele><time>2026-04-12T08:49:32.193Z</time></trkpt><trkpt lat="37.9417083" lon="14.838015"><ele>1435.0</ele><time>2026-04-12T08:49:35.193Z</time></trkpt><trkpt lat="37.9417767" lon="14.8379633"><ele>1435.0</ele><time>2026-04-12T08:49:38.194Z</time></trkpt><trkpt lat="37.9418617" lon="14.8379317"><ele>1435.0</ele><time>2026-04-12T08:49:41.193Z</time></trkpt><trkpt lat="37.94195" lon="14.8379067"><ele>1435.0</ele><time>2026-04-12T08:49:44.193Z</time></trkpt><trkpt lat="37.9420317" lon="14.8378983"><ele>1436.8333333333333</ele><time>2026-04-12T08:49:47.193Z</time></trkpt><trkpt lat="37.9421133" lon="14.837885"><ele>1438.6666666666665</ele><time>2026-04-12T08:49:50.194Z</time></trkpt><trkpt lat="37.9421883" lon="14.8378667"><ele>1440.5</ele><time>2026-04-12T08:49:53.193Z</time></trkpt><trkpt lat="37.9422683" lon="14.8378367"><ele>1442.3333333333333</ele><time>2026-04-12T08:49:56.195Z</time></trkpt><trkpt lat="37.94235" lon="14.8378133"><ele>1444.1666666666667</ele><time>2026-04-12T08:49:59.192Z</time></trkpt><trkpt lat="37.942435" lon="14.8378133"><ele>1446.0</ele><time>2026-04-12T08:50:02.192Z</time></trkpt><trkpt lat="37.9425233" lon="14.83783"><ele>1446.8333333333333</ele><time>2026-04-12T08:50:05.194Z</time></trkpt><trkpt lat="37.9425917" lon="14.8378467"><ele>1447.6666666666667</ele><time>2026-04-12T08:50:07.193Z</time></trkpt><trkpt lat="37.9426633" lon="14.837835"><ele>1448.5</ele><time>2026-04-12T08:50:09.192Z</time></trkpt><trkpt lat="37.9427383" lon="14.83778"><ele>1449.3333333333335</ele><time>2026-04-12T08:50:12.194Z</time></trkpt><trkpt lat="37.9428" lon="14.8377267"><ele>1450.1666666666667</ele><time>2026-04-12T08:50:15.194Z</time></trkpt><trkpt lat="37.9428833" lon="14.83771"><ele>1451.0</ele><time>2026-04-12T08:50:18.192Z</time></trkpt><trkpt lat="37.9429733" lon="14.8377333"><ele>1451.0</ele><time>2026-04-12T08:50:21.192Z</time></trkpt><trkpt lat="37.943045" lon="14.837735"><ele>1451.0</ele><time>2026-04-12T08:50:23.193Z</time></trkpt><trkpt lat="37.943115" lon="14.83772"><ele>1451.0</ele><time>2026-04-12T08:50:25.194Z</time></trkpt><trkpt lat="37.9431767" lon="14.8376917"><ele>1451.0</ele><time>2026-04-12T08:50:27.192Z</time></trkpt><trkpt lat="37.9432417" lon="14.83766"><ele>1451.0</ele><time>2026-04-12T08:50:29.193Z</time></trkpt><trkpt lat="37.94333" lon="14.83762"><ele>1451.0</ele><time>2026-04-12T08:50:32.194Z</time></trkpt><trkpt lat="37.94341" lon="14.8375917"><ele>1448.5</ele><time>2026-04-12T08:50:35.193Z</time></trkpt><trkpt lat="37.943485" lon="14.8375517"><ele>1446.0</ele><time>2026-04-12T08:50:38.193Z</time></trkpt><trkpt lat="37.94356" lon="14.837495"><ele>1443.5</ele><time>2026-04-12T08:50:41.193Z</time></trkpt><trkpt lat="37.943635" lon="14.837445"><ele>1441.0</ele><time>2026-04-12T08:50:44.196Z</time></trkpt><trkpt lat="37.9437083" lon="14.8373917"><ele>1438.5</ele><time>2026-04-12T08:50:47.195Z</time></trkpt><trkpt lat="37.9438067" lon="14.83737"><ele>1436.0</ele><time>2026-04-12T08:50:50.196Z</time></trkpt><trkpt lat="37.9438917" lon="14.8374117"><ele>1436.0</ele><time>2026-04-12T08:50:52.193Z</time></trkpt><trkpt lat="37.943995" lon="14.837495"><ele>1436.0</ele><time>2026-04-12T08:50:54.194Z</time></trkpt><trkpt lat="37.9441183" lon="14.8375067"><ele>1436.0</ele><time>2026-04-12T08:50:56.193Z</time></trkpt><trkpt lat="37.94418" lon="14.837485"><ele>1436.0</ele><time>2026-04-12T08:50:57.193Z</time></trkpt><trkpt lat="37.9442433" lon="14.8374583"><ele>1436.0</ele><time>2026-04-12T08:50:58.192Z</time></trkpt><trkpt lat="37.94431" lon="14.8374383"><ele>1436.0</ele><time>2026-04-12T08:50:59.192Z</time></trkpt><trkpt lat="37.9443833" lon="14.83743"><ele>1436.6666666666667</ele><time>2026-04-12T08:51:00.193Z</time></trkpt><trkpt lat="37.9444583" lon="14.8374267"><ele>1437.3333333333335</ele><time>2026-04-12T08:51:01.193Z</time></trkpt><trkpt lat="37.944535" lon="14.8374217"><ele>1438.0</ele><time>2026-04-12T08:51:02.193Z</time></trkpt><trkpt lat="37.9446117" lon="14.837415"><ele>1438.6666666666667</ele><time>2026-04-12T08:51:03.192Z</time></trkpt><trkpt lat="37.9446867" lon="14.8374033"><ele>1439.3333333333333</ele><time>2026-04-12T08:51:04.192Z</time></trkpt><trkpt lat="37.9447617" lon="14.837395"><ele>1440.0</ele><time>2026-04-12T08:51:05.192Z</time></trkpt><trkpt lat="37.944835" lon="14.8373967"><ele>1440.0</ele><time>2026-04-12T08:51:06.192Z</time></trkpt><trkpt lat="37.944905" lon="14.8374083"><ele>1440.0</ele><time>2026-04-12T08:51:07.192Z</time></trkpt><trkpt lat="37.9449767" lon="14.8374217"><ele>1440.0</ele><time>2026-04-12T08:51:08.194Z</time></trkpt><trkpt lat="37.9450467" lon="14.837425"><ele>1440.0</ele><time>2026-04-12T08:51:09.193Z</time></trkpt><trkpt lat="37.945165" lon="14.8374"><ele>1440.0</ele><time>2026-04-12T08:51:11.193Z</time></trkpt><trkpt lat="37.94525" lon="14.83736"><ele>1440.0</ele><time>2026-04-12T08:51:13.193Z</time></trkpt><trkpt lat="37.9453167" lon="14.8372983"><ele>1439.6666666666667</ele><time>2026-04-12T08:51:16.193Z</time></trkpt><trkpt lat="37.94538" lon="14.8372533"><ele>1439.3333333333333</ele><time>2026-04-12T08:51:19.195Z</time></trkpt><trkpt lat="37.94546" lon="14.8372217"><ele>1439.0</ele><time>2026-04-12T08:51:22.194Z</time></trkpt><trkpt lat="37.945545" lon="14.8372117"><ele>1438.6666666666665</ele><time>2026-04-12T08:51:25.195Z</time></trkpt><trkpt lat="37.9456083" lon="14.8372167"><ele>1438.3333333333333</ele><time>2026-04-12T08:51:27.194Z</time></trkpt><trkpt lat="37.94569" lon="14.83722"><ele>1438.0</ele><time>2026-04-12T08:51:30.195Z</time></trkpt><trkpt lat="37.9457683" lon="14.8372367"><ele>1438.0</ele><time>2026-04-12T08:51:33.192Z</time></trkpt><trkpt lat="37.9458517" lon="14.837265"><ele>1438.0</ele><time>2026-04-12T08:51:36.192Z</time></trkpt><trkpt lat="37.9459233" lon="14.8373067"><ele>1438.0</ele><time>2026-04-12T08:51:39.193Z</time></trkpt><trkpt lat="37.94598" lon="14.83738"><ele>1438.0</ele><time>2026-04-12T08:51:42.193Z</time></trkpt><trkpt lat="37.946045" lon="14.8374733"><ele>1438.0</ele><time>2026-04-12T08:52:48.195Z</time></trkpt><trkpt lat="37.9461333" lon="14.8375233"><ele>1438.0</ele><time>2026-04-12T08:52:51.193Z</time></trkpt><trkpt lat="37.9462017" lon="14.8375533"><ele>1438.9999999999998</ele><time>2026-04-12T08:52:53.195Z</time></trkpt><trkpt lat="37.9462667" lon="14.8375933"><ele>1440.0</ele><time>2026-04-12T08:52:55.195Z</time></trkpt><trkpt lat="37.9463117" lon="14.83765"><ele>1441.0</ele><time>2026-04-12T08:52:57.194Z</time></trkpt><trkpt lat="37.94636" lon="14.83772"><ele>1442.0</ele><time>2026-04-12T08:53:00.193Z</time></trkpt><trkpt lat="37.9464067" lon="14.8377767"><ele>1443.0</ele><time>2026-04-12T08:53:02.192Z</time></trkpt><trkpt lat="37.9464583" lon="14.8378233"><ele>1443.9999999999998</ele><time>2026-04-12T08:53:04.192Z</time></trkpt><trkpt lat="37.946525" lon="14.8378517"><ele>1445.0</ele><time>2026-04-12T08:53:06.193Z</time></trkpt><trkpt lat="37.9465883" lon="14.8378567"><ele>1444.9999999999998</ele><time>2026-04-12T08:53:08.194Z</time></trkpt><trkpt lat="37.946665" lon="14.8378567"><ele>1445.0</ele><time>2026-04-12T08:53:10.194Z</time></trkpt><trkpt lat="37.9467333" lon="14.8378717"><ele>1445.0</ele><time>2026-04-12T08:53:12.193Z</time></trkpt><trkpt lat="37.946795" lon="14.837925"><ele>1445.0</ele><time>2026-04-12T08:53:14.194Z</time></trkpt><trkpt lat="37.9468667" lon="14.8379967"><ele>1445.0</ele><time>2026-04-12T08:53:16.193Z</time></trkpt><trkpt lat="37.9469217" lon="14.8380367"><ele>1444.9999999999998</ele><time>2026-04-12T08:53:18.194Z</time></trkpt><trkpt lat="37.9469733" lon="14.8380833"><ele>1445.0</ele><time>2026-04-12T08:53:21.193Z</time></trkpt><trkpt lat="37.9470367" lon="14.8381133"><ele>1444.7142857142856</ele><time>2026-04-12T08:53:24.192Z</time></trkpt><trkpt lat="37.947105" lon="14.8381533"><ele>1444.4285714285713</ele><time>2026-04-12T08:53:27.192Z</time></trkpt><trkpt lat="37.9471733" lon="14.8381717"><ele>1444.142857142857</ele><time>2026-04-12T08:53:30.193Z</time></trkpt><trkpt lat="37.9472433" lon="14.8381983"><ele>1443.8571428571427</ele><time>2026-04-12T08:53:33.194Z</time></trkpt><trkpt lat="37.9473183" lon="14.8381917"><ele>1443.5714285714287</ele><time>2026-04-12T08:53:36.192Z</time></trkpt><trkpt lat="37.9474017" lon="14.8381733"><ele>1443.2857142857142</ele><time>2026-04-12T08:53:39.192Z</time></trkpt><trkpt lat="37.9474683" lon="14.8381433"><ele>1443.0</ele><time>2026-04-12T08:53:42.192Z</time></trkpt><trkpt lat="37.947535" lon="14.8381067"><ele>1441.3333333333333</ele><time>2026-04-12T08:53:45.193Z</time></trkpt><trkpt lat="37.94762" lon="14.8380767"><ele>1439.6666666666667</ele><time>2026-04-12T08:53:48.192Z</time></trkpt><trkpt lat="37.9477083" lon="14.8380683"><ele>1438.0</ele><time>2026-04-12T08:53:51.195Z</time></trkpt><trkpt lat="37.9477717" lon="14.8380783"><ele>1436.3333333333335</ele><time>2026-04-12T08:53:53.195Z</time></trkpt><trkpt lat="37.9478417" lon="14.83811"><ele>1434.6666666666667</ele><time>2026-04-12T08:53:56.194Z</time></trkpt><trkpt lat="37.9478917" lon="14.83817"><ele>1433.0</ele><time>2026-04-12T08:54:37.193Z</time></trkpt><trkpt lat="37.94796" lon="14.83823"><ele>1433.0</ele><time>2026-04-12T08:54:46.192Z</time></trkpt><trkpt lat="37.947995" lon="14.8383183"><ele>1433.0</ele><time>2026-04-12T08:54:49.193Z</time></trkpt><trkpt lat="37.94803" lon="14.8384133"><ele>1433.0</ele><time>2026-04-12T08:54:53.193Z</time></trkpt><trkpt lat="37.9480767" lon="14.8384917"><ele>1433.0</ele><time>2026-04-12T08:54:56.193Z</time></trkpt><trkpt lat="37.9481433" lon="14.8385633"><ele>1433.0</ele><time>2026-04-12T08:55:00.193Z</time></trkpt><trkpt lat="37.9482133" lon="14.8386233"><ele>1433.0</ele><time>2026-04-12T08:55:03.194Z</time></trkpt><trkpt lat="37.94826" lon="14.8386817"><ele>1433.8333333333335</ele><time>2026-04-12T08:55:06.192Z</time></trkpt><trkpt lat="37.9483117" lon="14.8387417"><ele>1434.6666666666667</ele><time>2026-04-12T08:55:09.192Z</time></trkpt><trkpt lat="37.9483867" lon="14.8387733"><ele>1435.5</ele><time>2026-04-12T08:55:12.194Z</time></trkpt><trkpt lat="37.948465" lon="14.8387883"><ele>1436.3333333333333</ele><time>2026-04-12T08:55:15.194Z</time></trkpt><trkpt lat="37.948545" lon="14.838785"><ele>1437.1666666666665</ele><time>2026-04-12T08:55:18.193Z</time></trkpt><trkpt lat="37.9486333" lon="14.8387867"><ele>1438.0</ele><time>2026-04-12T08:55:21.193Z</time></trkpt><trkpt lat="37.9487117" lon="14.8388367"><ele>1438.0</ele><time>2026-04-12T08:55:24.194Z</time></trkpt><trkpt lat="37.9487833" lon="14.8389017"><ele>1438.0</ele><time>2026-04-12T08:55:27.192Z</time></trkpt><trkpt lat="37.94885" lon="14.83898"><ele>1438.0</ele><time>2026-04-12T08:55:30.192Z</time></trkpt><trkpt lat="37.948895" lon="14.8390567"><ele>1438.0</ele><time>2026-04-12T08:55:33.192Z</time></trkpt><trkpt lat="37.9489667" lon="14.83912"><ele>1438.0</ele><time>2026-04-12T08:55:36.193Z</time></trkpt><trkpt lat="37.9490467" lon="14.8391667"><ele>1438.0</ele><time>2026-04-12T08:55:39.192Z</time></trkpt><trkpt lat="37.9491183" lon="14.8392433"><ele>1438.6666666666665</ele><time>2026-04-12T08:55:42.193Z</time></trkpt><trkpt lat="37.949185" lon="14.83932"><ele>1439.3333333333333</ele><time>2026-04-12T08:55:45.192Z</time></trkpt><trkpt lat="37.94924" lon="14.8393917"><ele>1440.0</ele><time>2026-04-12T08:55:48.194Z</time></trkpt><trkpt lat="37.9492883" lon="14.8394617"><ele>1440.6666666666667</ele><time>2026-04-12T08:55:51.193Z</time></trkpt><trkpt lat="37.9493283" lon="14.839545"><ele>1441.3333333333335</ele><time>2026-04-12T08:55:54.194Z</time></trkpt><trkpt lat="37.9493583" lon="14.8396383"><ele>1442.0</ele><time>2026-04-12T08:55:57.193Z</time></trkpt><trkpt lat="37.9494067" lon="14.8397283"><ele>1442.0</ele><time>2026-04-12T08:56:00.194Z</time></trkpt><trkpt lat="37.949455" lon="14.839825"><ele>1442.0</ele><time>2026-04-12T08:56:03.193Z</time></trkpt><trkpt lat="37.949505" lon="14.8399183"><ele>1442.0</ele><time>2026-04-12T08:56:06.193Z</time></trkpt><trkpt lat="37.9495617" lon="14.840005"><ele>1442.0</ele><time>2026-04-12T08:56:09.193Z</time></trkpt><trkpt lat="37.9496317" lon="14.84008"><ele>1442.0</ele><time>2026-04-12T08:56:12.193Z</time></trkpt><trkpt lat="37.9496933" lon="14.840145"><ele>1442.0</ele><time>2026-04-12T08:56:15.192Z</time></trkpt><trkpt lat="37.9497633" lon="14.8402083"><ele>1441.3333333333335</ele><time>2026-04-12T08:56:18.193Z</time></trkpt><trkpt lat="37.9498333" lon="14.8402467"><ele>1440.6666666666667</ele><time>2026-04-12T08:56:21.193Z</time></trkpt><trkpt lat="37.9499133" lon="14.8402483"><ele>1440.0</ele><time>2026-04-12T08:56:24.193Z</time></trkpt><trkpt lat="37.95" lon="14.8402483"><ele>1439.3333333333333</ele><time>2026-04-12T08:56:27.193Z</time></trkpt><trkpt lat="37.9500967" lon="14.8402617"><ele>1438.6666666666665</ele><time>2026-04-12T08:58:21.196Z</time></trkpt><trkpt lat="37.9501217" lon="14.8403517"><ele>1438.0</ele><time>2026-04-12T08:58:37.194Z</time></trkpt><trkpt lat="37.9501283" lon="14.8402633"><ele>1438.0</ele><time>2026-04-12T08:58:47.193Z</time></trkpt><trkpt lat="37.9501533" lon="14.8404033"><ele>1438.0</ele><time>2026-04-12T09:02:54.191Z</time></trkpt><trkpt lat="37.9501867" lon="14.84048"><ele>1438.0</ele><time>2026-04-12T09:02:57.192Z</time></trkpt><trkpt lat="37.9502283" lon="14.8405583"><ele>1438.0</ele><time>2026-04-12T09:03:00.194Z</time></trkpt><trkpt lat="37.9502917" lon="14.8405683"><ele>1438.0</ele><time>2026-04-12T09:03:03.192Z</time></trkpt><trkpt lat="37.9503667" lon="14.8406"><ele>1438.0</ele><time>2026-04-12T09:03:06.193Z</time></trkpt><trkpt lat="37.950435" lon="14.8406367"><ele>1438.0</ele><time>2026-04-12T09:03:09.193Z</time></trkpt><trkpt lat="37.9505233" lon="14.84067"><ele>1438.0</ele><time>2026-04-12T09:03:12.193Z</time></trkpt><trkpt lat="37.9505867" lon="14.8407"><ele>1438.0</ele><time>2026-04-12T09:03:14.193Z</time></trkpt><trkpt lat="37.95064" lon="14.8407433"><ele>1438.0</ele><time>2026-04-12T09:03:16.192Z</time></trkpt><trkpt lat="37.9506967" lon="14.8407933"><ele>1438.0</ele><time>2026-04-12T09:03:18.194Z</time></trkpt><trkpt lat="37.95076" lon="14.840845"><ele>1438.0</ele><time>2026-04-12T09:03:20.193Z</time></trkpt><trkpt lat="37.950825" lon="14.8409133"><ele>1437.3333333333333</ele><time>2026-04-12T09:03:22.192Z</time></trkpt><trkpt lat="37.9508617" lon="14.841"><ele>1436.6666666666665</ele><time>2026-04-12T09:03:24.192Z</time></trkpt><trkpt lat="37.9508967" lon="14.841095"><ele>1436.0</ele><time>2026-04-12T09:03:27.193Z</time></trkpt><trkpt lat="37.950945" lon="14.8411617"><ele>1435.3333333333333</ele><time>2026-04-12T09:03:30.193Z</time></trkpt><trkpt lat="37.9510117" lon="14.8412317"><ele>1434.6666666666667</ele><time>2026-04-12T09:03:33.193Z</time></trkpt><trkpt lat="37.9510717" lon="14.8412967"><ele>1434.0</ele><time>2026-04-12T09:03:35.191Z</time></trkpt><trkpt lat="37.9511517" lon="14.841345"><ele>1434.0</ele><time>2026-04-12T09:03:37.193Z</time></trkpt><trkpt lat="37.9512383" lon="14.8413733"><ele>1434.0</ele><time>2026-04-12T09:03:39.192Z</time></trkpt><trkpt lat="37.9513267" lon="14.84139"><ele>1434.0</ele><time>2026-04-12T09:03:41.192Z</time></trkpt><trkpt lat="37.95141" lon="14.84141"><ele>1434.0</ele><time>2026-04-12T09:03:43.193Z</time></trkpt><trkpt lat="37.95148" lon="14.84147"><ele>1434.0</ele><time>2026-04-12T09:03:45.193Z</time></trkpt><trkpt lat="37.9515033" lon="14.841565"><ele>1434.0</ele><time>2026-04-12T09:03:47.192Z</time></trkpt><trkpt lat="37.95151" lon="14.841645"><ele>1434.0</ele><time>2026-04-12T09:03:49.194Z</time></trkpt><trkpt lat="37.951515" lon="14.841755"><ele>1434.0</ele><time>2026-04-12T09:03:52.194Z</time></trkpt><trkpt lat="37.9515117" lon="14.8418667"><ele>1434.0</ele><time>2026-04-12T09:03:55.195Z</time></trkpt><trkpt lat="37.951525" lon="14.8419767"><ele>1434.0</ele><time>2026-04-12T09:03:58.194Z</time></trkpt><trkpt lat="37.9515833" lon="14.842035"><ele>1434.0</ele><time>2026-04-12T09:04:01.192Z</time></trkpt><trkpt lat="37.951635" lon="14.842115"><ele>1434.0</ele><time>2026-04-12T09:04:04.191Z</time></trkpt><trkpt lat="37.9516867" lon="14.842185"><ele>1433.8333333333333</ele><time>2026-04-12T09:04:06.193Z</time></trkpt><trkpt lat="37.9517367" lon="14.8422517"><ele>1433.6666666666667</ele><time>2026-04-12T09:04:08.192Z</time></trkpt><trkpt lat="37.9518" lon="14.8423083"><ele>1433.5</ele><time>2026-04-12T09:04:10.192Z</time></trkpt><trkpt lat="37.9518717" lon="14.8423683"><ele>1433.3333333333335</ele><time>2026-04-12T09:04:12.192Z</time></trkpt><trkpt lat="37.951935" lon="14.8424367"><ele>1433.1666666666667</ele><time>2026-04-12T09:04:14.193Z</time></trkpt><trkpt lat="37.9520117" lon="14.842505"><ele>1433.0</ele><time>2026-04-12T09:04:16.192Z</time></trkpt><trkpt lat="37.952095" lon="14.8425767"><ele>1432.0</ele><time>2026-04-12T09:04:18.193Z</time></trkpt><trkpt lat="37.95219" lon="14.8426367"><ele>1431.0</ele><time>2026-04-12T09:04:20.193Z</time></trkpt><trkpt lat="37.9522833" lon="14.8427"><ele>1430.0</ele><time>2026-04-12T09:04:22.192Z</time></trkpt><trkpt lat="37.9523633" lon="14.8427733"><ele>1429.0</ele><time>2026-04-12T09:04:24.193Z</time></trkpt><trkpt lat="37.95244" lon="14.842855"><ele>1428.0</ele><time>2026-04-12T09:04:26.193Z</time></trkpt><trkpt lat="37.9525017" lon="14.8429483"><ele>1428.4</ele><time>2026-04-12T09:04:28.193Z</time></trkpt><trkpt lat="37.9525533" lon="14.8430483"><ele>1428.8000000000002</ele><time>2026-04-12T09:04:30.193Z</time></trkpt><trkpt lat="37.9526117" lon="14.8431417"><ele>1429.2</ele><time>2026-04-12T09:04:32.191Z</time></trkpt><trkpt lat="37.9526767" lon="14.8432217"><ele>1429.6</ele><time>2026-04-12T09:04:34.192Z</time></trkpt><trkpt lat="37.9527633" lon="14.8432783"><ele>1430.0</ele><time>2026-04-12T09:04:36.192Z</time></trkpt><trkpt lat="37.9528467" lon="14.8432867"><ele>1430.0</ele><time>2026-04-12T09:04:38.192Z</time></trkpt><trkpt lat="37.9529267" lon="14.843235"><ele>1430.0</ele><time>2026-04-12T09:04:40.192Z</time></trkpt><trkpt lat="37.9529883" lon="14.8431433"><ele>1430.0</ele><time>2026-04-12T09:04:42.193Z</time></trkpt><trkpt lat="37.95304" lon="14.8430517"><ele>1430.0</ele><time>2026-04-12T09:04:44.193Z</time></trkpt><trkpt lat="37.9531033" lon="14.8429767"><ele>1430.0</ele><time>2026-04-12T09:04:46.194Z</time></trkpt><trkpt lat="37.9531583" lon="14.8429267"><ele>1430.0</ele><time>2026-04-12T09:04:48.194Z</time></trkpt><trkpt lat="37.9532183" lon="14.8428767"><ele>1430.0</ele><time>2026-04-12T09:04:51.193Z</time></trkpt><trkpt lat="37.9532867" lon="14.8428267"><ele>1430.0</ele><time>2026-04-12T09:05:04.192Z</time></trkpt><trkpt lat="37.95335" lon="14.84277"><ele>1430.0</ele><time>2026-04-12T09:05:07.194Z</time></trkpt><trkpt lat="37.9534233" lon="14.8427633"><ele>1430.0</ele><time>2026-04-12T09:05:10.193Z</time></trkpt><trkpt lat="37.9535067" lon="14.8427583"><ele>1430.0</ele><time>2026-04-12T09:05:13.192Z</time></trkpt><trkpt lat="37.9535767" lon="14.84276"><ele>1430.0</ele><time>2026-04-12T09:05:16.193Z</time></trkpt><trkpt lat="37.95365" lon="14.842775"><ele>1430.5</ele><time>2026-04-12T09:05:19.194Z</time></trkpt><trkpt lat="37.9537283" lon="14.8428133"><ele>1431.0</ele><time>2026-04-12T09:05:22.194Z</time></trkpt><trkpt lat="37.95379" lon="14.84286"><ele>1431.5</ele><time>2026-04-12T09:05:25.194Z</time></trkpt><trkpt lat="37.9538467" lon="14.8429317"><ele>1432.0</ele><time>2026-04-12T09:06:06.192Z</time></trkpt><trkpt lat="37.9539067" lon="14.8430083"><ele>1432.5</ele><time>2026-04-12T09:06:09.192Z</time></trkpt><trkpt lat="37.9539733" lon="14.8430617"><ele>1433.0</ele><time>2026-04-12T09:06:13.193Z</time></trkpt><trkpt lat="37.9540517" lon="14.8430983"><ele>1433.0</ele><time>2026-04-12T09:06:17.193Z</time></trkpt><trkpt lat="37.9541283" lon="14.8431117"><ele>1433.0</ele><time>2026-04-12T09:06:20.194Z</time></trkpt><trkpt lat="37.9542083" lon="14.8431083"><ele>1433.0</ele><time>2026-04-12T09:06:23.192Z</time></trkpt><trkpt lat="37.954285" lon="14.8430867"><ele>1433.0</ele><time>2026-04-12T09:06:26.194Z</time></trkpt><trkpt lat="37.9543667" lon="14.8430517"><ele>1433.0</ele><time>2026-04-12T09:06:29.192Z</time></trkpt><trkpt lat="37.954455" lon="14.8430283"><ele>1433.0</ele><time>2026-04-12T09:06:32.195Z</time></trkpt><trkpt lat="37.9545133" lon="14.842985"><ele>1433.6666666666667</ele><time>2026-04-12T09:06:35.193Z</time></trkpt><trkpt lat="37.9545867" lon="14.8429317"><ele>1434.3333333333335</ele><time>2026-04-12T09:06:38.194Z</time></trkpt><trkpt lat="37.95464" lon="14.8428867"><ele>1435.0</ele><time>2026-04-12T09:06:42.193Z</time></trkpt><trkpt lat="37.9547167" lon="14.8428333"><ele>1435.6666666666667</ele><time>2026-04-12T09:06:46.192Z</time></trkpt><trkpt lat="37.9547967" lon="14.842785"><ele>1436.3333333333333</ele><time>2026-04-12T09:06:49.192Z</time></trkpt><trkpt lat="37.9548517" lon="14.8427367"><ele>1437.0</ele><time>2026-04-12T09:06:51.192Z</time></trkpt><trkpt lat="37.9548867" lon="14.8426333"><ele>1436.3333333333333</ele><time>2026-04-12T09:06:54.193Z</time></trkpt><trkpt lat="37.9548533" lon="14.8425333"><ele>1435.6666666666667</ele><time>2026-04-12T09:06:57.193Z</time></trkpt><trkpt lat="37.9548067" lon="14.8424517"><ele>1435.0</ele><time>2026-04-12T09:07:00.192Z</time></trkpt><trkpt lat="37.954765" lon="14.8423883"><ele>1434.3333333333335</ele><time>2026-04-12T09:07:03.192Z</time></trkpt><trkpt lat="37.95471" lon="14.8423133"><ele>1433.6666666666667</ele><time>2026-04-12T09:07:06.193Z</time></trkpt><trkpt lat="37.9546483" lon="14.8422333"><ele>1433.0</ele><time>2026-04-12T09:07:09.194Z</time></trkpt><trkpt lat="37.95458" lon="14.8421717"><ele>1433.0</ele><time>2026-04-12T09:07:12.194Z</time></trkpt><trkpt lat="37.95453" lon="14.8421033"><ele>1433.0</ele><time>2026-04-12T09:07:15.193Z</time></trkpt><trkpt lat="37.954485" lon="14.8420217"><ele>1433.0</ele><time>2026-04-12T09:07:18.192Z</time></trkpt><trkpt lat="37.9544217" lon="14.84195"><ele>1433.0</ele><time>2026-04-12T09:07:21.194Z</time></trkpt><trkpt lat="37.9543717" lon="14.8418983"><ele>1433.0</ele><time>2026-04-12T09:07:23.192Z</time></trkpt><trkpt lat="37.95431" lon="14.8418117"><ele>1433.0</ele><time>2026-04-12T09:07:26.194Z</time></trkpt><trkpt lat="37.954275" lon="14.8417417"><ele>1432.5</ele><time>2026-04-12T09:07:28.193Z</time></trkpt><trkpt lat="37.95424" lon="14.8416717"><ele>1432.0</ele><time>2026-04-12T09:07:30.193Z</time></trkpt><trkpt lat="37.9542017" lon="14.841565"><ele>1431.5</ele><time>2026-04-12T09:07:33.192Z</time></trkpt><trkpt lat="37.9541767" lon="14.8414533"><ele>1431.0</ele><time>2026-04-12T09:07:36.193Z</time></trkpt><trkpt lat="37.9541633" lon="14.8413733"><ele>1430.5</ele><time>2026-04-12T09:07:38.193Z</time></trkpt><trkpt lat="37.95417" lon="14.8412867"><ele>1430.0</ele><time>2026-04-12T09:07:40.193Z</time></trkpt><trkpt lat="37.954195" lon="14.8411967"><ele>1432.6666666666667</ele><time>2026-04-12T09:07:42.194Z</time></trkpt><trkpt lat="37.9542317" lon="14.8411133"><ele>1435.3333333333335</ele><time>2026-04-12T09:07:44.194Z</time></trkpt><trkpt lat="37.9542817" lon="14.8410367"><ele>1438.0</ele><time>2026-04-12T09:07:46.193Z</time></trkpt><trkpt lat="37.9543367" lon="14.8409583"><ele>1440.6666666666667</ele><time>2026-04-12T09:07:48.193Z</time></trkpt><trkpt lat="37.9543917" lon="14.840875"><ele>1443.3333333333333</ele><time>2026-04-12T09:07:50.193Z</time></trkpt><trkpt lat="37.95445" lon="14.8407917"><ele>1446.0</ele><time>2026-04-12T09:07:52.193Z</time></trkpt><trkpt lat="37.954505" lon="14.840715"><ele>1446.6666666666667</ele><time>2026-04-12T09:07:54.192Z</time></trkpt><trkpt lat="37.95455" lon="14.84064"><ele>1447.3333333333333</ele><time>2026-04-12T09:07:56.193Z</time></trkpt><trkpt lat="37.9545717" lon="14.8405583"><ele>1448.0</ele><time>2026-04-12T09:07:58.194Z</time></trkpt><trkpt lat="37.95459" lon="14.8404683"><ele>1448.6666666666665</ele><time>2026-04-12T09:08:01.192Z</time></trkpt><trkpt lat="37.9545883" lon="14.8403583"><ele>1449.3333333333333</ele><time>2026-04-12T09:08:08.192Z</time></trkpt><trkpt lat="37.954585" lon="14.84026"><ele>1450.0</ele><time>2026-04-12T09:08:11.192Z</time></trkpt><trkpt lat="37.9545667" lon="14.8401583"><ele>1449.4285714285716</ele><time>2026-04-12T09:08:14.192Z</time></trkpt><trkpt lat="37.9545367" lon="14.8400783"><ele>1448.857142857143</ele><time>2026-04-12T09:08:17.193Z</time></trkpt><trkpt lat="37.9545017" lon="14.8399983"><ele>1448.2857142857142</ele><time>2026-04-12T09:08:21.195Z</time></trkpt><trkpt lat="37.95452" lon="14.840085"><ele>1447.7142857142858</ele><time>2026-04-12T09:08:45.192Z</time></trkpt><trkpt lat="37.9545717" lon="14.8400233"><ele>1447.142857142857</ele><time>2026-04-12T09:09:04.193Z</time></trkpt><trkpt lat="37.9545633" lon="14.839905"><ele>1446.5714285714287</ele><time>2026-04-12T09:09:07.193Z</time></trkpt><trkpt lat="37.9545483" lon="14.8398233"><ele>1446.0</ele><time>2026-04-12T09:09:09.193Z</time></trkpt><trkpt lat="37.9545483" lon="14.8397433"><ele>1446.0000000000002</ele><time>2026-04-12T09:09:12.197Z</time></trkpt><trkpt lat="37.9545283" lon="14.8396583"><ele>1446.0</ele><time>2026-04-12T09:09:27.193Z</time></trkpt><trkpt lat="37.9544817" lon="14.8395967"><ele>1446.0</ele><time>2026-04-12T09:09:31.195Z</time></trkpt><trkpt lat="37.9544567" lon="14.8395083"><ele>1446.0</ele><time>2026-04-12T09:09:35.196Z</time></trkpt><trkpt lat="37.9545183" lon="14.8394183"><ele>1446.0</ele><time>2026-04-12T09:09:38.195Z</time></trkpt><trkpt lat="37.9545717" lon="14.8393617"><ele>1446.0000000000002</ele><time>2026-04-12T09:09:40.195Z</time></trkpt><trkpt lat="37.9546233" lon="14.839305"><ele>1446.0</ele><time>2026-04-12T09:09:42.196Z</time></trkpt><trkpt lat="37.954675" lon="14.839245"><ele>1446.6666666666667</ele><time>2026-04-12T09:09:45.196Z</time></trkpt><trkpt lat="37.9547333" lon="14.8391867"><ele>1447.3333333333333</ele><time>2026-04-12T09:09:48.192Z</time></trkpt><trkpt lat="37.9548067" lon="14.8391283"><ele>1448.0</ele><time>2026-04-12T09:09:51.198Z</time></trkpt><trkpt lat="37.954885" lon="14.839075"><ele>1448.6666666666665</ele><time>2026-04-12T09:09:54.193Z</time></trkpt><trkpt lat="37.9549383" lon="14.8390267"><ele>1449.3333333333333</ele><time>2026-04-12T09:09:56.193Z</time></trkpt><trkpt lat="37.9550183" lon="14.838965"><ele>1450.0</ele><time>2026-04-12T09:09:59.193Z</time></trkpt><trkpt lat="37.955085" lon="14.8389083"><ele>1450.0</ele><time>2026-04-12T09:10:02.194Z</time></trkpt><trkpt lat="37.955155" lon="14.838855"><ele>1450.0</ele><time>2026-04-12T09:10:05.193Z</time></trkpt><trkpt lat="37.955225" lon="14.8388117"><ele>1450.0</ele><time>2026-04-12T09:10:09.193Z</time></trkpt><trkpt lat="37.9553" lon="14.83876"><ele>1450.0</ele><time>2026-04-12T09:10:12.192Z</time></trkpt><trkpt lat="37.95536" lon="14.838725"><ele>1450.0</ele><time>2026-04-12T09:10:14.193Z</time></trkpt><trkpt lat="37.9554383" lon="14.8386917"><ele>1450.0</ele><time>2026-04-12T09:10:17.193Z</time></trkpt><trkpt lat="37.9555217" lon="14.8386567"><ele>1450.0</ele><time>2026-04-12T09:10:20.194Z</time></trkpt><trkpt lat="37.955605" lon="14.8386033"><ele>1450.0</ele><time>2026-04-12T09:10:23.192Z</time></trkpt><trkpt lat="37.9556667" lon="14.8385733"><ele>1450.0</ele><time>2026-04-12T09:10:26.193Z</time></trkpt><trkpt lat="37.9557267" lon="14.8385267"><ele>1450.0</ele><time>2026-04-12T09:10:29.195Z</time></trkpt><trkpt lat="37.955795" lon="14.8384883"><ele>1450.0</ele><time>2026-04-12T09:10:33.193Z</time></trkpt><trkpt lat="37.9558517" lon="14.838425"><ele>1450.0</ele><time>2026-04-12T09:10:36.192Z</time></trkpt><trkpt lat="37.9558867" lon="14.8383333"><ele>1447.7142857142858</ele><time>2026-04-12T09:10:39.193Z</time></trkpt><trkpt lat="37.9559367" lon="14.8382483"><ele>1445.4285714285716</ele><time>2026-04-12T09:10:42.193Z</time></trkpt><trkpt lat="37.9560017" lon="14.8381933"><ele>1443.142857142857</ele><time>2026-04-12T09:10:46.193Z</time></trkpt><trkpt lat="37.95607" lon="14.83814"><ele>1440.857142857143</ele><time>2026-04-12T09:10:50.194Z</time></trkpt><trkpt lat="37.9561233" lon="14.8380817"><ele>1438.5714285714284</ele><time>2026-04-12T09:10:53.195Z</time></trkpt><trkpt lat="37.9561617" lon="14.838015"><ele>1436.2857142857142</ele><time>2026-04-12T09:10:56.192Z</time></trkpt><trkpt lat="37.9561967" lon="14.8379467"><ele>1434.0</ele><time>2026-04-12T09:10:59.192Z</time></trkpt><trkpt lat="37.9562333" lon="14.8378733"><ele>1434.0</ele><time>2026-04-12T09:11:02.193Z</time></trkpt><trkpt lat="37.956255" lon="14.8377967"><ele>1434.0</ele><time>2026-04-12T09:11:05.193Z</time></trkpt><trkpt lat="37.9562933" lon="14.8377233"><ele>1434.0</ele><time>2026-04-12T09:11:08.192Z</time></trkpt><trkpt lat="37.9563417" lon="14.8376633"><ele>1434.0</ele><time>2026-04-12T09:11:11.193Z</time></trkpt><trkpt lat="37.9564" lon="14.8376033"><ele>1434.0</ele><time>2026-04-12T09:11:14.194Z</time></trkpt><trkpt lat="37.956475" lon="14.8375533"><ele>1434.0</ele><time>2026-04-12T09:11:18.192Z</time></trkpt><trkpt lat="37.9565333" lon="14.837505"><ele>1434.0</ele><time>2026-04-12T09:11:21.193Z</time></trkpt><trkpt lat="37.9565967" lon="14.83745"><ele>1434.5714285714284</ele><time>2026-04-12T09:11:25.195Z</time></trkpt><trkpt lat="37.9566567" lon="14.8374083"><ele>1435.142857142857</ele><time>2026-04-12T09:11:28.192Z</time></trkpt><trkpt lat="37.9567167" lon="14.8373783"><ele>1435.7142857142858</ele><time>2026-04-12T09:11:31.192Z</time></trkpt><trkpt lat="37.9567917" lon="14.8373367"><ele>1436.2857142857142</ele><time>2026-04-12T09:11:35.194Z</time></trkpt><trkpt lat="37.9568333" lon="14.8372567"><ele>1436.857142857143</ele><time>2026-04-12T09:11:39.193Z</time></trkpt><trkpt lat="37.9568817" lon="14.83719"><ele>1437.4285714285713</ele><time>2026-04-12T09:11:43.193Z</time></trkpt><trkpt lat="37.9569567" lon="14.8371633"><ele>1438.0</ele><time>2026-04-12T09:11:47.194Z</time></trkpt><trkpt lat="37.9570317" lon="14.8371317"><ele>1439.7142857142856</ele><time>2026-04-12T09:11:51.192Z</time></trkpt><trkpt lat="37.9571" lon="14.837125"><ele>1441.4285714285713</ele><time>2026-04-12T09:11:55.193Z</time></trkpt><trkpt lat="37.95718" lon="14.8371417"><ele>1443.142857142857</ele><time>2026-04-12T09:11:59.192Z</time></trkpt><trkpt lat="37.9572483" lon="14.83713"><ele>1444.8571428571427</ele><time>2026-04-12T09:12:02.192Z</time></trkpt><trkpt lat="37.9573117" lon="14.8371117"><ele>1446.5714285714287</ele><time>2026-04-12T09:12:05.193Z</time></trkpt><trkpt lat="37.9573767" lon="14.8370883"><ele>1448.2857142857142</ele><time>2026-04-12T09:12:08.192Z</time></trkpt><trkpt lat="37.95744" lon="14.8370617"><ele>1450.0</ele><time>2026-04-12T09:12:11.193Z</time></trkpt><trkpt lat="37.9575017" lon="14.8370383"><ele>1451.5714285714287</ele><time>2026-04-12T09:12:14.193Z</time></trkpt><trkpt lat="37.9575617" lon="14.8370117"><ele>1453.1428571428573</ele><time>2026-04-12T09:12:17.192Z</time></trkpt><trkpt lat="37.9576283" lon="14.8369683"><ele>1454.7142857142858</ele><time>2026-04-12T09:12:20.194Z</time></trkpt><trkpt lat="37.957685" lon="14.8369183"><ele>1456.2857142857142</ele><time>2026-04-12T09:12:23.194Z</time></trkpt><trkpt lat="37.95774" lon="14.836865"><ele>1457.857142857143</ele><time>2026-04-12T09:12:26.193Z</time></trkpt><trkpt lat="37.9577967" lon="14.8368167"><ele>1459.4285714285713</ele><time>2026-04-12T09:12:29.193Z</time></trkpt><trkpt lat="37.9578533" lon="14.8367733"><ele>1461.0</ele><time>2026-04-12T09:12:32.194Z</time></trkpt><trkpt lat="37.9579117" lon="14.836705"><ele>1461.0</ele><time>2026-04-12T09:12:36.192Z</time></trkpt><trkpt lat="37.9579683" lon="14.8366533"><ele>1461.0</ele><time>2026-04-12T09:12:39.192Z</time></trkpt><trkpt lat="37.9580217" lon="14.8366033"><ele>1461.0</ele><time>2026-04-12T09:12:42.193Z</time></trkpt><trkpt lat="37.9580717" lon="14.8365433"><ele>1461.0</ele><time>2026-04-12T09:12:45.194Z</time></trkpt><trkpt lat="37.9581367" lon="14.8365133"><ele>1461.0</ele><time>2026-04-12T09:12:48.193Z</time></trkpt><trkpt lat="37.9582017" lon="14.836505"><ele>1461.0</ele><time>2026-04-12T09:12:51.194Z</time></trkpt><trkpt lat="37.95828" lon="14.8364917"><ele>1461.0</ele><time>2026-04-12T09:12:55.193Z</time></trkpt><trkpt lat="37.9583533" lon="14.8364533"><ele>1462.142857142857</ele><time>2026-04-12T09:13:00.193Z</time></trkpt><trkpt lat="37.9584217" lon="14.836395"><ele>1463.2857142857144</ele><time>2026-04-12T09:13:03.194Z</time></trkpt><trkpt lat="37.9584833" lon="14.8363783"><ele>1464.4285714285716</ele><time>2026-04-12T09:13:06.192Z</time></trkpt><trkpt lat="37.958545" lon="14.836355"><ele>1465.5714285714284</ele><time>2026-04-12T09:13:09.193Z</time></trkpt><trkpt lat="37.9586167" lon="14.83631"><ele>1466.7142857142858</ele><time>2026-04-12T09:13:12.193Z</time></trkpt><trkpt lat="37.958685" lon="14.8362917"><ele>1467.857142857143</ele><time>2026-04-12T09:13:15.192Z</time></trkpt><trkpt lat="37.95875" lon="14.8362767"><ele>1469.0</ele><time>2026-04-12T09:13:18.195Z</time></trkpt><trkpt lat="37.9588033" lon="14.836225"><ele>1469.0</ele><time>2026-04-12T09:13:21.195Z</time></trkpt><trkpt lat="37.9588533" lon="14.83617"><ele>1469.0</ele><time>2026-04-12T09:13:24.195Z</time></trkpt><trkpt lat="37.9589" lon="14.836085"><ele>1469.0</ele><time>2026-04-12T09:13:28.192Z</time></trkpt><trkpt lat="37.9589283" lon="14.8360067"><ele>1469.0</ele><time>2026-04-12T09:13:31.192Z</time></trkpt><trkpt lat="37.9589633" lon="14.8359283"><ele>1469.0</ele><time>2026-04-12T09:13:34.193Z</time></trkpt><trkpt lat="37.9590117" lon="14.8358433"><ele>1469.0</ele><time>2026-04-12T09:13:48.193Z</time></trkpt><trkpt lat="37.9590617" lon="14.835775"><ele>1469.0</ele><time>2026-04-12T09:13:51.192Z</time></trkpt><trkpt lat="37.95912" lon="14.83571"><ele>1468.0</ele><time>2026-04-12T09:13:54.192Z</time></trkpt><trkpt lat="37.95918" lon="14.8356433"><ele>1467.0</ele><time>2026-04-12T09:13:57.194Z</time></trkpt><trkpt lat="37.9592467" lon="14.8356017"><ele>1466.0</ele><time>2026-04-12T09:14:00.192Z</time></trkpt><trkpt lat="37.9593183" lon="14.8355767"><ele>1465.0</ele><time>2026-04-12T09:14:03.193Z</time></trkpt><trkpt lat="37.9593833" lon="14.8355533"><ele>1464.0</ele><time>2026-04-12T09:14:06.193Z</time></trkpt><trkpt lat="37.9594533" lon="14.8355317"><ele>1463.0</ele><time>2026-04-12T09:14:09.194Z</time></trkpt><trkpt lat="37.9595217" lon="14.835505"><ele>1462.0</ele><time>2026-04-12T09:14:12.192Z</time></trkpt><trkpt lat="37.9595983" lon="14.8354717"><ele>1461.7142857142858</ele><time>2026-04-12T09:14:15.192Z</time></trkpt><trkpt lat="37.9596583" lon="14.835445"><ele>1461.4285714285713</ele><time>2026-04-12T09:14:17.193Z</time></trkpt><trkpt lat="37.95972" lon="14.83541"><ele>1461.1428571428573</ele><time>2026-04-12T09:14:19.193Z</time></trkpt><trkpt lat="37.9597783" lon="14.8353633"><ele>1460.857142857143</ele><time>2026-04-12T09:14:21.193Z</time></trkpt><trkpt lat="37.959835" lon="14.8353033"><ele>1460.5714285714287</ele><time>2026-04-12T09:14:23.193Z</time></trkpt><trkpt lat="37.95989" lon="14.835235"><ele>1460.2857142857144</ele><time>2026-04-12T09:14:25.193Z</time></trkpt><trkpt lat="37.95994" lon="14.8351567"><ele>1460.0</ele><time>2026-04-12T09:14:27.192Z</time></trkpt><trkpt lat="37.9599933" lon="14.8350767"><ele>1459.6666666666667</ele><time>2026-04-12T09:14:29.194Z</time></trkpt><trkpt lat="37.96005" lon="14.8350033"><ele>1459.3333333333335</ele><time>2026-04-12T09:14:33.193Z</time></trkpt><trkpt lat="37.9601033" lon="14.8349483"><ele>1459.0</ele><time>2026-04-12T09:14:36.192Z</time></trkpt><trkpt lat="37.9601583" lon="14.8348633"><ele>1458.6666666666667</ele><time>2026-04-12T09:14:39.193Z</time></trkpt><trkpt lat="37.960205" lon="14.8347967"><ele>1458.3333333333333</ele><time>2026-04-12T09:14:41.192Z</time></trkpt><trkpt lat="37.9602783" lon="14.8347383"><ele>1458.0</ele><time>2026-04-12T09:14:44.193Z</time></trkpt><trkpt lat="37.96034" lon="14.8347117"><ele>1458.0</ele><time>2026-04-12T09:14:46.194Z</time></trkpt><trkpt lat="37.9604" lon="14.8346867"><ele>1458.0</ele><time>2026-04-12T09:14:48.192Z</time></trkpt><trkpt lat="37.9604867" lon="14.8346717"><ele>1458.0</ele><time>2026-04-12T09:14:51.194Z</time></trkpt><trkpt lat="37.9605617" lon="14.834675"><ele>1458.0</ele><time>2026-04-12T09:14:54.194Z</time></trkpt><trkpt lat="37.9606333" lon="14.8347183"><ele>1458.0</ele><time>2026-04-12T09:17:54.196Z</time></trkpt><trkpt lat="37.9607217" lon="14.834745"><ele>1458.0</ele><time>2026-04-12T09:17:57.194Z</time></trkpt><trkpt lat="37.9607983" lon="14.8347283"><ele>1456.0</ele><time>2026-04-12T09:17:59.195Z</time></trkpt><trkpt lat="37.9608867" lon="14.83468"><ele>1454.0</ele><time>2026-04-12T09:18:01.193Z</time></trkpt><trkpt lat="37.96096" lon="14.834615"><ele>1452.0</ele><time>2026-04-12T09:18:03.193Z</time></trkpt><trkpt lat="37.96101" lon="14.8345483"><ele>1450.0</ele><time>2026-04-12T09:18:05.194Z</time></trkpt><trkpt lat="37.96106" lon="14.8344967"><ele>1448.0</ele><time>2026-04-12T09:18:07.193Z</time></trkpt><trkpt lat="37.9611317" lon="14.8344767"><ele>1446.0</ele><time>2026-04-12T09:18:09.193Z</time></trkpt><trkpt lat="37.9612083" lon="14.83447"><ele>1446.0</ele><time>2026-04-12T09:18:11.194Z</time></trkpt><trkpt lat="37.9612717" lon="14.8344967"><ele>1446.0</ele><time>2026-04-12T09:18:13.194Z</time></trkpt><trkpt lat="37.9613417" lon="14.8345183"><ele>1446.0</ele><time>2026-04-12T09:18:15.193Z</time></trkpt><trkpt lat="37.9614067" lon="14.83451"><ele>1446.0</ele><time>2026-04-12T09:18:17.194Z</time></trkpt><trkpt lat="37.9615" lon="14.83449"><ele>1446.0</ele><time>2026-04-12T09:18:20.195Z</time></trkpt><trkpt lat="37.961585" lon="14.834455"><ele>1446.0</ele><time>2026-04-12T09:18:23.196Z</time></trkpt><trkpt lat="37.961645" lon="14.8344183"><ele>1446.1666666666667</ele><time>2026-04-12T09:18:25.192Z</time></trkpt><trkpt lat="37.9617183" lon="14.8343583"><ele>1446.3333333333333</ele><time>2026-04-12T09:18:28.193Z</time></trkpt><trkpt lat="37.9617883" lon="14.8342867"><ele>1446.5</ele><time>2026-04-12T09:18:31.194Z</time></trkpt><trkpt lat="37.9618233" lon="14.8342083"><ele>1446.6666666666665</ele><time>2026-04-12T09:18:33.194Z</time></trkpt><trkpt lat="37.96186" lon="14.8341417"><ele>1446.8333333333333</ele><time>2026-04-12T09:18:35.193Z</time></trkpt><trkpt lat="37.9619183" lon="14.8341"><ele>1447.0</ele><time>2026-04-12T09:18:37.192Z</time></trkpt><trkpt lat="37.9620033" lon="14.8340833"><ele>1447.0</ele><time>2026-04-12T09:18:40.195Z</time></trkpt><trkpt lat="37.9620767" lon="14.8341183"><ele>1447.0</ele><time>2026-04-12T09:18:43.196Z</time></trkpt><trkpt lat="37.9621517" lon="14.8341767"><ele>1447.0</ele><time>2026-04-12T09:18:46.193Z</time></trkpt><trkpt lat="37.9622117" lon="14.8342067"><ele>1447.0</ele><time>2026-04-12T09:18:48.192Z</time></trkpt><trkpt lat="37.9623033" lon="14.8342267"><ele>1447.0</ele><time>2026-04-12T09:18:51.195Z</time></trkpt><trkpt lat="37.96238" lon="14.834215"><ele>1447.0</ele><time>2026-04-12T09:18:53.196Z</time></trkpt><trkpt lat="37.96246" lon="14.8341533"><ele>1444.3333333333333</ele><time>2026-04-12T09:18:55.195Z</time></trkpt><trkpt lat="37.9625317" lon="14.8340867"><ele>1441.6666666666665</ele><time>2026-04-12T09:18:57.193Z</time></trkpt><trkpt lat="37.96261" lon="14.834055"><ele>1439.0</ele><time>2026-04-12T09:18:59.195Z</time></trkpt><trkpt lat="37.962685" lon="14.83405"><ele>1436.3333333333333</ele><time>2026-04-12T09:19:01.194Z</time></trkpt><trkpt lat="37.96277" lon="14.83406"><ele>1433.6666666666667</ele><time>2026-04-12T09:19:03.194Z</time></trkpt><trkpt lat="37.962875" lon="14.8340317"><ele>1431.0</ele><time>2026-04-12T09:19:05.194Z</time></trkpt><trkpt lat="37.9629617" lon="14.8339683"><ele>1431.0</ele><time>2026-04-12T09:19:07.193Z</time></trkpt><trkpt lat="37.9630333" lon="14.8339233"><ele>1431.0</ele><time>2026-04-12T09:19:09.193Z</time></trkpt><trkpt lat="37.963115" lon="14.83391"><ele>1431.0</ele><time>2026-04-12T09:19:11.195Z</time></trkpt><trkpt lat="37.96321" lon="14.83391"><ele>1431.0</ele><time>2026-04-12T09:19:13.195Z</time></trkpt><trkpt lat="37.9633067" lon="14.83383"><ele>1431.0</ele><time>2026-04-12T09:19:15.192Z</time></trkpt><trkpt lat="37.9633467" lon="14.8337667"><ele>1431.0</ele><time>2026-04-12T09:19:16.194Z</time></trkpt><trkpt lat="37.9633833" lon="14.8337"><ele>1431.3333333333333</ele><time>2026-04-12T09:19:17.193Z</time></trkpt><trkpt lat="37.9634283" lon="14.8335817"><ele>1431.6666666666667</ele><time>2026-04-12T09:19:19.195Z</time></trkpt><trkpt lat="37.9634433" lon="14.83348"><ele>1432.0</ele><time>2026-04-12T09:19:21.193Z</time></trkpt><trkpt lat="37.963485" lon="14.8333783"><ele>1432.3333333333335</ele><time>2026-04-12T09:19:24.194Z</time></trkpt><trkpt lat="37.963525" lon="14.8333083"><ele>1432.6666666666667</ele><time>2026-04-12T09:19:26.195Z</time></trkpt><trkpt lat="37.96362" lon="14.8332883"><ele>1433.0</ele><time>2026-04-12T09:19:29.194Z</time></trkpt><trkpt lat="37.9636917" lon="14.8333117"><ele>1433.0</ele><time>2026-04-12T09:19:31.193Z</time></trkpt><trkpt lat="37.963765" lon="14.8333417"><ele>1433.0</ele><time>2026-04-12T09:19:33.194Z</time></trkpt><trkpt lat="37.9638567" lon="14.8333817"><ele>1433.0</ele><time>2026-04-12T09:19:35.194Z</time></trkpt><trkpt lat="37.9639733" lon="14.8333917"><ele>1433.0</ele><time>2026-04-12T09:19:37.194Z</time></trkpt><trkpt lat="37.9641" lon="14.8333883"><ele>1433.0</ele><time>2026-04-12T09:19:39.193Z</time></trkpt><trkpt lat="37.964165" lon="14.83339"><ele>1433.6000000000001</ele><time>2026-04-12T09:19:40.192Z</time></trkpt><trkpt lat="37.9642317" lon="14.8333883"><ele>1434.2</ele><time>2026-04-12T09:19:41.193Z</time></trkpt><trkpt lat="37.9642967" lon="14.8333917"><ele>1434.8</ele><time>2026-04-12T09:19:42.193Z</time></trkpt><trkpt lat="37.96441" lon="14.83342"><ele>1435.4</ele><time>2026-04-12T09:19:44.194Z</time></trkpt><trkpt lat="37.9645283" lon="14.83345"><ele>1436.0</ele><time>2026-04-12T09:19:46.195Z</time></trkpt><trkpt lat="37.9646533" lon="14.833495"><ele>1433.2857142857142</ele><time>2026-04-12T09:19:48.194Z</time></trkpt><trkpt lat="37.9647167" lon="14.83352"><ele>1430.5714285714287</ele><time>2026-04-12T09:19:49.193Z</time></trkpt><trkpt lat="37.9647767" lon="14.833545"><ele>1427.8571428571427</ele><time>2026-04-12T09:19:50.195Z</time></trkpt><trkpt lat="37.9648417" lon="14.833585"><ele>1425.142857142857</ele><time>2026-04-12T09:19:52.193Z</time></trkpt><trkpt lat="37.9649017" lon="14.8336433"><ele>1422.4285714285713</ele><time>2026-04-12T09:19:55.193Z</time></trkpt><trkpt lat="37.9649833" lon="14.8336867"><ele>1419.7142857142856</ele><time>2026-04-12T09:19:59.194Z</time></trkpt><trkpt lat="37.9650467" lon="14.83371"><ele>1417.0</ele><time>2026-04-12T09:20:01.193Z</time></trkpt><trkpt lat="37.9651217" lon="14.8337"><ele>1417.0</ele><time>2026-04-12T09:20:03.194Z</time></trkpt><trkpt lat="37.9652017" lon="14.8336767"><ele>1417.0</ele><time>2026-04-12T09:20:05.193Z</time></trkpt><trkpt lat="37.96529" lon="14.833665"><ele>1417.0</ele><time>2026-04-12T09:20:07.193Z</time></trkpt><trkpt lat="37.9653667" lon="14.8336717"><ele>1417.0</ele><time>2026-04-12T09:20:09.194Z</time></trkpt><trkpt lat="37.965435" lon="14.8336717"><ele>1417.0</ele><time>2026-04-12T09:20:11.193Z</time></trkpt><trkpt lat="37.96551" lon="14.8336783"><ele>1417.0</ele><time>2026-04-12T09:20:15.193Z</time></trkpt><trkpt lat="37.96559" lon="14.83374"><ele>1417.0</ele><time>2026-04-12T09:20:18.196Z</time></trkpt><trkpt lat="37.96565" lon="14.83379"><ele>1417.0</ele><time>2026-04-12T09:20:20.196Z</time></trkpt><trkpt lat="37.9657317" lon="14.83379"><ele>1417.0</ele><time>2026-04-12T09:20:23.195Z</time></trkpt><trkpt lat="37.9658167" lon="14.8338017"><ele>1417.0</ele><time>2026-04-12T09:20:26.196Z</time></trkpt><trkpt lat="37.9659117" lon="14.8338133"><ele>1417.0</ele><time>2026-04-12T09:20:29.196Z</time></trkpt><trkpt lat="37.96598" lon="14.83382"><ele>1417.0</ele><time>2026-04-12T09:20:31.195Z</time></trkpt><trkpt lat="37.96606" lon="14.833845"><ele>1418.3333333333333</ele><time>2026-04-12T09:20:34.194Z</time></trkpt><trkpt lat="37.96615" lon="14.8338617"><ele>1419.6666666666665</ele><time>2026-04-12T09:20:37.192Z</time></trkpt><trkpt lat="37.96624" lon="14.8338883"><ele>1421.0</ele><time>2026-04-12T09:20:40.194Z</time></trkpt><trkpt lat="37.9663233" lon="14.8339167"><ele>1422.3333333333333</ele><time>2026-04-12T09:20:43.194Z</time></trkpt><trkpt lat="37.9664133" lon="14.8339533"><ele>1423.6666666666667</ele><time>2026-04-12T09:20:46.192Z</time></trkpt><trkpt lat="37.9664817" lon="14.8339767"><ele>1425.0</ele><time>2026-04-12T09:20:48.195Z</time></trkpt><trkpt lat="37.9665633" lon="14.8340133"><ele>1425.0</ele><time>2026-04-12T09:20:51.195Z</time></trkpt><trkpt lat="37.966635" lon="14.8340433"><ele>1425.0</ele><time>2026-04-12T09:20:54.193Z</time></trkpt><trkpt lat="37.9667033" lon="14.834085"><ele>1425.0</ele><time>2026-04-12T09:20:57.194Z</time></trkpt><trkpt lat="37.9667867" lon="14.834125"><ele>1425.0</ele><time>2026-04-12T09:21:00.195Z</time></trkpt><trkpt lat="37.9668483" lon="14.834145"><ele>1425.0</ele><time>2026-04-12T09:21:02.194Z</time></trkpt><trkpt lat="37.966935" lon="14.83416"><ele>1425.0</ele><time>2026-04-12T09:21:05.192Z</time></trkpt><trkpt lat="37.96702" lon="14.8342"><ele>1424.5</ele><time>2026-04-12T09:21:08.193Z</time></trkpt><trkpt lat="37.9670833" lon="14.834245"><ele>1424.0</ele><time>2026-04-12T09:21:11.193Z</time></trkpt><trkpt lat="37.9671333" lon="14.8343"><ele>1423.5</ele><time>2026-04-12T09:21:14.196Z</time></trkpt><trkpt lat="37.9671933" lon="14.8343783"><ele>1423.0</ele><time>2026-04-12T09:21:18.193Z</time></trkpt><trkpt lat="37.967255" lon="14.83444"><ele>1422.5</ele><time>2026-04-12T09:21:21.192Z</time></trkpt><trkpt lat="37.9673217" lon="14.83448"><ele>1422.0</ele><time>2026-04-12T09:21:24.193Z</time></trkpt><trkpt lat="37.9673983" lon="14.8345033"><ele>1422.0</ele><time>2026-04-12T09:21:27.194Z</time></trkpt><trkpt lat="37.967475" lon="14.8345167"><ele>1422.0</ele><time>2026-04-12T09:21:30.195Z</time></trkpt><trkpt lat="37.9675433" lon="14.8345233"><ele>1422.0</ele><time>2026-04-12T09:21:32.196Z</time></trkpt><trkpt lat="37.9676067" lon="14.8345167"><ele>1422.0</ele><time>2026-04-12T09:21:34.193Z</time></trkpt><trkpt lat="37.967695" lon="14.834505"><ele>1422.0</ele><time>2026-04-12T09:21:37.192Z</time></trkpt><trkpt lat="37.967765" lon="14.834495"><ele>1422.0</ele><time>2026-04-12T09:21:39.192Z</time></trkpt><trkpt lat="37.967835" lon="14.8344833"><ele>1422.0</ele><time>2026-04-12T09:21:41.195Z</time></trkpt><trkpt lat="37.9679017" lon="14.8344617"><ele>1421.2857142857142</ele><time>2026-04-12T09:21:43.192Z</time></trkpt><trkpt lat="37.9679583" lon="14.83441"><ele>1420.5714285714284</ele><time>2026-04-12T09:21:47.193Z</time></trkpt><trkpt lat="37.9679967" lon="14.8343467"><ele>1419.8571428571427</ele><time>2026-04-12T09:21:52.192Z</time></trkpt><trkpt lat="37.9680567" lon="14.8343067"><ele>1419.142857142857</ele><time>2026-04-12T09:22:14.196Z</time></trkpt><trkpt lat="37.968125" lon="14.83428"><ele>1418.4285714285713</ele><time>2026-04-12T09:22:17.193Z</time></trkpt><trkpt lat="37.9682" lon="14.83426"><ele>1417.7142857142856</ele><time>2026-04-12T09:22:20.194Z</time></trkpt><trkpt lat="37.9682733" lon="14.8342117"><ele>1417.0</ele><time>2026-04-12T09:22:23.193Z</time></trkpt><trkpt lat="37.9683467" lon="14.8341667"><ele>1418.0</ele><time>2026-04-12T09:22:26.196Z</time></trkpt><trkpt lat="37.9684183" lon="14.83413"><ele>1419.0</ele><time>2026-04-12T09:22:29.194Z</time></trkpt><trkpt lat="37.96848" lon="14.8341017"><ele>1420.0</ele><time>2026-04-12T09:22:32.193Z</time></trkpt><trkpt lat="37.9685533" lon="14.8340533"><ele>1421.0</ele><time>2026-04-12T09:22:36.193Z</time></trkpt><trkpt lat="37.9686333" lon="14.83404"><ele>1422.0</ele><time>2026-04-12T09:22:40.193Z</time></trkpt><trkpt lat="37.9687133" lon="14.8340283"><ele>1423.0</ele><time>2026-04-12T09:22:43.193Z</time></trkpt><trkpt lat="37.968805" lon="14.8340033"><ele>1423.0</ele><time>2026-04-12T09:22:46.194Z</time></trkpt><trkpt lat="37.9688783" lon="14.8339633"><ele>1423.0</ele><time>2026-04-12T09:22:48.194Z</time></trkpt><trkpt lat="37.96895" lon="14.8339183"><ele>1423.0</ele><time>2026-04-12T09:22:50.194Z</time></trkpt><trkpt lat="37.9690167" lon="14.8339017"><ele>1423.0</ele><time>2026-04-12T09:22:52.194Z</time></trkpt><trkpt lat="37.9690983" lon="14.833875"><ele>1423.0</ele><time>2026-04-12T09:22:55.195Z</time></trkpt><trkpt lat="37.9691683" lon="14.833835"><ele>1423.0</ele><time>2026-04-12T09:22:58.194Z</time></trkpt><trkpt lat="37.9692367" lon="14.833795"><ele>1424.2857142857144</ele><time>2026-04-12T09:23:01.194Z</time></trkpt><trkpt lat="37.969305" lon="14.8337617"><ele>1425.5714285714284</ele><time>2026-04-12T09:23:05.192Z</time></trkpt><trkpt lat="37.9693817" lon="14.8337133"><ele>1426.857142857143</ele><time>2026-04-12T09:23:09.193Z</time></trkpt><trkpt lat="37.9694533" lon="14.8336783"><ele>1428.1428571428573</ele><time>2026-04-12T09:23:12.194Z</time></trkpt><trkpt lat="37.9695217" lon="14.8336383"><ele>1429.4285714285716</ele><time>2026-04-12T09:23:15.192Z</time></trkpt><trkpt lat="37.969585" lon="14.833625"><ele>1430.7142857142858</ele><time>2026-04-12T09:23:18.193Z</time></trkpt><trkpt lat="37.969655" lon="14.833605"><ele>1432.0</ele><time>2026-04-12T09:23:52.193Z</time></trkpt><trkpt lat="37.9697283" lon="14.83359"><ele>1432.0000000000002</ele><time>2026-04-12T09:24:20.194Z</time></trkpt><trkpt lat="37.969765" lon="14.83351"><ele>1432.0</ele><time>2026-04-12T09:24:24.194Z</time></trkpt><trkpt lat="37.9697317" lon="14.8335933"><ele>1432.0</ele><time>2026-04-12T09:28:04.193Z</time></trkpt><trkpt lat="37.9697033" lon="14.8336917"><ele>1432.0</ele><time>2026-04-12T09:28:08.193Z</time></trkpt><trkpt lat="37.9696917" lon="14.8337717"><ele>1432.0</ele><time>2026-04-12T09:28:10.192Z</time></trkpt><trkpt lat="37.969685" lon="14.8338583"><ele>1432.0000000000002</ele><time>2026-04-12T09:28:12.192Z</time></trkpt><trkpt lat="37.9696683" lon="14.8339583"><ele>1432.0</ele><time>2026-04-12T09:28:14.194Z</time></trkpt><trkpt lat="37.9696483" lon="14.83406"><ele>1432.0</ele><time>2026-04-12T09:28:16.194Z</time></trkpt><trkpt lat="37.9696383" lon="14.8341683"><ele>1432.0</ele><time>2026-04-12T09:28:18.195Z</time></trkpt><trkpt lat="37.9696267" lon="14.8342717"><ele>1432.0</ele><time>2026-04-12T09:28:20.194Z</time></trkpt><trkpt lat="37.969615" lon="14.8343767"><ele>1432.0</ele><time>2026-04-12T09:28:22.193Z</time></trkpt><trkpt lat="37.9696083" lon="14.8344733"><ele>1432.0</ele><time>2026-04-12T09:28:24.194Z</time></trkpt><trkpt lat="37.969605" lon="14.8345583"><ele>1432.0</ele><time>2026-04-12T09:28:26.195Z</time></trkpt><trkpt lat="37.9695933" lon="14.8346417"><ele>1431.8</ele><time>2026-04-12T09:28:28.194Z</time></trkpt><trkpt lat="37.969575" lon="14.8347367"><ele>1431.6</ele><time>2026-04-12T09:28:30.192Z</time></trkpt><trkpt lat="37.9695567" lon="14.8348467"><ele>1431.3999999999999</ele><time>2026-04-12T09:28:32.192Z</time></trkpt><trkpt lat="37.9695433" lon="14.83496"><ele>1431.1999999999998</ele><time>2026-04-12T09:28:34.193Z</time></trkpt><trkpt lat="37.9695283" lon="14.8350867"><ele>1431.0</ele><time>2026-04-12T09:28:36.193Z</time></trkpt><trkpt lat="37.9695167" lon="14.8352167"><ele>1430.1999999999998</ele><time>2026-04-12T09:28:38.192Z</time></trkpt><trkpt lat="37.9694933" lon="14.8353417"><ele>1429.3999999999999</ele><time>2026-04-12T09:28:40.193Z</time></trkpt><trkpt lat="37.96947" lon="14.835455"><ele>1428.6</ele><time>2026-04-12T09:28:42.192Z</time></trkpt><trkpt lat="37.969455" lon="14.8355667"><ele>1427.8</ele><time>2026-04-12T09:28:44.195Z</time></trkpt><trkpt lat="37.9694367" lon="14.8356933"><ele>1427.0</ele><time>2026-04-12T09:28:46.195Z</time></trkpt><trkpt lat="37.9694183" lon="14.83582"><ele>1427.0</ele><time>2026-04-12T09:28:48.194Z</time></trkpt><trkpt lat="37.969405" lon="14.8359567"><ele>1427.0</ele><time>2026-04-12T09:28:50.194Z</time></trkpt><trkpt lat="37.96939" lon="14.836085"><ele>1427.0</ele><time>2026-04-12T09:28:52.194Z</time></trkpt><trkpt lat="37.9693517" lon="14.8362017"><ele>1427.0</ele><time>2026-04-12T09:28:54.194Z</time></trkpt><trkpt lat="37.969315" lon="14.836315"><ele>1427.0</ele><time>2026-04-12T09:28:56.194Z</time></trkpt><trkpt lat="37.96928" lon="14.8364067"><ele>1425.6666666666667</ele><time>2026-04-12T09:28:58.194Z</time></trkpt><trkpt lat="37.969245" lon="14.836505"><ele>1424.3333333333335</ele><time>2026-04-12T09:29:00.193Z</time></trkpt><trkpt lat="37.9692217" lon="14.8366067"><ele>1423.0</ele><time>2026-04-12T09:29:02.194Z</time></trkpt><trkpt lat="37.969215" lon="14.8366917"><ele>1421.6666666666667</ele><time>2026-04-12T09:29:04.194Z</time></trkpt><trkpt lat="37.969215" lon="14.836775"><ele>1420.3333333333333</ele><time>2026-04-12T09:29:06.192Z</time></trkpt><trkpt lat="37.96922" lon="14.8368633"><ele>1419.0</ele><time>2026-04-12T09:29:08.193Z</time></trkpt><trkpt lat="37.9692033" lon="14.8369717"><ele>1414.25</ele><time>2026-04-12T09:29:10.194Z</time></trkpt><trkpt lat="37.9691417" lon="14.8370833"><ele>1409.5</ele><time>2026-04-12T09:29:12.193Z</time></trkpt><trkpt lat="37.9690583" lon="14.837185"><ele>1404.75</ele><time>2026-04-12T09:29:14.194Z</time></trkpt><trkpt lat="37.9689683" lon="14.8372883"><ele>1400.0</ele><time>2026-04-12T09:29:16.193Z</time></trkpt><trkpt lat="37.9688917" lon="14.837395"><ele>1400.0</ele><time>2026-04-12T09:29:18.194Z</time></trkpt><trkpt lat="37.9688367" lon="14.8374967"><ele>1400.0</ele><time>2026-04-12T09:29:20.195Z</time></trkpt><trkpt lat="37.9687967" lon="14.8376033"><ele>1400.0</ele><time>2026-04-12T09:29:22.195Z</time></trkpt><trkpt lat="37.96876" lon="14.837725"><ele>1400.0</ele><time>2026-04-12T09:29:24.194Z</time></trkpt><trkpt lat="37.9687183" lon="14.83786"><ele>1400.0</ele><time>2026-04-12T09:29:26.193Z</time></trkpt><trkpt lat="37.9686633" lon="14.8380033"><ele>1400.5</ele><time>2026-04-12T09:29:28.192Z</time></trkpt><trkpt lat="37.9686317" lon="14.8380817"><ele>1401.0</ele><time>2026-04-12T09:29:29.194Z</time></trkpt><trkpt lat="37.9686067" lon="14.83816"><ele>1401.5</ele><time>2026-04-12T09:29:30.193Z</time></trkpt><trkpt lat="37.968575" lon="14.8383033"><ele>1402.0</ele><time>2026-04-12T09:29:32.194Z</time></trkpt><trkpt lat="37.9685583" lon="14.838455"><ele>1402.5</ele><time>2026-04-12T09:29:34.193Z</time></trkpt><trkpt lat="37.968555" lon="14.8385483"><ele>1403.0</ele><time>2026-04-12T09:29:35.192Z</time></trkpt><trkpt lat="37.9685567" lon="14.8386483"><ele>1403.0</ele><time>2026-04-12T09:29:36.194Z</time></trkpt><trkpt lat="37.96856" lon="14.8387533"><ele>1403.0</ele><time>2026-04-12T09:29:37.194Z</time></trkpt><trkpt lat="37.9685583" lon="14.8388617"><ele>1403.0</ele><time>2026-04-12T09:29:38.195Z</time></trkpt><trkpt lat="37.9685583" lon="14.8389767"><ele>1403.0</ele><time>2026-04-12T09:29:39.193Z</time></trkpt><trkpt lat="37.9685583" lon="14.839095"><ele>1403.0</ele><time>2026-04-12T09:29:40.194Z</time></trkpt><trkpt lat="37.9685567" lon="14.8392183"><ele>1403.0</ele><time>2026-04-12T09:29:41.194Z</time></trkpt><trkpt lat="37.9685617" lon="14.8393483"><ele>1401.2</ele><time>2026-04-12T09:29:42.193Z</time></trkpt><trkpt lat="37.968555" lon="14.8394833"><ele>1399.4</ele><time>2026-04-12T09:29:43.194Z</time></trkpt><trkpt lat="37.9685383" lon="14.839615"><ele>1397.6000000000001</ele><time>2026-04-12T09:29:44.194Z</time></trkpt><trkpt lat="37.9685183" lon="14.8397333"><ele>1395.8000000000002</ele><time>2026-04-12T09:29:45.194Z</time></trkpt><trkpt lat="37.9684983" lon="14.8398383"><ele>1394.0</ele><time>2026-04-12T09:29:46.194Z</time></trkpt><trkpt lat="37.9684867" lon="14.8399383"><ele>1394.0</ele><time>2026-04-12T09:29:47.194Z</time></trkpt><trkpt lat="37.9684817" lon="14.8400333"><ele>1394.0</ele><time>2026-04-12T09:29:48.195Z</time></trkpt><trkpt lat="37.9684833" lon="14.8401317"><ele>1394.0</ele><time>2026-04-12T09:29:49.196Z</time></trkpt><trkpt lat="37.968485" lon="14.8402317"><ele>1394.0</ele><time>2026-04-12T09:29:50.194Z</time></trkpt><trkpt lat="37.9684817" lon="14.840335"><ele>1394.0</ele><time>2026-04-12T09:29:51.193Z</time></trkpt><trkpt lat="37.96848" lon="14.840435"><ele>1394.0</ele><time>2026-04-12T09:29:52.194Z</time></trkpt><trkpt lat="37.9684783" lon="14.8405267"><ele>1390.6</ele><time>2026-04-12T09:29:53.193Z</time></trkpt><trkpt lat="37.9684783" lon="14.840615"><ele>1387.2</ele><time>2026-04-12T09:29:54.194Z</time></trkpt><trkpt lat="37.9684933" lon="14.8407633"><ele>1383.8</ele><time>2026-04-12T09:29:56.193Z</time></trkpt><trkpt lat="37.96853" lon="14.8408983"><ele>1380.3999999999999</ele><time>2026-04-12T09:29:58.194Z</time></trkpt><trkpt lat="37.9685617" lon="14.8409783"><ele>1377.0</ele><time>2026-04-12T09:29:59.194Z</time></trkpt><trkpt lat="37.9686" lon="14.8410683"><ele>1374.6</ele><time>2026-04-12T09:30:00.194Z</time></trkpt><trkpt lat="37.968645" lon="14.8411617"><ele>1372.1999999999998</ele><time>2026-04-12T09:30:01.195Z</time></trkpt><trkpt lat="37.9686967" lon="14.841255"><ele>1369.8</ele><time>2026-04-12T09:30:02.193Z</time></trkpt><trkpt lat="37.9687467" lon="14.84135"><ele>1367.4</ele><time>2026-04-12T09:30:03.195Z</time></trkpt><trkpt lat="37.9687867" lon="14.841455"><ele>1365.0</ele><time>2026-04-12T09:30:04.194Z</time></trkpt><trkpt lat="37.96882" lon="14.8415667"><ele>1365.0</ele><time>2026-04-12T09:30:05.193Z</time></trkpt><trkpt lat="37.968845" lon="14.8416817"><ele>1365.0</ele><time>2026-04-12T09:30:06.194Z</time></trkpt><trkpt lat="37.9688633" lon="14.8417933"><ele>1365.0</ele><time>2026-04-12T09:30:07.194Z</time></trkpt><trkpt lat="37.9688783" lon="14.841895"><ele>1365.0</ele><time>2026-04-12T09:30:08.193Z</time></trkpt><trkpt lat="37.9688933" lon="14.84199"><ele>1365.0</ele><time>2026-04-12T09:30:09.194Z</time></trkpt><trkpt lat="37.9689083" lon="14.8420917"><ele>1365.0</ele><time>2026-04-12T09:30:10.194Z</time></trkpt><trkpt lat="37.9689283" lon="14.8421983"><ele>1363.2</ele><time>2026-04-12T09:30:11.193Z</time></trkpt><trkpt lat="37.9689517" lon="14.8423133"><ele>1361.4</ele><time>2026-04-12T09:30:12.192Z</time></trkpt><trkpt lat="37.9689717" lon="14.842435"><ele>1359.6</ele><time>2026-04-12T09:30:13.193Z</time></trkpt><trkpt lat="37.9689983" lon="14.84256"><ele>1357.8</ele><time>2026-04-12T09:30:14.195Z</time></trkpt><trkpt lat="37.9690267" lon="14.842675"><ele>1356.0</ele><time>2026-04-12T09:30:15.194Z</time></trkpt><trkpt lat="37.9690483" lon="14.84279"><ele>1355.0</ele><time>2026-04-12T09:30:16.193Z</time></trkpt><trkpt lat="37.9690667" lon="14.8428983"><ele>1354.0</ele><time>2026-04-12T09:30:17.194Z</time></trkpt><trkpt lat="37.969085" lon="14.84299"><ele>1353.0</ele><time>2026-04-12T09:30:18.194Z</time></trkpt><trkpt lat="37.96915" lon="14.8431017"><ele>1352.0</ele><time>2026-04-12T09:30:20.194Z</time></trkpt><trkpt lat="37.9692467" lon="14.8431367"><ele>1351.0</ele><time>2026-04-12T09:30:22.194Z</time></trkpt><trkpt lat="37.9693467" lon="14.8431517"><ele>1350.4</ele><time>2026-04-12T09:30:24.194Z</time></trkpt><trkpt lat="37.9694633" lon="14.8431633"><ele>1349.8</ele><time>2026-04-12T09:30:26.195Z</time></trkpt><trkpt lat="37.9695767" lon="14.843165"><ele>1349.2</ele><time>2026-04-12T09:30:28.194Z</time></trkpt><trkpt lat="37.969665" lon="14.8431533"><ele>1348.6000000000001</ele><time>2026-04-12T09:30:30.194Z</time></trkpt><trkpt lat="37.9697517" lon="14.84312"><ele>1348.0</ele><time>2026-04-12T09:30:32.195Z</time></trkpt><trkpt lat="37.9698417" lon="14.8430917"><ele>1348.0</ele><time>2026-04-12T09:30:34.194Z</time></trkpt><trkpt lat="37.9699533" lon="14.8430967"><ele>1348.0</ele><time>2026-04-12T09:30:36.193Z</time></trkpt><trkpt lat="37.97005" lon="14.8431167"><ele>1348.0</ele><time>2026-04-12T09:30:38.195Z</time></trkpt><trkpt lat="37.970135" lon="14.84315"><ele>1348.0</ele><time>2026-04-12T09:30:40.195Z</time></trkpt><trkpt lat="37.9702267" lon="14.8431833"><ele>1348.0</ele><time>2026-04-12T09:30:42.192Z</time></trkpt><trkpt lat="37.970305" lon="14.8432183"><ele>1346.0</ele><time>2026-04-12T09:30:44.194Z</time></trkpt><trkpt lat="37.9703533" lon="14.8432767"><ele>1344.0</ele><time>2026-04-12T09:30:46.193Z</time></trkpt><trkpt lat="37.9703583" lon="14.8433667"><ele>1342.0</ele><time>2026-04-12T09:30:48.193Z</time></trkpt><trkpt lat="37.9703583" lon="14.8434633"><ele>1340.0</ele><time>2026-04-12T09:30:50.194Z</time></trkpt><trkpt lat="37.9703633" lon="14.8435917"><ele>1338.0</ele><time>2026-04-12T09:30:52.194Z</time></trkpt><trkpt lat="37.970365" lon="14.8437367"><ele>1336.0</ele><time>2026-04-12T09:30:54.193Z</time></trkpt><trkpt lat="37.97037" lon="14.8438167"><ele>1335.0</ele><time>2026-04-12T09:30:55.193Z</time></trkpt><trkpt lat="37.9703867" lon="14.84396"><ele>1334.0</ele><time>2026-04-12T09:30:57.195Z</time></trkpt><trkpt lat="37.9703983" lon="14.84406"><ele>1333.0</ele><time>2026-04-12T09:30:59.194Z</time></trkpt><trkpt lat="37.9703917" lon="14.8441467"><ele>1332.0</ele><time>2026-04-12T09:31:01.194Z</time></trkpt><trkpt lat="37.9703933" lon="14.8442383"><ele>1331.0</ele><time>2026-04-12T09:31:03.193Z</time></trkpt><trkpt lat="37.9704017" lon="14.844345"><ele>1330.0</ele><time>2026-04-12T09:31:05.193Z</time></trkpt><trkpt lat="37.97042" lon="14.8444433"><ele>1330.0</ele><time>2026-04-12T09:31:07.195Z</time></trkpt><trkpt lat="37.97044" lon="14.8445333"><ele>1330.0</ele><time>2026-04-12T09:31:10.193Z</time></trkpt><trkpt lat="37.970445" lon="14.8446367"><ele>1330.0</ele><time>2026-04-12T09:31:13.195Z</time></trkpt><trkpt lat="37.9704483" lon="14.8447283"><ele>1330.0</ele><time>2026-04-12T09:31:15.193Z</time></trkpt><trkpt lat="37.970455" lon="14.8448383"><ele>1330.0</ele><time>2026-04-12T09:31:17.193Z</time></trkpt><trkpt lat="37.97046" lon="14.8449283"><ele>1330.0</ele><time>2026-04-12T09:31:19.193Z</time></trkpt><trkpt lat="37.970465" lon="14.84502"><ele>1330.0</ele><time>2026-04-12T09:31:21.193Z</time></trkpt><trkpt lat="37.9704817" lon="14.8451067"><ele>1330.0</ele><time>2026-04-12T09:31:23.193Z</time></trkpt><trkpt lat="37.9704917" lon="14.8451883"><ele>1330.0</ele><time>2026-04-12T09:31:25.192Z</time></trkpt><trkpt lat="37.97051" lon="14.8452733"><ele>1330.0</ele><time>2026-04-12T09:31:27.193Z</time></trkpt><trkpt lat="37.97053" lon="14.8453533"><ele>1330.0</ele><time>2026-04-12T09:31:29.195Z</time></trkpt><trkpt lat="37.97056" lon="14.8454633"><ele>1330.0</ele><time>2026-04-12T09:31:32.195Z</time></trkpt><trkpt lat="37.9705817" lon="14.845545"><ele>1330.0</ele><time>2026-04-12T09:31:34.193Z</time></trkpt><trkpt lat="37.9706033" lon="14.8456217"><ele>1328.5</ele><time>2026-04-12T09:31:36.193Z</time></trkpt><trkpt lat="37.970645" lon="14.8457167"><ele>1327.0</ele><time>2026-04-12T09:31:39.193Z</time></trkpt><trkpt lat="37.9706717" lon="14.8458167"><ele>1325.5</ele><time>2026-04-12T09:31:42.194Z</time></trkpt><trkpt lat="37.9706883" lon="14.8459067"><ele>1324.0</ele><time>2026-04-12T09:31:45.193Z</time></trkpt><trkpt lat="37.9707083" lon="14.8459917"><ele>1322.5</ele><time>2026-04-12T09:31:48.193Z</time></trkpt><trkpt lat="37.9707367" lon="14.8460867"><ele>1321.0</ele><time>2026-04-12T09:31:51.192Z</time></trkpt><trkpt lat="37.9707483" lon="14.8461667"><ele>1320.1666666666665</ele><time>2026-04-12T09:31:53.193Z</time></trkpt><trkpt lat="37.9707717" lon="14.846245"><ele>1319.3333333333333</ele><time>2026-04-12T09:31:55.193Z</time></trkpt><trkpt lat="37.9707983" lon="14.846355"><ele>1318.5</ele><time>2026-04-12T09:31:58.196Z</time></trkpt><trkpt lat="37.9708267" lon="14.8464467"><ele>1317.6666666666667</ele><time>2026-04-12T09:32:00.195Z</time></trkpt><trkpt lat="37.97086" lon="14.8465517"><ele>1316.8333333333335</ele><time>2026-04-12T09:32:02.194Z</time></trkpt><trkpt lat="37.9708883" lon="14.84665"><ele>1316.0</ele><time>2026-04-12T09:32:04.196Z</time></trkpt><trkpt lat="37.9709317" lon="14.846735"><ele>1314.0</ele><time>2026-04-12T09:32:06.196Z</time></trkpt><trkpt lat="37.9709617" lon="14.84682"><ele>1312.0</ele><time>2026-04-12T09:32:08.195Z</time></trkpt><trkpt lat="37.9709683" lon="14.8469083"><ele>1310.0</ele><time>2026-04-12T09:32:10.194Z</time></trkpt><trkpt lat="37.97098" lon="14.8470183"><ele>1308.0</ele><time>2026-04-12T09:32:13.192Z</time></trkpt><trkpt lat="37.9710083" lon="14.8471133"><ele>1306.0</ele><time>2026-04-12T09:32:16.192Z</time></trkpt><trkpt lat="37.9710517" lon="14.8472083"><ele>1304.0</ele><time>2026-04-12T09:32:19.192Z</time></trkpt><trkpt lat="37.9710817" lon="14.847285"><ele>1304.0</ele><time>2026-04-12T09:32:21.193Z</time></trkpt><trkpt lat="37.9711233" lon="14.84736"><ele>1304.0</ele><time>2026-04-12T09:32:23.192Z</time></trkpt><trkpt lat="37.9711833" lon="14.8474133"><ele>1304.0</ele><time>2026-04-12T09:32:25.192Z</time></trkpt><trkpt lat="37.9712433" lon="14.84745"><ele>1304.0</ele><time>2026-04-12T09:32:27.192Z</time></trkpt><trkpt lat="37.9713" lon="14.8474867"><ele>1304.0</ele><time>2026-04-12T09:32:29.193Z</time></trkpt><trkpt lat="37.9713583" lon="14.8475383"><ele>1304.0</ele><time>2026-04-12T09:32:31.193Z</time></trkpt><trkpt lat="37.9714217" lon="14.8475983"><ele>1304.0</ele><time>2026-04-12T09:32:33.195Z</time></trkpt><trkpt lat="37.9714967" lon="14.847665"><ele>1304.8333333333335</ele><time>2026-04-12T09:32:35.193Z</time></trkpt><trkpt lat="37.9715783" lon="14.84771"><ele>1305.6666666666667</ele><time>2026-04-12T09:32:37.196Z</time></trkpt><trkpt lat="37.9716533" lon="14.8477517"><ele>1306.5</ele><time>2026-04-12T09:32:39.196Z</time></trkpt><trkpt lat="37.971725" lon="14.8477967"><ele>1307.3333333333333</ele><time>2026-04-12T09:32:41.192Z</time></trkpt><trkpt lat="37.9717933" lon="14.8478467"><ele>1308.1666666666665</ele><time>2026-04-12T09:32:43.193Z</time></trkpt><trkpt lat="37.971855" lon="14.847895"><ele>1309.0</ele><time>2026-04-12T09:32:45.195Z</time></trkpt><trkpt lat="37.971915" lon="14.847955"><ele>1307.1666666666665</ele><time>2026-04-12T09:32:47.192Z</time></trkpt><trkpt lat="37.9719717" lon="14.8480283"><ele>1305.3333333333333</ele><time>2026-04-12T09:32:49.194Z</time></trkpt><trkpt lat="37.9720317" lon="14.8480817"><ele>1303.5</ele><time>2026-04-12T09:32:51.194Z</time></trkpt><trkpt lat="37.9720867" lon="14.8481317"><ele>1301.6666666666667</ele><time>2026-04-12T09:32:53.192Z</time></trkpt><trkpt lat="37.9721533" lon="14.8481883"><ele>1299.8333333333335</ele><time>2026-04-12T09:32:55.193Z</time></trkpt><trkpt lat="37.97223" lon="14.84824"><ele>1298.0</ele><time>2026-04-12T09:32:57.192Z</time></trkpt><trkpt lat="37.9723" lon="14.848295"><ele>1298.0</ele><time>2026-04-12T09:32:59.193Z</time></trkpt><trkpt lat="37.972355" lon="14.848355"><ele>1298.0</ele><time>2026-04-12T09:33:01.193Z</time></trkpt><trkpt lat="37.972415" lon="14.8484417"><ele>1298.0</ele><time>2026-04-12T09:33:04.193Z</time></trkpt><trkpt lat="37.9724683" lon="14.84852"><ele>1298.0</ele><time>2026-04-12T09:33:07.194Z</time></trkpt><trkpt lat="37.9725167" lon="14.8485817"><ele>1298.0</ele><time>2026-04-12T09:33:09.192Z</time></trkpt><trkpt lat="37.9725667" lon="14.8486617"><ele>1298.0</ele><time>2026-04-12T09:33:11.193Z</time></trkpt><trkpt lat="37.9726117" lon="14.848755"><ele>1296.2</ele><time>2026-04-12T09:33:13.193Z</time></trkpt><trkpt lat="37.9726633" lon="14.84886"><ele>1294.4</ele><time>2026-04-12T09:33:15.193Z</time></trkpt><trkpt lat="37.9727033" lon="14.8489867"><ele>1292.6000000000001</ele><time>2026-04-12T09:33:17.192Z</time></trkpt><trkpt lat="37.972725" lon="14.8491033"><ele>1290.8000000000002</ele><time>2026-04-12T09:33:19.193Z</time></trkpt><trkpt lat="37.9727233" lon="14.849195"><ele>1289.0</ele><time>2026-04-12T09:33:22.192Z</time></trkpt><trkpt lat="37.9726733" lon="14.8492867"><ele>1289.0</ele><time>2026-04-12T09:33:32.192Z</time></trkpt><trkpt lat="37.972615" lon="14.8493683"><ele>1289.0</ele><time>2026-04-12T09:33:35.193Z</time></trkpt><trkpt lat="37.972545" lon="14.84943"><ele>1289.0</ele><time>2026-04-12T09:33:38.194Z</time></trkpt><trkpt lat="37.9724683" lon="14.849475"><ele>1289.0</ele><time>2026-04-12T09:33:41.193Z</time></trkpt><trkpt lat="37.972405" lon="14.84945"><ele>1289.0</ele><time>2026-04-12T09:33:43.194Z</time></trkpt><trkpt lat="37.972325" lon="14.84942"><ele>1289.0</ele><time>2026-04-12T09:33:46.195Z</time></trkpt><trkpt lat="37.9722483" lon="14.8494233"><ele>1289.0</ele><time>2026-04-12T09:33:49.194Z</time></trkpt><trkpt lat="37.9721683" lon="14.8494083"><ele>1289.0</ele><time>2026-04-12T09:33:53.193Z</time></trkpt><trkpt lat="37.9720917" lon="14.8493933"><ele>1289.0</ele><time>2026-04-12T09:33:56.193Z</time></trkpt><trkpt lat="37.9720267" lon="14.8493867"><ele>1289.0</ele><time>2026-04-12T09:33:58.195Z</time></trkpt><trkpt lat="37.9719567" lon="14.8493767"><ele>1289.0</ele><time>2026-04-12T09:34:00.194Z</time></trkpt><trkpt lat="37.9718867" lon="14.849385"><ele>1289.0</ele><time>2026-04-12T09:34:02.194Z</time></trkpt><trkpt lat="37.9718233" lon="14.84941"><ele>1289.0</ele><time>2026-04-12T09:34:04.192Z</time></trkpt><trkpt lat="37.97176" lon="14.8494533"><ele>1289.0</ele><time>2026-04-12T09:34:06.193Z</time></trkpt><trkpt lat="37.9716917" lon="14.8495067"><ele>1289.0</ele><time>2026-04-12T09:34:08.193Z</time></trkpt><trkpt lat="37.97162" lon="14.8495633"><ele>1289.0</ele><time>2026-04-12T09:34:10.193Z</time></trkpt><trkpt lat="37.9715417" lon="14.84961"><ele>1289.0</ele><time>2026-04-12T09:34:12.193Z</time></trkpt><trkpt lat="37.971475" lon="14.8496767"><ele>1289.0</ele><time>2026-04-12T09:34:14.194Z</time></trkpt><trkpt lat="37.9714117" lon="14.8497583"><ele>1289.0</ele><time>2026-04-12T09:34:16.193Z</time></trkpt><trkpt lat="37.9713417" lon="14.8498317"><ele>1288.3333333333335</ele><time>2026-04-12T09:34:18.193Z</time></trkpt><trkpt lat="37.9712667" lon="14.8498983"><ele>1287.6666666666667</ele><time>2026-04-12T09:34:20.195Z</time></trkpt><trkpt lat="37.971185" lon="14.849955"><ele>1287.0</ele><time>2026-04-12T09:34:22.193Z</time></trkpt><trkpt lat="37.9711167" lon="14.8500017"><ele>1286.3333333333333</ele><time>2026-04-12T09:34:24.192Z</time></trkpt><trkpt lat="37.9710383" lon="14.8500233"><ele>1285.6666666666665</ele><time>2026-04-12T09:34:35.193Z</time></trkpt><trkpt lat="37.9709483" lon="14.8500217"><ele>1285.0</ele><time>2026-04-12T09:34:38.194Z</time></trkpt><trkpt lat="37.9708783" lon="14.85005"><ele>1283.0</ele><time>2026-04-12T09:34:40.194Z</time></trkpt><trkpt lat="37.970845" lon="14.850125"><ele>1281.0</ele><time>2026-04-12T09:34:42.193Z</time></trkpt><trkpt lat="37.9708483" lon="14.850205"><ele>1279.0</ele><time>2026-04-12T09:34:44.194Z</time></trkpt><trkpt lat="37.970925" lon="14.85028"><ele>1277.0</ele><time>2026-04-12T09:34:47.193Z</time></trkpt><trkpt lat="37.9710167" lon="14.850325"><ele>1275.0</ele><time>2026-04-12T09:34:49.194Z</time></trkpt><trkpt lat="37.97114" lon="14.8503367"><ele>1274.6666666666667</ele><time>2026-04-12T09:34:51.194Z</time></trkpt><trkpt lat="37.9712033" lon="14.850335"><ele>1274.3333333333333</ele><time>2026-04-12T09:34:52.195Z</time></trkpt><trkpt lat="37.97127" lon="14.8503383"><ele>1274.0</ele><time>2026-04-12T09:34:53.195Z</time></trkpt><trkpt lat="37.971345" lon="14.85034"><ele>1273.6666666666665</ele><time>2026-04-12T09:34:54.195Z</time></trkpt><trkpt lat="37.97142" lon="14.8503417"><ele>1273.3333333333333</ele><time>2026-04-12T09:34:55.195Z</time></trkpt><trkpt lat="37.9714917" lon="14.8503433"><ele>1273.0</ele><time>2026-04-12T09:34:56.196Z</time></trkpt><trkpt lat="37.971605" lon="14.8503383"><ele>1273.0</ele><time>2026-04-12T09:34:58.194Z</time></trkpt><trkpt lat="37.9716783" lon="14.850335"><ele>1273.0</ele><time>2026-04-12T09:35:00.195Z</time></trkpt><trkpt lat="37.971755" lon="14.85033"><ele>1273.0</ele><time>2026-04-12T09:35:02.194Z</time></trkpt><trkpt lat="37.97184" lon="14.8503333"><ele>1273.0</ele><time>2026-04-12T09:35:04.192Z</time></trkpt><trkpt lat="37.971935" lon="14.8503833"><ele>1273.0</ele><time>2026-04-12T09:35:06.193Z</time></trkpt><trkpt lat="37.97201" lon="14.8504883"><ele>1274.0</ele><time>2026-04-12T09:35:08.194Z</time></trkpt><trkpt lat="37.97207" lon="14.85062"><ele>1275.0</ele><time>2026-04-12T09:35:10.192Z</time></trkpt><trkpt lat="37.9721183" lon="14.850755"><ele>1276.0</ele><time>2026-04-12T09:35:12.193Z</time></trkpt><trkpt lat="37.9721783" lon="14.85087"><ele>1277.0</ele><time>2026-04-12T09:35:14.194Z</time></trkpt><trkpt lat="37.9722483" lon="14.8509967"><ele>1274.9999999999998</ele><time>2026-04-12T09:35:16.192Z</time></trkpt><trkpt lat="37.972285" lon="14.8510667"><ele>1273.0</ele><time>2026-04-12T09:35:17.194Z</time></trkpt><trkpt lat="37.9723183" lon="14.8511367"><ele>1271.0</ele><time>2026-04-12T09:35:18.193Z</time></trkpt><trkpt lat="37.9723517" lon="14.8512067"><ele>1269.0</ele><time>2026-04-12T09:35:19.193Z</time></trkpt><trkpt lat="37.972385" lon="14.85128"><ele>1267.0</ele><time>2026-04-12T09:35:20.194Z</time></trkpt><trkpt lat="37.972425" lon="14.8513483"><ele>1264.9999999999998</ele><time>2026-04-12T09:35:21.193Z</time></trkpt><trkpt lat="37.9724667" lon="14.851415"><ele>1263.0</ele><time>2026-04-12T09:35:22.192Z</time></trkpt><trkpt lat="37.9725083" lon="14.851485"><ele>1262.0</ele><time>2026-04-12T09:35:23.194Z</time></trkpt><trkpt lat="37.97258" lon="14.851585"><ele>1261.0</ele><time>2026-04-12T09:35:25.192Z</time></trkpt><trkpt lat="37.9726117" lon="14.85167"><ele>1260.0</ele><time>2026-04-12T09:35:27.193Z</time></trkpt><trkpt lat="37.9726233" lon="14.8517783"><ele>1259.0</ele><time>2026-04-12T09:35:29.194Z</time></trkpt><trkpt lat="37.97264" lon="14.8518683"><ele>1258.0</ele><time>2026-04-12T09:35:31.193Z</time></trkpt><trkpt lat="37.9726583" lon="14.851945"><ele>1257.0</ele><time>2026-04-12T09:35:33.192Z</time></trkpt><trkpt lat="37.9726717" lon="14.85203"><ele>1255.2857142857144</ele><time>2026-04-12T09:35:35.193Z</time></trkpt><trkpt lat="37.9726833" lon="14.85212"><ele>1253.5714285714287</ele><time>2026-04-12T09:35:37.193Z</time></trkpt><trkpt lat="37.9726817" lon="14.85221"><ele>1251.857142857143</ele><time>2026-04-12T09:35:39.193Z</time></trkpt><trkpt lat="37.9726617" lon="14.85232"><ele>1250.1428571428573</ele><time>2026-04-12T09:35:42.193Z</time></trkpt><trkpt lat="37.9726483" lon="14.852415"><ele>1248.4285714285716</ele><time>2026-04-12T09:35:44.194Z</time></trkpt><trkpt lat="37.97265" lon="14.8525067"><ele>1246.7142857142858</ele><time>2026-04-12T09:35:46.192Z</time></trkpt><trkpt lat="37.9726583" lon="14.8525883"><ele>1245.0</ele><time>2026-04-12T09:35:48.194Z</time></trkpt><trkpt lat="37.9726683" lon="14.8526967"><ele>1243.4</ele><time>2026-04-12T09:35:51.192Z</time></trkpt><trkpt lat="37.9726383" lon="14.852795"><ele>1241.8</ele><time>2026-04-12T09:35:53.193Z</time></trkpt><trkpt lat="37.9725883" lon="14.8528983"><ele>1240.2</ele><time>2026-04-12T09:35:55.193Z</time></trkpt><trkpt lat="37.9725717" lon="14.8530167"><ele>1238.6</ele><time>2026-04-12T09:35:57.192Z</time></trkpt><trkpt lat="37.9726067" lon="14.8531383"><ele>1237.0</ele><time>2026-04-12T09:35:59.192Z</time></trkpt><trkpt lat="37.9726983" lon="14.8532233"><ele>1237.0</ele><time>2026-04-12T09:36:01.192Z</time></trkpt><trkpt lat="37.97283" lon="14.8532233"><ele>1237.0</ele><time>2026-04-12T09:36:03.192Z</time></trkpt><trkpt lat="37.9728917" lon="14.8531967"><ele>1237.0</ele><time>2026-04-12T09:36:04.193Z</time></trkpt><trkpt lat="37.972955" lon="14.85314"><ele>1237.0</ele><time>2026-04-12T09:36:05.193Z</time></trkpt><trkpt lat="37.97301" lon="14.8530783"><ele>1237.0</ele><time>2026-04-12T09:36:06.192Z</time></trkpt><trkpt lat="37.9730683" lon="14.853025"><ele>1237.0</ele><time>2026-04-12T09:36:07.193Z</time></trkpt><trkpt lat="37.973165" lon="14.85295"><ele>1237.0</ele><time>2026-04-12T09:36:09.193Z</time></trkpt><trkpt lat="37.9732217" lon="14.8529083"><ele>1237.0</ele><time>2026-04-12T09:36:10.192Z</time></trkpt><trkpt lat="37.9732867" lon="14.852875"><ele>1237.0</ele><time>2026-04-12T09:36:11.192Z</time></trkpt><trkpt lat="37.9733567" lon="14.8528433"><ele>1237.0</ele><time>2026-04-12T09:36:12.192Z</time></trkpt><trkpt lat="37.9734283" lon="14.852805"><ele>1237.0</ele><time>2026-04-12T09:36:13.193Z</time></trkpt><trkpt lat="37.9735067" lon="14.8527667"><ele>1237.0</ele><time>2026-04-12T09:36:14.192Z</time></trkpt><trkpt lat="37.97359" lon="14.85273"><ele>1236.8333333333333</ele><time>2026-04-12T09:36:15.192Z</time></trkpt><trkpt lat="37.9736733" lon="14.852695"><ele>1236.6666666666665</ele><time>2026-04-12T09:36:16.193Z</time></trkpt><trkpt lat="37.9737533" lon="14.852665"><ele>1236.5</ele><time>2026-04-12T09:36:17.193Z</time></trkpt><trkpt lat="37.9738283" lon="14.8526367"><ele>1236.3333333333333</ele><time>2026-04-12T09:36:18.192Z</time></trkpt><trkpt lat="37.9738933" lon="14.8526133"><ele>1236.1666666666667</ele><time>2026-04-12T09:36:19.193Z</time></trkpt><trkpt lat="37.9739567" lon="14.8525883"><ele>1236.0</ele><time>2026-04-12T09:36:20.193Z</time></trkpt><trkpt lat="37.9740217" lon="14.8525633"><ele>1236.0</ele><time>2026-04-12T09:36:21.193Z</time></trkpt><trkpt lat="37.9740917" lon="14.8525367"><ele>1236.0</ele><time>2026-04-12T09:36:22.193Z</time></trkpt><trkpt lat="37.97416" lon="14.8525083"><ele>1236.0</ele><time>2026-04-12T09:36:23.193Z</time></trkpt><trkpt lat="37.9742683" lon="14.8524567"><ele>1236.0</ele><time>2026-04-12T09:36:25.192Z</time></trkpt><trkpt lat="37.9743617" lon="14.8523883"><ele>1236.0</ele><time>2026-04-12T09:36:27.193Z</time></trkpt><trkpt lat="37.97447" lon="14.8523133"><ele>1234.7142857142858</ele><time>2026-04-12T09:36:29.192Z</time></trkpt><trkpt lat="37.9745383" lon="14.8522833"><ele>1233.4285714285716</ele><time>2026-04-12T09:36:30.195Z</time></trkpt><trkpt lat="37.97461" lon="14.85226"><ele>1232.1428571428573</ele><time>2026-04-12T09:36:31.193Z</time></trkpt><trkpt lat="37.9746817" lon="14.8522417"><ele>1230.857142857143</ele><time>2026-04-12T09:36:32.196Z</time></trkpt><trkpt lat="37.9747567" lon="14.85223"><ele>1229.5714285714284</ele><time>2026-04-12T09:36:33.194Z</time></trkpt><trkpt lat="37.974825" lon="14.852235"><ele>1228.2857142857144</ele><time>2026-04-12T09:36:34.193Z</time></trkpt><trkpt lat="37.9748917" lon="14.8522617"><ele>1227.0</ele><time>2026-04-12T09:36:35.193Z</time></trkpt><trkpt lat="37.97496" lon="14.8523033"><ele>1227.0</ele><time>2026-04-12T09:36:36.193Z</time></trkpt><trkpt lat="37.97502" lon="14.8523583"><ele>1227.0</ele><time>2026-04-12T09:36:37.192Z</time></trkpt><trkpt lat="37.9750717" lon="14.852425"><ele>1227.0</ele><time>2026-04-12T09:36:38.194Z</time></trkpt><trkpt lat="37.9751117" lon="14.852505"><ele>1227.0</ele><time>2026-04-12T09:36:39.193Z</time></trkpt><trkpt lat="37.975145" lon="14.852585"><ele>1227.0</ele><time>2026-04-12T09:36:40.192Z</time></trkpt><trkpt lat="37.9751867" lon="14.8526633"><ele>1227.0</ele><time>2026-04-12T09:36:41.193Z</time></trkpt><trkpt lat="37.9752333" lon="14.8527383"><ele>1227.0</ele><time>2026-04-12T09:36:42.194Z</time></trkpt><trkpt lat="37.97528" lon="14.85281"><ele>1227.857142857143</ele><time>2026-04-12T09:36:43.192Z</time></trkpt><trkpt lat="37.9753267" lon="14.852885"><ele>1228.7142857142856</ele><time>2026-04-12T09:36:44.194Z</time></trkpt><trkpt lat="37.9753667" lon="14.85296"><ele>1229.5714285714284</ele><time>2026-04-12T09:36:45.192Z</time></trkpt><trkpt lat="37.9754033" lon="14.8530317"><ele>1230.4285714285716</ele><time>2026-04-12T09:36:46.193Z</time></trkpt><trkpt lat="37.9754417" lon="14.8531033"><ele>1231.2857142857142</ele><time>2026-04-12T09:36:47.192Z</time></trkpt><trkpt lat="37.97548" lon="14.8531767"><ele>1232.142857142857</ele><time>2026-04-12T09:36:48.193Z</time></trkpt><trkpt lat="37.9755183" lon="14.8532433"><ele>1233.0</ele><time>2026-04-12T09:36:49.192Z</time></trkpt><trkpt lat="37.9755567" lon="14.8533067"><ele>1233.0</ele><time>2026-04-12T09:36:50.192Z</time></trkpt><trkpt lat="37.975625" lon="14.8534383"><ele>1233.0</ele><time>2026-04-12T09:36:52.194Z</time></trkpt><trkpt lat="37.9756617" lon="14.8535033"><ele>1233.0</ele><time>2026-04-12T09:36:53.193Z</time></trkpt><trkpt lat="37.97573" lon="14.8536183"><ele>1233.0</ele><time>2026-04-12T09:36:55.193Z</time></trkpt><trkpt lat="37.9757917" lon="14.8537167"><ele>1233.0</ele><time>2026-04-12T09:36:57.192Z</time></trkpt><trkpt lat="37.9758417" lon="14.85379"><ele>1233.0</ele><time>2026-04-12T09:36:59.192Z</time></trkpt><trkpt lat="37.975885" lon="14.85386"><ele>1233.0</ele><time>2026-04-12T09:37:01.192Z</time></trkpt><trkpt lat="37.975925" lon="14.8539333"><ele>1233.0</ele><time>2026-04-12T09:37:03.192Z</time></trkpt><trkpt lat="37.975965" lon="14.85401"><ele>1233.0</ele><time>2026-04-12T09:37:05.194Z</time></trkpt><trkpt lat="37.9760067" lon="14.8540883"><ele>1233.0</ele><time>2026-04-12T09:37:07.192Z</time></trkpt><trkpt lat="37.97605" lon="14.85417"><ele>1233.0</ele><time>2026-04-12T09:37:09.192Z</time></trkpt><trkpt lat="37.9760983" lon="14.8542533"><ele>1233.0</ele><time>2026-04-12T09:37:11.192Z</time></trkpt><trkpt lat="37.9761417" lon="14.85434"><ele>1233.0</ele><time>2026-04-12T09:37:13.192Z</time></trkpt><trkpt lat="37.9761633" lon="14.8544367"><ele>1233.0</ele><time>2026-04-12T09:37:15.193Z</time></trkpt><trkpt lat="37.9761717" lon="14.854535"><ele>1233.0</ele><time>2026-04-12T09:37:17.192Z</time></trkpt><trkpt lat="37.9761617" lon="14.85463"><ele>1233.0</ele><time>2026-04-12T09:37:19.193Z</time></trkpt><trkpt lat="37.9761367" lon="14.8547067"><ele>1233.0</ele><time>2026-04-12T09:37:21.193Z</time></trkpt><trkpt lat="37.9760983" lon="14.8547867"><ele>1233.0</ele><time>2026-04-12T09:37:24.193Z</time></trkpt><trkpt lat="37.9761483" lon="14.8548383"><ele>1233.0</ele><time>2026-04-12T09:39:42.192Z</time></trkpt><trkpt lat="37.9760683" lon="14.8548267"><ele>1233.0</ele><time>2026-04-12T09:39:49.194Z</time></trkpt><trkpt lat="37.97599" lon="14.8548583"><ele>1233.0</ele><time>2026-04-12T09:39:53.195Z</time></trkpt><trkpt lat="37.97594" lon="14.85491"><ele>1233.0</ele><time>2026-04-12T09:39:56.195Z</time></trkpt><trkpt lat="37.9758817" lon="14.8549683"><ele>1233.0</ele><time>2026-04-12T09:39:59.193Z</time></trkpt><trkpt lat="37.975825" lon="14.8550417"><ele>1233.0</ele><time>2026-04-12T09:40:02.194Z</time></trkpt><trkpt lat="37.9757533" lon="14.8551067"><ele>1233.0</ele><time>2026-04-12T09:40:05.193Z</time></trkpt><trkpt lat="37.9756817" lon="14.855175"><ele>1234.6666666666667</ele><time>2026-04-12T09:40:08.193Z</time></trkpt><trkpt lat="37.9756117" lon="14.8552183"><ele>1236.3333333333333</ele><time>2026-04-12T09:40:11.192Z</time></trkpt><trkpt lat="37.9755367" lon="14.85525"><ele>1238.0</ele><time>2026-04-12T09:40:14.193Z</time></trkpt><trkpt lat="37.9754583" lon="14.8552567"><ele>1239.6666666666665</ele><time>2026-04-12T09:40:17.192Z</time></trkpt><trkpt lat="37.97537" lon="14.855265"><ele>1241.3333333333333</ele><time>2026-04-12T09:40:20.195Z</time></trkpt><trkpt lat="37.9752767" lon="14.85526"><ele>1243.0</ele><time>2026-04-12T09:40:23.195Z</time></trkpt><trkpt lat="37.9751833" lon="14.8552667"><ele>1243.0000000000002</ele><time>2026-04-12T09:40:26.194Z</time></trkpt><trkpt lat="37.97512" lon="14.8552633"><ele>1243.0</ele><time>2026-04-12T09:40:28.194Z</time></trkpt><trkpt lat="37.975055" lon="14.8552667"><ele>1243.0</ele><time>2026-04-12T09:40:30.193Z</time></trkpt><trkpt lat="37.974985" lon="14.8552717"><ele>1243.0</ele><time>2026-04-12T09:40:32.193Z</time></trkpt><trkpt lat="37.9749217" lon="14.85528"><ele>1243.0</ele><time>2026-04-12T09:40:34.193Z</time></trkpt><trkpt lat="37.9748633" lon="14.8553117"><ele>1243.0000000000002</ele><time>2026-04-12T09:40:36.193Z</time></trkpt><trkpt lat="37.9748233" lon="14.8553783"><ele>1243.0</ele><time>2026-04-12T09:40:38.194Z</time></trkpt><trkpt lat="37.974805" lon="14.8554667"><ele>1243.0000000000002</ele><time>2026-04-12T09:40:40.192Z</time></trkpt><trkpt lat="37.9748183" lon="14.85556"><ele>1243.0</ele><time>2026-04-12T09:40:42.192Z</time></trkpt><trkpt lat="37.9748633" lon="14.8556283"><ele>1243.0</ele><time>2026-04-12T09:40:44.194Z</time></trkpt><trkpt lat="37.9749283" lon="14.8556683"><ele>1243.0</ele><time>2026-04-12T09:40:46.192Z</time></trkpt><trkpt lat="37.9749983" lon="14.8556833"><ele>1243.0</ele><time>2026-04-12T09:40:48.193Z</time></trkpt><trkpt lat="37.9750733" lon="14.855675"><ele>1243.0000000000002</ele><time>2026-04-12T09:40:50.194Z</time></trkpt><trkpt lat="37.9751483" lon="14.8556667"><ele>1243.0</ele><time>2026-04-12T09:40:52.192Z</time></trkpt><trkpt lat="37.9752183" lon="14.8556683"><ele>1243.0000000000002</ele><time>2026-04-12T09:40:54.192Z</time></trkpt><trkpt lat="37.9752817" lon="14.85566"><ele>1243.0</ele><time>2026-04-12T09:40:56.192Z</time></trkpt><trkpt lat="37.9753483" lon="14.8556567"><ele>1243.0</ele><time>2026-04-12T09:40:58.192Z</time></trkpt><trkpt lat="37.97542" lon="14.855655"><ele>1243.0</ele><time>2026-04-12T09:41:00.193Z</time></trkpt><trkpt lat="37.9754933" lon="14.8556583"><ele>1243.0</ele><time>2026-04-12T09:41:02.193Z</time></trkpt><trkpt lat="37.9755683" lon="14.8556567"><ele>1243.0000000000002</ele><time>2026-04-12T09:41:04.192Z</time></trkpt><trkpt lat="37.9756417" lon="14.8556533"><ele>1243.0</ele><time>2026-04-12T09:41:06.192Z</time></trkpt><trkpt lat="37.9757133" lon="14.8556467"><ele>1243.0000000000002</ele><time>2026-04-12T09:41:08.193Z</time></trkpt><trkpt lat="37.9757867" lon="14.8556317"><ele>1243.0</ele><time>2026-04-12T09:41:10.192Z</time></trkpt><trkpt lat="37.9758617" lon="14.8556367"><ele>1243.0</ele><time>2026-04-12T09:41:12.193Z</time></trkpt><trkpt lat="37.9759333" lon="14.855645"><ele>1243.0</ele><time>2026-04-12T09:41:14.193Z</time></trkpt><trkpt lat="37.9760067" lon="14.8556433"><ele>1243.0</ele><time>2026-04-12T09:41:16.194Z</time></trkpt><trkpt lat="37.9760767" lon="14.8556483"><ele>1243.0000000000002</ele><time>2026-04-12T09:41:18.193Z</time></trkpt><trkpt lat="37.9761467" lon="14.855655"><ele>1243.0</ele><time>2026-04-12T09:41:20.192Z</time></trkpt><trkpt lat="37.9762117" lon="14.85567"><ele>1243.0000000000002</ele><time>2026-04-12T09:41:22.192Z</time></trkpt><trkpt lat="37.9762817" lon="14.8556917"><ele>1243.0</ele><time>2026-04-12T09:41:24.193Z</time></trkpt><trkpt lat="37.9763533" lon="14.85571"><ele>1243.0</ele><time>2026-04-12T09:41:26.193Z</time></trkpt><trkpt lat="37.9764217" lon="14.8557283"><ele>1243.0</ele><time>2026-04-12T09:41:28.192Z</time></trkpt><trkpt lat="37.976485" lon="14.85574"><ele>1243.0</ele><time>2026-04-12T09:41:30.193Z</time></trkpt><trkpt lat="37.9765567" lon="14.85575"><ele>1243.0000000000002</ele><time>2026-04-12T09:41:32.192Z</time></trkpt><trkpt lat="37.9766233" lon="14.8557667"><ele>1243.0</ele><time>2026-04-12T09:41:34.193Z</time></trkpt><trkpt lat="37.9766917" lon="14.855775"><ele>1243.5714285714287</ele><time>2026-04-12T09:41:36.192Z</time></trkpt><trkpt lat="37.9767583" lon="14.85579"><ele>1244.142857142857</ele><time>2026-04-12T09:41:38.193Z</time></trkpt><trkpt lat="37.97682" lon="14.855815"><ele>1244.7142857142858</ele><time>2026-04-12T09:41:40.193Z</time></trkpt><trkpt lat="37.9768833" lon="14.8558533"><ele>1245.2857142857142</ele><time>2026-04-12T09:41:42.193Z</time></trkpt><trkpt lat="37.9769383" lon="14.8559133"><ele>1245.857142857143</ele><time>2026-04-12T09:41:44.193Z</time></trkpt><trkpt lat="37.9769833" lon="14.8559767"><ele>1246.4285714285716</ele><time>2026-04-12T09:41:46.192Z</time></trkpt><trkpt lat="37.977015" lon="14.85605"><ele>1247.0</ele><time>2026-04-12T09:41:48.192Z</time></trkpt><trkpt lat="37.9770333" lon="14.8561333"><ele>1247.0</ele><time>2026-04-12T09:41:50.193Z</time></trkpt><trkpt lat="37.977055" lon="14.8562083"><ele>1247.0</ele><time>2026-04-12T09:41:52.192Z</time></trkpt><trkpt lat="37.9770883" lon="14.85628"><ele>1247.0</ele><time>2026-04-12T09:41:54.193Z</time></trkpt><trkpt lat="37.9771217" lon="14.85635"><ele>1247.0</ele><time>2026-04-12T09:41:56.193Z</time></trkpt><trkpt lat="37.9771533" lon="14.85642"><ele>1247.0</ele><time>2026-04-12T09:41:58.192Z</time></trkpt><trkpt lat="37.9771867" lon="14.8565267"><ele>1247.0</ele><time>2026-04-12T09:42:01.192Z</time></trkpt><trkpt lat="37.977215" lon="14.8565983"><ele>1247.0</ele><time>2026-04-12T09:42:03.192Z</time></trkpt><trkpt lat="37.9772533" lon="14.8567033"><ele>1248.5</ele><time>2026-04-12T09:42:06.192Z</time></trkpt><trkpt lat="37.9772867" lon="14.8568167"><ele>1250.0</ele><time>2026-04-12T09:42:09.193Z</time></trkpt><trkpt lat="37.9773067" lon="14.8569317"><ele>1251.5</ele><time>2026-04-12T09:42:12.192Z</time></trkpt><trkpt lat="37.9773283" lon="14.8570083"><ele>1253.0</ele><time>2026-04-12T09:42:14.193Z</time></trkpt><trkpt lat="37.97735" lon="14.857085"><ele>1254.5</ele><time>2026-04-12T09:42:16.192Z</time></trkpt><trkpt lat="37.977365" lon="14.8572"><ele>1256.0</ele><time>2026-04-12T09:42:19.192Z</time></trkpt><trkpt lat="37.977365" lon="14.8572817"><ele>1255.9999999999998</ele><time>2026-04-12T09:42:21.193Z</time></trkpt><trkpt lat="37.97736" lon="14.8573617"><ele>1256.0</ele><time>2026-04-12T09:42:23.193Z</time></trkpt><trkpt lat="37.977365" lon="14.8574467"><ele>1256.0</ele><time>2026-04-12T09:42:25.192Z</time></trkpt><trkpt lat="37.977375" lon="14.8575283"><ele>1256.0</ele><time>2026-04-12T09:42:27.192Z</time></trkpt><trkpt lat="37.977385" lon="14.8576133"><ele>1256.0</ele><time>2026-04-12T09:42:29.192Z</time></trkpt><trkpt lat="37.9773967" lon="14.8576933"><ele>1255.9999999999998</ele><time>2026-04-12T09:42:31.192Z</time></trkpt><trkpt lat="37.9774033" lon="14.8577817"><ele>1256.0</ele><time>2026-04-12T09:42:33.191Z</time></trkpt><trkpt lat="37.9774117" lon="14.8578667"><ele>1257.142857142857</ele><time>2026-04-12T09:42:35.191Z</time></trkpt><trkpt lat="37.977425" lon="14.8579483"><ele>1258.2857142857142</ele><time>2026-04-12T09:42:37.193Z</time></trkpt><trkpt lat="37.9774333" lon="14.85803"><ele>1259.4285714285716</ele><time>2026-04-12T09:42:39.192Z</time></trkpt><trkpt lat="37.9774367" lon="14.8581133"><ele>1260.5714285714284</ele><time>2026-04-12T09:42:41.191Z</time></trkpt><trkpt lat="37.977445" lon="14.858195"><ele>1261.7142857142858</ele><time>2026-04-12T09:42:43.193Z</time></trkpt><trkpt lat="37.9774767" lon="14.8582733"><ele>1262.857142857143</ele><time>2026-04-12T09:42:45.193Z</time></trkpt><trkpt lat="37.9774917" lon="14.8583567"><ele>1264.0</ele><time>2026-04-12T09:42:47.193Z</time></trkpt><trkpt lat="37.9775" lon="14.85844"><ele>1265.1428571428573</ele><time>2026-04-12T09:42:49.192Z</time></trkpt><trkpt lat="37.9775083" lon="14.8585317"><ele>1266.2857142857142</ele><time>2026-04-12T09:42:51.193Z</time></trkpt><trkpt lat="37.9775117" lon="14.85862"><ele>1267.4285714285716</ele><time>2026-04-12T09:42:53.192Z</time></trkpt><trkpt lat="37.97752" lon="14.8587017"><ele>1268.5714285714287</ele><time>2026-04-12T09:42:55.191Z</time></trkpt><trkpt lat="37.9775267" lon="14.8587833"><ele>1269.7142857142858</ele><time>2026-04-12T09:42:57.195Z</time></trkpt><trkpt lat="37.97752" lon="14.858865"><ele>1270.857142857143</ele><time>2026-04-12T09:42:59.192Z</time></trkpt><trkpt lat="37.977465" lon="14.858955"><ele>1272.0</ele><time>2026-04-12T09:43:02.193Z</time></trkpt><trkpt lat="37.9774017" lon="14.85897"><ele>1272.0</ele><time>2026-04-12T09:43:04.193Z</time></trkpt><trkpt lat="37.9773333" lon="14.8589567"><ele>1272.0</ele><time>2026-04-12T09:43:06.193Z</time></trkpt><trkpt lat="37.9772833" lon="14.8589"><ele>1272.0</ele><time>2026-04-12T09:43:08.192Z</time></trkpt><trkpt lat="37.977245" lon="14.8588333"><ele>1272.0</ele><time>2026-04-12T09:43:10.192Z</time></trkpt><trkpt lat="37.9771783" lon="14.8587433"><ele>1272.0</ele><time>2026-04-12T09:43:13.191Z</time></trkpt><trkpt lat="37.9771333" lon="14.8586767"><ele>1272.0</ele><time>2026-04-12T09:43:15.192Z</time></trkpt><trkpt lat="37.97709" lon="14.858605"><ele>1272.0</ele><time>2026-04-12T09:43:17.193Z</time></trkpt><trkpt lat="37.9770483" lon="14.85854"><ele>1272.0</ele><time>2026-04-12T09:43:19.192Z</time></trkpt><trkpt lat="37.9770067" lon="14.8584717"><ele>1272.0</ele><time>2026-04-12T09:43:21.192Z</time></trkpt><trkpt lat="37.9769583" lon="14.85842"><ele>1272.0</ele><time>2026-04-12T09:43:23.193Z</time></trkpt><trkpt lat="37.9769133" lon="14.8583633"><ele>1272.0</ele><time>2026-04-12T09:43:25.191Z</time></trkpt><trkpt lat="37.9768733" lon="14.8582967"><ele>1272.0</ele><time>2026-04-12T09:43:27.193Z</time></trkpt><trkpt lat="37.9768217" lon="14.8582267"><ele>1272.0</ele><time>2026-04-12T09:43:30.194Z</time></trkpt><trkpt lat="37.9767417" lon="14.8582017"><ele>1272.0</ele><time>2026-04-12T09:43:33.193Z</time></trkpt><trkpt lat="37.9766833" lon="14.858235"><ele>1272.0</ele><time>2026-04-12T09:43:35.194Z</time></trkpt><trkpt lat="37.9766367" lon="14.858335"><ele>1272.0</ele><time>2026-04-12T09:43:38.193Z</time></trkpt><trkpt lat="37.976635" lon="14.8584267"><ele>1272.0</ele><time>2026-04-12T09:43:40.194Z</time></trkpt><trkpt lat="37.9766533" lon="14.858515"><ele>1272.0</ele><time>2026-04-12T09:43:42.193Z</time></trkpt><trkpt lat="37.9766817" lon="14.8585917"><ele>1272.0</ele><time>2026-04-12T09:43:44.194Z</time></trkpt><trkpt lat="37.9767217" lon="14.8586933"><ele>1272.0</ele><time>2026-04-12T09:43:47.193Z</time></trkpt><trkpt lat="37.9767717" lon="14.8587883"><ele>1272.0</ele><time>2026-04-12T09:43:50.194Z</time></trkpt><trkpt lat="37.976805" lon="14.8588617"><ele>1272.0</ele><time>2026-04-12T09:43:52.192Z</time></trkpt><trkpt lat="37.9768317" lon="14.8589367"><ele>1272.0</ele><time>2026-04-12T09:43:54.192Z</time></trkpt><trkpt lat="37.976875" lon="14.8589967"><ele>1272.0</ele><time>2026-04-12T09:43:56.194Z</time></trkpt><trkpt lat="37.9769183" lon="14.8590617"><ele>1272.0</ele><time>2026-04-12T09:43:58.193Z</time></trkpt><trkpt lat="37.976965" lon="14.8591283"><ele>1272.0</ele><time>2026-04-12T09:44:00.194Z</time></trkpt><trkpt lat="37.9770033" lon="14.8592"><ele>1272.0</ele><time>2026-04-12T09:44:02.194Z</time></trkpt><trkpt lat="37.97703" lon="14.8592817"><ele>1273.7142857142856</ele><time>2026-04-12T09:44:04.193Z</time></trkpt><trkpt lat="37.9770633" lon="14.859355"><ele>1275.4285714285716</ele><time>2026-04-12T09:44:06.193Z</time></trkpt><trkpt lat="37.9771033" lon="14.8594233"><ele>1277.142857142857</ele><time>2026-04-12T09:44:08.193Z</time></trkpt><trkpt lat="37.97715" lon="14.859485"><ele>1278.8571428571427</ele><time>2026-04-12T09:44:10.193Z</time></trkpt><trkpt lat="37.9772" lon="14.85955"><ele>1280.5714285714284</ele><time>2026-04-12T09:44:13.192Z</time></trkpt><trkpt lat="37.9772667" lon="14.8596183"><ele>1282.2857142857142</ele><time>2026-04-12T09:44:16.192Z</time></trkpt><trkpt lat="37.9773133" lon="14.859675"><ele>1284.0</ele><time>2026-04-12T09:44:18.194Z</time></trkpt><trkpt lat="37.9773567" lon="14.8597333"><ele>1284.0</ele><time>2026-04-12T09:44:20.194Z</time></trkpt><trkpt lat="37.9774067" lon="14.859785"><ele>1284.0</ele><time>2026-04-12T09:44:22.192Z</time></trkpt><trkpt lat="37.977475" lon="14.8598467"><ele>1284.0</ele><time>2026-04-12T09:44:25.192Z</time></trkpt><trkpt lat="37.9775367" lon="14.859905"><ele>1284.0</ele><time>2026-04-12T09:44:28.193Z</time></trkpt><trkpt lat="37.97759" lon="14.8599567"><ele>1284.0</ele><time>2026-04-12T09:44:30.193Z</time></trkpt><trkpt lat="37.97764" lon="14.8600183"><ele>1284.0</ele><time>2026-04-12T09:44:32.194Z</time></trkpt><trkpt lat="37.9777133" lon="14.8600883"><ele>1285.2857142857142</ele><time>2026-04-12T09:44:35.194Z</time></trkpt><trkpt lat="37.9777717" lon="14.860135"><ele>1286.5714285714284</ele><time>2026-04-12T09:44:37.192Z</time></trkpt><trkpt lat="37.9778267" lon="14.8601883"><ele>1287.8571428571427</ele><time>2026-04-12T09:44:39.194Z</time></trkpt><trkpt lat="37.9778717" lon="14.860245"><ele>1289.142857142857</ele><time>2026-04-12T09:44:41.192Z</time></trkpt><trkpt lat="37.9779233" lon="14.8602967"><ele>1290.4285714285716</ele><time>2026-04-12T09:44:43.192Z</time></trkpt><trkpt lat="37.977965" lon="14.8603567"><ele>1291.7142857142856</ele><time>2026-04-12T09:44:45.193Z</time></trkpt><trkpt lat="37.9780183" lon="14.860415"><ele>1293.0</ele><time>2026-04-12T09:44:48.192Z</time></trkpt><trkpt lat="37.9780867" lon="14.86048"><ele>1293.0</ele><time>2026-04-12T09:44:51.192Z</time></trkpt><trkpt lat="37.9781433" lon="14.8605367"><ele>1293.0</ele><time>2026-04-12T09:44:53.194Z</time></trkpt><trkpt lat="37.9781933" lon="14.8605967"><ele>1293.0</ele><time>2026-04-12T09:44:55.194Z</time></trkpt><trkpt lat="37.97826" lon="14.8606783"><ele>1293.0</ele><time>2026-04-12T09:44:58.192Z</time></trkpt><trkpt lat="37.978315" lon="14.8607367"><ele>1293.0</ele><time>2026-04-12T09:45:00.192Z</time></trkpt><trkpt lat="37.9783733" lon="14.8607933"><ele>1293.0</ele><time>2026-04-12T09:45:02.194Z</time></trkpt><trkpt lat="37.97843" lon="14.8608533"><ele>1293.1666666666667</ele><time>2026-04-12T09:45:04.192Z</time></trkpt><trkpt lat="37.97849" lon="14.8609067"><ele>1293.3333333333333</ele><time>2026-04-12T09:45:06.195Z</time></trkpt><trkpt lat="37.9785533" lon="14.8609733"><ele>1293.5</ele><time>2026-04-12T09:45:08.193Z</time></trkpt><trkpt lat="37.9786133" lon="14.861055"><ele>1293.6666666666665</ele><time>2026-04-12T09:45:10.193Z</time></trkpt><trkpt lat="37.978685" lon="14.86112"><ele>1293.8333333333333</ele><time>2026-04-12T09:45:12.192Z</time></trkpt><trkpt lat="37.9787483" lon="14.86119"><ele>1294.0</ele><time>2026-04-12T09:45:14.194Z</time></trkpt><trkpt lat="37.9788083" lon="14.8612667"><ele>1294.0</ele><time>2026-04-12T09:45:16.193Z</time></trkpt><trkpt lat="37.9788633" lon="14.86134"><ele>1294.0</ele><time>2026-04-12T09:45:18.194Z</time></trkpt><trkpt lat="37.9789217" lon="14.8613967"><ele>1294.0</ele><time>2026-04-12T09:45:20.195Z</time></trkpt><trkpt lat="37.97897" lon="14.8614483"><ele>1294.0</ele><time>2026-04-12T09:45:22.199Z</time></trkpt><trkpt lat="37.97902" lon="14.8615167"><ele>1294.0</ele><time>2026-04-12T09:45:24.193Z</time></trkpt><trkpt lat="37.9790833" lon="14.861595"><ele>1294.0</ele><time>2026-04-12T09:45:27.192Z</time></trkpt><trkpt lat="37.9791567" lon="14.86168"><ele>1293.8333333333333</ele><time>2026-04-12T09:45:30.193Z</time></trkpt><trkpt lat="37.9792183" lon="14.8617383"><ele>1293.6666666666665</ele><time>2026-04-12T09:45:32.194Z</time></trkpt><trkpt lat="37.97929" lon="14.8617933"><ele>1293.5</ele><time>2026-04-12T09:45:34.194Z</time></trkpt><trkpt lat="37.9793617" lon="14.8618533"><ele>1293.3333333333333</ele><time>2026-04-12T09:45:36.192Z</time></trkpt><trkpt lat="37.9794283" lon="14.861895"><ele>1293.1666666666667</ele><time>2026-04-12T09:45:38.194Z</time></trkpt><trkpt lat="37.9794933" lon="14.8619183"><ele>1293.0</ele><time>2026-04-12T09:45:40.192Z</time></trkpt><trkpt lat="37.9795683" lon="14.8619417"><ele>1293.0</ele><time>2026-04-12T09:45:42.197Z</time></trkpt><trkpt lat="37.9796533" lon="14.8619667"><ele>1293.0</ele><time>2026-04-12T09:45:44.195Z</time></trkpt><trkpt lat="37.979745" lon="14.862005"><ele>1293.0</ele><time>2026-04-12T09:45:46.192Z</time></trkpt><trkpt lat="37.97984" lon="14.8620483"><ele>1293.0</ele><time>2026-04-12T09:45:48.193Z</time></trkpt><trkpt lat="37.97994" lon="14.8620867"><ele>1293.0</ele><time>2026-04-12T09:45:50.194Z</time></trkpt><trkpt lat="37.9800483" lon="14.862115"><ele>1293.4</ele><time>2026-04-12T09:45:52.193Z</time></trkpt><trkpt lat="37.9801483" lon="14.86216"><ele>1293.8000000000002</ele><time>2026-04-12T09:45:54.193Z</time></trkpt><trkpt lat="37.9802483" lon="14.8622083"><ele>1294.2</ele><time>2026-04-12T09:45:56.194Z</time></trkpt><trkpt lat="37.9803467" lon="14.862265"><ele>1294.6</ele><time>2026-04-12T09:45:58.192Z</time></trkpt><trkpt lat="37.9804383" lon="14.8623233"><ele>1295.0</ele><time>2026-04-12T09:46:00.192Z</time></trkpt><trkpt lat="37.9805383" lon="14.8623667"><ele>1295.0</ele><time>2026-04-12T09:46:02.194Z</time></trkpt><trkpt lat="37.9806433" lon="14.8624133"><ele>1295.0</ele><time>2026-04-12T09:46:04.192Z</time></trkpt><trkpt lat="37.980755" lon="14.8624683"><ele>1295.0</ele><time>2026-04-12T09:46:06.192Z</time></trkpt><trkpt lat="37.98087" lon="14.862515"><ele>1295.0</ele><time>2026-04-12T09:46:08.193Z</time></trkpt><trkpt lat="37.98098" lon="14.8625667"><ele>1295.3333333333335</ele><time>2026-04-12T09:46:10.193Z</time></trkpt><trkpt lat="37.981095" lon="14.8626183"><ele>1295.6666666666667</ele><time>2026-04-12T09:46:12.193Z</time></trkpt><trkpt lat="37.9811533" lon="14.86265"><ele>1296.0</ele><time>2026-04-12T09:46:13.193Z</time></trkpt><trkpt lat="37.98121" lon="14.862685"><ele>1296.3333333333333</ele><time>2026-04-12T09:46:14.193Z</time></trkpt><trkpt lat="37.9812633" lon="14.8627283"><ele>1296.6666666666665</ele><time>2026-04-12T09:46:15.194Z</time></trkpt><trkpt lat="37.9813533" lon="14.8628367"><ele>1297.0</ele><time>2026-04-12T09:46:17.195Z</time></trkpt><trkpt lat="37.981395" lon="14.8629033"><ele>1297.0</ele><time>2026-04-12T09:46:18.194Z</time></trkpt><trkpt lat="37.9814267" lon="14.8629733"><ele>1297.0</ele><time>2026-04-12T09:46:19.192Z</time></trkpt><trkpt lat="37.9814783" lon="14.863115"><ele>1297.0</ele><time>2026-04-12T09:46:21.193Z</time></trkpt><trkpt lat="37.9814983" lon="14.86326"><ele>1297.0</ele><time>2026-04-12T09:46:23.193Z</time></trkpt><trkpt lat="37.9815167" lon="14.863395"><ele>1297.0</ele><time>2026-04-12T09:46:25.193Z</time></trkpt><trkpt lat="37.98154" lon="14.86353"><ele>1298.1999999999998</ele><time>2026-04-12T09:46:27.193Z</time></trkpt><trkpt lat="37.98156" lon="14.863665"><ele>1299.4</ele><time>2026-04-12T09:46:29.198Z</time></trkpt><trkpt lat="37.9815833" lon="14.8637983"><ele>1300.6</ele><time>2026-04-12T09:46:31.199Z</time></trkpt><trkpt lat="37.9815983" lon="14.86393"><ele>1301.8000000000002</ele><time>2026-04-12T09:46:33.193Z</time></trkpt><trkpt lat="37.9816183" lon="14.86406"><ele>1303.0</ele><time>2026-04-12T09:46:35.193Z</time></trkpt><trkpt lat="37.98164" lon="14.8641883"><ele>1302.8000000000002</ele><time>2026-04-12T09:46:37.193Z</time></trkpt><trkpt lat="37.981665" lon="14.8643167"><ele>1302.6</ele><time>2026-04-12T09:46:39.193Z</time></trkpt><trkpt lat="37.9816883" lon="14.864445"><ele>1302.4</ele><time>2026-04-12T09:46:41.193Z</time></trkpt><trkpt lat="37.9817" lon="14.8645767"><ele>1302.1999999999998</ele><time>2026-04-12T09:46:43.192Z</time></trkpt><trkpt lat="37.981725" lon="14.8646983"><ele>1302.0</ele><time>2026-04-12T09:46:45.193Z</time></trkpt><trkpt lat="37.98175" lon="14.8648167"><ele>1304.8333333333333</ele><time>2026-04-12T09:46:47.195Z</time></trkpt><trkpt lat="37.9817733" lon="14.8649333"><ele>1307.6666666666667</ele><time>2026-04-12T09:46:49.195Z</time></trkpt><trkpt lat="37.9817983" lon="14.8650283"><ele>1310.5</ele><time>2026-04-12T09:46:51.195Z</time></trkpt><trkpt lat="37.9818433" lon="14.8651117"><ele>1313.3333333333335</ele><time>2026-04-12T09:46:54.193Z</time></trkpt><trkpt lat="37.9818767" lon="14.8651867"><ele>1316.1666666666667</ele><time>2026-04-12T09:46:57.192Z</time></trkpt><trkpt lat="37.981955" lon="14.86529"><ele>1319.0</ele><time>2026-04-12T09:47:17.194Z</time></trkpt><trkpt lat="37.9819867" lon="14.865375"><ele>1319.0</ele><time>2026-04-12T09:47:20.194Z</time></trkpt><trkpt lat="37.9820333" lon="14.8654733"><ele>1319.0</ele><time>2026-04-12T09:47:23.194Z</time></trkpt><trkpt lat="37.9820867" lon="14.8655733"><ele>1319.0</ele><time>2026-04-12T09:47:26.194Z</time></trkpt><trkpt lat="37.98212" lon="14.8656467"><ele>1319.0</ele><time>2026-04-12T09:47:28.192Z</time></trkpt><trkpt lat="37.9821583" lon="14.865715"><ele>1319.0</ele><time>2026-04-12T09:47:30.193Z</time></trkpt><trkpt lat="37.9822083" lon="14.8657767"><ele>1319.0</ele><time>2026-04-12T09:47:32.194Z</time></trkpt><trkpt lat="37.9822533" lon="14.86584"><ele>1318.9999999999998</ele><time>2026-04-12T09:47:34.194Z</time></trkpt><trkpt lat="37.982275" lon="14.865915"><ele>1319.0</ele><time>2026-04-12T09:47:36.193Z</time></trkpt><trkpt lat="37.9822967" lon="14.8659933"><ele>1319.0</ele><time>2026-04-12T09:47:38.193Z</time></trkpt><trkpt lat="37.9823117" lon="14.8660717"><ele>1319.0</ele><time>2026-04-12T09:47:40.194Z</time></trkpt><trkpt lat="37.9823117" lon="14.8661533"><ele>1319.0</ele><time>2026-04-12T09:47:42.196Z</time></trkpt><trkpt lat="37.982295" lon="14.866235"><ele>1318.9999999999998</ele><time>2026-04-12T09:47:44.197Z</time></trkpt><trkpt lat="37.9822883" lon="14.8663183"><ele>1319.0</ele><time>2026-04-12T09:47:46.195Z</time></trkpt><trkpt lat="37.9822883" lon="14.8664017"><ele>1319.4285714285713</ele><time>2026-04-12T09:47:48.196Z</time></trkpt><trkpt lat="37.982285" lon="14.8664817"><ele>1319.857142857143</ele><time>2026-04-12T09:47:50.195Z</time></trkpt><trkpt lat="37.9822783" lon="14.8665683"><ele>1320.2857142857142</ele><time>2026-04-12T09:47:52.195Z</time></trkpt><trkpt lat="37.9822733" lon="14.8666583"><ele>1320.7142857142858</ele><time>2026-04-12T09:47:54.195Z</time></trkpt><trkpt lat="37.9822683" lon="14.866745"><ele>1321.142857142857</ele><time>2026-04-12T09:47:56.195Z</time></trkpt><trkpt lat="37.9822683" lon="14.8668367"><ele>1321.5714285714284</ele><time>2026-04-12T09:47:58.195Z</time></trkpt><trkpt lat="37.9822683" lon="14.8669167"><ele>1322.0</ele><time>2026-04-12T09:48:00.195Z</time></trkpt><trkpt lat="37.98226" lon="14.8669967"><ele>1322.0</ele><time>2026-04-12T09:48:02.193Z</time></trkpt><trkpt lat="37.9822633" lon="14.8671117"><ele>1322.0</ele><time>2026-04-12T09:48:05.193Z</time></trkpt><trkpt lat="37.9822467" lon="14.867225"><ele>1322.0</ele><time>2026-04-12T09:48:08.193Z</time></trkpt><trkpt lat="37.98224" lon="14.8673083"><ele>1322.0</ele><time>2026-04-12T09:48:10.193Z</time></trkpt><trkpt lat="37.982235" lon="14.8673917"><ele>1322.0</ele><time>2026-04-12T09:48:12.193Z</time></trkpt><trkpt lat="37.98222" lon="14.8674733"><ele>1322.0</ele><time>2026-04-12T09:48:14.194Z</time></trkpt><trkpt lat="37.9821633" lon="14.86756"><ele>1322.0</ele><time>2026-04-12T09:48:17.194Z</time></trkpt><trkpt lat="37.9821083" lon="14.8676017"><ele>1322.0</ele><time>2026-04-12T09:48:19.193Z</time></trkpt><trkpt lat="37.9820417" lon="14.8676383"><ele>1322.0</ele><time>2026-04-12T09:48:21.193Z</time></trkpt><trkpt lat="37.9819817" lon="14.8676833"><ele>1322.0</ele><time>2026-04-12T09:48:23.193Z</time></trkpt><trkpt lat="37.981925" lon="14.867725"><ele>1322.0</ele><time>2026-04-12T09:48:25.194Z</time></trkpt><trkpt lat="37.98187" lon="14.86777"><ele>1322.0</ele><time>2026-04-12T09:48:27.195Z</time></trkpt><trkpt lat="37.9818183" lon="14.8678217"><ele>1322.0</ele><time>2026-04-12T09:48:29.193Z</time></trkpt><trkpt lat="37.9817567" lon="14.8679083"><ele>1323.0</ele><time>2026-04-12T09:48:32.193Z</time></trkpt><trkpt lat="37.98171" lon="14.8679717"><ele>1324.0</ele><time>2026-04-12T09:48:34.193Z</time></trkpt><trkpt lat="37.9816667" lon="14.868045"><ele>1325.0</ele><time>2026-04-12T09:48:36.193Z</time></trkpt><trkpt lat="37.98163" lon="14.868115"><ele>1326.0</ele><time>2026-04-12T09:48:38.194Z</time></trkpt><trkpt lat="37.9815933" lon="14.8681867"><ele>1327.0</ele><time>2026-04-12T09:48:40.192Z</time></trkpt><trkpt lat="37.9815583" lon="14.8682533"><ele>1328.0</ele><time>2026-04-12T09:48:42.194Z</time></trkpt><trkpt lat="37.9815233" lon="14.8683233"><ele>1329.0</ele><time>2026-04-12T09:48:44.196Z</time></trkpt><trkpt lat="37.9814933" lon="14.8684"><ele>1330.142857142857</ele><time>2026-04-12T09:48:46.195Z</time></trkpt><trkpt lat="37.9814483" lon="14.8684733"><ele>1331.2857142857142</ele><time>2026-04-12T09:48:48.195Z</time></trkpt><trkpt lat="37.9814" lon="14.86854"><ele>1332.4285714285716</ele><time>2026-04-12T09:48:50.195Z</time></trkpt><trkpt lat="37.9813567" lon="14.8686"><ele>1333.5714285714284</ele><time>2026-04-12T09:48:52.195Z</time></trkpt><trkpt lat="37.9813083" lon="14.86866"><ele>1334.7142857142858</ele><time>2026-04-12T09:48:54.196Z</time></trkpt><trkpt lat="37.9812467" lon="14.8687033"><ele>1335.857142857143</ele><time>2026-04-12T09:48:56.196Z</time></trkpt><trkpt lat="37.9811817" lon="14.8687167"><ele>1337.0</ele><time>2026-04-12T09:48:58.195Z</time></trkpt><trkpt lat="37.9810933" lon="14.8687333"><ele>1337.0</ele><time>2026-04-12T09:49:01.192Z</time></trkpt><trkpt lat="37.9810283" lon="14.8687367"><ele>1337.0</ele><time>2026-04-12T09:49:03.193Z</time></trkpt><trkpt lat="37.9809667" lon="14.86876"><ele>1337.0</ele><time>2026-04-12T09:49:05.192Z</time></trkpt><trkpt lat="37.9809033" lon="14.8688"><ele>1337.0</ele><time>2026-04-12T09:49:07.193Z</time></trkpt><trkpt lat="37.980845" lon="14.8688483"><ele>1337.0</ele><time>2026-04-12T09:49:09.194Z</time></trkpt><trkpt lat="37.9807883" lon="14.8689033"><ele>1337.0</ele><time>2026-04-12T09:49:11.196Z</time></trkpt><trkpt lat="37.980735" lon="14.868965"><ele>1337.0</ele><time>2026-04-12T09:49:13.195Z</time></trkpt><trkpt lat="37.9806833" lon="14.8690233"><ele>1337.4285714285713</ele><time>2026-04-12T09:49:15.195Z</time></trkpt><trkpt lat="37.980635" lon="14.8690817"><ele>1337.857142857143</ele><time>2026-04-12T09:49:17.195Z</time></trkpt><trkpt lat="37.9805833" lon="14.86914"><ele>1338.2857142857142</ele><time>2026-04-12T09:49:19.195Z</time></trkpt><trkpt lat="37.9805283" lon="14.869195"><ele>1338.7142857142858</ele><time>2026-04-12T09:49:21.195Z</time></trkpt><trkpt lat="37.9804767" lon="14.869255"><ele>1339.142857142857</ele><time>2026-04-12T09:49:23.195Z</time></trkpt><trkpt lat="37.980425" lon="14.8693133"><ele>1339.5714285714284</ele><time>2026-04-12T09:49:25.194Z</time></trkpt><trkpt lat="37.9803683" lon="14.8693767"><ele>1340.0</ele><time>2026-04-12T09:49:27.194Z</time></trkpt><trkpt lat="37.980315" lon="14.8694317"><ele>1341.5714285714284</ele><time>2026-04-12T09:49:29.193Z</time></trkpt><trkpt lat="37.9802717" lon="14.8695033"><ele>1343.142857142857</ele><time>2026-04-12T09:49:31.192Z</time></trkpt><trkpt lat="37.9802383" lon="14.86958"><ele>1344.7142857142858</ele><time>2026-04-12T09:49:33.192Z</time></trkpt><trkpt lat="37.98021" lon="14.86966"><ele>1346.2857142857142</ele><time>2026-04-12T09:49:35.193Z</time></trkpt><trkpt lat="37.9801983" lon="14.8697583"><ele>1347.857142857143</ele><time>2026-04-12T09:49:37.193Z</time></trkpt><trkpt lat="37.9801983" lon="14.8698517"><ele>1349.4285714285713</ele><time>2026-04-12T09:49:39.193Z</time></trkpt><trkpt lat="37.9802083" lon="14.8699383"><ele>1351.0</ele><time>2026-04-12T09:49:41.192Z</time></trkpt><trkpt lat="37.98023" lon="14.870025"><ele>1351.5714285714287</ele><time>2026-04-12T09:49:43.192Z</time></trkpt><trkpt lat="37.980245" lon="14.87011"><ele>1352.142857142857</ele><time>2026-04-12T09:49:45.194Z</time></trkpt><trkpt lat="37.9802633" lon="14.8701983"><ele>1352.7142857142858</ele><time>2026-04-12T09:49:47.193Z</time></trkpt><trkpt lat="37.980285" lon="14.87028"><ele>1353.2857142857142</ele><time>2026-04-12T09:49:49.193Z</time></trkpt><trkpt lat="37.980305" lon="14.8703633"><ele>1353.857142857143</ele><time>2026-04-12T09:49:51.193Z</time></trkpt><trkpt lat="37.9803267" lon="14.87045"><ele>1354.4285714285716</ele><time>2026-04-12T09:49:53.192Z</time></trkpt><trkpt lat="37.980355" lon="14.87053"><ele>1355.0</ele><time>2026-04-12T09:49:55.193Z</time></trkpt><trkpt lat="37.980395" lon="14.8705983"><ele>1355.0000000000002</ele><time>2026-04-12T09:49:57.193Z</time></trkpt><trkpt lat="37.980445" lon="14.8706633"><ele>1355.0</ele><time>2026-04-12T09:49:59.192Z</time></trkpt><trkpt lat="37.98049" lon="14.87073"><ele>1355.0</ele><time>2026-04-12T09:50:01.192Z</time></trkpt><trkpt lat="37.9805317" lon="14.8708017"><ele>1355.0</ele><time>2026-04-12T09:50:03.193Z</time></trkpt><trkpt lat="37.98058" lon="14.87086"><ele>1355.0</ele><time>2026-04-12T09:50:05.192Z</time></trkpt><trkpt lat="37.9806383" lon="14.8709083"><ele>1355.0000000000002</ele><time>2026-04-12T09:50:07.193Z</time></trkpt><trkpt lat="37.980685" lon="14.8709767"><ele>1355.0</ele><time>2026-04-12T09:50:09.193Z</time></trkpt><trkpt lat="37.98072" lon="14.8710517"><ele>1356.2857142857144</ele><time>2026-04-12T09:50:11.193Z</time></trkpt><trkpt lat="37.9807433" lon="14.8711333"><ele>1357.5714285714287</ele><time>2026-04-12T09:50:13.193Z</time></trkpt><trkpt lat="37.9807433" lon="14.87122"><ele>1358.857142857143</ele><time>2026-04-12T09:50:15.192Z</time></trkpt><trkpt lat="37.9807267" lon="14.8713083"><ele>1360.1428571428573</ele><time>2026-04-12T09:50:17.194Z</time></trkpt><trkpt lat="37.9806983" lon="14.8713917"><ele>1361.4285714285716</ele><time>2026-04-12T09:50:19.193Z</time></trkpt><trkpt lat="37.980665" lon="14.8714667"><ele>1362.7142857142858</ele><time>2026-04-12T09:50:21.193Z</time></trkpt><trkpt lat="37.9806167" lon="14.871535"><ele>1364.0</ele><time>2026-04-12T09:50:23.194Z</time></trkpt><trkpt lat="37.98056" lon="14.8715767"><ele>1364.0</ele><time>2026-04-12T09:50:25.192Z</time></trkpt><trkpt lat="37.9804967" lon="14.871615"><ele>1364.0</ele><time>2026-04-12T09:50:27.192Z</time></trkpt><trkpt lat="37.9804317" lon="14.87162"><ele>1364.0</ele><time>2026-04-12T09:50:29.193Z</time></trkpt><trkpt lat="37.9803617" lon="14.87163"><ele>1364.0</ele><time>2026-04-12T09:50:31.193Z</time></trkpt><trkpt lat="37.98029" lon="14.8716383"><ele>1364.0</ele><time>2026-04-12T09:50:33.193Z</time></trkpt><trkpt lat="37.980225" lon="14.8716583"><ele>1364.0</ele><time>2026-04-12T09:50:35.193Z</time></trkpt><trkpt lat="37.9801583" lon="14.87168"><ele>1364.0</ele><time>2026-04-12T09:50:37.193Z</time></trkpt><trkpt lat="37.9800917" lon="14.8716967"><ele>1364.0</ele><time>2026-04-12T09:50:39.192Z</time></trkpt><trkpt lat="37.9800217" lon="14.8717183"><ele>1364.0</ele><time>2026-04-12T09:50:41.194Z</time></trkpt><trkpt lat="37.979955" lon="14.8717467"><ele>1364.0</ele><time>2026-04-12T09:50:43.193Z</time></trkpt><trkpt lat="37.9798883" lon="14.871775"><ele>1364.0</ele><time>2026-04-12T09:50:45.193Z</time></trkpt><trkpt lat="37.9798183" lon="14.8718083"><ele>1364.0</ele><time>2026-04-12T09:50:47.193Z</time></trkpt><trkpt lat="37.97975" lon="14.8718417"><ele>1364.0</ele><time>2026-04-12T09:50:49.192Z</time></trkpt><trkpt lat="37.9796833" lon="14.8718767"><ele>1364.0</ele><time>2026-04-12T09:50:51.193Z</time></trkpt><trkpt lat="37.9796183" lon="14.8719283"><ele>1364.0</ele><time>2026-04-12T09:50:53.192Z</time></trkpt><trkpt lat="37.9795583" lon="14.8719833"><ele>1364.0</ele><time>2026-04-12T09:50:55.193Z</time></trkpt><trkpt lat="37.979505" lon="14.8720383"><ele>1364.0</ele><time>2026-04-12T09:50:57.192Z</time></trkpt><trkpt lat="37.9794533" lon="14.8721017"><ele>1364.0</ele><time>2026-04-12T09:50:59.193Z</time></trkpt><trkpt lat="37.9794083" lon="14.8721667"><ele>1364.0</ele><time>2026-04-12T09:51:01.193Z</time></trkpt><trkpt lat="37.9793667" lon="14.8722367"><ele>1364.0</ele><time>2026-04-12T09:51:03.194Z</time></trkpt><trkpt lat="37.97934" lon="14.87231"><ele>1364.0</ele><time>2026-04-12T09:51:05.192Z</time></trkpt><trkpt lat="37.9793233" lon="14.8724"><ele>1364.0</ele><time>2026-04-12T09:51:07.192Z</time></trkpt><trkpt lat="37.9793183" lon="14.8724967"><ele>1364.0</ele><time>2026-04-12T09:51:09.194Z</time></trkpt><trkpt lat="37.97933" lon="14.8725883"><ele>1364.0</ele><time>2026-04-12T09:51:11.193Z</time></trkpt><trkpt lat="37.97937" lon="14.872675"><ele>1364.0</ele><time>2026-04-12T09:51:14.193Z</time></trkpt><trkpt lat="37.9794117" lon="14.87276"><ele>1364.0</ele><time>2026-04-12T09:51:18.195Z</time></trkpt><trkpt lat="37.9795" lon="14.8728133"><ele>1364.0</ele><time>2026-04-12T09:51:21.194Z</time></trkpt><trkpt lat="37.979565" lon="14.8728383"><ele>1364.5714285714284</ele><time>2026-04-12T09:51:23.195Z</time></trkpt><trkpt lat="37.97963" lon="14.8728567"><ele>1365.142857142857</ele><time>2026-04-12T09:51:25.195Z</time></trkpt><trkpt lat="37.9796967" lon="14.8728683"><ele>1365.7142857142858</ele><time>2026-04-12T09:51:27.195Z</time></trkpt><trkpt lat="37.979765" lon="14.8728717"><ele>1366.2857142857142</ele><time>2026-04-12T09:51:29.192Z</time></trkpt><trkpt lat="37.9798333" lon="14.8728783"><ele>1366.857142857143</ele><time>2026-04-12T09:51:31.194Z</time></trkpt><trkpt lat="37.9799067" lon="14.87289"><ele>1367.4285714285713</ele><time>2026-04-12T09:51:33.195Z</time></trkpt><trkpt lat="37.9799733" lon="14.87289"><ele>1368.0</ele><time>2026-04-12T09:51:35.193Z</time></trkpt><trkpt lat="37.980035" lon="14.8729083"><ele>1368.0</ele><time>2026-04-12T09:51:37.193Z</time></trkpt><trkpt lat="37.9801083" lon="14.872925"><ele>1368.0</ele><time>2026-04-12T09:51:39.194Z</time></trkpt><trkpt lat="37.98019" lon="14.8729367"><ele>1368.0</ele><time>2026-04-12T09:51:41.193Z</time></trkpt><trkpt lat="37.9802733" lon="14.8729467"><ele>1368.0</ele><time>2026-04-12T09:51:43.192Z</time></trkpt><trkpt lat="37.9803467" lon="14.8729783"><ele>1368.0</ele><time>2026-04-12T09:51:45.193Z</time></trkpt><trkpt lat="37.9804167" lon="14.87301"><ele>1368.0</ele><time>2026-04-12T09:51:47.193Z</time></trkpt><trkpt lat="37.9804983" lon="14.8730483"><ele>1368.0</ele><time>2026-04-12T09:51:49.195Z</time></trkpt><trkpt lat="37.98057" lon="14.8730967"><ele>1368.0</ele><time>2026-04-12T09:51:51.194Z</time></trkpt><trkpt lat="37.98065" lon="14.8731333"><ele>1368.0</ele><time>2026-04-12T09:51:53.194Z</time></trkpt><trkpt lat="37.980735" lon="14.87316"><ele>1368.0</ele><time>2026-04-12T09:51:55.194Z</time></trkpt><trkpt lat="37.980825" lon="14.8731867"><ele>1368.0</ele><time>2026-04-12T09:51:57.194Z</time></trkpt><trkpt lat="37.9809067" lon="14.8732567"><ele>1368.0</ele><time>2026-04-12T09:51:59.192Z</time></trkpt><trkpt lat="37.9809467" lon="14.873375"><ele>1369.5</ele><time>2026-04-12T09:52:01.194Z</time></trkpt><trkpt lat="37.98098" lon="14.87351"><ele>1371.0</ele><time>2026-04-12T09:52:03.194Z</time></trkpt><trkpt lat="37.9809883" lon="14.8736567"><ele>1372.5</ele><time>2026-04-12T09:52:05.196Z</time></trkpt><trkpt lat="37.9810117" lon="14.8737967"><ele>1374.0</ele><time>2026-04-12T09:52:07.192Z</time></trkpt><trkpt lat="37.981045" lon="14.873945"><ele>1374.0</ele><time>2026-04-12T09:52:09.192Z</time></trkpt><trkpt lat="37.9810867" lon="14.8740983"><ele>1374.0</ele><time>2026-04-12T09:52:11.193Z</time></trkpt><trkpt lat="37.9811117" lon="14.8741783"><ele>1374.0</ele><time>2026-04-12T09:52:12.194Z</time></trkpt><trkpt lat="37.9811433" lon="14.8742633"><ele>1374.0</ele><time>2026-04-12T09:52:13.192Z</time></trkpt><trkpt lat="37.981185" lon="14.8743383"><ele>1374.0</ele><time>2026-04-12T09:52:14.193Z</time></trkpt><trkpt lat="37.9812317" lon="14.8744017"><ele>1374.0</ele><time>2026-04-12T09:52:15.194Z</time></trkpt><trkpt lat="37.9812867" lon="14.8744617"><ele>1371.5</ele><time>2026-04-12T09:52:16.193Z</time></trkpt><trkpt lat="37.9813433" lon="14.8745183"><ele>1369.0</ele><time>2026-04-12T09:52:17.193Z</time></trkpt><trkpt lat="37.9814033" lon="14.8745783"><ele>1366.5</ele><time>2026-04-12T09:52:18.193Z</time></trkpt><trkpt lat="37.9814567" lon="14.8746417"><ele>1364.0</ele><time>2026-04-12T09:52:19.195Z</time></trkpt><trkpt lat="37.98152" lon="14.87471"><ele>1361.5</ele><time>2026-04-12T09:52:20.194Z</time></trkpt><trkpt lat="37.9815767" lon="14.8747867"><ele>1359.0</ele><time>2026-04-12T09:52:21.195Z</time></trkpt><trkpt lat="37.9816333" lon="14.8748683"><ele>1354.6</ele><time>2026-04-12T09:52:22.195Z</time></trkpt><trkpt lat="37.981685" lon="14.87496"><ele>1350.2</ele><time>2026-04-12T09:52:23.195Z</time></trkpt><trkpt lat="37.9817367" lon="14.875055"><ele>1345.8</ele><time>2026-04-12T09:52:24.195Z</time></trkpt><trkpt lat="37.9817733" lon="14.8751617"><ele>1341.3999999999999</ele><time>2026-04-12T09:52:25.196Z</time></trkpt><trkpt lat="37.9818" lon="14.8752733"><ele>1337.0</ele><time>2026-04-12T09:52:26.195Z</time></trkpt><trkpt lat="37.9818117" lon="14.8753917"><ele>1336.5</ele><time>2026-04-12T09:52:27.195Z</time></trkpt><trkpt lat="37.9818183" lon="14.875505"><ele>1336.0</ele><time>2026-04-12T09:52:28.194Z</time></trkpt><trkpt lat="37.9818233" lon="14.8756133"><ele>1335.5</ele><time>2026-04-12T09:52:29.192Z</time></trkpt><trkpt lat="37.9818367" lon="14.8757117"><ele>1335.0</ele><time>2026-04-12T09:52:30.194Z</time></trkpt><trkpt lat="37.9818517" lon="14.8758067"><ele>1334.5</ele><time>2026-04-12T09:52:31.192Z</time></trkpt><trkpt lat="37.9818767" lon="14.8758967"><ele>1334.0</ele><time>2026-04-12T09:52:32.193Z</time></trkpt><trkpt lat="37.981915" lon="14.8759833"><ele>1336.8333333333335</ele><time>2026-04-12T09:52:33.192Z</time></trkpt><trkpt lat="37.9819583" lon="14.876065"><ele>1339.6666666666667</ele><time>2026-04-12T09:52:34.193Z</time></trkpt><trkpt lat="37.9820067" lon="14.876145"><ele>1342.5</ele><time>2026-04-12T09:52:35.193Z</time></trkpt><trkpt lat="37.9820567" lon="14.87622"><ele>1345.3333333333333</ele><time>2026-04-12T09:52:36.193Z</time></trkpt><trkpt lat="37.9821033" lon="14.8762967"><ele>1348.1666666666665</ele><time>2026-04-12T09:52:37.193Z</time></trkpt><trkpt lat="37.9821433" lon="14.876375"><ele>1351.0</ele><time>2026-04-12T09:52:38.193Z</time></trkpt><trkpt lat="37.982185" lon="14.8764617"><ele>1351.0</ele><time>2026-04-12T09:52:39.192Z</time></trkpt><trkpt lat="37.9822283" lon="14.87655"><ele>1351.0</ele><time>2026-04-12T09:52:40.192Z</time></trkpt><trkpt lat="37.98227" lon="14.8766417"><ele>1351.0</ele><time>2026-04-12T09:52:41.193Z</time></trkpt><trkpt lat="37.9823117" lon="14.8767333"><ele>1351.0</ele><time>2026-04-12T09:52:42.197Z</time></trkpt><trkpt lat="37.9823617" lon="14.8768183"><ele>1351.0</ele><time>2026-04-12T09:52:43.192Z</time></trkpt><trkpt lat="37.9824267" lon="14.876895"><ele>1351.0</ele><time>2026-04-12T09:52:44.193Z</time></trkpt><trkpt lat="37.9824917" lon="14.8769683"><ele>1353.0</ele><time>2026-04-12T09:52:45.192Z</time></trkpt><trkpt lat="37.982565" lon="14.8770233"><ele>1355.0</ele><time>2026-04-12T09:52:46.193Z</time></trkpt><trkpt lat="37.982645" lon="14.8770617"><ele>1357.0</ele><time>2026-04-12T09:52:47.193Z</time></trkpt><trkpt lat="37.9827317" lon="14.8770733"><ele>1359.0</ele><time>2026-04-12T09:52:48.192Z</time></trkpt><trkpt lat="37.9828233" lon="14.877075"><ele>1361.0</ele><time>2026-04-12T09:52:49.193Z</time></trkpt><trkpt lat="37.9829067" lon="14.8770833"><ele>1363.0</ele><time>2026-04-12T09:52:50.199Z</time></trkpt><trkpt lat="37.9830017" lon="14.8770733"><ele>1363.0</ele><time>2026-04-12T09:52:51.193Z</time></trkpt><trkpt lat="37.98309" lon="14.8770717"><ele>1363.0</ele><time>2026-04-12T09:52:52.192Z</time></trkpt><trkpt lat="37.9831817" lon="14.87709"><ele>1363.0</ele><time>2026-04-12T09:52:53.193Z</time></trkpt><trkpt lat="37.9832717" lon="14.877125"><ele>1363.0</ele><time>2026-04-12T09:52:54.193Z</time></trkpt><trkpt lat="37.9833433" lon="14.8771817"><ele>1363.0</ele><time>2026-04-12T09:52:55.193Z</time></trkpt><trkpt lat="37.983405" lon="14.8772517"><ele>1363.0</ele><time>2026-04-12T09:52:56.193Z</time></trkpt><trkpt lat="37.9834683" lon="14.87733"><ele>1361.8333333333333</ele><time>2026-04-12T09:52:57.193Z</time></trkpt><trkpt lat="37.9835267" lon="14.8774117"><ele>1360.6666666666665</ele><time>2026-04-12T09:52:58.192Z</time></trkpt><trkpt lat="37.9835767" lon="14.8774933"><ele>1359.5</ele><time>2026-04-12T09:52:59.192Z</time></trkpt><trkpt lat="37.98365" lon="14.877555"><ele>1358.3333333333333</ele><time>2026-04-12T09:53:00.193Z</time></trkpt><trkpt lat="37.98373" lon="14.8776033"><ele>1357.1666666666667</ele><time>2026-04-12T09:53:01.193Z</time></trkpt><trkpt lat="37.9838317" lon="14.877585"><ele>1356.0</ele><time>2026-04-12T09:53:02.193Z</time></trkpt><trkpt lat="37.9839267" lon="14.87757"><ele>1356.0</ele><time>2026-04-12T09:53:03.193Z</time></trkpt><trkpt lat="37.9840133" lon="14.87753"><ele>1356.0</ele><time>2026-04-12T09:53:04.191Z</time></trkpt><trkpt lat="37.9840933" lon="14.8774867"><ele>1356.0</ele><time>2026-04-12T09:53:05.193Z</time></trkpt><trkpt lat="37.984175" lon="14.8774317"><ele>1356.0</ele><time>2026-04-12T09:53:06.193Z</time></trkpt><trkpt lat="37.9842567" lon="14.8773783"><ele>1356.0</ele><time>2026-04-12T09:53:07.194Z</time></trkpt><trkpt lat="37.9843383" lon="14.8773367"><ele>1354.8333333333333</ele><time>2026-04-12T09:53:08.193Z</time></trkpt><trkpt lat="37.9844217" lon="14.8772867"><ele>1353.6666666666667</ele><time>2026-04-12T09:53:09.193Z</time></trkpt><trkpt lat="37.9845" lon="14.8772383"><ele>1352.5</ele><time>2026-04-12T09:53:10.193Z</time></trkpt><trkpt lat="37.98458" lon="14.8771883"><ele>1351.3333333333335</ele><time>2026-04-12T09:53:11.193Z</time></trkpt><trkpt lat="37.9846583" lon="14.8771417"><ele>1350.1666666666667</ele><time>2026-04-12T09:53:12.194Z</time></trkpt><trkpt lat="37.984735" lon="14.8770933"><ele>1349.0</ele><time>2026-04-12T09:53:13.193Z</time></trkpt><trkpt lat="37.9848117" lon="14.8770433"><ele>1349.0</ele><time>2026-04-12T09:53:14.193Z</time></trkpt><trkpt lat="37.9848917" lon="14.8770033"><ele>1349.0</ele><time>2026-04-12T09:53:15.193Z</time></trkpt><trkpt lat="37.9849733" lon="14.8769783"><ele>1349.0</ele><time>2026-04-12T09:53:16.193Z</time></trkpt><trkpt lat="37.98505" lon="14.8769667"><ele>1349.0</ele><time>2026-04-12T09:53:17.195Z</time></trkpt><trkpt lat="37.9851233" lon="14.8769783"><ele>1349.0</ele><time>2026-04-12T09:53:18.193Z</time></trkpt><trkpt lat="37.9852" lon="14.87704"><ele>1349.0</ele><time>2026-04-12T09:53:19.193Z</time></trkpt><trkpt lat="37.9852467" lon="14.8771333"><ele>1348.2</ele><time>2026-04-12T09:53:20.192Z</time></trkpt><trkpt lat="37.9852717" lon="14.87725"><ele>1347.4</ele><time>2026-04-12T09:53:21.193Z</time></trkpt><trkpt lat="37.9852817" lon="14.8773733"><ele>1346.6</ele><time>2026-04-12T09:53:22.193Z</time></trkpt><trkpt lat="37.9852783" lon="14.8774883"><ele>1345.8</ele><time>2026-04-12T09:53:23.193Z</time></trkpt><trkpt lat="37.985275" lon="14.8775967"><ele>1345.0</ele><time>2026-04-12T09:53:24.193Z</time></trkpt><trkpt lat="37.9852717" lon="14.8777017"><ele>1345.0</ele><time>2026-04-12T09:53:25.194Z</time></trkpt><trkpt lat="37.9852817" lon="14.8778017"><ele>1345.0</ele><time>2026-04-12T09:53:26.195Z</time></trkpt><trkpt lat="37.9853" lon="14.8778933"><ele>1345.0</ele><time>2026-04-12T09:53:27.194Z</time></trkpt><trkpt lat="37.98533" lon="14.8779783"><ele>1345.0</ele><time>2026-04-12T09:53:28.193Z</time></trkpt><trkpt lat="37.985365" lon="14.8780517"><ele>1345.0</ele><time>2026-04-12T09:53:29.193Z</time></trkpt><trkpt lat="37.9854033" lon="14.8781167"><ele>1345.0</ele><time>2026-04-12T09:53:30.194Z</time></trkpt><trkpt lat="37.9854967" lon="14.878205"><ele>1345.0</ele><time>2026-04-12T09:53:32.192Z</time></trkpt><trkpt lat="37.9855967" lon="14.8782467"><ele>1345.0</ele><time>2026-04-12T09:53:34.192Z</time></trkpt><trkpt lat="37.9856967" lon="14.878235"><ele>1345.0</ele><time>2026-04-12T09:53:36.193Z</time></trkpt><trkpt lat="37.9858" lon="14.8782067"><ele>1345.0</ele><time>2026-04-12T09:53:38.195Z</time></trkpt><trkpt lat="37.98592" lon="14.8781683"><ele>1345.0</ele><time>2026-04-12T09:53:40.193Z</time></trkpt><trkpt lat="37.985985" lon="14.8781517"><ele>1345.8333333333333</ele><time>2026-04-12T09:53:41.193Z</time></trkpt><trkpt lat="37.9860533" lon="14.8781367"><ele>1346.6666666666665</ele><time>2026-04-12T09:53:42.193Z</time></trkpt><trkpt lat="37.9861183" lon="14.8781217"><ele>1347.5</ele><time>2026-04-12T09:53:43.194Z</time></trkpt><trkpt lat="37.98618" lon="14.8780867"><ele>1348.3333333333333</ele><time>2026-04-12T09:53:44.192Z</time></trkpt><trkpt lat="37.9862317" lon="14.8780367"><ele>1349.1666666666667</ele><time>2026-04-12T09:53:45.193Z</time></trkpt><trkpt lat="37.9862717" lon="14.8779683"><ele>1350.0</ele><time>2026-04-12T09:53:46.192Z</time></trkpt><trkpt lat="37.9863367" lon="14.8778483"><ele>1350.0</ele><time>2026-04-12T09:53:48.194Z</time></trkpt><trkpt lat="37.9864167" lon="14.8777417"><ele>1350.0</ele><time>2026-04-12T09:53:50.194Z</time></trkpt><trkpt lat="37.9865267" lon="14.8776667"><ele>1350.0</ele><time>2026-04-12T09:53:52.194Z</time></trkpt><trkpt lat="37.9865917" lon="14.8776433"><ele>1350.0</ele><time>2026-04-12T09:53:53.193Z</time></trkpt><trkpt lat="37.9866567" lon="14.8776333"><ele>1350.0</ele><time>2026-04-12T09:53:54.193Z</time></trkpt><trkpt lat="37.9867217" lon="14.8776233"><ele>1350.0</ele><time>2026-04-12T09:53:55.194Z</time></trkpt><trkpt lat="37.986785" lon="14.8776133"><ele>1345.6666666666667</ele><time>2026-04-12T09:53:56.193Z</time></trkpt><trkpt lat="37.9868483" lon="14.8776083"><ele>1341.3333333333333</ele><time>2026-04-12T09:53:57.192Z</time></trkpt><trkpt lat="37.9869117" lon="14.8776167"><ele>1337.0</ele><time>2026-04-12T09:53:58.192Z</time></trkpt><trkpt lat="37.98698" lon="14.87763"><ele>1332.6666666666665</ele><time>2026-04-12T09:53:59.192Z</time></trkpt><trkpt lat="37.9870467" lon="14.87766"><ele>1328.3333333333333</ele><time>2026-04-12T09:54:00.192Z</time></trkpt><trkpt lat="37.9871033" lon="14.8777067"><ele>1324.0</ele><time>2026-04-12T09:54:01.193Z</time></trkpt><trkpt lat="37.9871783" lon="14.87783"><ele>1324.0</ele><time>2026-04-12T09:54:03.192Z</time></trkpt><trkpt lat="37.9872083" lon="14.8779017"><ele>1324.0</ele><time>2026-04-12T09:54:04.192Z</time></trkpt><trkpt lat="37.9872367" lon="14.8779767"><ele>1324.0</ele><time>2026-04-12T09:54:05.194Z</time></trkpt><trkpt lat="37.9872417" lon="14.8780567"><ele>1324.0</ele><time>2026-04-12T09:54:06.193Z</time></trkpt><trkpt lat="37.987255" lon="14.8781367"><ele>1324.0</ele><time>2026-04-12T09:54:07.193Z</time></trkpt><trkpt lat="37.987295" lon="14.8782783"><ele>1324.0</ele><time>2026-04-12T09:54:09.192Z</time></trkpt><trkpt lat="37.9873333" lon="14.878425"><ele>1328.0</ele><time>2026-04-12T09:54:11.191Z</time></trkpt><trkpt lat="37.98737" lon="14.8785667"><ele>1332.0</ele><time>2026-04-12T09:54:13.192Z</time></trkpt><trkpt lat="37.9874033" lon="14.8786967"><ele>1336.0</ele><time>2026-04-12T09:54:15.192Z</time></trkpt><trkpt lat="37.987425" lon="14.8788433"><ele>1340.0</ele><time>2026-04-12T09:54:17.194Z</time></trkpt><trkpt lat="37.98745" lon="14.878985"><ele>1340.0</ele><time>2026-04-12T09:54:19.193Z</time></trkpt><trkpt lat="37.987495" lon="14.879125"><ele>1340.0</ele><time>2026-04-12T09:54:21.191Z</time></trkpt><trkpt lat="37.98756" lon="14.87925"><ele>1340.0</ele><time>2026-04-12T09:54:23.193Z</time></trkpt><trkpt lat="37.9876083" lon="14.8793117"><ele>1340.0</ele><time>2026-04-12T09:54:24.192Z</time></trkpt><trkpt lat="37.987665" lon="14.8793583"><ele>1340.0</ele><time>2026-04-12T09:54:25.193Z</time></trkpt><trkpt lat="37.9877183" lon="14.8794067"><ele>1340.0</ele><time>2026-04-12T09:54:26.193Z</time></trkpt><trkpt lat="37.9877783" lon="14.879455"><ele>1340.0</ele><time>2026-04-12T09:54:27.192Z</time></trkpt><trkpt lat="37.9878383" lon="14.8795033"><ele>1340.0</ele><time>2026-04-12T09:54:28.191Z</time></trkpt><trkpt lat="37.9879517" lon="14.8796033"><ele>1340.0</ele><time>2026-04-12T09:54:30.195Z</time></trkpt><trkpt lat="37.9880233" lon="14.8796333"><ele>1340.0</ele><time>2026-04-12T09:54:31.192Z</time></trkpt><trkpt lat="37.9880967" lon="14.8796483"><ele>1340.0</ele><time>2026-04-12T09:54:32.194Z</time></trkpt><trkpt lat="37.98817" lon="14.8796483"><ele>1340.0</ele><time>2026-04-12T09:54:33.193Z</time></trkpt><trkpt lat="37.9882383" lon="14.879635"><ele>1340.0</ele><time>2026-04-12T09:54:34.194Z</time></trkpt><trkpt lat="37.9883033" lon="14.8796083"><ele>1340.0</ele><time>2026-04-12T09:54:35.192Z</time></trkpt><trkpt lat="37.9883667" lon="14.879585"><ele>1340.0</ele><time>2026-04-12T09:54:36.194Z</time></trkpt><trkpt lat="37.988475" lon="14.8795133"><ele>1340.0</ele><time>2026-04-12T09:54:38.193Z</time></trkpt><trkpt lat="37.9885733" lon="14.8794417"><ele>1340.0</ele><time>2026-04-12T09:54:40.192Z</time></trkpt><trkpt lat="37.9886583" lon="14.8793583"><ele>1338.0</ele><time>2026-04-12T09:54:42.192Z</time></trkpt><trkpt lat="37.9887333" lon="14.8792617"><ele>1336.0</ele><time>2026-04-12T09:54:44.193Z</time></trkpt><trkpt lat="37.9887983" lon="14.87918"><ele>1334.0</ele><time>2026-04-12T09:54:46.193Z</time></trkpt><trkpt lat="37.9888617" lon="14.87911"><ele>1332.0</ele><time>2026-04-12T09:54:48.193Z</time></trkpt><trkpt lat="37.98893" lon="14.8790383"><ele>1330.0</ele><time>2026-04-12T09:54:50.192Z</time></trkpt><trkpt lat="37.9890067" lon="14.87894"><ele>1330.0</ele><time>2026-04-12T09:54:52.192Z</time></trkpt><trkpt lat="37.989085" lon="14.8788533"><ele>1330.0</ele><time>2026-04-12T09:54:54.194Z</time></trkpt><trkpt lat="37.989165" lon="14.8787717"><ele>1330.0</ele><time>2026-04-12T09:54:56.193Z</time></trkpt><trkpt lat="37.9892467" lon="14.8786917"><ele>1330.0</ele><time>2026-04-12T09:54:58.193Z</time></trkpt><trkpt lat="37.9893283" lon="14.8786117"><ele>1330.0</ele><time>2026-04-12T09:55:00.193Z</time></trkpt><trkpt lat="37.989405" lon="14.8785233"><ele>1327.5</ele><time>2026-04-12T09:55:02.193Z</time></trkpt><trkpt lat="37.98949" lon="14.8784417"><ele>1325.0</ele><time>2026-04-12T09:55:04.195Z</time></trkpt><trkpt lat="37.9895917" lon="14.8783883"><ele>1322.5</ele><time>2026-04-12T09:55:06.191Z</time></trkpt><trkpt lat="37.9896933" lon="14.8784417"><ele>1320.0</ele><time>2026-04-12T09:55:08.192Z</time></trkpt><trkpt lat="37.9897833" lon="14.8785533"><ele>1320.0000000000002</ele><time>2026-04-12T09:55:10.192Z</time></trkpt><trkpt lat="37.9898167" lon="14.878625"><ele>1320.0</ele><time>2026-04-12T09:55:11.192Z</time></trkpt><trkpt lat="37.9898483" lon="14.878695"><ele>1320.0</ele><time>2026-04-12T09:55:12.195Z</time></trkpt><trkpt lat="37.98988" lon="14.878765"><ele>1320.0</ele><time>2026-04-12T09:55:13.192Z</time></trkpt><trkpt lat="37.9899117" lon="14.878835"><ele>1320.0</ele><time>2026-04-12T09:55:14.194Z</time></trkpt><trkpt lat="37.9899367" lon="14.87891"><ele>1320.0000000000002</ele><time>2026-04-12T09:55:15.192Z</time></trkpt><trkpt lat="37.9899483" lon="14.8790667"><ele>1320.0</ele><time>2026-04-12T09:55:17.194Z</time></trkpt><trkpt lat="37.9899367" lon="14.8792083"><ele>1318.6</ele><time>2026-04-12T09:55:19.192Z</time></trkpt><trkpt lat="37.9899217" lon="14.879345"><ele>1317.2</ele><time>2026-04-12T09:55:21.194Z</time></trkpt><trkpt lat="37.9898717" lon="14.8794633"><ele>1315.8000000000002</ele><time>2026-04-12T09:55:23.193Z</time></trkpt><trkpt lat="37.9897967" lon="14.8795683"><ele>1314.4</ele><time>2026-04-12T09:55:25.194Z</time></trkpt><trkpt lat="37.9897067" lon="14.8796667"><ele>1313.0</ele><time>2026-04-12T09:55:27.193Z</time></trkpt><trkpt lat="37.989655" lon="14.879715"><ele>1313.0</ele><time>2026-04-12T09:55:28.193Z</time></trkpt><trkpt lat="37.9895517" lon="14.879805"><ele>1313.0</ele><time>2026-04-12T09:55:30.193Z</time></trkpt><trkpt lat="37.9895017" lon="14.87987"><ele>1313.0</ele><time>2026-04-12T09:55:31.193Z</time></trkpt><trkpt lat="37.9894517" lon="14.879935"><ele>1313.0</ele><time>2026-04-12T09:55:32.193Z</time></trkpt><trkpt lat="37.9894083" lon="14.88"><ele>1313.0</ele><time>2026-04-12T09:55:33.193Z</time></trkpt><trkpt lat="37.9893583" lon="14.8800617"><ele>1313.0</ele><time>2026-04-12T09:55:34.193Z</time></trkpt><trkpt lat="37.9892717" lon="14.88016"><ele>1313.75</ele><time>2026-04-12T09:55:36.194Z</time></trkpt><trkpt lat="37.9891867" lon="14.8802533"><ele>1314.5</ele><time>2026-04-12T09:55:38.193Z</time></trkpt><trkpt lat="37.9891033" lon="14.8803567"><ele>1315.25</ele><time>2026-04-12T09:55:40.194Z</time></trkpt><trkpt lat="37.9890367" lon="14.88046"><ele>1316.0</ele><time>2026-04-12T09:55:42.193Z</time></trkpt><trkpt lat="37.98897" lon="14.8805833"><ele>1316.0</ele><time>2026-04-12T09:55:44.194Z</time></trkpt><trkpt lat="37.9889167" lon="14.8807167"><ele>1316.0</ele><time>2026-04-12T09:55:46.195Z</time></trkpt><trkpt lat="37.9888967" lon="14.880875"><ele>1316.0</ele><time>2026-04-12T09:55:48.193Z</time></trkpt><trkpt lat="37.9889033" lon="14.8810417"><ele>1316.0</ele><time>2026-04-12T09:55:50.196Z</time></trkpt><trkpt lat="37.98891" lon="14.8811317"><ele>1316.0</ele><time>2026-04-12T09:55:51.194Z</time></trkpt><trkpt lat="37.9889017" lon="14.88123"><ele>1314.8333333333335</ele><time>2026-04-12T09:55:52.194Z</time></trkpt><trkpt lat="37.9888967" lon="14.8813283"><ele>1313.6666666666667</ele><time>2026-04-12T09:55:53.193Z</time></trkpt><trkpt lat="37.9888867" lon="14.88143"><ele>1312.5</ele><time>2026-04-12T09:55:54.193Z</time></trkpt><trkpt lat="37.9888883" lon="14.8815367"><ele>1311.3333333333333</ele><time>2026-04-12T09:55:55.192Z</time></trkpt><trkpt lat="37.9888867" lon="14.8816417"><ele>1310.1666666666665</ele><time>2026-04-12T09:55:56.194Z</time></trkpt><trkpt lat="37.988885" lon="14.881755"><ele>1309.0</ele><time>2026-04-12T09:55:57.193Z</time></trkpt><trkpt lat="37.9888767" lon="14.8818667"><ele>1307.6</ele><time>2026-04-12T09:55:58.192Z</time></trkpt><trkpt lat="37.9888633" lon="14.8819867"><ele>1306.2</ele><time>2026-04-12T09:55:59.193Z</time></trkpt><trkpt lat="37.9888467" lon="14.8821083"><ele>1304.8</ele><time>2026-04-12T09:56:00.193Z</time></trkpt><trkpt lat="37.988825" lon="14.882235"><ele>1303.3999999999999</ele><time>2026-04-12T09:56:01.194Z</time></trkpt><trkpt lat="37.988795" lon="14.8823483"><ele>1302.0</ele><time>2026-04-12T09:56:02.195Z</time></trkpt><trkpt lat="37.9887583" lon="14.8824417"><ele>1302.0</ele><time>2026-04-12T09:56:03.194Z</time></trkpt><trkpt lat="37.988705" lon="14.8825167"><ele>1302.0</ele><time>2026-04-12T09:56:04.193Z</time></trkpt><trkpt lat="37.98865" lon="14.8826"><ele>1302.0</ele><time>2026-04-12T09:56:05.193Z</time></trkpt><trkpt lat="37.9886067" lon="14.882695"><ele>1302.0</ele><time>2026-04-12T09:56:06.192Z</time></trkpt><trkpt lat="37.98857" lon="14.882805"><ele>1302.0</ele><time>2026-04-12T09:56:07.194Z</time></trkpt><trkpt lat="37.9885317" lon="14.8829183"><ele>1302.0</ele><time>2026-04-12T09:56:08.194Z</time></trkpt><trkpt lat="37.9884883" lon="14.8830417"><ele>1300.8333333333333</ele><time>2026-04-12T09:56:09.193Z</time></trkpt><trkpt lat="37.988445" lon="14.88316"><ele>1299.6666666666667</ele><time>2026-04-12T09:56:10.194Z</time></trkpt><trkpt lat="37.98841" lon="14.8832617"><ele>1298.5</ele><time>2026-04-12T09:56:11.193Z</time></trkpt><trkpt lat="37.9883783" lon="14.8833733"><ele>1297.3333333333335</ele><time>2026-04-12T09:56:12.193Z</time></trkpt><trkpt lat="37.98835" lon="14.8834617"><ele>1296.1666666666667</ele><time>2026-04-12T09:56:13.194Z</time></trkpt><trkpt lat="37.9883233" lon="14.8835417"><ele>1295.0</ele><time>2026-04-12T09:56:14.195Z</time></trkpt><trkpt lat="37.988275" lon="14.883675"><ele>1295.0</ele><time>2026-04-12T09:56:16.193Z</time></trkpt><trkpt lat="37.98823" lon="14.8838033"><ele>1295.0</ele><time>2026-04-12T09:56:18.194Z</time></trkpt><trkpt lat="37.9881983" lon="14.883915"><ele>1295.0</ele><time>2026-04-12T09:56:20.194Z</time></trkpt><trkpt lat="37.988165" lon="14.88406"><ele>1295.0</ele><time>2026-04-12T09:56:22.196Z</time></trkpt><trkpt lat="37.9881467" lon="14.8841467"><ele>1295.0</ele><time>2026-04-12T09:56:23.193Z</time></trkpt><trkpt lat="37.9881467" lon="14.8842333"><ele>1293.6666666666667</ele><time>2026-04-12T09:56:24.195Z</time></trkpt><trkpt lat="37.9881417" lon="14.8843267"><ele>1292.3333333333335</ele><time>2026-04-12T09:56:25.194Z</time></trkpt><trkpt lat="37.9881433" lon="14.8844333"><ele>1291.0</ele><time>2026-04-12T09:56:26.194Z</time></trkpt><trkpt lat="37.98815" lon="14.8845333"><ele>1289.6666666666667</ele><time>2026-04-12T09:56:27.193Z</time></trkpt><trkpt lat="37.98816" lon="14.884635"><ele>1288.3333333333333</ele><time>2026-04-12T09:56:28.195Z</time></trkpt><trkpt lat="37.9881683" lon="14.8847383"><ele>1287.0</ele><time>2026-04-12T09:56:29.193Z</time></trkpt><trkpt lat="37.9881567" lon="14.8848483"><ele>1287.0</ele><time>2026-04-12T09:56:30.193Z</time></trkpt><trkpt lat="37.98814" lon="14.8849533"><ele>1287.0</ele><time>2026-04-12T09:56:31.193Z</time></trkpt><trkpt lat="37.9881067" lon="14.8850583"><ele>1287.0</ele><time>2026-04-12T09:56:32.193Z</time></trkpt><trkpt lat="37.9880633" lon="14.8851633"><ele>1287.0</ele><time>2026-04-12T09:56:33.192Z</time></trkpt><trkpt lat="37.98802" lon="14.8852633"><ele>1287.0</ele><time>2026-04-12T09:56:34.194Z</time></trkpt><trkpt lat="37.9879767" lon="14.88536"><ele>1287.0</ele><time>2026-04-12T09:56:35.194Z</time></trkpt><trkpt lat="37.987935" lon="14.8854433"><ele>1285.4285714285713</ele><time>2026-04-12T09:56:36.194Z</time></trkpt><trkpt lat="37.98789" lon="14.88552"><ele>1283.857142857143</ele><time>2026-04-12T09:56:37.192Z</time></trkpt><trkpt lat="37.9878517" lon="14.8855983"><ele>1282.2857142857142</ele><time>2026-04-12T09:56:38.193Z</time></trkpt><trkpt lat="37.987825" lon="14.88568"><ele>1280.7142857142858</ele><time>2026-04-12T09:56:39.193Z</time></trkpt><trkpt lat="37.9878117" lon="14.8857633"><ele>1279.142857142857</ele><time>2026-04-12T09:56:40.193Z</time></trkpt><trkpt lat="37.9878233" lon="14.8858483"><ele>1277.5714285714287</ele><time>2026-04-12T09:56:41.194Z</time></trkpt><trkpt lat="37.9878683" lon="14.88592"><ele>1276.0</ele><time>2026-04-12T09:56:42.192Z</time></trkpt><trkpt lat="37.9879317" lon="14.8859633"><ele>1276.0</ele><time>2026-04-12T09:56:43.192Z</time></trkpt><trkpt lat="37.9880117" lon="14.885975"><ele>1276.0</ele><time>2026-04-12T09:56:44.194Z</time></trkpt><trkpt lat="37.9880967" lon="14.88596"><ele>1276.0</ele><time>2026-04-12T09:56:45.194Z</time></trkpt><trkpt lat="37.9881833" lon="14.88593"><ele>1276.0</ele><time>2026-04-12T09:56:46.193Z</time></trkpt><trkpt lat="37.9882683" lon="14.885895"><ele>1276.0</ele><time>2026-04-12T09:56:47.193Z</time></trkpt><trkpt lat="37.98835" lon="14.8858583"><ele>1276.0</ele><time>2026-04-12T09:56:48.194Z</time></trkpt><trkpt lat="37.9884317" lon="14.8858283"><ele>1274.8</ele><time>2026-04-12T09:56:49.192Z</time></trkpt><trkpt lat="37.9885133" lon="14.8858167"><ele>1273.6</ele><time>2026-04-12T09:56:50.194Z</time></trkpt><trkpt lat="37.9886017" lon="14.8858367"><ele>1272.4</ele><time>2026-04-12T09:56:51.193Z</time></trkpt><trkpt lat="37.9886967" lon="14.885885"><ele>1271.2</ele><time>2026-04-12T09:56:52.192Z</time></trkpt><trkpt lat="37.9887833" lon="14.8859517"><ele>1270.0</ele><time>2026-04-12T09:56:53.193Z</time></trkpt><trkpt lat="37.9888667" lon="14.8860217"><ele>1270.2</ele><time>2026-04-12T09:56:54.193Z</time></trkpt><trkpt lat="37.9889483" lon="14.88609"><ele>1270.4</ele><time>2026-04-12T09:56:55.193Z</time></trkpt><trkpt lat="37.9890317" lon="14.886155"><ele>1270.6</ele><time>2026-04-12T09:56:56.194Z</time></trkpt><trkpt lat="37.9891183" lon="14.8862117"><ele>1270.8</ele><time>2026-04-12T09:56:57.194Z</time></trkpt><trkpt lat="37.9892" lon="14.8862683"><ele>1271.0</ele><time>2026-04-12T09:56:58.193Z</time></trkpt><trkpt lat="37.989275" lon="14.8863267"><ele>1271.0</ele><time>2026-04-12T09:56:59.194Z</time></trkpt><trkpt lat="37.9893483" lon="14.8863833"><ele>1271.0</ele><time>2026-04-12T09:57:00.192Z</time></trkpt><trkpt lat="37.9894183" lon="14.8864367"><ele>1271.0</ele><time>2026-04-12T09:57:01.192Z</time></trkpt><trkpt lat="37.9894817" lon="14.886495"><ele>1271.0</ele><time>2026-04-12T09:57:02.195Z</time></trkpt><trkpt lat="37.98953" lon="14.8865583"><ele>1271.0</ele><time>2026-04-12T09:57:03.193Z</time></trkpt><trkpt lat="37.989575" lon="14.886625"><ele>1271.0</ele><time>2026-04-12T09:57:04.193Z</time></trkpt><trkpt lat="37.9896467" lon="14.8867517"><ele>1271.0</ele><time>2026-04-12T09:57:06.194Z</time></trkpt><trkpt lat="37.989725" lon="14.8868533"><ele>1271.0</ele><time>2026-04-12T09:57:08.195Z</time></trkpt><trkpt lat="37.9897783" lon="14.886955"><ele>1271.0</ele><time>2026-04-12T09:57:10.193Z</time></trkpt><trkpt lat="37.9898267" lon="14.8870433"><ele>1271.0</ele><time>2026-04-12T09:57:12.193Z</time></trkpt><trkpt lat="37.9898683" lon="14.88712"><ele>1271.0</ele><time>2026-04-12T09:57:14.193Z</time></trkpt><trkpt lat="37.9898983" lon="14.8871933"><ele>1271.0</ele><time>2026-04-12T09:57:16.193Z</time></trkpt><trkpt lat="37.989945" lon="14.8873033"><ele>1271.0</ele><time>2026-04-12T09:57:19.193Z</time></trkpt><trkpt lat="37.98997" lon="14.8874"><ele>1271.0</ele><time>2026-04-12T09:57:21.193Z</time></trkpt><trkpt lat="37.9899817" lon="14.88751"><ele>1271.0</ele><time>2026-04-12T09:57:23.193Z</time></trkpt><trkpt lat="37.989995" lon="14.88762"><ele>1271.0</ele><time>2026-04-12T09:57:25.194Z</time></trkpt><trkpt lat="37.9899983" lon="14.88773"><ele>1271.0</ele><time>2026-04-12T09:57:27.195Z</time></trkpt><trkpt lat="37.9899983" lon="14.887845"><ele>1271.0</ele><time>2026-04-12T09:57:29.193Z</time></trkpt><trkpt lat="37.98999" lon="14.88796"><ele>1271.0</ele><time>2026-04-12T09:57:31.193Z</time></trkpt><trkpt lat="37.9899733" lon="14.8880767"><ele>1271.0</ele><time>2026-04-12T09:57:33.193Z</time></trkpt><trkpt lat="37.989945" lon="14.8881867"><ele>1271.0</ele><time>2026-04-12T09:57:35.194Z</time></trkpt><trkpt lat="37.989925" lon="14.8882933"><ele>1271.0</ele><time>2026-04-12T09:57:37.194Z</time></trkpt><trkpt lat="37.9899" lon="14.8884033"><ele>1271.0</ele><time>2026-04-12T09:57:39.194Z</time></trkpt><trkpt lat="37.9898683" lon="14.8885183"><ele>1272.8</ele><time>2026-04-12T09:57:41.193Z</time></trkpt><trkpt lat="37.9898383" lon="14.8886317"><ele>1274.6</ele><time>2026-04-12T09:57:43.194Z</time></trkpt><trkpt lat="37.989805" lon="14.88874"><ele>1276.4</ele><time>2026-04-12T09:57:45.193Z</time></trkpt><trkpt lat="37.98977" lon="14.8888517"><ele>1278.2</ele><time>2026-04-12T09:57:47.194Z</time></trkpt><trkpt lat="37.9897383" lon="14.88896"><ele>1280.0</ele><time>2026-04-12T09:57:49.193Z</time></trkpt><trkpt lat="37.9897133" lon="14.8890683"><ele>1280.0</ele><time>2026-04-12T09:57:51.192Z</time></trkpt><trkpt lat="37.9896917" lon="14.8891883"><ele>1280.0</ele><time>2026-04-12T09:57:53.192Z</time></trkpt><trkpt lat="37.9896633" lon="14.8893167"><ele>1280.0</ele><time>2026-04-12T09:57:55.194Z</time></trkpt><trkpt lat="37.9896633" lon="14.8894467"><ele>1280.0</ele><time>2026-04-12T09:57:57.195Z</time></trkpt><trkpt lat="37.9896833" lon="14.8895933"><ele>1280.0</ele><time>2026-04-12T09:57:59.196Z</time></trkpt><trkpt lat="37.9896983" lon="14.8896717"><ele>1280.5714285714284</ele><time>2026-04-12T09:58:00.195Z</time></trkpt><trkpt lat="37.989715" lon="14.8897533"><ele>1281.142857142857</ele><time>2026-04-12T09:58:01.192Z</time></trkpt><trkpt lat="37.9897267" lon="14.88984"><ele>1281.7142857142858</ele><time>2026-04-12T09:58:02.194Z</time></trkpt><trkpt lat="37.9897417" lon="14.8899283"><ele>1282.2857142857142</ele><time>2026-04-12T09:58:03.193Z</time></trkpt><trkpt lat="37.9897583" lon="14.8900183"><ele>1282.857142857143</ele><time>2026-04-12T09:58:04.192Z</time></trkpt><trkpt lat="37.9897767" lon="14.8901117"><ele>1283.4285714285713</ele><time>2026-04-12T09:58:05.193Z</time></trkpt><trkpt lat="37.9897967" lon="14.8902067"><ele>1284.0</ele><time>2026-04-12T09:58:06.193Z</time></trkpt><trkpt lat="37.989815" lon="14.890305"><ele>1281.3333333333333</ele><time>2026-04-12T09:58:07.192Z</time></trkpt><trkpt lat="37.98983" lon="14.890405"><ele>1278.6666666666667</ele><time>2026-04-12T09:58:08.194Z</time></trkpt><trkpt lat="37.9898417" lon="14.8905033"><ele>1276.0</ele><time>2026-04-12T09:58:09.194Z</time></trkpt><trkpt lat="37.9898567" lon="14.890605"><ele>1273.3333333333335</ele><time>2026-04-12T09:58:10.193Z</time></trkpt><trkpt lat="37.9898783" lon="14.8907033"><ele>1270.6666666666667</ele><time>2026-04-12T09:58:11.193Z</time></trkpt><trkpt lat="37.9898983" lon="14.8908017"><ele>1268.0</ele><time>2026-04-12T09:58:12.194Z</time></trkpt><trkpt lat="37.98992" lon="14.8909"><ele>1267.5</ele><time>2026-04-12T09:58:13.195Z</time></trkpt><trkpt lat="37.9899383" lon="14.8909967"><ele>1267.0</ele><time>2026-04-12T09:58:14.194Z</time></trkpt><trkpt lat="37.9899567" lon="14.8910933"><ele>1266.5</ele><time>2026-04-12T09:58:15.193Z</time></trkpt><trkpt lat="37.9899717" lon="14.8911867"><ele>1266.0</ele><time>2026-04-12T09:58:16.192Z</time></trkpt><trkpt lat="37.9899883" lon="14.8912783"><ele>1265.5</ele><time>2026-04-12T09:58:17.194Z</time></trkpt><trkpt lat="37.9899983" lon="14.89137"><ele>1265.0</ele><time>2026-04-12T09:58:18.194Z</time></trkpt><trkpt lat="37.9900083" lon="14.8914667"><ele>1264.0</ele><time>2026-04-12T09:58:19.192Z</time></trkpt><trkpt lat="37.99002" lon="14.8915583"><ele>1263.0</ele><time>2026-04-12T09:58:20.194Z</time></trkpt><trkpt lat="37.990035" lon="14.89165"><ele>1262.0</ele><time>2026-04-12T09:58:21.193Z</time></trkpt><trkpt lat="37.9900533" lon="14.891745"><ele>1261.0</ele><time>2026-04-12T09:58:22.193Z</time></trkpt><trkpt lat="37.9900767" lon="14.8918433"><ele>1260.0</ele><time>2026-04-12T09:58:23.192Z</time></trkpt><trkpt lat="37.990095" lon="14.8919383"><ele>1259.0</ele><time>2026-04-12T09:58:24.193Z</time></trkpt><trkpt lat="37.9901117" lon="14.8920317"><ele>1259.0</ele><time>2026-04-12T09:58:25.193Z</time></trkpt><trkpt lat="37.990125" lon="14.892125"><ele>1259.0</ele><time>2026-04-12T09:58:26.194Z</time></trkpt><trkpt lat="37.9901417" lon="14.8922167"><ele>1259.0</ele><time>2026-04-12T09:58:27.197Z</time></trkpt><trkpt lat="37.9901583" lon="14.89231"><ele>1259.0</ele><time>2026-04-12T09:58:28.193Z</time></trkpt><trkpt lat="37.9901783" lon="14.892405"><ele>1259.0</ele><time>2026-04-12T09:58:29.194Z</time></trkpt><trkpt lat="37.9901967" lon="14.8924967"><ele>1259.0</ele><time>2026-04-12T09:58:30.194Z</time></trkpt><trkpt lat="37.9902167" lon="14.892585"><ele>1259.0</ele><time>2026-04-12T09:58:31.194Z</time></trkpt><trkpt lat="37.990235" lon="14.8926767"><ele>1259.1666666666667</ele><time>2026-04-12T09:58:32.195Z</time></trkpt><trkpt lat="37.9902517" lon="14.89277"><ele>1259.3333333333335</ele><time>2026-04-12T09:58:33.193Z</time></trkpt><trkpt lat="37.9902667" lon="14.8928633"><ele>1259.5</ele><time>2026-04-12T09:58:34.194Z</time></trkpt><trkpt lat="37.9902817" lon="14.8929567"><ele>1259.6666666666667</ele><time>2026-04-12T09:58:35.192Z</time></trkpt><trkpt lat="37.9903" lon="14.8930517"><ele>1259.8333333333333</ele><time>2026-04-12T09:58:36.193Z</time></trkpt><trkpt lat="37.99032" lon="14.8931467"><ele>1260.0</ele><time>2026-04-12T09:58:37.193Z</time></trkpt><trkpt lat="37.990345" lon="14.89324"><ele>1260.0</ele><time>2026-04-12T09:58:38.193Z</time></trkpt><trkpt lat="37.9903817" lon="14.89333"><ele>1260.0</ele><time>2026-04-12T09:58:39.193Z</time></trkpt><trkpt lat="37.9904283" lon="14.8934117"><ele>1260.0</ele><time>2026-04-12T09:58:40.195Z</time></trkpt><trkpt lat="37.9904883" lon="14.8934867"><ele>1260.0</ele><time>2026-04-12T09:58:41.195Z</time></trkpt><trkpt lat="37.9905583" lon="14.893555"><ele>1260.0</ele><time>2026-04-12T09:58:42.194Z</time></trkpt><trkpt lat="37.9906333" lon="14.8936183"><ele>1260.0</ele><time>2026-04-12T09:58:43.195Z</time></trkpt><trkpt lat="37.9907133" lon="14.89368"><ele>1258.6</ele><time>2026-04-12T09:58:44.194Z</time></trkpt><trkpt lat="37.9907917" lon="14.89375"><ele>1257.2</ele><time>2026-04-12T09:58:45.194Z</time></trkpt><trkpt lat="37.9908683" lon="14.8938267"><ele>1255.8</ele><time>2026-04-12T09:58:46.195Z</time></trkpt><trkpt lat="37.9909517" lon="14.8939"><ele>1254.4</ele><time>2026-04-12T09:58:47.193Z</time></trkpt><trkpt lat="37.9910333" lon="14.89397"><ele>1253.0</ele><time>2026-04-12T09:58:48.194Z</time></trkpt><trkpt lat="37.9911083" lon="14.8940367"><ele>1252.1666666666667</ele><time>2026-04-12T09:58:49.193Z</time></trkpt><trkpt lat="37.99118" lon="14.8940983"><ele>1251.3333333333335</ele><time>2026-04-12T09:58:50.194Z</time></trkpt><trkpt lat="37.9912517" lon="14.8941517"><ele>1250.5</ele><time>2026-04-12T09:58:51.194Z</time></trkpt><trkpt lat="37.9913233" lon="14.8942017"><ele>1249.6666666666667</ele><time>2026-04-12T09:58:52.194Z</time></trkpt><trkpt lat="37.99139" lon="14.8942517"><ele>1248.8333333333333</ele><time>2026-04-12T09:58:53.194Z</time></trkpt><trkpt lat="37.9914533" lon="14.8943033"><ele>1248.0</ele><time>2026-04-12T09:58:54.194Z</time></trkpt><trkpt lat="37.9915117" lon="14.8943567"><ele>1248.0</ele><time>2026-04-12T09:58:55.193Z</time></trkpt><trkpt lat="37.9915633" lon="14.8944083"><ele>1248.0</ele><time>2026-04-12T09:58:56.194Z</time></trkpt><trkpt lat="37.9916617" lon="14.89449"><ele>1248.0</ele><time>2026-04-12T09:58:58.193Z</time></trkpt><trkpt lat="37.9917283" lon="14.8945717"><ele>1248.0</ele><time>2026-04-12T09:59:00.193Z</time></trkpt><trkpt lat="37.991785" lon="14.8946667"><ele>1248.0</ele><time>2026-04-12T09:59:02.193Z</time></trkpt><trkpt lat="37.9918317" lon="14.8947583"><ele>1247.0</ele><time>2026-04-12T09:59:04.193Z</time></trkpt><trkpt lat="37.99186" lon="14.8948583"><ele>1246.0</ele><time>2026-04-12T09:59:06.193Z</time></trkpt><trkpt lat="37.991865" lon="14.8949567"><ele>1245.0</ele><time>2026-04-12T09:59:08.195Z</time></trkpt><trkpt lat="37.9918717" lon="14.8950517"><ele>1244.0</ele><time>2026-04-12T09:59:10.192Z</time></trkpt><trkpt lat="37.9918783" lon="14.8951483"><ele>1243.0</ele><time>2026-04-12T09:59:12.192Z</time></trkpt><trkpt lat="37.9918817" lon="14.8952417"><ele>1242.0</ele><time>2026-04-12T09:59:14.193Z</time></trkpt><trkpt lat="37.99189" lon="14.8953367"><ele>1244.3333333333333</ele><time>2026-04-12T09:59:16.192Z</time></trkpt><trkpt lat="37.9918967" lon="14.895435"><ele>1246.6666666666667</ele><time>2026-04-12T09:59:18.194Z</time></trkpt><trkpt lat="37.9919033" lon="14.8955383"><ele>1249.0</ele><time>2026-04-12T09:59:20.194Z</time></trkpt><trkpt lat="37.9919067" lon="14.89565"><ele>1251.3333333333335</ele><time>2026-04-12T09:59:22.194Z</time></trkpt><trkpt lat="37.99191" lon="14.8957567"><ele>1253.6666666666667</ele><time>2026-04-12T09:59:24.194Z</time></trkpt><trkpt lat="37.99191" lon="14.8958633"><ele>1256.0</ele><time>2026-04-12T09:59:26.194Z</time></trkpt><trkpt lat="37.9919167" lon="14.8959733"><ele>1257.6666666666667</ele><time>2026-04-12T09:59:28.192Z</time></trkpt><trkpt lat="37.991925" lon="14.896085"><ele>1259.3333333333335</ele><time>2026-04-12T09:59:30.193Z</time></trkpt><trkpt lat="37.991935" lon="14.8961933"><ele>1261.0</ele><time>2026-04-12T09:59:32.193Z</time></trkpt><trkpt lat="37.99194" lon="14.8962983"><ele>1262.6666666666667</ele><time>2026-04-12T09:59:34.193Z</time></trkpt><trkpt lat="37.99195" lon="14.8964067"><ele>1264.3333333333333</ele><time>2026-04-12T09:59:36.192Z</time></trkpt><trkpt lat="37.9919517" lon="14.8965133"><ele>1266.0</ele><time>2026-04-12T09:59:38.194Z</time></trkpt><trkpt lat="37.9919433" lon="14.89662"><ele>1266.0</ele><time>2026-04-12T09:59:40.193Z</time></trkpt><trkpt lat="37.99192" lon="14.8967267"><ele>1266.0</ele><time>2026-04-12T09:59:42.194Z</time></trkpt><trkpt lat="37.9918767" lon="14.8968217"><ele>1266.0</ele><time>2026-04-12T09:59:44.194Z</time></trkpt><trkpt lat="37.991815" lon="14.8968967"><ele>1266.0</ele><time>2026-04-12T09:59:46.193Z</time></trkpt><trkpt lat="37.99175" lon="14.8969733"><ele>1266.0</ele><time>2026-04-12T09:59:48.193Z</time></trkpt><trkpt lat="37.9916733" lon="14.89705"><ele>1266.0</ele><time>2026-04-12T09:59:50.194Z</time></trkpt><trkpt lat="37.9915917" lon="14.897125"><ele>1264.8</ele><time>2026-04-12T09:59:52.193Z</time></trkpt><trkpt lat="37.991515" lon="14.8972033"><ele>1263.6</ele><time>2026-04-12T09:59:54.192Z</time></trkpt><trkpt lat="37.9914483" lon="14.897285"><ele>1262.4</ele><time>2026-04-12T09:59:56.194Z</time></trkpt><trkpt lat="37.9913833" lon="14.8973633"><ele>1261.2</ele><time>2026-04-12T09:59:58.193Z</time></trkpt><trkpt lat="37.9913217" lon="14.89744"><ele>1260.0</ele><time>2026-04-12T10:00:00.193Z</time></trkpt><trkpt lat="37.9912617" lon="14.89752"><ele>1261.4</ele><time>2026-04-12T10:00:02.194Z</time></trkpt><trkpt lat="37.991205" lon="14.8976083"><ele>1262.8</ele><time>2026-04-12T10:00:04.193Z</time></trkpt><trkpt lat="37.9911533" lon="14.8976983"><ele>1264.2</ele><time>2026-04-12T10:00:06.193Z</time></trkpt><trkpt lat="37.9911083" lon="14.897795"><ele>1265.6</ele><time>2026-04-12T10:00:08.194Z</time></trkpt><trkpt lat="37.991065" lon="14.8979"><ele>1267.0</ele><time>2026-04-12T10:00:10.193Z</time></trkpt><trkpt lat="37.991025" lon="14.898015"><ele>1267.0</ele><time>2026-04-12T10:00:12.194Z</time></trkpt><trkpt lat="37.9909733" lon="14.8981267"><ele>1267.0</ele><time>2026-04-12T10:00:14.194Z</time></trkpt><trkpt lat="37.9908967" lon="14.8982133"><ele>1267.0</ele><time>2026-04-12T10:00:16.194Z</time></trkpt><trkpt lat="37.9908067" lon="14.8982567"><ele>1267.0</ele><time>2026-04-12T10:00:18.193Z</time></trkpt><trkpt lat="37.99071" lon="14.89826"><ele>1267.0</ele><time>2026-04-12T10:00:20.194Z</time></trkpt><trkpt lat="37.9906133" lon="14.89822"><ele>1266.4</ele><time>2026-04-12T10:00:22.193Z</time></trkpt><trkpt lat="37.9905367" lon="14.8981567"><ele>1265.8000000000002</ele><time>2026-04-12T10:00:24.193Z</time></trkpt><trkpt lat="37.9904767" lon="14.8980767"><ele>1265.2</ele><time>2026-04-12T10:00:26.194Z</time></trkpt><trkpt lat="37.9904083" lon="14.897995"><ele>1264.6000000000001</ele><time>2026-04-12T10:00:28.192Z</time></trkpt><trkpt lat="37.9903383" lon="14.8979167"><ele>1264.0</ele><time>2026-04-12T10:00:30.192Z</time></trkpt><trkpt lat="37.990275" lon="14.89783"><ele>1264.0</ele><time>2026-04-12T10:00:32.194Z</time></trkpt><trkpt lat="37.9902133" lon="14.89775"><ele>1264.0</ele><time>2026-04-12T10:00:34.193Z</time></trkpt><trkpt lat="37.99014" lon="14.8976717"><ele>1264.0</ele><time>2026-04-12T10:00:36.193Z</time></trkpt><trkpt lat="37.9900583" lon="14.8976183"><ele>1264.0</ele><time>2026-04-12T10:00:38.193Z</time></trkpt><trkpt lat="37.9899667" lon="14.8975917"><ele>1264.0</ele><time>2026-04-12T10:00:40.194Z</time></trkpt><trkpt lat="37.9898683" lon="14.897585"><ele>1266.2</ele><time>2026-04-12T10:00:42.194Z</time></trkpt><trkpt lat="37.9897733" lon="14.89759"><ele>1268.4</ele><time>2026-04-12T10:00:44.194Z</time></trkpt><trkpt lat="37.98968" lon="14.8975933"><ele>1270.6</ele><time>2026-04-12T10:00:46.192Z</time></trkpt><trkpt lat="37.9895817" lon="14.8976033"><ele>1272.8</ele><time>2026-04-12T10:00:48.193Z</time></trkpt><trkpt lat="37.9894817" lon="14.89762"><ele>1275.0</ele><time>2026-04-12T10:00:50.194Z</time></trkpt><trkpt lat="37.9893833" lon="14.89765"><ele>1275.0</ele><time>2026-04-12T10:00:52.194Z</time></trkpt><trkpt lat="37.9892933" lon="14.8976917"><ele>1275.0</ele><time>2026-04-12T10:00:54.193Z</time></trkpt><trkpt lat="37.9892083" lon="14.8977317"><ele>1275.0</ele><time>2026-04-12T10:00:56.193Z</time></trkpt><trkpt lat="37.9891267" lon="14.89779"><ele>1275.0</ele><time>2026-04-12T10:00:58.194Z</time></trkpt><trkpt lat="37.9890533" lon="14.897865"><ele>1275.0</ele><time>2026-04-12T10:01:00.196Z</time></trkpt><trkpt lat="37.9889867" lon="14.897945"><ele>1275.6</ele><time>2026-04-12T10:01:02.195Z</time></trkpt><trkpt lat="37.98892" lon="14.89802"><ele>1276.2</ele><time>2026-04-12T10:01:04.194Z</time></trkpt><trkpt lat="37.988855" lon="14.8981083"><ele>1276.8</ele><time>2026-04-12T10:01:06.195Z</time></trkpt><trkpt lat="37.9888017" lon="14.8982067"><ele>1277.4</ele><time>2026-04-12T10:01:08.196Z</time></trkpt><trkpt lat="37.98876" lon="14.8983233"><ele>1278.0</ele><time>2026-04-12T10:01:10.195Z</time></trkpt><trkpt lat="37.988745" lon="14.8984483"><ele>1278.0</ele><time>2026-04-12T10:01:12.195Z</time></trkpt><trkpt lat="37.98875" lon="14.898575"><ele>1278.0</ele><time>2026-04-12T10:01:14.195Z</time></trkpt><trkpt lat="37.98876" lon="14.8986983"><ele>1278.0</ele><time>2026-04-12T10:01:16.193Z</time></trkpt><trkpt lat="37.9887717" lon="14.8988267"><ele>1278.0</ele><time>2026-04-12T10:01:18.194Z</time></trkpt><trkpt lat="37.9887767" lon="14.89896"><ele>1278.0</ele><time>2026-04-12T10:01:20.193Z</time></trkpt><trkpt lat="37.988775" lon="14.8990967"><ele>1278.0</ele><time>2026-04-12T10:01:22.193Z</time></trkpt><trkpt lat="37.9887783" lon="14.899225"><ele>1278.0</ele><time>2026-04-12T10:01:24.192Z</time></trkpt><trkpt lat="37.9887717" lon="14.8993533"><ele>1278.0</ele><time>2026-04-12T10:01:26.193Z</time></trkpt><trkpt lat="37.9887667" lon="14.8994817"><ele>1278.0</ele><time>2026-04-12T10:01:28.193Z</time></trkpt><trkpt lat="37.9887733" lon="14.8996083"><ele>1278.0</ele><time>2026-04-12T10:01:30.193Z</time></trkpt><trkpt lat="37.9887733" lon="14.8997367"><ele>1278.0</ele><time>2026-04-12T10:01:32.194Z</time></trkpt><trkpt lat="37.988775" lon="14.8998583"><ele>1278.0</ele><time>2026-04-12T10:01:34.193Z</time></trkpt><trkpt lat="37.988775" lon="14.8999833"><ele>1278.0</ele><time>2026-04-12T10:01:36.194Z</time></trkpt><trkpt lat="37.9887667" lon="14.9001117"><ele>1278.0</ele><time>2026-04-12T10:01:38.193Z</time></trkpt><trkpt lat="37.98876" lon="14.900245"><ele>1278.0</ele><time>2026-04-12T10:01:40.192Z</time></trkpt><trkpt lat="37.9887533" lon="14.900375"><ele>1275.6</ele><time>2026-04-12T10:01:42.193Z</time></trkpt><trkpt lat="37.98875" lon="14.9005"><ele>1273.1999999999998</ele><time>2026-04-12T10:01:44.193Z</time></trkpt><trkpt lat="37.9887683" lon="14.900615"><ele>1270.8</ele><time>2026-04-12T10:01:46.195Z</time></trkpt><trkpt lat="37.9888167" lon="14.9007217"><ele>1268.3999999999999</ele><time>2026-04-12T10:01:48.195Z</time></trkpt><trkpt lat="37.9888867" lon="14.90081"><ele>1266.0</ele><time>2026-04-12T10:01:50.196Z</time></trkpt><trkpt lat="37.9889717" lon="14.9008833"><ele>1265.2</ele><time>2026-04-12T10:01:52.193Z</time></trkpt><trkpt lat="37.989065" lon="14.900955"><ele>1264.3999999999999</ele><time>2026-04-12T10:01:54.192Z</time></trkpt><trkpt lat="37.9891567" lon="14.9010317"><ele>1263.6</ele><time>2026-04-12T10:01:56.193Z</time></trkpt><trkpt lat="37.9892433" lon="14.9011217"><ele>1262.8</ele><time>2026-04-12T10:01:58.192Z</time></trkpt><trkpt lat="37.9893133" lon="14.9012367"><ele>1262.0</ele><time>2026-04-12T10:02:00.192Z</time></trkpt><trkpt lat="37.9893233" lon="14.9013817"><ele>1265.5</ele><time>2026-04-12T10:02:02.193Z</time></trkpt><trkpt lat="37.9892817" lon="14.9015117"><ele>1269.0</ele><time>2026-04-12T10:02:04.192Z</time></trkpt><trkpt lat="37.9892267" lon="14.9016367"><ele>1272.5</ele><time>2026-04-12T10:02:06.192Z</time></trkpt><trkpt lat="37.989165" lon="14.9017583"><ele>1276.0</ele><time>2026-04-12T10:02:08.193Z</time></trkpt><trkpt lat="37.9891" lon="14.9018767"><ele>1276.0</ele><time>2026-04-12T10:02:10.193Z</time></trkpt><trkpt lat="37.9890367" lon="14.90199"><ele>1276.0</ele><time>2026-04-12T10:02:12.193Z</time></trkpt><trkpt lat="37.9889767" lon="14.902105"><ele>1276.0</ele><time>2026-04-12T10:02:14.194Z</time></trkpt><trkpt lat="37.98892" lon="14.9022183"><ele>1276.0</ele><time>2026-04-12T10:02:16.193Z</time></trkpt><trkpt lat="37.98887" lon="14.9023367"><ele>1276.0</ele><time>2026-04-12T10:02:18.193Z</time></trkpt><trkpt lat="37.9888217" lon="14.9024567"><ele>1276.0</ele><time>2026-04-12T10:02:20.194Z</time></trkpt><trkpt lat="37.98877" lon="14.9025783"><ele>1276.0</ele><time>2026-04-12T10:02:22.192Z</time></trkpt><trkpt lat="37.988725" lon="14.9026967"><ele>1276.0</ele><time>2026-04-12T10:02:24.193Z</time></trkpt><trkpt lat="37.98868" lon="14.9028133"><ele>1276.0</ele><time>2026-04-12T10:02:26.194Z</time></trkpt><trkpt lat="37.988635" lon="14.9029283"><ele>1276.0</ele><time>2026-04-12T10:02:28.192Z</time></trkpt><trkpt lat="37.9885917" lon="14.9030433"><ele>1276.8</ele><time>2026-04-12T10:02:30.192Z</time></trkpt><trkpt lat="37.9885433" lon="14.9031583"><ele>1277.6</ele><time>2026-04-12T10:02:32.193Z</time></trkpt><trkpt lat="37.9884933" lon="14.90327"><ele>1278.4</ele><time>2026-04-12T10:02:34.192Z</time></trkpt><trkpt lat="37.9884467" lon="14.9033967"><ele>1279.2</ele><time>2026-04-12T10:02:36.193Z</time></trkpt><trkpt lat="37.9883867" lon="14.9035167"><ele>1280.0</ele><time>2026-04-12T10:02:38.193Z</time></trkpt><trkpt lat="37.9883117" lon="14.9036233"><ele>1280.0</ele><time>2026-04-12T10:02:40.194Z</time></trkpt><trkpt lat="37.9882233" lon="14.9037067"><ele>1280.0</ele><time>2026-04-12T10:02:42.192Z</time></trkpt><trkpt lat="37.988135" lon="14.9037867"><ele>1280.0</ele><time>2026-04-12T10:02:44.195Z</time></trkpt><trkpt lat="37.9880417" lon="14.9038667"><ele>1280.0</ele><time>2026-04-12T10:02:46.192Z</time></trkpt><trkpt lat="37.98795" lon="14.9039517"><ele>1280.0</ele><time>2026-04-12T10:02:48.194Z</time></trkpt><trkpt lat="37.98785" lon="14.9040283"><ele>1280.0</ele><time>2026-04-12T10:02:50.193Z</time></trkpt><trkpt lat="37.987745" lon="14.90409"><ele>1280.0</ele><time>2026-04-12T10:02:52.192Z</time></trkpt><trkpt lat="37.987645" lon="14.90415"><ele>1280.0</ele><time>2026-04-12T10:02:54.194Z</time></trkpt><trkpt lat="37.9875433" lon="14.9042133"><ele>1280.0</ele><time>2026-04-12T10:02:56.196Z</time></trkpt><trkpt lat="37.987445" lon="14.9042783"><ele>1279.0</ele><time>2026-04-12T10:02:58.193Z</time></trkpt><trkpt lat="37.98735" lon="14.9043567"><ele>1278.0</ele><time>2026-04-12T10:03:00.194Z</time></trkpt><trkpt lat="37.987265" lon="14.9044517"><ele>1277.0</ele><time>2026-04-12T10:03:02.195Z</time></trkpt><trkpt lat="37.9871867" lon="14.9045617"><ele>1276.0</ele><time>2026-04-12T10:03:04.194Z</time></trkpt><trkpt lat="37.987115" lon="14.9046817"><ele>1276.0</ele><time>2026-04-12T10:03:06.195Z</time></trkpt><trkpt lat="37.9870483" lon="14.904805"><ele>1276.0</ele><time>2026-04-12T10:03:08.195Z</time></trkpt><trkpt lat="37.9869967" lon="14.904935"><ele>1276.0</ele><time>2026-04-12T10:03:10.194Z</time></trkpt><trkpt lat="37.9869583" lon="14.9050733"><ele>1276.0</ele><time>2026-04-12T10:03:12.193Z</time></trkpt><trkpt lat="37.986935" lon="14.9052217"><ele>1277.0</ele><time>2026-04-12T10:03:14.194Z</time></trkpt><trkpt lat="37.98691" lon="14.9053733"><ele>1278.0</ele><time>2026-04-12T10:03:16.192Z</time></trkpt><trkpt lat="37.98685" lon="14.9055017"><ele>1279.0</ele><time>2026-04-12T10:03:18.192Z</time></trkpt><trkpt lat="37.9867333" lon="14.9055267"><ele>1280.0</ele><time>2026-04-12T10:03:20.193Z</time></trkpt><trkpt lat="37.98662" lon="14.9055067"><ele>1278.0</ele><time>2026-04-12T10:03:22.192Z</time></trkpt><trkpt lat="37.9865133" lon="14.9054867"><ele>1276.0</ele><time>2026-04-12T10:03:24.193Z</time></trkpt><trkpt lat="37.9864083" lon="14.9054667"><ele>1274.0</ele><time>2026-04-12T10:03:26.193Z</time></trkpt><trkpt lat="37.9863" lon="14.9054583"><ele>1272.0</ele><time>2026-04-12T10:03:28.192Z</time></trkpt><trkpt lat="37.9861917" lon="14.9054533"><ele>1270.0</ele><time>2026-04-12T10:03:30.193Z</time></trkpt><trkpt lat="37.986085" lon="14.9054533"><ele>1270.0</ele><time>2026-04-12T10:03:32.195Z</time></trkpt><trkpt lat="37.98598" lon="14.9054817"><ele>1270.0</ele><time>2026-04-12T10:03:34.195Z</time></trkpt><trkpt lat="37.9858767" lon="14.905535"><ele>1270.0</ele><time>2026-04-12T10:03:36.194Z</time></trkpt><trkpt lat="37.9857867" lon="14.905625"><ele>1270.0</ele><time>2026-04-12T10:03:38.195Z</time></trkpt><trkpt lat="37.9857183" lon="14.9057417"><ele>1270.0</ele><time>2026-04-12T10:03:40.194Z</time></trkpt><trkpt lat="37.985675" lon="14.9058733"><ele>1269.0</ele><time>2026-04-12T10:03:42.195Z</time></trkpt><trkpt lat="37.9856567" lon="14.9060183"><ele>1268.0</ele><time>2026-04-12T10:03:44.193Z</time></trkpt><trkpt lat="37.98565" lon="14.9061567"><ele>1267.0</ele><time>2026-04-12T10:03:46.193Z</time></trkpt><trkpt lat="37.9856567" lon="14.9062817"><ele>1266.0</ele><time>2026-04-12T10:03:48.192Z</time></trkpt><trkpt lat="37.9856567" lon="14.9064133"><ele>1265.0</ele><time>2026-04-12T10:03:50.194Z</time></trkpt><trkpt lat="37.9856567" lon="14.906555"><ele>1265.0</ele><time>2026-04-12T10:03:52.193Z</time></trkpt><trkpt lat="37.9856617" lon="14.9067017"><ele>1265.0</ele><time>2026-04-12T10:03:54.195Z</time></trkpt><trkpt lat="37.9856717" lon="14.906855"><ele>1265.0</ele><time>2026-04-12T10:03:56.193Z</time></trkpt><trkpt lat="37.9856917" lon="14.9070067"><ele>1265.0</ele><time>2026-04-12T10:03:58.192Z</time></trkpt><trkpt lat="37.9857233" lon="14.9071583"><ele>1264.6</ele><time>2026-04-12T10:04:00.192Z</time></trkpt><trkpt lat="37.9857483" lon="14.9072333"><ele>1264.2</ele><time>2026-04-12T10:04:01.193Z</time></trkpt><trkpt lat="37.9857983" lon="14.9073783"><ele>1263.8</ele><time>2026-04-12T10:04:03.192Z</time></trkpt><trkpt lat="37.9858217" lon="14.907455"><ele>1263.4</ele><time>2026-04-12T10:04:04.192Z</time></trkpt><trkpt lat="37.985865" lon="14.907595"><ele>1263.0</ele><time>2026-04-12T10:04:06.194Z</time></trkpt><trkpt lat="37.9859167" lon="14.9077217"><ele>1265.25</ele><time>2026-04-12T10:04:08.193Z</time></trkpt><trkpt lat="37.9859833" lon="14.90784"><ele>1267.5</ele><time>2026-04-12T10:04:10.194Z</time></trkpt><trkpt lat="37.9860433" lon="14.9079533"><ele>1269.75</ele><time>2026-04-12T10:04:12.193Z</time></trkpt><trkpt lat="37.9861083" lon="14.908075"><ele>1272.0</ele><time>2026-04-12T10:04:14.192Z</time></trkpt><trkpt lat="37.9861717" lon="14.908195"><ele>1272.0</ele><time>2026-04-12T10:04:16.193Z</time></trkpt><trkpt lat="37.9862383" lon="14.9083033"><ele>1272.0</ele><time>2026-04-12T10:04:18.193Z</time></trkpt><trkpt lat="37.9863" lon="14.9084167"><ele>1272.0</ele><time>2026-04-12T10:04:20.195Z</time></trkpt><trkpt lat="37.9863433" lon="14.90854"><ele>1272.0</ele><time>2026-04-12T10:04:22.195Z</time></trkpt><trkpt lat="37.9864017" lon="14.908655"><ele>1272.0</ele><time>2026-04-12T10:04:24.195Z</time></trkpt><trkpt lat="37.98645" lon="14.9087667"><ele>1271.2</ele><time>2026-04-12T10:04:26.195Z</time></trkpt><trkpt lat="37.98651" lon="14.908875"><ele>1270.4</ele><time>2026-04-12T10:04:28.194Z</time></trkpt><trkpt lat="37.9865583" lon="14.9089933"><ele>1269.6</ele><time>2026-04-12T10:04:30.193Z</time></trkpt><trkpt lat="37.986605" lon="14.9091"><ele>1268.8</ele><time>2026-04-12T10:04:32.195Z</time></trkpt><trkpt lat="37.9866867" lon="14.9091883"><ele>1268.0</ele><time>2026-04-12T10:04:34.195Z</time></trkpt><trkpt lat="37.98676" lon="14.9092717"><ele>1268.0</ele><time>2026-04-12T10:04:36.193Z</time></trkpt><trkpt lat="37.9868433" lon="14.9093567"><ele>1268.0</ele><time>2026-04-12T10:04:38.193Z</time></trkpt><trkpt lat="37.9869267" lon="14.90944"><ele>1268.0</ele><time>2026-04-12T10:04:40.192Z</time></trkpt><trkpt lat="37.986995" lon="14.90951"><ele>1268.0</ele><time>2026-04-12T10:04:42.193Z</time></trkpt><trkpt lat="37.9870767" lon="14.9095683"><ele>1268.0</ele><time>2026-04-12T10:04:44.192Z</time></trkpt><trkpt lat="37.987165" lon="14.909605"><ele>1268.0</ele><time>2026-04-12T10:04:46.192Z</time></trkpt><trkpt lat="37.9872433" lon="14.9096533"><ele>1268.0</ele><time>2026-04-12T10:04:48.192Z</time></trkpt><trkpt lat="37.9873417" lon="14.9097083"><ele>1268.0</ele><time>2026-04-12T10:04:50.194Z</time></trkpt><trkpt lat="37.9874567" lon="14.9097483"><ele>1268.0</ele><time>2026-04-12T10:04:52.192Z</time></trkpt><trkpt lat="37.9875633" lon="14.9098067"><ele>1268.0</ele><time>2026-04-12T10:04:54.193Z</time></trkpt><trkpt lat="37.9876233" lon="14.9098417"><ele>1268.3333333333335</ele><time>2026-04-12T10:04:55.192Z</time></trkpt><trkpt lat="37.98773" lon="14.9098833"><ele>1268.6666666666667</ele><time>2026-04-12T10:04:57.192Z</time></trkpt><trkpt lat="37.9877933" lon="14.9099183"><ele>1269.0</ele><time>2026-04-12T10:04:58.193Z</time></trkpt><trkpt lat="37.9878867" lon="14.9099283"><ele>1269.3333333333333</ele><time>2026-04-12T10:04:59.193Z</time></trkpt><trkpt lat="37.9879467" lon="14.909965"><ele>1269.6666666666665</ele><time>2026-04-12T10:05:00.191Z</time></trkpt><trkpt lat="37.9880083" lon="14.9100133"><ele>1270.0</ele><time>2026-04-12T10:05:01.192Z</time></trkpt><trkpt lat="37.98806" lon="14.9101033"><ele>1270.0</ele><time>2026-04-12T10:05:03.192Z</time></trkpt><trkpt lat="37.9881233" lon="14.910175"><ele>1270.0</ele><time>2026-04-12T10:05:05.194Z</time></trkpt><trkpt lat="37.988185" lon="14.9102383"><ele>1270.0</ele><time>2026-04-12T10:05:07.193Z</time></trkpt><trkpt lat="37.9882367" lon="14.910315"><ele>1270.0</ele><time>2026-04-12T10:05:09.194Z</time></trkpt><trkpt lat="37.9882983" lon="14.9103817"><ele>1270.0</ele><time>2026-04-12T10:05:11.195Z</time></trkpt><trkpt lat="37.988365" lon="14.9104417"><ele>1270.0</ele><time>2026-04-12T10:05:13.192Z</time></trkpt><trkpt lat="37.9884217" lon="14.9105167"><ele>1271.4</ele><time>2026-04-12T10:05:15.194Z</time></trkpt><trkpt lat="37.9884817" lon="14.9105967"><ele>1272.8</ele><time>2026-04-12T10:05:17.192Z</time></trkpt><trkpt lat="37.98855" lon="14.9106833"><ele>1274.2</ele><time>2026-04-12T10:05:19.193Z</time></trkpt><trkpt lat="37.98862" lon="14.9107683"><ele>1275.6</ele><time>2026-04-12T10:05:21.193Z</time></trkpt><trkpt lat="37.98869" lon="14.9108533"><ele>1277.0</ele><time>2026-04-12T10:05:23.192Z</time></trkpt><trkpt lat="37.9887533" lon="14.9109567"><ele>1277.0</ele><time>2026-04-12T10:05:25.193Z</time></trkpt><trkpt lat="37.9888233" lon="14.9110567"><ele>1277.0</ele><time>2026-04-12T10:05:27.193Z</time></trkpt><trkpt lat="37.988905" lon="14.9111317"><ele>1277.0</ele><time>2026-04-12T10:05:29.195Z</time></trkpt><trkpt lat="37.9889783" lon="14.911225"><ele>1277.0</ele><time>2026-04-12T10:05:31.194Z</time></trkpt><trkpt lat="37.9890483" lon="14.9112967"><ele>1277.0</ele><time>2026-04-12T10:05:33.192Z</time></trkpt><trkpt lat="37.989075" lon="14.9113933"><ele>1277.0</ele><time>2026-04-12T10:05:35.192Z</time></trkpt><trkpt lat="37.989085" lon="14.9115383"><ele>1277.0</ele><time>2026-04-12T10:05:37.194Z</time></trkpt><trkpt lat="37.9890867" lon="14.9116767"><ele>1277.0</ele><time>2026-04-12T10:05:39.192Z</time></trkpt><trkpt lat="37.9890867" lon="14.911815"><ele>1277.0</ele><time>2026-04-12T10:05:41.193Z</time></trkpt><trkpt lat="37.9891317" lon="14.9119383"><ele>1277.0</ele><time>2026-04-12T10:05:43.192Z</time></trkpt><trkpt lat="37.989215" lon="14.91205"><ele>1277.8333333333335</ele><time>2026-04-12T10:05:45.191Z</time></trkpt><trkpt lat="37.9892683" lon="14.9121"><ele>1278.6666666666667</ele><time>2026-04-12T10:05:46.192Z</time></trkpt><trkpt lat="37.9893217" lon="14.9121467"><ele>1279.5</ele><time>2026-04-12T10:05:47.194Z</time></trkpt><trkpt lat="37.9893633" lon="14.9122067"><ele>1280.3333333333333</ele><time>2026-04-12T10:05:48.193Z</time></trkpt><trkpt lat="37.98946" lon="14.9123067"><ele>1281.1666666666665</ele><time>2026-04-12T10:05:50.194Z</time></trkpt><trkpt lat="37.9895217" lon="14.9123467"><ele>1282.0</ele><time>2026-04-12T10:05:51.193Z</time></trkpt><trkpt lat="37.9895683" lon="14.9124017"><ele>1282.0</ele><time>2026-04-12T10:05:52.192Z</time></trkpt><trkpt lat="37.9896467" lon="14.9125333"><ele>1282.0</ele><time>2026-04-12T10:05:54.193Z</time></trkpt><trkpt lat="37.98968" lon="14.91261"><ele>1282.0</ele><time>2026-04-12T10:05:55.192Z</time></trkpt><trkpt lat="37.9897083" lon="14.91269"><ele>1282.0</ele><time>2026-04-12T10:05:56.192Z</time></trkpt><trkpt lat="37.9897333" lon="14.9127683"><ele>1282.0</ele><time>2026-04-12T10:05:57.193Z</time></trkpt><trkpt lat="37.98976" lon="14.912845"><ele>1282.0</ele><time>2026-04-12T10:05:58.192Z</time></trkpt><trkpt lat="37.9897867" lon="14.9129233"><ele>1281.6666666666665</ele><time>2026-04-12T10:05:59.193Z</time></trkpt><trkpt lat="37.9898117" lon="14.913"><ele>1281.3333333333333</ele><time>2026-04-12T10:06:00.192Z</time></trkpt><trkpt lat="37.9898367" lon="14.913075"><ele>1281.0</ele><time>2026-04-12T10:06:01.195Z</time></trkpt><trkpt lat="37.9898633" lon="14.9131483"><ele>1280.6666666666667</ele><time>2026-04-12T10:06:02.194Z</time></trkpt><trkpt lat="37.9899183" lon="14.9132883"><ele>1280.3333333333335</ele><time>2026-04-12T10:06:04.195Z</time></trkpt><trkpt lat="37.9899717" lon="14.9134317"><ele>1280.0</ele><time>2026-04-12T10:06:06.195Z</time></trkpt><trkpt lat="37.9900117" lon="14.913575"><ele>1280.0</ele><time>2026-04-12T10:06:08.192Z</time></trkpt><trkpt lat="37.990025" lon="14.9137133"><ele>1280.0</ele><time>2026-04-12T10:06:10.193Z</time></trkpt><trkpt lat="37.9900283" lon="14.9138483"><ele>1280.0</ele><time>2026-04-12T10:06:12.192Z</time></trkpt><trkpt lat="37.9900133" lon="14.91396"><ele>1280.0</ele><time>2026-04-12T10:06:14.193Z</time></trkpt><trkpt lat="37.989985" lon="14.914035"><ele>1280.0</ele><time>2026-04-12T10:06:17.193Z</time></trkpt><trkpt lat="37.98996" lon="14.9141267"><ele>1280.0</ele><time>2026-04-12T10:09:04.192Z</time></trkpt><trkpt lat="37.9899483" lon="14.91421"><ele>1280.0</ele><time>2026-04-12T10:09:07.192Z</time></trkpt><trkpt lat="37.98996" lon="14.91431"><ele>1280.0</ele><time>2026-04-12T10:09:10.193Z</time></trkpt><trkpt lat="37.9900017" lon="14.9144033"><ele>1280.0</ele><time>2026-04-12T10:09:12.194Z</time></trkpt><trkpt lat="37.9900433" lon="14.9144933"><ele>1280.0</ele><time>2026-04-12T10:09:14.194Z</time></trkpt><trkpt lat="37.99008" lon="14.9145983"><ele>1280.0</ele><time>2026-04-12T10:09:16.194Z</time></trkpt><trkpt lat="37.990095" lon="14.91472"><ele>1280.0</ele><time>2026-04-12T10:09:18.193Z</time></trkpt><trkpt lat="37.9900667" lon="14.9148417"><ele>1280.6</ele><time>2026-04-12T10:09:20.194Z</time></trkpt><trkpt lat="37.9900367" lon="14.914965"><ele>1281.2</ele><time>2026-04-12T10:09:22.194Z</time></trkpt><trkpt lat="37.9900117" lon="14.9150867"><ele>1281.8000000000002</ele><time>2026-04-12T10:09:24.194Z</time></trkpt><trkpt lat="37.9899867" lon="14.9152133"><ele>1282.4</ele><time>2026-04-12T10:09:26.194Z</time></trkpt><trkpt lat="37.9899583" lon="14.91534"><ele>1283.0</ele><time>2026-04-12T10:09:28.193Z</time></trkpt><trkpt lat="37.9899317" lon="14.9154733"><ele>1283.0</ele><time>2026-04-12T10:09:30.194Z</time></trkpt><trkpt lat="37.9899017" lon="14.91561"><ele>1283.0</ele><time>2026-04-12T10:09:32.193Z</time></trkpt><trkpt lat="37.989875" lon="14.915745"><ele>1283.0</ele><time>2026-04-12T10:09:34.192Z</time></trkpt><trkpt lat="37.9898517" lon="14.9158767"><ele>1283.0</ele><time>2026-04-12T10:09:36.192Z</time></trkpt><trkpt lat="37.989825" lon="14.9160133"><ele>1283.0</ele><time>2026-04-12T10:09:38.194Z</time></trkpt><trkpt lat="37.9898017" lon="14.9161567"><ele>1284.0</ele><time>2026-04-12T10:09:40.192Z</time></trkpt><trkpt lat="37.98978" lon="14.9162867"><ele>1285.0</ele><time>2026-04-12T10:09:42.192Z</time></trkpt><trkpt lat="37.9897483" lon="14.91641"><ele>1286.0</ele><time>2026-04-12T10:09:44.194Z</time></trkpt><trkpt lat="37.9897217" lon="14.9165283"><ele>1287.0</ele><time>2026-04-12T10:09:46.194Z</time></trkpt><trkpt lat="37.9896967" lon="14.916645"><ele>1288.0</ele><time>2026-04-12T10:09:48.194Z</time></trkpt><trkpt lat="37.9896667" lon="14.9167717"><ele>1288.8000000000002</ele><time>2026-04-12T10:09:50.194Z</time></trkpt><trkpt lat="37.989645" lon="14.9169083"><ele>1289.6</ele><time>2026-04-12T10:09:52.193Z</time></trkpt><trkpt lat="37.98962" lon="14.9170417"><ele>1290.4</ele><time>2026-04-12T10:09:54.193Z</time></trkpt><trkpt lat="37.9895967" lon="14.9171817"><ele>1291.1999999999998</ele><time>2026-04-12T10:09:56.194Z</time></trkpt><trkpt lat="37.9895667" lon="14.9173233"><ele>1292.0</ele><time>2026-04-12T10:09:58.193Z</time></trkpt><trkpt lat="37.9895317" lon="14.917455"><ele>1293.1999999999998</ele><time>2026-04-12T10:10:00.192Z</time></trkpt><trkpt lat="37.98951" lon="14.9175833"><ele>1294.4</ele><time>2026-04-12T10:10:02.196Z</time></trkpt><trkpt lat="37.9894983" lon="14.9176983"><ele>1295.6</ele><time>2026-04-12T10:10:04.194Z</time></trkpt><trkpt lat="37.9894767" lon="14.9178267"><ele>1296.8000000000002</ele><time>2026-04-12T10:10:06.193Z</time></trkpt><trkpt lat="37.9894517" lon="14.9179567"><ele>1298.0</ele><time>2026-04-12T10:10:08.194Z</time></trkpt><trkpt lat="37.9894217" lon="14.9180883"><ele>1298.0</ele><time>2026-04-12T10:10:10.192Z</time></trkpt><trkpt lat="37.9893933" lon="14.9182217"><ele>1298.0</ele><time>2026-04-12T10:10:12.194Z</time></trkpt><trkpt lat="37.9893667" lon="14.9183467"><ele>1298.0</ele><time>2026-04-12T10:10:14.194Z</time></trkpt><trkpt lat="37.9893333" lon="14.918465"><ele>1298.0</ele><time>2026-04-12T10:10:16.193Z</time></trkpt><trkpt lat="37.9892967" lon="14.91859"><ele>1298.0</ele><time>2026-04-12T10:10:18.193Z</time></trkpt><trkpt lat="37.9892517" lon="14.9187233"><ele>1296.25</ele><time>2026-04-12T10:10:20.193Z</time></trkpt><trkpt lat="37.9892017" lon="14.918855"><ele>1294.5</ele><time>2026-04-12T10:10:22.194Z</time></trkpt><trkpt lat="37.9891533" lon="14.9189833"><ele>1292.75</ele><time>2026-04-12T10:10:24.194Z</time></trkpt><trkpt lat="37.9891017" lon="14.9191117"><ele>1291.0</ele><time>2026-04-12T10:10:26.192Z</time></trkpt><trkpt lat="37.98903" lon="14.919225"><ele>1293.0</ele><time>2026-04-12T10:10:28.192Z</time></trkpt><trkpt lat="37.9889417" lon="14.9193317"><ele>1295.0</ele><time>2026-04-12T10:10:30.193Z</time></trkpt><trkpt lat="37.9888483" lon="14.91943"><ele>1297.0</ele><time>2026-04-12T10:10:32.194Z</time></trkpt><trkpt lat="37.9887967" lon="14.919485"><ele>1299.0</ele><time>2026-04-12T10:10:33.192Z</time></trkpt><trkpt lat="37.9887467" lon="14.91954"><ele>1301.0</ele><time>2026-04-12T10:10:34.193Z</time></trkpt><trkpt lat="37.9886967" lon="14.919595"><ele>1303.0</ele><time>2026-04-12T10:10:35.194Z</time></trkpt><trkpt lat="37.9886483" lon="14.9196467"><ele>1303.0</ele><time>2026-04-12T10:10:36.193Z</time></trkpt><trkpt lat="37.9885983" lon="14.9196983"><ele>1303.0</ele><time>2026-04-12T10:10:37.192Z</time></trkpt><trkpt lat="37.98855" lon="14.9197517"><ele>1303.0</ele><time>2026-04-12T10:10:38.194Z</time></trkpt><trkpt lat="37.9885017" lon="14.9198033"><ele>1303.0</ele><time>2026-04-12T10:10:39.192Z</time></trkpt><trkpt lat="37.98845" lon="14.9198533"><ele>1303.0</ele><time>2026-04-12T10:10:40.192Z</time></trkpt><trkpt lat="37.9883967" lon="14.9198983"><ele>1303.0</ele><time>2026-04-12T10:10:41.193Z</time></trkpt><trkpt lat="37.9883417" lon="14.9199383"><ele>1303.0</ele><time>2026-04-12T10:10:42.194Z</time></trkpt><trkpt lat="37.988285" lon="14.919975"><ele>1303.0</ele><time>2026-04-12T10:10:43.193Z</time></trkpt><trkpt lat="37.9881833" lon="14.92005"><ele>1304.8000000000002</ele><time>2026-04-12T10:10:45.193Z</time></trkpt><trkpt lat="37.9880883" lon="14.920115"><ele>1306.6</ele><time>2026-04-12T10:10:47.195Z</time></trkpt><trkpt lat="37.9880017" lon="14.92018"><ele>1308.4</ele><time>2026-04-12T10:10:49.196Z</time></trkpt><trkpt lat="37.9879183" lon="14.9202767"><ele>1310.1999999999998</ele><time>2026-04-12T10:10:51.196Z</time></trkpt><trkpt lat="37.9878333" lon="14.9203867"><ele>1312.0</ele><time>2026-04-12T10:10:53.196Z</time></trkpt><trkpt lat="37.9877467" lon="14.9204933"><ele>1312.0</ele><time>2026-04-12T10:10:55.193Z</time></trkpt><trkpt lat="37.9876617" lon="14.9206017"><ele>1312.0</ele><time>2026-04-12T10:10:57.193Z</time></trkpt><trkpt lat="37.9875817" lon="14.9207117"><ele>1312.0</ele><time>2026-04-12T10:10:59.194Z</time></trkpt><trkpt lat="37.987495" lon="14.9208217"><ele>1312.0</ele><time>2026-04-12T10:11:01.192Z</time></trkpt><trkpt lat="37.98745" lon="14.92088"><ele>1312.0</ele><time>2026-04-12T10:11:02.192Z</time></trkpt><trkpt lat="37.987405" lon="14.9209367"><ele>1306.0</ele><time>2026-04-12T10:11:03.193Z</time></trkpt><trkpt lat="37.9873217" lon="14.9210417"><ele>1300.0</ele><time>2026-04-12T10:11:05.194Z</time></trkpt><trkpt lat="37.9872467" lon="14.92116"><ele>1294.0</ele><time>2026-04-12T10:11:07.192Z</time></trkpt><trkpt lat="37.9871833" lon="14.921295"><ele>1288.0</ele><time>2026-04-12T10:11:09.198Z</time></trkpt><trkpt lat="37.98714" lon="14.9214433"><ele>1288.0</ele><time>2026-04-12T10:11:11.193Z</time></trkpt><trkpt lat="37.98713" lon="14.9215233"><ele>1288.0</ele><time>2026-04-12T10:11:12.193Z</time></trkpt><trkpt lat="37.9871267" lon="14.9216033"><ele>1288.0</ele><time>2026-04-12T10:11:13.193Z</time></trkpt><trkpt lat="37.9871317" lon="14.9216883"><ele>1288.0</ele><time>2026-04-12T10:11:14.193Z</time></trkpt><trkpt lat="37.9871417" lon="14.92177"><ele>1288.0</ele><time>2026-04-12T10:11:15.192Z</time></trkpt><trkpt lat="37.98716" lon="14.92185"><ele>1288.0</ele><time>2026-04-12T10:11:16.193Z</time></trkpt><trkpt lat="37.9871833" lon="14.92193"><ele>1288.0</ele><time>2026-04-12T10:11:17.193Z</time></trkpt><trkpt lat="37.9872117" lon="14.9220083"><ele>1288.7142857142858</ele><time>2026-04-12T10:11:18.192Z</time></trkpt><trkpt lat="37.987245" lon="14.9220867"><ele>1289.4285714285716</ele><time>2026-04-12T10:11:19.192Z</time></trkpt><trkpt lat="37.9872867" lon="14.922155"><ele>1290.142857142857</ele><time>2026-04-12T10:11:20.193Z</time></trkpt><trkpt lat="37.9873333" lon="14.9222167"><ele>1290.857142857143</ele><time>2026-04-12T10:11:21.192Z</time></trkpt><trkpt lat="37.9873883" lon="14.92227"><ele>1291.5714285714287</ele><time>2026-04-12T10:11:22.192Z</time></trkpt><trkpt lat="37.98745" lon="14.922315"><ele>1292.2857142857142</ele><time>2026-04-12T10:11:23.195Z</time></trkpt><trkpt lat="37.9875167" lon="14.9223583"><ele>1293.0</ele><time>2026-04-12T10:11:24.192Z</time></trkpt><trkpt lat="37.9875833" lon="14.9224"><ele>1293.0</ele><time>2026-04-12T10:11:25.193Z</time></trkpt><trkpt lat="37.9876517" lon="14.9224383"><ele>1293.0</ele><time>2026-04-12T10:11:26.194Z</time></trkpt><trkpt lat="37.987725" lon="14.9224717"><ele>1293.0</ele><time>2026-04-12T10:11:27.194Z</time></trkpt><trkpt lat="37.9877983" lon="14.9225067"><ele>1293.0</ele><time>2026-04-12T10:11:28.193Z</time></trkpt><trkpt lat="37.9878717" lon="14.922545"><ele>1293.0</ele><time>2026-04-12T10:11:29.193Z</time></trkpt><trkpt lat="37.9879467" lon="14.9225833"><ele>1293.0</ele><time>2026-04-12T10:11:30.192Z</time></trkpt><trkpt lat="37.98802" lon="14.9226217"><ele>1292.5</ele><time>2026-04-12T10:11:31.192Z</time></trkpt><trkpt lat="37.9880967" lon="14.92266"><ele>1292.0</ele><time>2026-04-12T10:11:32.193Z</time></trkpt><trkpt lat="37.988175" lon="14.9226967"><ele>1291.5</ele><time>2026-04-12T10:11:33.193Z</time></trkpt><trkpt lat="37.9882533" lon="14.9227317"><ele>1291.0</ele><time>2026-04-12T10:11:34.193Z</time></trkpt><trkpt lat="37.9883333" lon="14.9227667"><ele>1290.5</ele><time>2026-04-12T10:11:35.192Z</time></trkpt><trkpt lat="37.9884117" lon="14.9228083"><ele>1290.0</ele><time>2026-04-12T10:11:36.193Z</time></trkpt><trkpt lat="37.98849" lon="14.92285"><ele>1290.0</ele><time>2026-04-12T10:11:37.193Z</time></trkpt><trkpt lat="37.9885683" lon="14.92289"><ele>1290.0</ele><time>2026-04-12T10:11:38.196Z</time></trkpt><trkpt lat="37.9886433" lon="14.9229367"><ele>1290.0</ele><time>2026-04-12T10:11:39.194Z</time></trkpt><trkpt lat="37.9887183" lon="14.9229867"><ele>1290.0</ele><time>2026-04-12T10:11:40.193Z</time></trkpt><trkpt lat="37.9887883" lon="14.9230417"><ele>1290.0</ele><time>2026-04-12T10:11:41.193Z</time></trkpt><trkpt lat="37.988855" lon="14.9231033"><ele>1290.0</ele><time>2026-04-12T10:11:42.192Z</time></trkpt><trkpt lat="37.988915" lon="14.9231717"><ele>1290.0</ele><time>2026-04-12T10:11:43.193Z</time></trkpt><trkpt lat="37.988975" lon="14.9232467"><ele>1290.0</ele><time>2026-04-12T10:11:44.193Z</time></trkpt><trkpt lat="37.9890333" lon="14.923325"><ele>1290.0</ele><time>2026-04-12T10:11:45.192Z</time></trkpt><trkpt lat="37.9890917" lon="14.9234"><ele>1290.0</ele><time>2026-04-12T10:11:46.192Z</time></trkpt><trkpt lat="37.9891467" lon="14.9234783"><ele>1290.0</ele><time>2026-04-12T10:11:47.192Z</time></trkpt><trkpt lat="37.9891967" lon="14.9235633"><ele>1290.0</ele><time>2026-04-12T10:11:48.193Z</time></trkpt><trkpt lat="37.9892467" lon="14.9236467"><ele>1292.0</ele><time>2026-04-12T10:11:49.194Z</time></trkpt><trkpt lat="37.9892983" lon="14.9237283"><ele>1294.0</ele><time>2026-04-12T10:11:50.195Z</time></trkpt><trkpt lat="37.9893433" lon="14.9238117"><ele>1296.0</ele><time>2026-04-12T10:11:51.193Z</time></trkpt><trkpt lat="37.9893833" lon="14.9239"><ele>1298.0</ele><time>2026-04-12T10:11:52.193Z</time></trkpt><trkpt lat="37.9894183" lon="14.9239917"><ele>1300.0</ele><time>2026-04-12T10:11:53.193Z</time></trkpt><trkpt lat="37.9894533" lon="14.9240817"><ele>1302.0</ele><time>2026-04-12T10:11:54.193Z</time></trkpt><trkpt lat="37.989485" lon="14.9241683"><ele>1298.857142857143</ele><time>2026-04-12T10:11:55.192Z</time></trkpt><trkpt lat="37.989515" lon="14.9242533"><ele>1295.7142857142858</ele><time>2026-04-12T10:11:56.194Z</time></trkpt><trkpt lat="37.9895433" lon="14.9243383"><ele>1292.5714285714284</ele><time>2026-04-12T10:11:57.193Z</time></trkpt><trkpt lat="37.98957" lon="14.9244233"><ele>1289.4285714285716</ele><time>2026-04-12T10:11:58.194Z</time></trkpt><trkpt lat="37.9895983" lon="14.9245067"><ele>1286.2857142857142</ele><time>2026-04-12T10:11:59.196Z</time></trkpt><trkpt lat="37.9896267" lon="14.9245917"><ele>1283.142857142857</ele><time>2026-04-12T10:12:00.195Z</time></trkpt><trkpt lat="37.9896583" lon="14.924675"><ele>1280.0</ele><time>2026-04-12T10:12:01.196Z</time></trkpt><trkpt lat="37.9896917" lon="14.92476"><ele>1280.0</ele><time>2026-04-12T10:12:02.195Z</time></trkpt><trkpt lat="37.98973" lon="14.9248417"><ele>1280.0</ele><time>2026-04-12T10:12:03.195Z</time></trkpt><trkpt lat="37.9897717" lon="14.9249233"><ele>1280.0</ele><time>2026-04-12T10:12:04.195Z</time></trkpt><trkpt lat="37.9898183" lon="14.9250017"><ele>1280.0</ele><time>2026-04-12T10:12:05.195Z</time></trkpt><trkpt lat="37.98987" lon="14.9250733"><ele>1280.0</ele><time>2026-04-12T10:12:06.195Z</time></trkpt><trkpt lat="37.989925" lon="14.9251383"><ele>1280.0</ele><time>2026-04-12T10:12:07.195Z</time></trkpt><trkpt lat="37.9899817" lon="14.9252017"><ele>1279.8333333333335</ele><time>2026-04-12T10:12:08.194Z</time></trkpt><trkpt lat="37.9900383" lon="14.925265"><ele>1279.6666666666667</ele><time>2026-04-12T10:12:09.196Z</time></trkpt><trkpt lat="37.990095" lon="14.9253267"><ele>1279.5</ele><time>2026-04-12T10:12:10.194Z</time></trkpt><trkpt lat="37.9901517" lon="14.92539"><ele>1279.3333333333333</ele><time>2026-04-12T10:12:11.195Z</time></trkpt><trkpt lat="37.9902083" lon="14.9254533"><ele>1279.1666666666665</ele><time>2026-04-12T10:12:12.195Z</time></trkpt><trkpt lat="37.990265" lon="14.9255167"><ele>1279.0</ele><time>2026-04-12T10:12:13.196Z</time></trkpt><trkpt lat="37.9903217" lon="14.92558"><ele>1279.0</ele><time>2026-04-12T10:12:14.195Z</time></trkpt><trkpt lat="37.9903783" lon="14.9256417"><ele>1279.0</ele><time>2026-04-12T10:12:15.193Z</time></trkpt><trkpt lat="37.9904333" lon="14.925705"><ele>1279.0</ele><time>2026-04-12T10:12:16.193Z</time></trkpt><trkpt lat="37.9904883" lon="14.9257683"><ele>1279.0</ele><time>2026-04-12T10:12:17.194Z</time></trkpt><trkpt lat="37.9905417" lon="14.9258317"><ele>1279.0</ele><time>2026-04-12T10:12:18.193Z</time></trkpt><trkpt lat="37.990595" lon="14.9258917"><ele>1279.0</ele><time>2026-04-12T10:12:19.195Z</time></trkpt><trkpt lat="37.9906467" lon="14.92595"><ele>1279.0</ele><time>2026-04-12T10:12:20.193Z</time></trkpt><trkpt lat="37.9906983" lon="14.92601"><ele>1279.142857142857</ele><time>2026-04-12T10:12:21.193Z</time></trkpt><trkpt lat="37.99075" lon="14.9260683"><ele>1279.2857142857144</ele><time>2026-04-12T10:12:22.193Z</time></trkpt><trkpt lat="37.9908017" lon="14.9261233"><ele>1279.4285714285716</ele><time>2026-04-12T10:12:23.194Z</time></trkpt><trkpt lat="37.9908517" lon="14.9261783"><ele>1279.5714285714284</ele><time>2026-04-12T10:12:24.194Z</time></trkpt><trkpt lat="37.9909017" lon="14.9262317"><ele>1279.7142857142858</ele><time>2026-04-12T10:12:25.192Z</time></trkpt><trkpt lat="37.99095" lon="14.926285"><ele>1279.857142857143</ele><time>2026-04-12T10:12:26.193Z</time></trkpt><trkpt lat="37.991" lon="14.9263367"><ele>1280.0</ele><time>2026-04-12T10:12:27.194Z</time></trkpt><trkpt lat="37.99105" lon="14.92639"><ele>1280.0</ele><time>2026-04-12T10:12:28.193Z</time></trkpt><trkpt lat="37.9911" lon="14.926445"><ele>1280.0</ele><time>2026-04-12T10:12:29.194Z</time></trkpt><trkpt lat="37.99115" lon="14.9265"><ele>1280.0</ele><time>2026-04-12T10:12:30.192Z</time></trkpt><trkpt lat="37.9911983" lon="14.9265567"><ele>1280.0</ele><time>2026-04-12T10:12:31.193Z</time></trkpt><trkpt lat="37.9912483" lon="14.9266133"><ele>1280.0</ele><time>2026-04-12T10:12:32.193Z</time></trkpt><trkpt lat="37.991295" lon="14.9266717"><ele>1280.0</ele><time>2026-04-12T10:12:33.193Z</time></trkpt><trkpt lat="37.9913383" lon="14.926735"><ele>1280.0</ele><time>2026-04-12T10:12:34.192Z</time></trkpt><trkpt lat="37.9913817" lon="14.9267967"><ele>1279.2857142857142</ele><time>2026-04-12T10:12:35.192Z</time></trkpt><trkpt lat="37.9914233" lon="14.92686"><ele>1278.5714285714287</ele><time>2026-04-12T10:12:36.193Z</time></trkpt><trkpt lat="37.99146" lon="14.9269267"><ele>1277.857142857143</ele><time>2026-04-12T10:12:37.193Z</time></trkpt><trkpt lat="37.9914933" lon="14.9269967"><ele>1277.142857142857</ele><time>2026-04-12T10:12:38.193Z</time></trkpt><trkpt lat="37.9915267" lon="14.9270683"><ele>1276.4285714285713</ele><time>2026-04-12T10:12:39.194Z</time></trkpt><trkpt lat="37.991555" lon="14.92714"><ele>1275.7142857142858</ele><time>2026-04-12T10:12:40.192Z</time></trkpt><trkpt lat="37.9915833" lon="14.9272117"><ele>1275.0</ele><time>2026-04-12T10:12:41.192Z</time></trkpt><trkpt lat="37.9916133" lon="14.927285"><ele>1275.0</ele><time>2026-04-12T10:12:42.192Z</time></trkpt><trkpt lat="37.9916433" lon="14.92736"><ele>1275.0</ele><time>2026-04-12T10:12:43.192Z</time></trkpt><trkpt lat="37.9916733" lon="14.9274333"><ele>1275.0</ele><time>2026-04-12T10:12:44.194Z</time></trkpt><trkpt lat="37.9917017" lon="14.9275067"><ele>1275.0</ele><time>2026-04-12T10:12:45.192Z</time></trkpt><trkpt lat="37.9917317" lon="14.92758"><ele>1275.0</ele><time>2026-04-12T10:12:46.193Z</time></trkpt><trkpt lat="37.99176" lon="14.927655"><ele>1275.0</ele><time>2026-04-12T10:12:47.193Z</time></trkpt><trkpt lat="37.99179" lon="14.92773"><ele>1275.0</ele><time>2026-04-12T10:12:48.193Z</time></trkpt><trkpt lat="37.99182" lon="14.9278033"><ele>1275.7142857142858</ele><time>2026-04-12T10:12:49.195Z</time></trkpt><trkpt lat="37.9918483" lon="14.9278767"><ele>1276.4285714285713</ele><time>2026-04-12T10:12:50.193Z</time></trkpt><trkpt lat="37.9918783" lon="14.9279483"><ele>1277.142857142857</ele><time>2026-04-12T10:12:51.193Z</time></trkpt><trkpt lat="37.99191" lon="14.9280233"><ele>1277.857142857143</ele><time>2026-04-12T10:12:52.194Z</time></trkpt><trkpt lat="37.9919383" lon="14.9280967"><ele>1278.5714285714287</ele><time>2026-04-12T10:12:53.193Z</time></trkpt><trkpt lat="37.9919683" lon="14.92817"><ele>1279.2857142857142</ele><time>2026-04-12T10:12:54.193Z</time></trkpt><trkpt lat="37.99202" lon="14.9283117"><ele>1280.0</ele><time>2026-04-12T10:12:56.193Z</time></trkpt><trkpt lat="37.99207" lon="14.928445"><ele>1280.0</ele><time>2026-04-12T10:12:58.192Z</time></trkpt><trkpt lat="37.9921183" lon="14.9285733"><ele>1280.0</ele><time>2026-04-12T10:13:00.194Z</time></trkpt><trkpt lat="37.9921717" lon="14.9287"><ele>1280.0</ele><time>2026-04-12T10:13:02.194Z</time></trkpt><trkpt lat="37.992225" lon="14.928835"><ele>1280.0</ele><time>2026-04-12T10:13:04.193Z</time></trkpt><trkpt lat="37.9922817" lon="14.928975"><ele>1280.0</ele><time>2026-04-12T10:13:06.192Z</time></trkpt><trkpt lat="37.9923083" lon="14.9290483"><ele>1280.0</ele><time>2026-04-12T10:13:07.194Z</time></trkpt><trkpt lat="37.99235" lon="14.9291967"><ele>1280.0</ele><time>2026-04-12T10:13:09.193Z</time></trkpt><trkpt lat="37.992375" lon="14.9293467"><ele>1280.0</ele><time>2026-04-12T10:13:11.193Z</time></trkpt><trkpt lat="37.992375" lon="14.9295017"><ele>1280.0</ele><time>2026-04-12T10:13:13.195Z</time></trkpt><trkpt lat="37.9923617" lon="14.9296517"><ele>1280.25</ele><time>2026-04-12T10:13:15.194Z</time></trkpt><trkpt lat="37.9923417" lon="14.9297983"><ele>1280.5</ele><time>2026-04-12T10:13:17.193Z</time></trkpt><trkpt lat="37.9923217" lon="14.9299467"><ele>1280.75</ele><time>2026-04-12T10:13:19.192Z</time></trkpt><trkpt lat="37.9922983" lon="14.9300917"><ele>1281.0</ele><time>2026-04-12T10:13:21.194Z</time></trkpt><trkpt lat="37.99228" lon="14.9302333"><ele>1281.0</ele><time>2026-04-12T10:13:23.193Z</time></trkpt><trkpt lat="37.992265" lon="14.9303767"><ele>1281.0</ele><time>2026-04-12T10:13:25.194Z</time></trkpt><trkpt lat="37.99228" lon="14.9305183"><ele>1281.0</ele><time>2026-04-12T10:13:27.193Z</time></trkpt><trkpt lat="37.992335" lon="14.930645"><ele>1281.0</ele><time>2026-04-12T10:13:29.193Z</time></trkpt><trkpt lat="37.9924283" lon="14.9307467"><ele>1281.0</ele><time>2026-04-12T10:13:31.192Z</time></trkpt><trkpt lat="37.9924833" lon="14.9307867"><ele>1281.0</ele><time>2026-04-12T10:13:32.195Z</time></trkpt><trkpt lat="37.9925983" lon="14.9308633"><ele>1281.0</ele><time>2026-04-12T10:13:34.193Z</time></trkpt><trkpt lat="37.99266" lon="14.9308983"><ele>1281.0</ele><time>2026-04-12T10:13:35.193Z</time></trkpt><trkpt lat="37.9927217" lon="14.930935"><ele>1281.0</ele><time>2026-04-12T10:13:36.194Z</time></trkpt><trkpt lat="37.9927833" lon="14.9309767"><ele>1281.0</ele><time>2026-04-12T10:13:37.195Z</time></trkpt><trkpt lat="37.99285" lon="14.93102"><ele>1282.0</ele><time>2026-04-12T10:13:38.192Z</time></trkpt><trkpt lat="37.9929167" lon="14.9310583"><ele>1283.0</ele><time>2026-04-12T10:13:39.193Z</time></trkpt><trkpt lat="37.9929833" lon="14.931095"><ele>1284.0</ele><time>2026-04-12T10:13:40.192Z</time></trkpt><trkpt lat="37.99305" lon="14.9311317"><ele>1285.0</ele><time>2026-04-12T10:13:41.193Z</time></trkpt><trkpt lat="37.9931133" lon="14.9311717"><ele>1286.0</ele><time>2026-04-12T10:13:42.192Z</time></trkpt><trkpt lat="37.9931717" lon="14.9312233"><ele>1287.0</ele><time>2026-04-12T10:13:43.193Z</time></trkpt><trkpt lat="37.99321" lon="14.931295"><ele>1288.0</ele><time>2026-04-12T10:13:44.193Z</time></trkpt><trkpt lat="37.9932117" lon="14.9313833"><ele>1288.0</ele><time>2026-04-12T10:13:45.193Z</time></trkpt><trkpt lat="37.9931967" lon="14.9314683"><ele>1288.0</ele><time>2026-04-12T10:13:46.193Z</time></trkpt><trkpt lat="37.993155" lon="14.9315383"><ele>1288.0</ele><time>2026-04-12T10:13:47.192Z</time></trkpt><trkpt lat="37.9930917" lon="14.9315767"><ele>1288.0</ele><time>2026-04-12T10:13:48.193Z</time></trkpt><trkpt lat="37.9930283" lon="14.9316017"><ele>1288.0</ele><time>2026-04-12T10:13:49.193Z</time></trkpt><trkpt lat="37.992965" lon="14.9316267"><ele>1288.0</ele><time>2026-04-12T10:13:50.192Z</time></trkpt><trkpt lat="37.9929017" lon="14.9316533"><ele>1288.0</ele><time>2026-04-12T10:13:51.192Z</time></trkpt><trkpt lat="37.99284" lon="14.9316833"><ele>1287.5</ele><time>2026-04-12T10:13:52.193Z</time></trkpt><trkpt lat="37.9927283" lon="14.9317283"><ele>1287.0</ele><time>2026-04-12T10:13:54.193Z</time></trkpt><trkpt lat="37.9926233" lon="14.9317967"><ele>1286.5</ele><time>2026-04-12T10:13:56.193Z</time></trkpt><trkpt lat="37.99252" lon="14.9318483"><ele>1286.0</ele><time>2026-04-12T10:13:58.193Z</time></trkpt><trkpt lat="37.9924183" lon="14.9318917"><ele>1286.0</ele><time>2026-04-12T10:14:00.193Z</time></trkpt><trkpt lat="37.9923183" lon="14.9319433"><ele>1286.0</ele><time>2026-04-12T10:14:02.195Z</time></trkpt><trkpt lat="37.9922267" lon="14.93201"><ele>1286.0</ele><time>2026-04-12T10:14:04.195Z</time></trkpt><trkpt lat="37.9921433" lon="14.932075"><ele>1286.0</ele><time>2026-04-12T10:14:06.192Z</time></trkpt><trkpt lat="37.9920633" lon="14.9321483"><ele>1286.0</ele><time>2026-04-12T10:14:08.193Z</time></trkpt><trkpt lat="37.9919933" lon="14.932215"><ele>1286.0</ele><time>2026-04-12T10:14:10.194Z</time></trkpt><trkpt lat="37.991925" lon="14.93228"><ele>1286.0</ele><time>2026-04-12T10:14:12.192Z</time></trkpt><trkpt lat="37.9918583" lon="14.9323533"><ele>1286.0</ele><time>2026-04-12T10:14:14.195Z</time></trkpt><trkpt lat="37.991805" lon="14.9324083"><ele>1286.0</ele><time>2026-04-12T10:14:16.195Z</time></trkpt><trkpt lat="37.9917583" lon="14.9324633"><ele>1286.0</ele><time>2026-04-12T10:14:19.194Z</time></trkpt><trkpt lat="37.9916967" lon="14.9325383"><ele>1286.0</ele><time>2026-04-12T10:14:30.193Z</time></trkpt><trkpt lat="37.9916383" lon="14.932605"><ele>1285.0</ele><time>2026-04-12T10:14:32.193Z</time></trkpt><trkpt lat="37.9915683" lon="14.9326867"><ele>1284.0</ele><time>2026-04-12T10:14:34.192Z</time></trkpt><trkpt lat="37.9914933" lon="14.932785"><ele>1283.0</ele><time>2026-04-12T10:14:36.192Z</time></trkpt><trkpt lat="37.9914183" lon="14.9328933"><ele>1282.0</ele><time>2026-04-12T10:14:38.192Z</time></trkpt><trkpt lat="37.991345" lon="14.932995"><ele>1281.0</ele><time>2026-04-12T10:14:40.192Z</time></trkpt><trkpt lat="37.9912717" lon="14.9331017"><ele>1281.0</ele><time>2026-04-12T10:14:42.194Z</time></trkpt><trkpt lat="37.9912017" lon="14.93321"><ele>1281.0</ele><time>2026-04-12T10:14:44.194Z</time></trkpt><trkpt lat="37.991135" lon="14.9333233"><ele>1281.0</ele><time>2026-04-12T10:14:46.195Z</time></trkpt><trkpt lat="37.99107" lon="14.9334367"><ele>1281.0</ele><time>2026-04-12T10:14:48.195Z</time></trkpt><trkpt lat="37.991005" lon="14.933555"><ele>1281.0</ele><time>2026-04-12T10:14:50.196Z</time></trkpt><trkpt lat="37.990935" lon="14.9336733"><ele>1280.6</ele><time>2026-04-12T10:14:52.193Z</time></trkpt><trkpt lat="37.9908683" lon="14.9337867"><ele>1280.1999999999998</ele><time>2026-04-12T10:14:54.192Z</time></trkpt><trkpt lat="37.9908017" lon="14.9339"><ele>1279.8000000000002</ele><time>2026-04-12T10:14:56.192Z</time></trkpt><trkpt lat="37.990725" lon="14.9340133"><ele>1279.4</ele><time>2026-04-12T10:14:58.192Z</time></trkpt><trkpt lat="37.9906767" lon="14.9340683"><ele>1279.0</ele><time>2026-04-12T10:14:59.193Z</time></trkpt><trkpt lat="37.9906217" lon="14.9341117"><ele>1279.0</ele><time>2026-04-12T10:15:00.193Z</time></trkpt><trkpt lat="37.9905567" lon="14.9341467"><ele>1279.0</ele><time>2026-04-12T10:15:01.193Z</time></trkpt><trkpt lat="37.9904883" lon="14.9341633"><ele>1279.0</ele><time>2026-04-12T10:15:02.192Z</time></trkpt><trkpt lat="37.99042" lon="14.93417"><ele>1279.0</ele><time>2026-04-12T10:15:03.192Z</time></trkpt><trkpt lat="37.9903533" lon="14.93416"><ele>1279.0</ele><time>2026-04-12T10:15:04.193Z</time></trkpt><trkpt lat="37.9902883" lon="14.9341317"><ele>1279.0</ele><time>2026-04-12T10:15:05.194Z</time></trkpt><trkpt lat="37.9902283" lon="14.9340917"><ele>1279.0</ele><time>2026-04-12T10:15:06.194Z</time></trkpt><trkpt lat="37.9901767" lon="14.934035"><ele>1279.0</ele><time>2026-04-12T10:15:07.192Z</time></trkpt><trkpt lat="37.9901283" lon="14.93397"><ele>1279.0</ele><time>2026-04-12T10:15:08.192Z</time></trkpt><trkpt lat="37.9900833" lon="14.9339"><ele>1279.0</ele><time>2026-04-12T10:15:09.192Z</time></trkpt><trkpt lat="37.99004" lon="14.9338283"><ele>1279.0</ele><time>2026-04-12T10:15:10.195Z</time></trkpt><trkpt lat="37.9899983" lon="14.9337567"><ele>1279.0</ele><time>2026-04-12T10:15:11.193Z</time></trkpt><trkpt lat="37.9899567" lon="14.9336833"><ele>1279.0</ele><time>2026-04-12T10:15:12.193Z</time></trkpt><trkpt lat="37.989915" lon="14.9336133"><ele>1279.0</ele><time>2026-04-12T10:15:13.192Z</time></trkpt><trkpt lat="37.9898733" lon="14.9335433"><ele>1278.7142857142856</ele><time>2026-04-12T10:15:14.194Z</time></trkpt><trkpt lat="37.989835" lon="14.9334767"><ele>1278.4285714285716</ele><time>2026-04-12T10:15:15.193Z</time></trkpt><trkpt lat="37.9897967" lon="14.9334133"><ele>1278.142857142857</ele><time>2026-04-12T10:15:16.193Z</time></trkpt><trkpt lat="37.9897533" lon="14.9333533"><ele>1277.8571428571427</ele><time>2026-04-12T10:15:17.194Z</time></trkpt><trkpt lat="37.9897033" lon="14.9333033"><ele>1277.5714285714284</ele><time>2026-04-12T10:15:18.195Z</time></trkpt><trkpt lat="37.9896417" lon="14.9332767"><ele>1277.2857142857142</ele><time>2026-04-12T10:15:19.194Z</time></trkpt><trkpt lat="37.989575" lon="14.9332733"><ele>1277.0</ele><time>2026-04-12T10:15:20.197Z</time></trkpt><trkpt lat="37.9895117" lon="14.9332883"><ele>1276.9999999999998</ele><time>2026-04-12T10:15:21.195Z</time></trkpt><trkpt lat="37.9894483" lon="14.9333167"><ele>1277.0</ele><time>2026-04-12T10:15:22.195Z</time></trkpt><trkpt lat="37.9893867" lon="14.9333467"><ele>1277.0</ele><time>2026-04-12T10:15:23.196Z</time></trkpt><trkpt lat="37.989325" lon="14.93338"><ele>1277.0</ele><time>2026-04-12T10:15:24.195Z</time></trkpt><trkpt lat="37.9892617" lon="14.9334117"><ele>1277.0</ele><time>2026-04-12T10:15:25.195Z</time></trkpt><trkpt lat="37.9892" lon="14.9334417"><ele>1276.9999999999998</ele><time>2026-04-12T10:15:26.196Z</time></trkpt><trkpt lat="37.9891383" lon="14.933475"><ele>1277.0</ele><time>2026-04-12T10:15:27.195Z</time></trkpt><trkpt lat="37.989075" lon="14.93351"><ele>1277.5</ele><time>2026-04-12T10:15:28.197Z</time></trkpt><trkpt lat="37.98901" lon="14.9335467"><ele>1278.0</ele><time>2026-04-12T10:15:29.195Z</time></trkpt><trkpt lat="37.9889483" lon="14.93358"><ele>1278.5</ele><time>2026-04-12T10:15:30.194Z</time></trkpt><trkpt lat="37.9888333" lon="14.9336467"><ele>1279.0</ele><time>2026-04-12T10:15:32.195Z</time></trkpt><trkpt lat="37.9887767" lon="14.9336867"><ele>1279.5</ele><time>2026-04-12T10:15:33.192Z</time></trkpt><trkpt lat="37.9887217" lon="14.9337283"><ele>1280.0</ele><time>2026-04-12T10:15:34.193Z</time></trkpt><trkpt lat="37.9886683" lon="14.9337783"><ele>1280.0</ele><time>2026-04-12T10:15:35.192Z</time></trkpt><trkpt lat="37.9886183" lon="14.933835"><ele>1280.0</ele><time>2026-04-12T10:15:36.193Z</time></trkpt><trkpt lat="37.9885733" lon="14.9339"><ele>1280.0</ele><time>2026-04-12T10:15:37.193Z</time></trkpt><trkpt lat="37.988535" lon="14.9339667"><ele>1280.0</ele><time>2026-04-12T10:15:38.194Z</time></trkpt><trkpt lat="37.988495" lon="14.934035"><ele>1280.0</ele><time>2026-04-12T10:15:39.193Z</time></trkpt><trkpt lat="37.9884533" lon="14.9341017"><ele>1280.0</ele><time>2026-04-12T10:15:40.193Z</time></trkpt><trkpt lat="37.9884133" lon="14.934165"><ele>1280.0</ele><time>2026-04-12T10:15:41.193Z</time></trkpt><trkpt lat="37.988375" lon="14.93423"><ele>1279.0</ele><time>2026-04-12T10:15:42.194Z</time></trkpt><trkpt lat="37.988335" lon="14.9342983"><ele>1278.0</ele><time>2026-04-12T10:15:43.193Z</time></trkpt><trkpt lat="37.9882983" lon="14.9343667"><ele>1277.0</ele><time>2026-04-12T10:15:44.193Z</time></trkpt><trkpt lat="37.98826" lon="14.934435"><ele>1276.0</ele><time>2026-04-12T10:15:45.192Z</time></trkpt><trkpt lat="37.9882217" lon="14.934505"><ele>1275.0</ele><time>2026-04-12T10:15:46.192Z</time></trkpt><trkpt lat="37.9881833" lon="14.9345733"><ele>1274.0</ele><time>2026-04-12T10:15:47.191Z</time></trkpt><trkpt lat="37.988145" lon="14.93464"><ele>1273.0</ele><time>2026-04-12T10:15:48.192Z</time></trkpt><trkpt lat="37.9881083" lon="14.9347067"><ele>1273.0</ele><time>2026-04-12T10:15:49.193Z</time></trkpt><trkpt lat="37.9880717" lon="14.934775"><ele>1273.0</ele><time>2026-04-12T10:15:50.193Z</time></trkpt><trkpt lat="37.9880317" lon="14.9348417"><ele>1273.0</ele><time>2026-04-12T10:15:51.192Z</time></trkpt><trkpt lat="37.9879917" lon="14.93491"><ele>1273.0</ele><time>2026-04-12T10:15:52.193Z</time></trkpt><trkpt lat="37.9879533" lon="14.9349783"><ele>1273.0</ele><time>2026-04-12T10:15:53.193Z</time></trkpt><trkpt lat="37.987915" lon="14.935045"><ele>1273.0</ele><time>2026-04-12T10:15:54.192Z</time></trkpt><trkpt lat="37.987875" lon="14.93511"><ele>1273.0</ele><time>2026-04-12T10:15:55.192Z</time></trkpt><trkpt lat="37.9878383" lon="14.9351767"><ele>1275.5714285714284</ele><time>2026-04-12T10:15:56.194Z</time></trkpt><trkpt lat="37.9878017" lon="14.9352467"><ele>1278.142857142857</ele><time>2026-04-12T10:15:57.193Z</time></trkpt><trkpt lat="37.9877633" lon="14.935315"><ele>1280.7142857142858</ele><time>2026-04-12T10:15:58.194Z</time></trkpt><trkpt lat="37.9877267" lon="14.9353817"><ele>1283.2857142857142</ele><time>2026-04-12T10:15:59.193Z</time></trkpt><trkpt lat="37.9876917" lon="14.9354483"><ele>1285.857142857143</ele><time>2026-04-12T10:16:00.192Z</time></trkpt><trkpt lat="37.9876533" lon="14.935515"><ele>1288.4285714285713</ele><time>2026-04-12T10:16:01.192Z</time></trkpt><trkpt lat="37.9876133" lon="14.93558"><ele>1291.0</ele><time>2026-04-12T10:16:02.193Z</time></trkpt><trkpt lat="37.9875733" lon="14.9356467"><ele>1291.0</ele><time>2026-04-12T10:16:03.192Z</time></trkpt><trkpt lat="37.9875317" lon="14.935715"><ele>1291.0</ele><time>2026-04-12T10:16:04.193Z</time></trkpt><trkpt lat="37.9874917" lon="14.93578"><ele>1291.0</ele><time>2026-04-12T10:16:05.192Z</time></trkpt><trkpt lat="37.9874117" lon="14.9359033"><ele>1291.0</ele><time>2026-04-12T10:16:07.192Z</time></trkpt><trkpt lat="37.9873733" lon="14.93597"><ele>1291.0</ele><time>2026-04-12T10:16:08.192Z</time></trkpt><trkpt lat="37.987335" lon="14.93604"><ele>1291.0</ele><time>2026-04-12T10:16:09.192Z</time></trkpt><trkpt lat="37.9872967" lon="14.9361067"><ele>1288.9999999999998</ele><time>2026-04-12T10:16:10.193Z</time></trkpt><trkpt lat="37.9872583" lon="14.9361733"><ele>1287.0</ele><time>2026-04-12T10:16:11.192Z</time></trkpt><trkpt lat="37.9872217" lon="14.93624"><ele>1285.0</ele><time>2026-04-12T10:16:12.193Z</time></trkpt><trkpt lat="37.9871833" lon="14.9363083"><ele>1283.0</ele><time>2026-04-12T10:16:13.192Z</time></trkpt><trkpt lat="37.987145" lon="14.9363783"><ele>1281.0</ele><time>2026-04-12T10:16:14.192Z</time></trkpt><trkpt lat="37.9871083" lon="14.9364467"><ele>1278.9999999999998</ele><time>2026-04-12T10:16:15.192Z</time></trkpt><trkpt lat="37.987075" lon="14.936515"><ele>1277.0</ele><time>2026-04-12T10:16:16.193Z</time></trkpt><trkpt lat="37.9870383" lon="14.9365833"><ele>1276.9999999999998</ele><time>2026-04-12T10:16:17.193Z</time></trkpt><trkpt lat="37.9870033" lon="14.9366517"><ele>1277.0</ele><time>2026-04-12T10:16:18.194Z</time></trkpt><trkpt lat="37.9869717" lon="14.9367233"><ele>1277.0</ele><time>2026-04-12T10:16:19.195Z</time></trkpt><trkpt lat="37.9869383" lon="14.936795"><ele>1277.0</ele><time>2026-04-12T10:16:20.195Z</time></trkpt><trkpt lat="37.986905" lon="14.9368717"><ele>1277.0</ele><time>2026-04-12T10:16:21.195Z</time></trkpt><trkpt lat="37.9868717" lon="14.936945"><ele>1276.9999999999998</ele><time>2026-04-12T10:16:22.194Z</time></trkpt><trkpt lat="37.9868383" lon="14.9370217"><ele>1277.0</ele><time>2026-04-12T10:16:23.195Z</time></trkpt><trkpt lat="37.9868083" lon="14.9370967"><ele>1277.8333333333335</ele><time>2026-04-12T10:16:24.194Z</time></trkpt><trkpt lat="37.9867783" lon="14.9371683"><ele>1278.6666666666667</ele><time>2026-04-12T10:16:25.195Z</time></trkpt><trkpt lat="37.98675" lon="14.93724"><ele>1279.5</ele><time>2026-04-12T10:16:26.195Z</time></trkpt><trkpt lat="37.9867183" lon="14.9373117"><ele>1280.3333333333333</ele><time>2026-04-12T10:16:27.194Z</time></trkpt><trkpt lat="37.9866867" lon="14.9373833"><ele>1281.1666666666665</ele><time>2026-04-12T10:16:28.195Z</time></trkpt><trkpt lat="37.9866233" lon="14.937525"><ele>1282.0</ele><time>2026-04-12T10:16:30.193Z</time></trkpt><trkpt lat="37.98659" lon="14.9375983"><ele>1280.2857142857142</ele><time>2026-04-12T10:16:31.193Z</time></trkpt><trkpt lat="37.9865583" lon="14.9376717"><ele>1278.5714285714284</ele><time>2026-04-12T10:16:32.194Z</time></trkpt><trkpt lat="37.986525" lon="14.937745"><ele>1276.8571428571427</ele><time>2026-04-12T10:16:33.193Z</time></trkpt><trkpt lat="37.9864967" lon="14.9378217"><ele>1275.142857142857</ele><time>2026-04-12T10:16:34.192Z</time></trkpt><trkpt lat="37.9864667" lon="14.9379"><ele>1273.4285714285713</ele><time>2026-04-12T10:16:35.192Z</time></trkpt><trkpt lat="37.986435" lon="14.937975"><ele>1271.7142857142856</ele><time>2026-04-12T10:16:36.193Z</time></trkpt><trkpt lat="37.9864067" lon="14.93805"><ele>1270.0</ele><time>2026-04-12T10:16:37.193Z</time></trkpt><trkpt lat="37.986375" lon="14.9381217"><ele>1269.9999999999998</ele><time>2026-04-12T10:16:38.193Z</time></trkpt><trkpt lat="37.98634" lon="14.9381917"><ele>1270.0</ele><time>2026-04-12T10:16:39.193Z</time></trkpt><trkpt lat="37.9862983" lon="14.9382567"><ele>1270.0</ele><time>2026-04-12T10:16:40.193Z</time></trkpt><trkpt lat="37.9862533" lon="14.9383233"><ele>1270.0</ele><time>2026-04-12T10:16:41.192Z</time></trkpt><trkpt lat="37.9862017" lon="14.9383783"><ele>1270.0</ele><time>2026-04-12T10:16:42.193Z</time></trkpt><trkpt lat="37.9861467" lon="14.9384283"><ele>1269.9999999999998</ele><time>2026-04-12T10:16:43.192Z</time></trkpt><trkpt lat="37.9860883" lon="14.9384733"><ele>1270.0</ele><time>2026-04-12T10:16:44.192Z</time></trkpt><trkpt lat="37.9860267" lon="14.9385117"><ele>1269.8571428571427</ele><time>2026-04-12T10:16:45.192Z</time></trkpt><trkpt lat="37.985965" lon="14.93855"><ele>1269.7142857142858</ele><time>2026-04-12T10:16:46.193Z</time></trkpt><trkpt lat="37.9859033" lon="14.938585"><ele>1269.5714285714284</ele><time>2026-04-12T10:16:47.192Z</time></trkpt><trkpt lat="37.9858417" lon="14.9386217"><ele>1269.4285714285713</ele><time>2026-04-12T10:16:48.192Z</time></trkpt><trkpt lat="37.98578" lon="14.938655"><ele>1269.2857142857142</ele><time>2026-04-12T10:16:49.194Z</time></trkpt><trkpt lat="37.9857183" lon="14.9386867"><ele>1269.142857142857</ele><time>2026-04-12T10:16:50.193Z</time></trkpt><trkpt lat="37.9856567" lon="14.9387183"><ele>1269.0</ele><time>2026-04-12T10:16:51.192Z</time></trkpt><trkpt lat="37.985595" lon="14.9387533"><ele>1269.0</ele><time>2026-04-12T10:16:52.193Z</time></trkpt><trkpt lat="37.985535" lon="14.9387867"><ele>1269.0</ele><time>2026-04-12T10:16:53.194Z</time></trkpt><trkpt lat="37.9854767" lon="14.9388217"><ele>1269.0</ele><time>2026-04-12T10:16:54.192Z</time></trkpt><trkpt lat="37.985415" lon="14.9388583"><ele>1269.0</ele><time>2026-04-12T10:16:55.193Z</time></trkpt><trkpt lat="37.985355" lon="14.9388933"><ele>1269.0</ele><time>2026-04-12T10:16:56.193Z</time></trkpt><trkpt lat="37.9852933" lon="14.9389267"><ele>1269.0</ele><time>2026-04-12T10:16:57.192Z</time></trkpt><trkpt lat="37.98523" lon="14.93896"><ele>1269.0</ele><time>2026-04-12T10:16:58.194Z</time></trkpt><trkpt lat="37.9851683" lon="14.938995"><ele>1269.0</ele><time>2026-04-12T10:16:59.192Z</time></trkpt><trkpt lat="37.9851083" lon="14.9390267"><ele>1269.0</ele><time>2026-04-12T10:17:00.193Z</time></trkpt><trkpt lat="37.9850483" lon="14.93906"><ele>1269.0</ele><time>2026-04-12T10:17:01.193Z</time></trkpt><trkpt lat="37.98499" lon="14.939095"><ele>1269.0</ele><time>2026-04-12T10:17:02.195Z</time></trkpt><trkpt lat="37.9849317" lon="14.93913"><ele>1269.0</ele><time>2026-04-12T10:17:03.194Z</time></trkpt><trkpt lat="37.9848733" lon="14.9391617"><ele>1269.0</ele><time>2026-04-12T10:17:04.195Z</time></trkpt><trkpt lat="37.9847583" lon="14.939225"><ele>1269.0</ele><time>2026-04-12T10:17:06.194Z</time></trkpt><trkpt lat="37.9847" lon="14.9392567"><ele>1269.4285714285716</ele><time>2026-04-12T10:17:07.195Z</time></trkpt><trkpt lat="37.9846417" lon="14.9392883"><ele>1269.8571428571427</ele><time>2026-04-12T10:17:08.195Z</time></trkpt><trkpt lat="37.9845833" lon="14.93932"><ele>1270.2857142857142</ele><time>2026-04-12T10:17:09.192Z</time></trkpt><trkpt lat="37.9845233" lon="14.9393517"><ele>1270.7142857142858</ele><time>2026-04-12T10:17:10.192Z</time></trkpt><trkpt lat="37.9844633" lon="14.939385"><ele>1271.1428571428573</ele><time>2026-04-12T10:17:11.195Z</time></trkpt><trkpt lat="37.984405" lon="14.9394167"><ele>1271.5714285714284</ele><time>2026-04-12T10:17:12.194Z</time></trkpt><trkpt lat="37.9843467" lon="14.9394517"><ele>1272.0</ele><time>2026-04-12T10:17:13.194Z</time></trkpt><trkpt lat="37.9842883" lon="14.939495"><ele>1272.0</ele><time>2026-04-12T10:17:14.196Z</time></trkpt><trkpt lat="37.9842367" lon="14.9395467"><ele>1272.0</ele><time>2026-04-12T10:17:15.193Z</time></trkpt><trkpt lat="37.98419" lon="14.9396067"><ele>1272.0</ele><time>2026-04-12T10:17:16.195Z</time></trkpt><trkpt lat="37.9841383" lon="14.9396783"><ele>1272.0</ele><time>2026-04-12T10:17:17.193Z</time></trkpt><trkpt lat="37.98409" lon="14.939745"><ele>1272.0</ele><time>2026-04-12T10:17:18.192Z</time></trkpt><trkpt lat="37.98403" lon="14.9398783"><ele>1272.0</ele><time>2026-04-12T10:17:20.193Z</time></trkpt><trkpt lat="37.9840033" lon="14.9399533"><ele>1272.0</ele><time>2026-04-12T10:17:21.193Z</time></trkpt><trkpt lat="37.983975" lon="14.94003"><ele>1272.0</ele><time>2026-04-12T10:17:22.193Z</time></trkpt><trkpt lat="37.9839467" lon="14.9401083"><ele>1272.0</ele><time>2026-04-12T10:17:23.193Z</time></trkpt><trkpt lat="37.9839167" lon="14.9401867"><ele>1272.0</ele><time>2026-04-12T10:17:24.192Z</time></trkpt><trkpt lat="37.9838883" lon="14.940265"><ele>1272.0</ele><time>2026-04-12T10:17:25.194Z</time></trkpt><trkpt lat="37.9838617" lon="14.9403417"><ele>1272.0</ele><time>2026-04-12T10:17:26.192Z</time></trkpt><trkpt lat="37.9838317" lon="14.9404183"><ele>1272.0</ele><time>2026-04-12T10:17:27.192Z</time></trkpt><trkpt lat="37.98378" lon="14.9405617"><ele>1272.0</ele><time>2026-04-12T10:17:29.194Z</time></trkpt><trkpt lat="37.9837133" lon="14.9406867"><ele>1272.0</ele><time>2026-04-12T10:17:31.194Z</time></trkpt><trkpt lat="37.9836267" lon="14.9407983"><ele>1272.0</ele><time>2026-04-12T10:17:33.192Z</time></trkpt><trkpt lat="37.9835783" lon="14.9408517"><ele>1272.0</ele><time>2026-04-12T10:17:34.192Z</time></trkpt><trkpt lat="37.9835267" lon="14.9409"><ele>1272.0</ele><time>2026-04-12T10:17:35.192Z</time></trkpt><trkpt lat="37.98347" lon="14.9409433"><ele>1272.0</ele><time>2026-04-12T10:17:36.193Z</time></trkpt><trkpt lat="37.9834083" lon="14.94098"><ele>1271.7142857142856</ele><time>2026-04-12T10:17:37.195Z</time></trkpt><trkpt lat="37.983345" lon="14.9410117"><ele>1271.4285714285716</ele><time>2026-04-12T10:17:38.194Z</time></trkpt><trkpt lat="37.9832817" lon="14.9410283"><ele>1271.142857142857</ele><time>2026-04-12T10:17:39.192Z</time></trkpt><trkpt lat="37.9832167" lon="14.9410417"><ele>1270.8571428571427</ele><time>2026-04-12T10:17:40.195Z</time></trkpt><trkpt lat="37.98315" lon="14.94105"><ele>1270.5714285714284</ele><time>2026-04-12T10:17:41.196Z</time></trkpt><trkpt lat="37.9830833" lon="14.941055"><ele>1270.2857142857142</ele><time>2026-04-12T10:17:42.194Z</time></trkpt><trkpt lat="37.9830183" lon="14.941055"><ele>1270.0</ele><time>2026-04-12T10:17:43.195Z</time></trkpt><trkpt lat="37.982955" lon="14.94105"><ele>1270.0</ele><time>2026-04-12T10:17:44.196Z</time></trkpt><trkpt lat="37.9828317" lon="14.9410317"><ele>1270.0</ele><time>2026-04-12T10:17:46.192Z</time></trkpt><trkpt lat="37.9827267" lon="14.9410167"><ele>1270.0</ele><time>2026-04-12T10:17:48.193Z</time></trkpt><trkpt lat="37.98261" lon="14.941005"><ele>1270.0</ele><time>2026-04-12T10:17:50.194Z</time></trkpt><trkpt lat="37.9824883" lon="14.9409933"><ele>1269.8571428571427</ele><time>2026-04-12T10:17:52.194Z</time></trkpt><trkpt lat="37.982425" lon="14.9409883"><ele>1269.7142857142858</ele><time>2026-04-12T10:17:53.192Z</time></trkpt><trkpt lat="37.98236" lon="14.9409817"><ele>1269.5714285714284</ele><time>2026-04-12T10:17:54.192Z</time></trkpt><trkpt lat="37.982295" lon="14.9409783"><ele>1269.4285714285713</ele><time>2026-04-12T10:17:55.192Z</time></trkpt><trkpt lat="37.9822317" lon="14.9409767"><ele>1269.2857142857142</ele><time>2026-04-12T10:17:56.193Z</time></trkpt><trkpt lat="37.9821683" lon="14.940975"><ele>1269.142857142857</ele><time>2026-04-12T10:17:57.192Z</time></trkpt><trkpt lat="37.982105" lon="14.940975"><ele>1269.0</ele><time>2026-04-12T10:17:58.192Z</time></trkpt><trkpt lat="37.981985" lon="14.9409783"><ele>1269.0</ele><time>2026-04-12T10:18:00.193Z</time></trkpt><trkpt lat="37.9818783" lon="14.94098"><ele>1269.0</ele><time>2026-04-12T10:18:02.194Z</time></trkpt><trkpt lat="37.9817683" lon="14.9409683"><ele>1269.0</ele><time>2026-04-12T10:18:04.192Z</time></trkpt><trkpt lat="37.9816567" lon="14.9409617"><ele>1269.0</ele><time>2026-04-12T10:18:06.193Z</time></trkpt><trkpt lat="37.9815417" lon="14.94096"><ele>1269.0</ele><time>2026-04-12T10:18:08.192Z</time></trkpt><trkpt lat="37.9814333" lon="14.94096"><ele>1269.0</ele><time>2026-04-12T10:18:10.194Z</time></trkpt><trkpt lat="37.981325" lon="14.9409533"><ele>1269.0</ele><time>2026-04-12T10:18:12.193Z</time></trkpt><trkpt lat="37.9812167" lon="14.9409483"><ele>1269.0</ele><time>2026-04-12T10:18:14.196Z</time></trkpt><trkpt lat="37.98111" lon="14.940955"><ele>1269.0</ele><time>2026-04-12T10:18:16.193Z</time></trkpt><trkpt lat="37.9810067" lon="14.9409767"><ele>1269.0</ele><time>2026-04-12T10:18:18.193Z</time></trkpt><trkpt lat="37.9808983" lon="14.9410117"><ele>1269.75</ele><time>2026-04-12T10:18:20.193Z</time></trkpt><trkpt lat="37.9807883" lon="14.9410417"><ele>1270.5</ele><time>2026-04-12T10:18:22.199Z</time></trkpt><trkpt lat="37.980675" lon="14.9410833"><ele>1271.25</ele><time>2026-04-12T10:18:24.193Z</time></trkpt><trkpt lat="37.9805617" lon="14.9411217"><ele>1272.0</ele><time>2026-04-12T10:18:26.195Z</time></trkpt><trkpt lat="37.98045" lon="14.9411617"><ele>1272.0</ele><time>2026-04-12T10:18:28.194Z</time></trkpt><trkpt lat="37.9803417" lon="14.941205"><ele>1272.0</ele><time>2026-04-12T10:18:30.195Z</time></trkpt><trkpt lat="37.9802333" lon="14.9412383"><ele>1272.0</ele><time>2026-04-12T10:18:32.197Z</time></trkpt><trkpt lat="37.9801283" lon="14.9412667"><ele>1272.0</ele><time>2026-04-12T10:18:34.193Z</time></trkpt><trkpt lat="37.9800283" lon="14.9413017"><ele>1272.0</ele><time>2026-04-12T10:18:36.194Z</time></trkpt><trkpt lat="37.9799317" lon="14.9413317"><ele>1271.2</ele><time>2026-04-12T10:18:38.196Z</time></trkpt><trkpt lat="37.9798317" lon="14.9413683"><ele>1270.4</ele><time>2026-04-12T10:18:40.195Z</time></trkpt><trkpt lat="37.979735" lon="14.9414033"><ele>1269.6</ele><time>2026-04-12T10:18:42.195Z</time></trkpt><trkpt lat="37.9796317" lon="14.941445"><ele>1268.8</ele><time>2026-04-12T10:18:44.195Z</time></trkpt><trkpt lat="37.9795283" lon="14.9414867"><ele>1268.0</ele><time>2026-04-12T10:18:46.192Z</time></trkpt><trkpt lat="37.9794183" lon="14.9415317"><ele>1268.0</ele><time>2026-04-12T10:18:48.192Z</time></trkpt><trkpt lat="37.979305" lon="14.9415883"><ele>1268.0</ele><time>2026-04-12T10:18:50.193Z</time></trkpt><trkpt lat="37.9792017" lon="14.9416683"><ele>1268.0</ele><time>2026-04-12T10:18:52.193Z</time></trkpt><trkpt lat="37.9791117" lon="14.9417683"><ele>1268.0</ele><time>2026-04-12T10:18:54.192Z</time></trkpt><trkpt lat="37.9790367" lon="14.9418933"><ele>1268.5</ele><time>2026-04-12T10:18:56.194Z</time></trkpt><trkpt lat="37.9789833" lon="14.9420367"><ele>1269.0</ele><time>2026-04-12T10:18:58.195Z</time></trkpt><trkpt lat="37.97894" lon="14.9421783"><ele>1269.5</ele><time>2026-04-12T10:19:00.193Z</time></trkpt><trkpt lat="37.9788917" lon="14.94231"><ele>1270.0</ele><time>2026-04-12T10:19:02.194Z</time></trkpt><trkpt lat="37.9788367" lon="14.9424483"><ele>1271.8333333333333</ele><time>2026-04-12T10:19:04.193Z</time></trkpt><trkpt lat="37.9787717" lon="14.9425833"><ele>1273.6666666666665</ele><time>2026-04-12T10:19:06.193Z</time></trkpt><trkpt lat="37.978735" lon="14.94265"><ele>1275.5</ele><time>2026-04-12T10:19:07.193Z</time></trkpt><trkpt lat="37.9786983" lon="14.9427183"><ele>1277.3333333333333</ele><time>2026-04-12T10:19:08.193Z</time></trkpt><trkpt lat="37.9786267" lon="14.9428533"><ele>1279.1666666666667</ele><time>2026-04-12T10:19:10.193Z</time></trkpt><trkpt lat="37.97859" lon="14.9429183"><ele>1281.0</ele><time>2026-04-12T10:19:11.194Z</time></trkpt><trkpt lat="37.9785167" lon="14.9430433"><ele>1281.0</ele><time>2026-04-12T10:19:13.194Z</time></trkpt><trkpt lat="37.97848" lon="14.9431083"><ele>1281.0</ele><time>2026-04-12T10:19:14.194Z</time></trkpt><trkpt lat="37.9784433" lon="14.943175"><ele>1281.0</ele><time>2026-04-12T10:19:15.192Z</time></trkpt><trkpt lat="37.9784083" lon="14.9432417"><ele>1281.0</ele><time>2026-04-12T10:19:16.194Z</time></trkpt><trkpt lat="37.9783333" lon="14.9433683"><ele>1281.0</ele><time>2026-04-12T10:19:18.193Z</time></trkpt><trkpt lat="37.9782633" lon="14.943495"><ele>1281.0</ele><time>2026-04-12T10:19:20.194Z</time></trkpt><trkpt lat="37.9782317" lon="14.943565"><ele>1278.6666666666667</ele><time>2026-04-12T10:19:21.192Z</time></trkpt><trkpt lat="37.9781967" lon="14.9437083"><ele>1276.3333333333333</ele><time>2026-04-12T10:19:23.194Z</time></trkpt><trkpt lat="37.9781933" lon="14.9437883"><ele>1274.0</ele><time>2026-04-12T10:19:24.195Z</time></trkpt><trkpt lat="37.97822" lon="14.943945"><ele>1271.6666666666665</ele><time>2026-04-12T10:19:26.196Z</time></trkpt><trkpt lat="37.9782517" lon="14.94402"><ele>1269.3333333333333</ele><time>2026-04-12T10:19:27.194Z</time></trkpt><trkpt lat="37.97829" lon="14.9440917"><ele>1267.0</ele><time>2026-04-12T10:19:28.196Z</time></trkpt><trkpt lat="37.9783317" lon="14.9441617"><ele>1266.7142857142858</ele><time>2026-04-12T10:19:29.194Z</time></trkpt><trkpt lat="37.9783733" lon="14.94423"><ele>1266.4285714285716</ele><time>2026-04-12T10:19:30.194Z</time></trkpt><trkpt lat="37.9784167" lon="14.9442967"><ele>1266.142857142857</ele><time>2026-04-12T10:19:31.193Z</time></trkpt><trkpt lat="37.9784617" lon="14.9443633"><ele>1265.857142857143</ele><time>2026-04-12T10:19:32.195Z</time></trkpt><trkpt lat="37.9785067" lon="14.9444283"><ele>1265.5714285714287</ele><time>2026-04-12T10:19:33.194Z</time></trkpt><trkpt lat="37.9785533" lon="14.9444933"><ele>1265.2857142857142</ele><time>2026-04-12T10:19:34.195Z</time></trkpt><trkpt lat="37.978605" lon="14.944555"><ele>1265.0</ele><time>2026-04-12T10:19:35.194Z</time></trkpt><trkpt lat="37.9786617" lon="14.9446183"><ele>1265.0</ele><time>2026-04-12T10:19:36.194Z</time></trkpt><trkpt lat="37.9787183" lon="14.94468"><ele>1265.0</ele><time>2026-04-12T10:19:37.195Z</time></trkpt><trkpt lat="37.978775" lon="14.9447383"><ele>1265.0</ele><time>2026-04-12T10:19:38.195Z</time></trkpt><trkpt lat="37.978835" lon="14.944795"><ele>1265.0</ele><time>2026-04-12T10:19:39.195Z</time></trkpt><trkpt lat="37.978895" lon="14.9448533"><ele>1265.0</ele><time>2026-04-12T10:19:40.195Z</time></trkpt><trkpt lat="37.9789517" lon="14.9449133"><ele>1265.0</ele><time>2026-04-12T10:19:41.195Z</time></trkpt><trkpt lat="37.9790083" lon="14.944975"><ele>1265.0</ele><time>2026-04-12T10:19:42.194Z</time></trkpt><trkpt lat="37.9790633" lon="14.9450383"><ele>1265.0</ele><time>2026-04-12T10:19:43.195Z</time></trkpt><trkpt lat="37.9791133" lon="14.9451117"><ele>1265.0</ele><time>2026-04-12T10:19:44.195Z</time></trkpt><trkpt lat="37.9791483" lon="14.9452"><ele>1265.0</ele><time>2026-04-12T10:19:45.197Z</time></trkpt><trkpt lat="37.9791633" lon="14.9452983"><ele>1265.0</ele><time>2026-04-12T10:19:46.194Z</time></trkpt><trkpt lat="37.9791583" lon="14.9453983"><ele>1265.0</ele><time>2026-04-12T10:19:47.198Z</time></trkpt><trkpt lat="37.9791467" lon="14.945495"><ele>1265.0</ele><time>2026-04-12T10:19:48.193Z</time></trkpt><trkpt lat="37.979125" lon="14.94559"><ele>1265.0</ele><time>2026-04-12T10:19:49.192Z</time></trkpt><trkpt lat="37.9791017" lon="14.945675"><ele>1265.0</ele><time>2026-04-12T10:19:50.193Z</time></trkpt><trkpt lat="37.9790767" lon="14.9457583"><ele>1265.0</ele><time>2026-04-12T10:19:51.193Z</time></trkpt><trkpt lat="37.979055" lon="14.9458417"><ele>1265.0</ele><time>2026-04-12T10:19:52.193Z</time></trkpt><trkpt lat="37.9790317" lon="14.945925"><ele>1265.0</ele><time>2026-04-12T10:19:53.193Z</time></trkpt><trkpt lat="37.9790083" lon="14.9460083"><ele>1265.0</ele><time>2026-04-12T10:19:54.193Z</time></trkpt><trkpt lat="37.9789817" lon="14.9460883"><ele>1265.0</ele><time>2026-04-12T10:19:55.194Z</time></trkpt><trkpt lat="37.97895" lon="14.9461683"><ele>1266.0</ele><time>2026-04-12T10:19:56.195Z</time></trkpt><trkpt lat="37.978905" lon="14.9462333"><ele>1267.0</ele><time>2026-04-12T10:19:57.193Z</time></trkpt><trkpt lat="37.9788483" lon="14.9462817"><ele>1268.0</ele><time>2026-04-12T10:19:58.194Z</time></trkpt><trkpt lat="37.9787833" lon="14.9463183"><ele>1269.0</ele><time>2026-04-12T10:19:59.193Z</time></trkpt><trkpt lat="37.9787167" lon="14.9463433"><ele>1270.0</ele><time>2026-04-12T10:20:00.192Z</time></trkpt><trkpt lat="37.9786517" lon="14.9463517"><ele>1271.0</ele><time>2026-04-12T10:20:01.194Z</time></trkpt><trkpt lat="37.9785833" lon="14.9463483"><ele>1272.0</ele><time>2026-04-12T10:20:02.194Z</time></trkpt><trkpt lat="37.97852" lon="14.9463533"><ele>1272.0</ele><time>2026-04-12T10:20:03.194Z</time></trkpt><trkpt lat="37.9784567" lon="14.94636"><ele>1272.0</ele><time>2026-04-12T10:20:04.193Z</time></trkpt><trkpt lat="37.9783933" lon="14.9463667"><ele>1272.0</ele><time>2026-04-12T10:20:05.194Z</time></trkpt><trkpt lat="37.9782733" lon="14.9463883"><ele>1272.0</ele><time>2026-04-12T10:20:07.194Z</time></trkpt><trkpt lat="37.9781617" lon="14.9464567"><ele>1272.0</ele><time>2026-04-12T10:20:09.193Z</time></trkpt><trkpt lat="37.9781083" lon="14.9465"><ele>1272.0</ele><time>2026-04-12T10:20:10.194Z</time></trkpt><trkpt lat="37.9780083" lon="14.9465983"><ele>1272.5</ele><time>2026-04-12T10:20:12.192Z</time></trkpt><trkpt lat="37.9779133" lon="14.94671"><ele>1273.0</ele><time>2026-04-12T10:20:14.193Z</time></trkpt><trkpt lat="37.977865" lon="14.94677"><ele>1273.5</ele><time>2026-04-12T10:20:15.193Z</time></trkpt><trkpt lat="37.977815" lon="14.94683"><ele>1274.0</ele><time>2026-04-12T10:20:16.193Z</time></trkpt><trkpt lat="37.977765" lon="14.9468867"><ele>1274.5</ele><time>2026-04-12T10:20:17.193Z</time></trkpt><trkpt lat="37.9777167" lon="14.9469467"><ele>1275.0</ele><time>2026-04-12T10:20:18.194Z</time></trkpt><trkpt lat="37.97767" lon="14.9470067"><ele>1275.0</ele><time>2026-04-12T10:20:19.193Z</time></trkpt><trkpt lat="37.9776233" lon="14.9470633"><ele>1275.0</ele><time>2026-04-12T10:20:20.193Z</time></trkpt><trkpt lat="37.977575" lon="14.947115"><ele>1275.0</ele><time>2026-04-12T10:20:21.193Z</time></trkpt><trkpt lat="37.9774817" lon="14.9472183"><ele>1275.0</ele><time>2026-04-12T10:20:23.192Z</time></trkpt><trkpt lat="37.97739" lon="14.9473317"><ele>1275.0</ele><time>2026-04-12T10:20:25.195Z</time></trkpt><trkpt lat="37.9773433" lon="14.9473883"><ele>1275.0</ele><time>2026-04-12T10:20:26.194Z</time></trkpt><trkpt lat="37.977295" lon="14.9474433"><ele>1274.5714285714287</ele><time>2026-04-12T10:20:27.192Z</time></trkpt><trkpt lat="37.9772517" lon="14.947505"><ele>1274.142857142857</ele><time>2026-04-12T10:20:28.193Z</time></trkpt><trkpt lat="37.97721" lon="14.9475683"><ele>1273.7142857142858</ele><time>2026-04-12T10:20:29.194Z</time></trkpt><trkpt lat="37.97717" lon="14.9476333"><ele>1273.2857142857142</ele><time>2026-04-12T10:20:30.195Z</time></trkpt><trkpt lat="37.977135" lon="14.9477"><ele>1272.857142857143</ele><time>2026-04-12T10:20:31.194Z</time></trkpt><trkpt lat="37.9771017" lon="14.9477717"><ele>1272.4285714285713</ele><time>2026-04-12T10:20:32.193Z</time></trkpt><trkpt lat="37.9770733" lon="14.9478467"><ele>1272.0</ele><time>2026-04-12T10:20:33.193Z</time></trkpt><trkpt lat="37.97705" lon="14.947925"><ele>1272.0</ele><time>2026-04-12T10:20:34.195Z</time></trkpt><trkpt lat="37.9770283" lon="14.9480017"><ele>1272.0</ele><time>2026-04-12T10:20:35.194Z</time></trkpt><trkpt lat="37.976995" lon="14.948155"><ele>1272.0</ele><time>2026-04-12T10:20:37.194Z</time></trkpt><trkpt lat="37.976965" lon="14.9483117"><ele>1272.0</ele><time>2026-04-12T10:20:39.194Z</time></trkpt><trkpt lat="37.9769467" lon="14.9484717"><ele>1272.0</ele><time>2026-04-12T10:20:41.192Z</time></trkpt><trkpt lat="37.97694" lon="14.9485533"><ele>1272.2857142857142</ele><time>2026-04-12T10:20:42.193Z</time></trkpt><trkpt lat="37.9769367" lon="14.9486367"><ele>1272.5714285714287</ele><time>2026-04-12T10:20:43.193Z</time></trkpt><trkpt lat="37.97693" lon="14.94872"><ele>1272.857142857143</ele><time>2026-04-12T10:20:44.193Z</time></trkpt><trkpt lat="37.976925" lon="14.9488017"><ele>1273.142857142857</ele><time>2026-04-12T10:20:45.193Z</time></trkpt><trkpt lat="37.97692" lon="14.9488867"><ele>1273.4285714285716</ele><time>2026-04-12T10:20:46.193Z</time></trkpt><trkpt lat="37.9769133" lon="14.94897"><ele>1273.7142857142858</ele><time>2026-04-12T10:20:47.193Z</time></trkpt><trkpt lat="37.9769117" lon="14.9490517"><ele>1274.0</ele><time>2026-04-12T10:20:48.194Z</time></trkpt><trkpt lat="37.9769083" lon="14.9491333"><ele>1275.0</ele><time>2026-04-12T10:20:49.194Z</time></trkpt><trkpt lat="37.9769033" lon="14.9492167"><ele>1276.0</ele><time>2026-04-12T10:20:50.194Z</time></trkpt><trkpt lat="37.9768983" lon="14.9492967"><ele>1277.0</ele><time>2026-04-12T10:20:51.193Z</time></trkpt><trkpt lat="37.9768933" lon="14.9493783"><ele>1278.0</ele><time>2026-04-12T10:20:52.194Z</time></trkpt><trkpt lat="37.97688" lon="14.9495367"><ele>1279.0</ele><time>2026-04-12T10:20:54.193Z</time></trkpt><trkpt lat="37.9768733" lon="14.9496167"><ele>1280.0</ele><time>2026-04-12T10:20:55.194Z</time></trkpt><trkpt lat="37.97686" lon="14.949695"><ele>1281.0</ele><time>2026-04-12T10:20:56.196Z</time></trkpt><trkpt lat="37.976835" lon="14.94977"><ele>1281.0</ele><time>2026-04-12T10:20:57.195Z</time></trkpt><trkpt lat="37.9767733" lon="14.94991"><ele>1281.0</ele><time>2026-04-12T10:20:59.195Z</time></trkpt><trkpt lat="37.976735" lon="14.94998"><ele>1281.0</ele><time>2026-04-12T10:21:00.195Z</time></trkpt><trkpt lat="37.9766933" lon="14.9500467"><ele>1281.0</ele><time>2026-04-12T10:21:01.195Z</time></trkpt><trkpt lat="37.9766533" lon="14.950115"><ele>1281.0</ele><time>2026-04-12T10:21:02.194Z</time></trkpt><trkpt lat="37.9766117" lon="14.950185"><ele>1281.0</ele><time>2026-04-12T10:21:03.195Z</time></trkpt><trkpt lat="37.9765733" lon="14.950255"><ele>1279.7142857142858</ele><time>2026-04-12T10:21:04.195Z</time></trkpt><trkpt lat="37.9765317" lon="14.95032"><ele>1278.4285714285716</ele><time>2026-04-12T10:21:05.194Z</time></trkpt><trkpt lat="37.9764917" lon="14.9503833"><ele>1277.142857142857</ele><time>2026-04-12T10:21:06.194Z</time></trkpt><trkpt lat="37.9764533" lon="14.9504467"><ele>1275.857142857143</ele><time>2026-04-12T10:21:07.195Z</time></trkpt><trkpt lat="37.9764117" lon="14.950515"><ele>1274.5714285714287</ele><time>2026-04-12T10:21:08.195Z</time></trkpt><trkpt lat="37.9763717" lon="14.95058"><ele>1273.2857142857142</ele><time>2026-04-12T10:21:09.194Z</time></trkpt><trkpt lat="37.97633" lon="14.9506517"><ele>1272.0</ele><time>2026-04-12T10:21:10.194Z</time></trkpt><trkpt lat="37.97629" lon="14.9507233"><ele>1272.0</ele><time>2026-04-12T10:21:11.195Z</time></trkpt><trkpt lat="37.9762483" lon="14.9507917"><ele>1272.0</ele><time>2026-04-12T10:21:12.193Z</time></trkpt><trkpt lat="37.9762067" lon="14.9508567"><ele>1272.0</ele><time>2026-04-12T10:21:13.194Z</time></trkpt><trkpt lat="37.9761267" lon="14.9509783"><ele>1272.0</ele><time>2026-04-12T10:21:15.194Z</time></trkpt><trkpt lat="37.9760433" lon="14.9510983"><ele>1272.0</ele><time>2026-04-12T10:21:17.196Z</time></trkpt><trkpt lat="37.9759967" lon="14.9511567"><ele>1272.6666666666667</ele><time>2026-04-12T10:21:18.194Z</time></trkpt><trkpt lat="37.9759467" lon="14.9512133"><ele>1273.3333333333333</ele><time>2026-04-12T10:21:19.195Z</time></trkpt><trkpt lat="37.9758967" lon="14.951265"><ele>1274.0</ele><time>2026-04-12T10:21:20.194Z</time></trkpt><trkpt lat="37.9757967" lon="14.95137"><ele>1274.6666666666665</ele><time>2026-04-12T10:21:22.194Z</time></trkpt><trkpt lat="37.9757467" lon="14.9514267"><ele>1275.3333333333333</ele><time>2026-04-12T10:21:23.194Z</time></trkpt><trkpt lat="37.9756967" lon="14.95148"><ele>1276.0</ele><time>2026-04-12T10:21:24.194Z</time></trkpt><trkpt lat="37.9756483" lon="14.9515317"><ele>1274.3999999999999</ele><time>2026-04-12T10:21:25.194Z</time></trkpt><trkpt lat="37.9755583" lon="14.9516383"><ele>1272.8</ele><time>2026-04-12T10:21:27.194Z</time></trkpt><trkpt lat="37.9754717" lon="14.951755"><ele>1271.1999999999998</ele><time>2026-04-12T10:21:29.194Z</time></trkpt><trkpt lat="37.9754283" lon="14.9518183"><ele>1269.6</ele><time>2026-04-12T10:21:30.194Z</time></trkpt><trkpt lat="37.97539" lon="14.9518817"><ele>1268.0</ele><time>2026-04-12T10:21:31.195Z</time></trkpt><trkpt lat="37.9753233" lon="14.9520083"><ele>1268.0</ele><time>2026-04-12T10:21:33.194Z</time></trkpt><trkpt lat="37.97526" lon="14.952135"><ele>1268.0</ele><time>2026-04-12T10:21:35.194Z</time></trkpt><trkpt lat="37.9752033" lon="14.9522583"><ele>1268.0</ele><time>2026-04-12T10:21:37.196Z</time></trkpt><trkpt lat="37.9751517" lon="14.952365"><ele>1268.0</ele><time>2026-04-12T10:21:39.195Z</time></trkpt><trkpt lat="37.975095" lon="14.9524533"><ele>1268.0</ele><time>2026-04-12T10:21:41.193Z</time></trkpt><trkpt lat="37.9750333" lon="14.9525517"><ele>1265.6</ele><time>2026-04-12T10:21:43.193Z</time></trkpt><trkpt lat="37.974955" lon="14.9526467"><ele>1263.1999999999998</ele><time>2026-04-12T10:21:45.193Z</time></trkpt><trkpt lat="37.9748733" lon="14.9527317"><ele>1260.8</ele><time>2026-04-12T10:21:47.194Z</time></trkpt><trkpt lat="37.9747983" lon="14.9528183"><ele>1258.3999999999999</ele><time>2026-04-12T10:21:49.195Z</time></trkpt><trkpt lat="37.974715" lon="14.95288"><ele>1256.0</ele><time>2026-04-12T10:21:51.193Z</time></trkpt><trkpt lat="37.9746333" lon="14.952935"><ele>1256.0</ele><time>2026-04-12T10:21:53.195Z</time></trkpt><trkpt lat="37.9745633" lon="14.9529733"><ele>1256.0</ele><time>2026-04-12T10:21:55.194Z</time></trkpt><trkpt lat="37.974485" lon="14.9530083"><ele>1256.0</ele><time>2026-04-12T10:21:58.194Z</time></trkpt><trkpt lat="37.97442" lon="14.9530233"><ele>1256.0</ele><time>2026-04-12T10:22:36.196Z</time></trkpt><trkpt lat="37.97433" lon="14.9530767"><ele>1256.0</ele><time>2026-04-12T10:22:39.195Z</time></trkpt><trkpt lat="37.97424" lon="14.95311"><ele>1256.0</ele><time>2026-04-12T10:22:41.195Z</time></trkpt><trkpt lat="37.9741267" lon="14.9531333"><ele>1257.2</ele><time>2026-04-12T10:22:43.193Z</time></trkpt><trkpt lat="37.97401" lon="14.9531567"><ele>1258.3999999999999</ele><time>2026-04-12T10:22:45.194Z</time></trkpt><trkpt lat="37.9739" lon="14.9531783"><ele>1259.6</ele><time>2026-04-12T10:22:47.194Z</time></trkpt><trkpt lat="37.9737983" lon="14.9532033"><ele>1260.8</ele><time>2026-04-12T10:22:49.195Z</time></trkpt><trkpt lat="37.9736933" lon="14.9532433"><ele>1262.0</ele><time>2026-04-12T10:22:51.194Z</time></trkpt><trkpt lat="37.9735833" lon="14.9532983"><ele>1262.0</ele><time>2026-04-12T10:22:53.194Z</time></trkpt><trkpt lat="37.973525" lon="14.95333"><ele>1262.0</ele><time>2026-04-12T10:22:54.194Z</time></trkpt><trkpt lat="37.973465" lon="14.9533617"><ele>1262.0</ele><time>2026-04-12T10:22:55.192Z</time></trkpt><trkpt lat="37.9734067" lon="14.9533967"><ele>1262.0</ele><time>2026-04-12T10:22:56.195Z</time></trkpt><trkpt lat="37.9733467" lon="14.9534317"><ele>1262.0</ele><time>2026-04-12T10:22:57.194Z</time></trkpt><trkpt lat="37.973285" lon="14.953465"><ele>1262.0</ele><time>2026-04-12T10:22:58.194Z</time></trkpt><trkpt lat="37.973225" lon="14.9534967"><ele>1262.0</ele><time>2026-04-12T10:22:59.194Z</time></trkpt><trkpt lat="37.973165" lon="14.9535267"><ele>1260.3333333333335</ele><time>2026-04-12T10:23:00.194Z</time></trkpt><trkpt lat="37.9731033" lon="14.9535567"><ele>1258.6666666666667</ele><time>2026-04-12T10:23:01.193Z</time></trkpt><trkpt lat="37.97304" lon="14.95358"><ele>1257.0</ele><time>2026-04-12T10:23:02.196Z</time></trkpt><trkpt lat="37.9729783" lon="14.9535967"><ele>1255.3333333333333</ele><time>2026-04-12T10:23:03.196Z</time></trkpt><trkpt lat="37.9728767" lon="14.9536267"><ele>1253.6666666666665</ele><time>2026-04-12T10:23:05.194Z</time></trkpt><trkpt lat="37.9728017" lon="14.9536367"><ele>1252.0</ele><time>2026-04-12T10:23:07.195Z</time></trkpt><trkpt lat="37.97272" lon="14.95364"><ele>1252.0</ele><time>2026-04-12T10:23:11.193Z</time></trkpt><trkpt lat="37.9726567" lon="14.953645"><ele>1252.0</ele><time>2026-04-12T10:23:13.195Z</time></trkpt><trkpt lat="37.97258" lon="14.9536517"><ele>1252.0</ele><time>2026-04-12T10:23:15.194Z</time></trkpt><trkpt lat="37.9725" lon="14.95366"><ele>1252.0</ele><time>2026-04-12T10:23:17.194Z</time></trkpt><trkpt lat="37.9724117" lon="14.9536667"><ele>1252.0</ele><time>2026-04-12T10:23:19.194Z</time></trkpt><trkpt lat="37.9723217" lon="14.953675"><ele>1252.0</ele><time>2026-04-12T10:23:21.193Z</time></trkpt><trkpt lat="37.9722333" lon="14.9536783"><ele>1251.6666666666665</ele><time>2026-04-12T10:23:23.193Z</time></trkpt><trkpt lat="37.9721483" lon="14.9536767"><ele>1251.3333333333333</ele><time>2026-04-12T10:23:25.193Z</time></trkpt><trkpt lat="37.9720633" lon="14.9536767"><ele>1251.0</ele><time>2026-04-12T10:23:27.192Z</time></trkpt><trkpt lat="37.9719767" lon="14.9536833"><ele>1250.6666666666667</ele><time>2026-04-12T10:23:29.194Z</time></trkpt><trkpt lat="37.9718967" lon="14.95369"><ele>1250.3333333333335</ele><time>2026-04-12T10:23:31.193Z</time></trkpt><trkpt lat="37.9718117" lon="14.9536967"><ele>1250.0</ele><time>2026-04-12T10:23:34.194Z</time></trkpt><trkpt lat="37.9717483" lon="14.9536967"><ele>1252.0</ele><time>2026-04-12T10:23:36.193Z</time></trkpt><trkpt lat="37.971665" lon="14.9536967"><ele>1254.0</ele><time>2026-04-12T10:23:38.196Z</time></trkpt><trkpt lat="37.9715867" lon="14.9536983"><ele>1256.0</ele><time>2026-04-12T10:23:40.194Z</time></trkpt><trkpt lat="37.971505" lon="14.9536767"><ele>1258.0</ele><time>2026-04-12T10:23:43.193Z</time></trkpt><trkpt lat="37.9714333" lon="14.953655"><ele>1260.0</ele><time>2026-04-12T10:26:36.192Z</time></trkpt><trkpt lat="37.971365" lon="14.95368"><ele>1262.0</ele><time>2026-04-12T10:26:40.193Z</time></trkpt><trkpt lat="37.9713017" lon="14.9537167"><ele>1262.0</ele><time>2026-04-12T10:26:42.193Z</time></trkpt><trkpt lat="37.9712367" lon="14.9537217"><ele>1262.0</ele><time>2026-04-12T10:26:44.194Z</time></trkpt><trkpt lat="37.9711683" lon="14.953725"><ele>1262.0</ele><time>2026-04-12T10:26:46.194Z</time></trkpt><trkpt lat="37.971095" lon="14.9537283"><ele>1262.0</ele><time>2026-04-12T10:26:48.192Z</time></trkpt><trkpt lat="37.9710267" lon="14.9537383"><ele>1262.0</ele><time>2026-04-12T10:26:50.195Z</time></trkpt><trkpt lat="37.9709433" lon="14.9537633"><ele>1262.0</ele><time>2026-04-12T10:26:53.193Z</time></trkpt><trkpt lat="37.9708733" lon="14.9537867"><ele>1262.0</ele><time>2026-04-12T10:26:56.194Z</time></trkpt><trkpt lat="37.9708083" lon="14.9538267"><ele>1262.8333333333335</ele><time>2026-04-12T10:26:59.193Z</time></trkpt><trkpt lat="37.9707417" lon="14.9538633"><ele>1263.6666666666667</ele><time>2026-04-12T10:27:02.193Z</time></trkpt><trkpt lat="37.9706733" lon="14.9539117"><ele>1264.5</ele><time>2026-04-12T10:27:04.194Z</time></trkpt><trkpt lat="37.970595" lon="14.9539683"><ele>1265.3333333333333</ele><time>2026-04-12T10:27:06.193Z</time></trkpt><trkpt lat="37.9705133" lon="14.95403"><ele>1266.1666666666665</ele><time>2026-04-12T10:27:08.195Z</time></trkpt><trkpt lat="37.9704367" lon="14.95409"><ele>1267.0</ele><time>2026-04-12T10:27:10.194Z</time></trkpt><trkpt lat="37.9703683" lon="14.95415"><ele>1267.0</ele><time>2026-04-12T10:27:12.193Z</time></trkpt><trkpt lat="37.970295" lon="14.9542033"><ele>1267.0</ele><time>2026-04-12T10:27:14.194Z</time></trkpt><trkpt lat="37.9702283" lon="14.9542467"><ele>1267.0</ele><time>2026-04-12T10:27:16.192Z</time></trkpt><trkpt lat="37.9701517" lon="14.9542967"><ele>1267.0</ele><time>2026-04-12T10:27:18.193Z</time></trkpt><trkpt lat="37.9700583" lon="14.954345"><ele>1267.0</ele><time>2026-04-12T10:27:20.193Z</time></trkpt><trkpt lat="37.9699567" lon="14.9543833"><ele>1268.4</ele><time>2026-04-12T10:27:22.193Z</time></trkpt><trkpt lat="37.96985" lon="14.9544083"><ele>1269.8000000000002</ele><time>2026-04-12T10:27:24.192Z</time></trkpt><trkpt lat="37.96974" lon="14.9544183"><ele>1271.2</ele><time>2026-04-12T10:27:26.195Z</time></trkpt><trkpt lat="37.9696267" lon="14.9544233"><ele>1272.6000000000001</ele><time>2026-04-12T10:27:28.193Z</time></trkpt><trkpt lat="37.9695133" lon="14.954425"><ele>1274.0</ele><time>2026-04-12T10:27:30.193Z</time></trkpt><trkpt lat="37.9693933" lon="14.9544317"><ele>1274.0</ele><time>2026-04-12T10:27:32.195Z</time></trkpt><trkpt lat="37.9692733" lon="14.9544383"><ele>1274.0</ele><time>2026-04-12T10:27:34.194Z</time></trkpt><trkpt lat="37.96915" lon="14.9544383"><ele>1274.0</ele><time>2026-04-12T10:27:36.191Z</time></trkpt><trkpt lat="37.9690867" lon="14.9544417"><ele>1274.0</ele><time>2026-04-12T10:27:37.195Z</time></trkpt><trkpt lat="37.96902" lon="14.9544433"><ele>1274.0</ele><time>2026-04-12T10:27:38.194Z</time></trkpt><trkpt lat="37.9689517" lon="14.9544467"><ele>1274.0</ele><time>2026-04-12T10:27:39.194Z</time></trkpt><trkpt lat="37.9688867" lon="14.9544417"><ele>1273.8</ele><time>2026-04-12T10:27:40.195Z</time></trkpt><trkpt lat="37.9688217" lon="14.9544417"><ele>1273.6000000000001</ele><time>2026-04-12T10:27:41.193Z</time></trkpt><trkpt lat="37.9687567" lon="14.9544433"><ele>1273.4</ele><time>2026-04-12T10:27:42.192Z</time></trkpt><trkpt lat="37.96864" lon="14.9544417"><ele>1273.2</ele><time>2026-04-12T10:27:44.194Z</time></trkpt><trkpt lat="37.968475" lon="14.9544567"><ele>1273.0</ele><time>2026-04-12T10:27:47.193Z</time></trkpt><trkpt lat="37.968365" lon="14.9544617"><ele>1272.5</ele><time>2026-04-12T10:27:49.193Z</time></trkpt><trkpt lat="37.9682467" lon="14.9544683"><ele>1272.0</ele><time>2026-04-12T10:27:51.193Z</time></trkpt><trkpt lat="37.9681233" lon="14.9544833"><ele>1271.5</ele><time>2026-04-12T10:27:53.192Z</time></trkpt><trkpt lat="37.9680567" lon="14.9544867"><ele>1271.0</ele><time>2026-04-12T10:27:54.192Z</time></trkpt><trkpt lat="37.9679867" lon="14.954495"><ele>1270.5</ele><time>2026-04-12T10:27:55.193Z</time></trkpt><trkpt lat="37.9679183" lon="14.9545067"><ele>1270.0</ele><time>2026-04-12T10:27:56.193Z</time></trkpt><trkpt lat="37.96785" lon="14.95452"><ele>1270.0</ele><time>2026-04-12T10:27:57.192Z</time></trkpt><trkpt lat="37.9677783" lon="14.95453"><ele>1270.0</ele><time>2026-04-12T10:27:58.194Z</time></trkpt><trkpt lat="37.9677033" lon="14.95455"><ele>1270.0</ele><time>2026-04-12T10:27:59.192Z</time></trkpt><trkpt lat="37.96763" lon="14.954565"><ele>1270.0</ele><time>2026-04-12T10:28:00.192Z</time></trkpt><trkpt lat="37.967555" lon="14.9545733"><ele>1270.0</ele><time>2026-04-12T10:28:01.191Z</time></trkpt><trkpt lat="37.96748" lon="14.9545833"><ele>1270.0</ele><time>2026-04-12T10:28:02.193Z</time></trkpt><trkpt lat="37.9674033" lon="14.954585"><ele>1268.6666666666665</ele><time>2026-04-12T10:28:03.193Z</time></trkpt><trkpt lat="37.9673233" lon="14.9545817"><ele>1267.3333333333333</ele><time>2026-04-12T10:28:04.192Z</time></trkpt><trkpt lat="37.967245" lon="14.9545717"><ele>1266.0</ele><time>2026-04-12T10:28:05.193Z</time></trkpt><trkpt lat="37.9671617" lon="14.9545683"><ele>1264.6666666666667</ele><time>2026-04-12T10:28:06.193Z</time></trkpt><trkpt lat="37.967085" lon="14.954565"><ele>1263.3333333333335</ele><time>2026-04-12T10:28:07.194Z</time></trkpt><trkpt lat="37.967005" lon="14.9545717"><ele>1262.0</ele><time>2026-04-12T10:28:08.195Z</time></trkpt><trkpt lat="37.966925" lon="14.9545667"><ele>1262.0</ele><time>2026-04-12T10:28:09.192Z</time></trkpt><trkpt lat="37.966845" lon="14.9545617"><ele>1262.0</ele><time>2026-04-12T10:28:10.193Z</time></trkpt><trkpt lat="37.966765" lon="14.954555"><ele>1262.0</ele><time>2026-04-12T10:28:11.194Z</time></trkpt><trkpt lat="37.9666833" lon="14.954565"><ele>1262.0</ele><time>2026-04-12T10:28:12.194Z</time></trkpt><trkpt lat="37.966605" lon="14.954585"><ele>1262.0</ele><time>2026-04-12T10:28:13.194Z</time></trkpt><trkpt lat="37.9665317" lon="14.9546267"><ele>1262.0</ele><time>2026-04-12T10:28:14.195Z</time></trkpt><trkpt lat="37.9664567" lon="14.954685"><ele>1259.8333333333335</ele><time>2026-04-12T10:28:15.193Z</time></trkpt><trkpt lat="37.9663833" lon="14.954745"><ele>1257.6666666666667</ele><time>2026-04-12T10:28:16.193Z</time></trkpt><trkpt lat="37.9663117" lon="14.9548083"><ele>1255.5</ele><time>2026-04-12T10:28:17.194Z</time></trkpt><trkpt lat="37.9662383" lon="14.95488"><ele>1253.3333333333333</ele><time>2026-04-12T10:28:18.194Z</time></trkpt><trkpt lat="37.9661667" lon="14.954935"><ele>1251.1666666666665</ele><time>2026-04-12T10:28:19.194Z</time></trkpt><trkpt lat="37.966095" lon="14.9549933"><ele>1249.0</ele><time>2026-04-12T10:28:20.196Z</time></trkpt><trkpt lat="37.9660167" lon="14.9550417"><ele>1248.8</ele><time>2026-04-12T10:28:21.195Z</time></trkpt><trkpt lat="37.9659367" lon="14.9550817"><ele>1248.6000000000001</ele><time>2026-04-12T10:28:22.195Z</time></trkpt><trkpt lat="37.965855" lon="14.9551217"><ele>1248.4</ele><time>2026-04-12T10:28:23.195Z</time></trkpt><trkpt lat="37.9657717" lon="14.9551767"><ele>1248.2</ele><time>2026-04-12T10:28:24.194Z</time></trkpt><trkpt lat="37.96569" lon="14.9552367"><ele>1248.0</ele><time>2026-04-12T10:28:25.195Z</time></trkpt><trkpt lat="37.9656083" lon="14.9552983"><ele>1244.8</ele><time>2026-04-12T10:28:26.195Z</time></trkpt><trkpt lat="37.9655233" lon="14.955355"><ele>1241.6</ele><time>2026-04-12T10:28:27.195Z</time></trkpt><trkpt lat="37.9654383" lon="14.9554067"><ele>1238.4</ele><time>2026-04-12T10:28:28.194Z</time></trkpt><trkpt lat="37.965355" lon="14.9554517"><ele>1235.2</ele><time>2026-04-12T10:28:29.194Z</time></trkpt><trkpt lat="37.96527" lon="14.9555"><ele>1232.0</ele><time>2026-04-12T10:28:30.193Z</time></trkpt><trkpt lat="37.9651883" lon="14.9555383"><ele>1232.0</ele><time>2026-04-12T10:28:31.194Z</time></trkpt><trkpt lat="37.9650983" lon="14.9555733"><ele>1232.0</ele><time>2026-04-12T10:28:32.194Z</time></trkpt><trkpt lat="37.965005" lon="14.955595"><ele>1232.0</ele><time>2026-04-12T10:28:33.194Z</time></trkpt><trkpt lat="37.96491" lon="14.9556083"><ele>1232.0</ele><time>2026-04-12T10:28:34.194Z</time></trkpt><trkpt lat="37.9648183" lon="14.9556167"><ele>1232.0</ele><time>2026-04-12T10:28:35.193Z</time></trkpt><trkpt lat="37.964725" lon="14.955635"><ele>1232.0</ele><time>2026-04-12T10:28:36.192Z</time></trkpt><trkpt lat="37.96463" lon="14.9556567"><ele>1232.0</ele><time>2026-04-12T10:28:37.193Z</time></trkpt><trkpt lat="37.9645333" lon="14.9556883"><ele>1232.0</ele><time>2026-04-12T10:28:38.194Z</time></trkpt><trkpt lat="37.9644367" lon="14.95572"><ele>1232.0</ele><time>2026-04-12T10:28:39.193Z</time></trkpt><trkpt lat="37.96434" lon="14.9557533"><ele>1232.0</ele><time>2026-04-12T10:28:40.193Z</time></trkpt><trkpt lat="37.9642467" lon="14.955785"><ele>1231.2</ele><time>2026-04-12T10:28:41.194Z</time></trkpt><trkpt lat="37.96415" lon="14.95581"><ele>1230.4</ele><time>2026-04-12T10:28:42.194Z</time></trkpt><trkpt lat="37.9640467" lon="14.9558383"><ele>1229.6</ele><time>2026-04-12T10:28:43.192Z</time></trkpt><trkpt lat="37.9639433" lon="14.9558633"><ele>1228.8</ele><time>2026-04-12T10:28:44.194Z</time></trkpt><trkpt lat="37.96384" lon="14.9558817"><ele>1228.0</ele><time>2026-04-12T10:28:45.194Z</time></trkpt><trkpt lat="37.963735" lon="14.9558917"><ele>1226.8</ele><time>2026-04-12T10:28:46.193Z</time></trkpt><trkpt lat="37.9636283" lon="14.955895"><ele>1225.6</ele><time>2026-04-12T10:28:47.196Z</time></trkpt><trkpt lat="37.96352" lon="14.9558933"><ele>1224.4</ele><time>2026-04-12T10:28:48.196Z</time></trkpt><trkpt lat="37.96341" lon="14.9558983"><ele>1223.2</ele><time>2026-04-12T10:28:49.196Z</time></trkpt><trkpt lat="37.9632967" lon="14.95591"><ele>1222.0</ele><time>2026-04-12T10:28:50.197Z</time></trkpt><trkpt lat="37.9631833" lon="14.9559183"><ele>1222.75</ele><time>2026-04-12T10:28:51.195Z</time></trkpt><trkpt lat="37.9630683" lon="14.9559117"><ele>1223.5</ele><time>2026-04-12T10:28:52.195Z</time></trkpt><trkpt lat="37.962955" lon="14.95589"><ele>1224.25</ele><time>2026-04-12T10:28:53.195Z</time></trkpt><trkpt lat="37.9628467" lon="14.9558417"><ele>1225.0</ele><time>2026-04-12T10:28:54.196Z</time></trkpt><trkpt lat="37.9627333" lon="14.9557717"><ele>1225.0</ele><time>2026-04-12T10:28:55.194Z</time></trkpt><trkpt lat="37.9626283" lon="14.9556933"><ele>1225.0</ele><time>2026-04-12T10:28:56.196Z</time></trkpt><trkpt lat="37.9625367" lon="14.955605"><ele>1225.0</ele><time>2026-04-12T10:28:57.195Z</time></trkpt><trkpt lat="37.9624483" lon="14.9555167"><ele>1225.0</ele><time>2026-04-12T10:28:58.196Z</time></trkpt><trkpt lat="37.962365" lon="14.9554283"><ele>1225.2</ele><time>2026-04-12T10:28:59.194Z</time></trkpt><trkpt lat="37.9622867" lon="14.955335"><ele>1225.4</ele><time>2026-04-12T10:29:00.195Z</time></trkpt><trkpt lat="37.9622083" lon="14.9552417"><ele>1225.6</ele><time>2026-04-12T10:29:01.194Z</time></trkpt><trkpt lat="37.9621267" lon="14.9551567"><ele>1225.8</ele><time>2026-04-12T10:29:02.194Z</time></trkpt><trkpt lat="37.9620467" lon="14.955075"><ele>1226.0</ele><time>2026-04-12T10:29:03.194Z</time></trkpt><trkpt lat="37.961965" lon="14.955"><ele>1226.2</ele><time>2026-04-12T10:29:04.194Z</time></trkpt><trkpt lat="37.9618833" lon="14.9549283"><ele>1226.3999999999999</ele><time>2026-04-12T10:29:05.194Z</time></trkpt><trkpt lat="37.9617983" lon="14.954865"><ele>1226.6</ele><time>2026-04-12T10:29:06.193Z</time></trkpt><trkpt lat="37.9617083" lon="14.9548117"><ele>1226.8</ele><time>2026-04-12T10:29:07.193Z</time></trkpt><trkpt lat="37.9616183" lon="14.9547667"><ele>1227.0</ele><time>2026-04-12T10:29:08.194Z</time></trkpt><trkpt lat="37.96153" lon="14.9547317"><ele>1226.3333333333333</ele><time>2026-04-12T10:29:09.194Z</time></trkpt><trkpt lat="37.9614483" lon="14.9546967"><ele>1225.6666666666667</ele><time>2026-04-12T10:29:10.192Z</time></trkpt><trkpt lat="37.9613667" lon="14.9546667"><ele>1225.0</ele><time>2026-04-12T10:29:11.193Z</time></trkpt><trkpt lat="37.9612867" lon="14.954645"><ele>1224.3333333333335</ele><time>2026-04-12T10:29:12.193Z</time></trkpt><trkpt lat="37.96121" lon="14.954615"><ele>1223.6666666666667</ele><time>2026-04-12T10:29:13.193Z</time></trkpt><trkpt lat="37.961135" lon="14.95459"><ele>1223.0</ele><time>2026-04-12T10:29:14.193Z</time></trkpt><trkpt lat="37.96106" lon="14.9545667"><ele>1223.0</ele><time>2026-04-12T10:29:15.194Z</time></trkpt><trkpt lat="37.96098" lon="14.9545467"><ele>1223.0</ele><time>2026-04-12T10:29:16.193Z</time></trkpt><trkpt lat="37.9609017" lon="14.9545233"><ele>1223.0</ele><time>2026-04-12T10:29:17.194Z</time></trkpt><trkpt lat="37.9608233" lon="14.9545033"><ele>1223.0</ele><time>2026-04-12T10:29:18.193Z</time></trkpt><trkpt lat="37.9607467" lon="14.9544817"><ele>1223.0</ele><time>2026-04-12T10:29:19.194Z</time></trkpt><trkpt lat="37.96067" lon="14.9544583"><ele>1223.0</ele><time>2026-04-12T10:29:20.193Z</time></trkpt><trkpt lat="37.9605967" lon="14.9544333"><ele>1222.2857142857142</ele><time>2026-04-12T10:29:21.193Z</time></trkpt><trkpt lat="37.960525" lon="14.954405"><ele>1221.5714285714287</ele><time>2026-04-12T10:29:22.193Z</time></trkpt><trkpt lat="37.9604533" lon="14.95438"><ele>1220.857142857143</ele><time>2026-04-12T10:29:23.193Z</time></trkpt><trkpt lat="37.960385" lon="14.954355"><ele>1220.142857142857</ele><time>2026-04-12T10:29:24.194Z</time></trkpt><trkpt lat="37.960315" lon="14.9543267"><ele>1219.4285714285716</ele><time>2026-04-12T10:29:25.192Z</time></trkpt><trkpt lat="37.9602433" lon="14.9543033"><ele>1218.7142857142858</ele><time>2026-04-12T10:29:26.194Z</time></trkpt><trkpt lat="37.9601733" lon="14.9542817"><ele>1218.0</ele><time>2026-04-12T10:29:27.193Z</time></trkpt><trkpt lat="37.9601033" lon="14.9542633"><ele>1217.0</ele><time>2026-04-12T10:29:28.193Z</time></trkpt><trkpt lat="37.9600333" lon="14.954245"><ele>1216.0</ele><time>2026-04-12T10:29:29.192Z</time></trkpt><trkpt lat="37.959965" lon="14.95423"><ele>1215.0</ele><time>2026-04-12T10:29:30.194Z</time></trkpt><trkpt lat="37.9598967" lon="14.9542183"><ele>1214.0</ele><time>2026-04-12T10:29:31.193Z</time></trkpt><trkpt lat="37.95983" lon="14.95421"><ele>1213.0</ele><time>2026-04-12T10:29:32.194Z</time></trkpt><trkpt lat="37.95976" lon="14.9542033"><ele>1212.0</ele><time>2026-04-12T10:29:33.193Z</time></trkpt><trkpt lat="37.9596917" lon="14.9541983"><ele>1211.0</ele><time>2026-04-12T10:29:34.192Z</time></trkpt><trkpt lat="37.95962" lon="14.9541967"><ele>1210.857142857143</ele><time>2026-04-12T10:29:35.193Z</time></trkpt><trkpt lat="37.95955" lon="14.954195"><ele>1210.7142857142858</ele><time>2026-04-12T10:29:36.192Z</time></trkpt><trkpt lat="37.9594783" lon="14.954195"><ele>1210.5714285714284</ele><time>2026-04-12T10:29:37.193Z</time></trkpt><trkpt lat="37.95941" lon="14.9541967"><ele>1210.4285714285716</ele><time>2026-04-12T10:29:38.194Z</time></trkpt><trkpt lat="37.9593433" lon="14.954195"><ele>1210.2857142857142</ele><time>2026-04-12T10:29:39.193Z</time></trkpt><trkpt lat="37.959275" lon="14.9541983"><ele>1210.142857142857</ele><time>2026-04-12T10:29:40.193Z</time></trkpt><trkpt lat="37.9592067" lon="14.9541983"><ele>1210.0</ele><time>2026-04-12T10:29:41.193Z</time></trkpt><trkpt lat="37.95914" lon="14.9541917"><ele>1209.857142857143</ele><time>2026-04-12T10:29:42.194Z</time></trkpt><trkpt lat="37.959075" lon="14.9541833"><ele>1209.7142857142858</ele><time>2026-04-12T10:29:43.193Z</time></trkpt><trkpt lat="37.9590083" lon="14.9541817"><ele>1209.5714285714284</ele><time>2026-04-12T10:29:44.194Z</time></trkpt><trkpt lat="37.9589417" lon="14.95418"><ele>1209.4285714285716</ele><time>2026-04-12T10:29:45.193Z</time></trkpt><trkpt lat="37.9588767" lon="14.95418"><ele>1209.2857142857144</ele><time>2026-04-12T10:29:46.195Z</time></trkpt><trkpt lat="37.9588133" lon="14.9541767"><ele>1209.142857142857</ele><time>2026-04-12T10:29:47.194Z</time></trkpt><trkpt lat="37.95875" lon="14.954175"><ele>1209.0</ele><time>2026-04-12T10:29:48.194Z</time></trkpt><trkpt lat="37.9586267" lon="14.954175"><ele>1209.0</ele><time>2026-04-12T10:29:50.193Z</time></trkpt><trkpt lat="37.958515" lon="14.9541667"><ele>1209.0</ele><time>2026-04-12T10:29:52.193Z</time></trkpt><trkpt lat="37.9584017" lon="14.9541817"><ele>1209.0</ele><time>2026-04-12T10:29:54.194Z</time></trkpt><trkpt lat="37.9582983" lon="14.95419"><ele>1209.0</ele><time>2026-04-12T10:29:56.194Z</time></trkpt><trkpt lat="37.95819" lon="14.9542067"><ele>1209.0</ele><time>2026-04-12T10:29:58.192Z</time></trkpt><trkpt lat="37.9580817" lon="14.9542283"><ele>1213.4</ele><time>2026-04-12T10:30:00.193Z</time></trkpt><trkpt lat="37.9579633" lon="14.9542467"><ele>1217.8000000000002</ele><time>2026-04-12T10:30:02.194Z</time></trkpt><trkpt lat="37.9579" lon="14.9542517"><ele>1222.1999999999998</ele><time>2026-04-12T10:30:03.194Z</time></trkpt><trkpt lat="37.957775" lon="14.9542467"><ele>1226.6</ele><time>2026-04-12T10:30:05.195Z</time></trkpt><trkpt lat="37.95771" lon="14.9542533"><ele>1231.0</ele><time>2026-04-12T10:30:06.195Z</time></trkpt><trkpt lat="37.9575833" lon="14.954255"><ele>1231.142857142857</ele><time>2026-04-12T10:30:08.193Z</time></trkpt><trkpt lat="37.957515" lon="14.95425"><ele>1231.2857142857142</ele><time>2026-04-12T10:30:09.193Z</time></trkpt><trkpt lat="37.957445" lon="14.9542483"><ele>1231.4285714285716</ele><time>2026-04-12T10:30:10.193Z</time></trkpt><trkpt lat="37.9573733" lon="14.9542517"><ele>1231.5714285714284</ele><time>2026-04-12T10:30:11.194Z</time></trkpt><trkpt lat="37.9573017" lon="14.9542533"><ele>1231.7142857142858</ele><time>2026-04-12T10:30:12.193Z</time></trkpt><trkpt lat="37.95723" lon="14.95426"><ele>1231.857142857143</ele><time>2026-04-12T10:30:13.194Z</time></trkpt><trkpt lat="37.95716" lon="14.9542633"><ele>1232.0</ele><time>2026-04-12T10:30:14.194Z</time></trkpt><trkpt lat="37.95709" lon="14.9542667"><ele>1232.0</ele><time>2026-04-12T10:30:15.192Z</time></trkpt><trkpt lat="37.9570217" lon="14.9542667"><ele>1232.0</ele><time>2026-04-12T10:30:16.193Z</time></trkpt><trkpt lat="37.956955" lon="14.9542683"><ele>1232.0</ele><time>2026-04-12T10:30:17.192Z</time></trkpt><trkpt lat="37.9568883" lon="14.9542817"><ele>1232.0</ele><time>2026-04-12T10:30:18.193Z</time></trkpt><trkpt lat="37.956825" lon="14.954305"><ele>1232.0</ele><time>2026-04-12T10:30:19.193Z</time></trkpt><trkpt lat="37.956765" lon="14.9543383"><ele>1232.0</ele><time>2026-04-12T10:30:20.193Z</time></trkpt><trkpt lat="37.9567083" lon="14.95438"><ele>1232.0</ele><time>2026-04-12T10:30:21.193Z</time></trkpt><trkpt lat="37.956655" lon="14.954425"><ele>1230.5714285714287</ele><time>2026-04-12T10:30:22.192Z</time></trkpt><trkpt lat="37.9566067" lon="14.9544783"><ele>1229.142857142857</ele><time>2026-04-12T10:30:23.193Z</time></trkpt><trkpt lat="37.95656" lon="14.9545333"><ele>1227.7142857142858</ele><time>2026-04-12T10:30:24.193Z</time></trkpt><trkpt lat="37.95651" lon="14.9545917"><ele>1226.2857142857142</ele><time>2026-04-12T10:30:25.192Z</time></trkpt><trkpt lat="37.9564583" lon="14.954645"><ele>1224.857142857143</ele><time>2026-04-12T10:30:26.194Z</time></trkpt><trkpt lat="37.956405" lon="14.9546933"><ele>1223.4285714285716</ele><time>2026-04-12T10:30:27.193Z</time></trkpt><trkpt lat="37.95635" lon="14.954735"><ele>1222.0</ele><time>2026-04-12T10:30:28.194Z</time></trkpt><trkpt lat="37.956245" lon="14.9548083"><ele>1222.0</ele><time>2026-04-12T10:30:30.193Z</time></trkpt><trkpt lat="37.9561383" lon="14.9548717"><ele>1222.0</ele><time>2026-04-12T10:30:32.195Z</time></trkpt><trkpt lat="37.9560217" lon="14.9549317"><ele>1222.0</ele><time>2026-04-12T10:30:34.194Z</time></trkpt><trkpt lat="37.9559633" lon="14.9549633"><ele>1222.0</ele><time>2026-04-12T10:30:35.193Z</time></trkpt><trkpt lat="37.9559067" lon="14.955005"><ele>1222.0</ele><time>2026-04-12T10:30:36.193Z</time></trkpt><trkpt lat="37.9558533" lon="14.95505"><ele>1222.0</ele><time>2026-04-12T10:30:37.194Z</time></trkpt><trkpt lat="37.9558017" lon="14.9551033"><ele>1222.5714285714287</ele><time>2026-04-12T10:30:38.193Z</time></trkpt><trkpt lat="37.9557533" lon="14.9551667"><ele>1223.142857142857</ele><time>2026-04-12T10:30:39.194Z</time></trkpt><trkpt lat="37.9557017" lon="14.9552233"><ele>1223.7142857142858</ele><time>2026-04-12T10:30:40.194Z</time></trkpt><trkpt lat="37.9556467" lon="14.95528"><ele>1224.2857142857142</ele><time>2026-04-12T10:30:41.194Z</time></trkpt><trkpt lat="37.9555883" lon="14.9553383"><ele>1224.857142857143</ele><time>2026-04-12T10:30:42.194Z</time></trkpt><trkpt lat="37.95552" lon="14.9553867"><ele>1225.4285714285716</ele><time>2026-04-12T10:30:43.192Z</time></trkpt><trkpt lat="37.9554517" lon="14.9554233"><ele>1226.0</ele><time>2026-04-12T10:30:44.195Z</time></trkpt><trkpt lat="37.9553817" lon="14.9554567"><ele>1226.0</ele><time>2026-04-12T10:30:45.195Z</time></trkpt><trkpt lat="37.95531" lon="14.9554817"><ele>1226.0</ele><time>2026-04-12T10:30:46.195Z</time></trkpt><trkpt lat="37.9552383" lon="14.9555067"><ele>1226.0</ele><time>2026-04-12T10:30:47.195Z</time></trkpt><trkpt lat="37.955165" lon="14.9555333"><ele>1226.0</ele><time>2026-04-12T10:30:48.194Z</time></trkpt><trkpt lat="37.9550917" lon="14.95556"><ele>1226.0</ele><time>2026-04-12T10:30:49.194Z</time></trkpt><trkpt lat="37.95502" lon="14.955585"><ele>1226.0</ele><time>2026-04-12T10:30:50.195Z</time></trkpt><trkpt lat="37.9549483" lon="14.9556133"><ele>1227.1666666666667</ele><time>2026-04-12T10:30:51.192Z</time></trkpt><trkpt lat="37.9548783" lon="14.9556417"><ele>1228.3333333333335</ele><time>2026-04-12T10:30:52.193Z</time></trkpt><trkpt lat="37.954805" lon="14.9556767"><ele>1229.5</ele><time>2026-04-12T10:30:53.193Z</time></trkpt><trkpt lat="37.9547333" lon="14.9557117"><ele>1230.6666666666667</ele><time>2026-04-12T10:30:54.194Z</time></trkpt><trkpt lat="37.9546667" lon="14.9557583"><ele>1231.8333333333333</ele><time>2026-04-12T10:30:55.192Z</time></trkpt><trkpt lat="37.9546017" lon="14.9558133"><ele>1233.0</ele><time>2026-04-12T10:30:56.193Z</time></trkpt><trkpt lat="37.954535" lon="14.9558767"><ele>1233.0</ele><time>2026-04-12T10:30:57.193Z</time></trkpt><trkpt lat="37.9544633" lon="14.95594"><ele>1233.0</ele><time>2026-04-12T10:30:58.192Z</time></trkpt><trkpt lat="37.9543983" lon="14.9560033"><ele>1233.0</ele><time>2026-04-12T10:30:59.194Z</time></trkpt><trkpt lat="37.9543317" lon="14.9560617"><ele>1233.0</ele><time>2026-04-12T10:31:00.193Z</time></trkpt><trkpt lat="37.9542617" lon="14.956115"><ele>1233.0</ele><time>2026-04-12T10:31:01.193Z</time></trkpt><trkpt lat="37.954195" lon="14.95617"><ele>1233.0</ele><time>2026-04-12T10:31:02.194Z</time></trkpt><trkpt lat="37.95413" lon="14.956225"><ele>1228.3333333333333</ele><time>2026-04-12T10:31:03.193Z</time></trkpt><trkpt lat="37.9540617" lon="14.9562833"><ele>1223.6666666666667</ele><time>2026-04-12T10:31:04.193Z</time></trkpt><trkpt lat="37.9539933" lon="14.9563383"><ele>1219.0</ele><time>2026-04-12T10:31:05.192Z</time></trkpt><trkpt lat="37.9539283" lon="14.9563917"><ele>1214.3333333333335</ele><time>2026-04-12T10:31:06.192Z</time></trkpt><trkpt lat="37.95387" lon="14.9564467"><ele>1209.6666666666667</ele><time>2026-04-12T10:31:07.193Z</time></trkpt><trkpt lat="37.953815" lon="14.9565183"><ele>1205.0</ele><time>2026-04-12T10:31:08.194Z</time></trkpt><trkpt lat="37.9537683" lon="14.956595"><ele>1205.0</ele><time>2026-04-12T10:31:09.194Z</time></trkpt><trkpt lat="37.9537317" lon="14.956675"><ele>1205.0</ele><time>2026-04-12T10:31:10.193Z</time></trkpt><trkpt lat="37.9536967" lon="14.9567617"><ele>1205.0</ele><time>2026-04-12T10:31:11.193Z</time></trkpt><trkpt lat="37.9536667" lon="14.956855"><ele>1205.0</ele><time>2026-04-12T10:31:12.193Z</time></trkpt><trkpt lat="37.953635" lon="14.956945"><ele>1205.0</ele><time>2026-04-12T10:31:13.193Z</time></trkpt><trkpt lat="37.9536033" lon="14.957035"><ele>1205.0</ele><time>2026-04-12T10:31:14.195Z</time></trkpt><trkpt lat="37.9535633" lon="14.9571167"><ele>1204.1666666666667</ele><time>2026-04-12T10:31:15.192Z</time></trkpt><trkpt lat="37.9535133" lon="14.9571917"><ele>1203.3333333333335</ele><time>2026-04-12T10:31:16.193Z</time></trkpt><trkpt lat="37.9534533" lon="14.9572583"><ele>1202.5</ele><time>2026-04-12T10:31:17.193Z</time></trkpt><trkpt lat="37.953385" lon="14.9573183"><ele>1201.6666666666667</ele><time>2026-04-12T10:31:18.192Z</time></trkpt><trkpt lat="37.9533117" lon="14.95737"><ele>1200.8333333333333</ele><time>2026-04-12T10:31:19.193Z</time></trkpt><trkpt lat="37.9532333" lon="14.9574133"><ele>1200.0</ele><time>2026-04-12T10:31:20.192Z</time></trkpt><trkpt lat="37.9531517" lon="14.95744"><ele>1200.0</ele><time>2026-04-12T10:31:21.194Z</time></trkpt><trkpt lat="37.9530683" lon="14.9574567"><ele>1200.0</ele><time>2026-04-12T10:31:22.193Z</time></trkpt><trkpt lat="37.952985" lon="14.95747"><ele>1200.0</ele><time>2026-04-12T10:31:23.192Z</time></trkpt><trkpt lat="37.9528983" lon="14.9574833"><ele>1200.0</ele><time>2026-04-12T10:31:24.192Z</time></trkpt><trkpt lat="37.9528167" lon="14.957495"><ele>1200.0</ele><time>2026-04-12T10:31:25.195Z</time></trkpt><trkpt lat="37.9527333" lon="14.95751"><ele>1200.0</ele><time>2026-04-12T10:31:26.192Z</time></trkpt><trkpt lat="37.95265" lon="14.95752"><ele>1200.0</ele><time>2026-04-12T10:31:27.193Z</time></trkpt><trkpt lat="37.9525667" lon="14.9575317"><ele>1200.0</ele><time>2026-04-12T10:31:28.194Z</time></trkpt><trkpt lat="37.9524817" lon="14.95754"><ele>1200.0</ele><time>2026-04-12T10:31:29.195Z</time></trkpt><trkpt lat="37.9523967" lon="14.9575483"><ele>1200.0</ele><time>2026-04-12T10:31:30.195Z</time></trkpt><trkpt lat="37.9523133" lon="14.9575517"><ele>1200.0</ele><time>2026-04-12T10:31:31.194Z</time></trkpt><trkpt lat="37.95223" lon="14.9575517"><ele>1200.0</ele><time>2026-04-12T10:31:32.195Z</time></trkpt><trkpt lat="37.9521467" lon="14.95755"><ele>1197.8571428571427</ele><time>2026-04-12T10:31:33.194Z</time></trkpt><trkpt lat="37.952065" lon="14.957545"><ele>1195.7142857142858</ele><time>2026-04-12T10:31:34.197Z</time></trkpt><trkpt lat="37.9519867" lon="14.957535"><ele>1193.5714285714284</ele><time>2026-04-12T10:31:35.195Z</time></trkpt><trkpt lat="37.9519117" lon="14.9575167"><ele>1191.4285714285713</ele><time>2026-04-12T10:31:36.195Z</time></trkpt><trkpt lat="37.95184" lon="14.9574967"><ele>1189.2857142857142</ele><time>2026-04-12T10:31:37.194Z</time></trkpt><trkpt lat="37.95177" lon="14.9574867"><ele>1187.142857142857</ele><time>2026-04-12T10:31:38.195Z</time></trkpt><trkpt lat="37.9517017" lon="14.9574833"><ele>1185.0</ele><time>2026-04-12T10:31:39.195Z</time></trkpt><trkpt lat="37.9516367" lon="14.95749"><ele>1183.8333333333333</ele><time>2026-04-12T10:31:40.194Z</time></trkpt><trkpt lat="37.95157" lon="14.9575017"><ele>1182.6666666666667</ele><time>2026-04-12T10:31:41.195Z</time></trkpt><trkpt lat="37.9515067" lon="14.9575183"><ele>1181.5</ele><time>2026-04-12T10:31:42.195Z</time></trkpt><trkpt lat="37.9514417" lon="14.95753"><ele>1180.3333333333335</ele><time>2026-04-12T10:31:43.194Z</time></trkpt><trkpt lat="37.9513783" lon="14.9575483"><ele>1179.1666666666667</ele><time>2026-04-12T10:31:44.195Z</time></trkpt><trkpt lat="37.95126" lon="14.957595"><ele>1178.0</ele><time>2026-04-12T10:31:46.195Z</time></trkpt><trkpt lat="37.9511383" lon="14.9576517"><ele>1177.5</ele><time>2026-04-12T10:31:48.194Z</time></trkpt><trkpt lat="37.951075" lon="14.95769"><ele>1177.0</ele><time>2026-04-12T10:31:49.194Z</time></trkpt><trkpt lat="37.951015" lon="14.957725"><ele>1176.5</ele><time>2026-04-12T10:31:50.193Z</time></trkpt><trkpt lat="37.9509567" lon="14.9577583"><ele>1176.0</ele><time>2026-04-12T10:31:51.194Z</time></trkpt><trkpt lat="37.9508483" lon="14.9578333"><ele>1175.5</ele><time>2026-04-12T10:31:53.193Z</time></trkpt><trkpt lat="37.9507917" lon="14.9578683"><ele>1175.0</ele><time>2026-04-12T10:31:54.193Z</time></trkpt><trkpt lat="37.950735" lon="14.957905"><ele>1175.0</ele><time>2026-04-12T10:31:55.193Z</time></trkpt><trkpt lat="37.950625" lon="14.9579783"><ele>1175.0</ele><time>2026-04-12T10:31:57.193Z</time></trkpt><trkpt lat="37.9505667" lon="14.9580167"><ele>1175.0</ele><time>2026-04-12T10:31:58.195Z</time></trkpt><trkpt lat="37.95051" lon="14.9580567"><ele>1175.0</ele><time>2026-04-12T10:31:59.196Z</time></trkpt><trkpt lat="37.9504533" lon="14.9581033"><ele>1175.0</ele><time>2026-04-12T10:32:00.196Z</time></trkpt><trkpt lat="37.9503983" lon="14.9581467"><ele>1175.0</ele><time>2026-04-12T10:32:01.195Z</time></trkpt><trkpt lat="37.95029" lon="14.9582283"><ele>1175.0</ele><time>2026-04-12T10:32:03.196Z</time></trkpt><trkpt lat="37.9502367" lon="14.9582733"><ele>1175.0</ele><time>2026-04-12T10:32:04.196Z</time></trkpt><trkpt lat="37.9501833" lon="14.9583183"><ele>1175.0</ele><time>2026-04-12T10:32:05.196Z</time></trkpt><trkpt lat="37.9501333" lon="14.9583683"><ele>1175.0</ele><time>2026-04-12T10:32:06.195Z</time></trkpt><trkpt lat="37.9500833" lon="14.9584183"><ele>1175.0</ele><time>2026-04-12T10:32:07.196Z</time></trkpt><trkpt lat="37.9500333" lon="14.9584717"><ele>1175.0</ele><time>2026-04-12T10:32:08.196Z</time></trkpt><trkpt lat="37.949985" lon="14.9585267"><ele>1175.0</ele><time>2026-04-12T10:32:09.194Z</time></trkpt><trkpt lat="37.949935" lon="14.9585817"><ele>1174.142857142857</ele><time>2026-04-12T10:32:10.196Z</time></trkpt><trkpt lat="37.9498817" lon="14.958635"><ele>1173.2857142857142</ele><time>2026-04-12T10:32:11.194Z</time></trkpt><trkpt lat="37.949825" lon="14.9586817"><ele>1172.4285714285716</ele><time>2026-04-12T10:32:12.194Z</time></trkpt><trkpt lat="37.9497667" lon="14.95873"><ele>1171.5714285714284</ele><time>2026-04-12T10:32:13.196Z</time></trkpt><trkpt lat="37.9497083" lon="14.9587717"><ele>1170.7142857142858</ele><time>2026-04-12T10:32:14.194Z</time></trkpt><trkpt lat="37.94965" lon="14.9588117"><ele>1169.857142857143</ele><time>2026-04-12T10:32:15.193Z</time></trkpt><trkpt lat="37.94959" lon="14.9588517"><ele>1169.0</ele><time>2026-04-12T10:32:16.193Z</time></trkpt><trkpt lat="37.94953" lon="14.95889"><ele>1169.0</ele><time>2026-04-12T10:32:17.192Z</time></trkpt><trkpt lat="37.9494717" lon="14.95893"><ele>1169.0</ele><time>2026-04-12T10:32:18.193Z</time></trkpt><trkpt lat="37.949415" lon="14.95897"><ele>1169.0</ele><time>2026-04-12T10:32:19.195Z</time></trkpt><trkpt lat="37.9493567" lon="14.959015"><ele>1169.0</ele><time>2026-04-12T10:32:20.194Z</time></trkpt><trkpt lat="37.9493" lon="14.95906"><ele>1169.0</ele><time>2026-04-12T10:32:21.192Z</time></trkpt><trkpt lat="37.9492417" lon="14.9591"><ele>1169.0</ele><time>2026-04-12T10:32:22.192Z</time></trkpt><trkpt lat="37.9491833" lon="14.9591417"><ele>1169.0</ele><time>2026-04-12T10:32:23.193Z</time></trkpt><trkpt lat="37.9490767" lon="14.9592267"><ele>1168.4285714285713</ele><time>2026-04-12T10:32:25.194Z</time></trkpt><trkpt lat="37.9490233" lon="14.959275"><ele>1167.857142857143</ele><time>2026-04-12T10:32:26.194Z</time></trkpt><trkpt lat="37.9489683" lon="14.9593267"><ele>1167.2857142857142</ele><time>2026-04-12T10:32:27.194Z</time></trkpt><trkpt lat="37.948915" lon="14.9593883"><ele>1166.7142857142858</ele><time>2026-04-12T10:32:28.195Z</time></trkpt><trkpt lat="37.9488633" lon="14.95945"><ele>1166.142857142857</ele><time>2026-04-12T10:32:29.195Z</time></trkpt><trkpt lat="37.9488183" lon="14.9595167"><ele>1165.5714285714284</ele><time>2026-04-12T10:32:30.196Z</time></trkpt><trkpt lat="37.9487767" lon="14.95959"><ele>1165.0</ele><time>2026-04-12T10:32:31.195Z</time></trkpt><trkpt lat="37.9487383" lon="14.9596717"><ele>1164.9999999999998</ele><time>2026-04-12T10:32:32.195Z</time></trkpt><trkpt lat="37.9486983" lon="14.95975"><ele>1165.0</ele><time>2026-04-12T10:32:33.195Z</time></trkpt><trkpt lat="37.9486583" lon="14.9598283"><ele>1165.0</ele><time>2026-04-12T10:32:34.195Z</time></trkpt><trkpt lat="37.94862" lon="14.9599067"><ele>1165.0</ele><time>2026-04-12T10:32:35.196Z</time></trkpt><trkpt lat="37.948585" lon="14.959985"><ele>1165.0</ele><time>2026-04-12T10:32:36.196Z</time></trkpt><trkpt lat="37.948545" lon="14.9600633"><ele>1164.9999999999998</ele><time>2026-04-12T10:32:37.195Z</time></trkpt><trkpt lat="37.948495" lon="14.9601417"><ele>1165.0</ele><time>2026-04-12T10:32:38.195Z</time></trkpt><trkpt lat="37.9484517" lon="14.9602183"><ele>1164.7142857142856</ele><time>2026-04-12T10:32:39.195Z</time></trkpt><trkpt lat="37.94841" lon="14.9603"><ele>1164.4285714285713</ele><time>2026-04-12T10:32:40.196Z</time></trkpt><trkpt lat="37.9483667" lon="14.9603767"><ele>1164.142857142857</ele><time>2026-04-12T10:32:41.194Z</time></trkpt><trkpt lat="37.9483217" lon="14.9604483"><ele>1163.8571428571427</ele><time>2026-04-12T10:32:42.193Z</time></trkpt><trkpt lat="37.9482683" lon="14.96051"><ele>1163.5714285714284</ele><time>2026-04-12T10:32:43.194Z</time></trkpt><trkpt lat="37.948205" lon="14.960565"><ele>1163.2857142857142</ele><time>2026-04-12T10:32:44.195Z</time></trkpt><trkpt lat="37.9481433" lon="14.960615"><ele>1163.0</ele><time>2026-04-12T10:32:45.192Z</time></trkpt><trkpt lat="37.9480717" lon="14.9606533"><ele>1163.0</ele><time>2026-04-12T10:32:46.192Z</time></trkpt><trkpt lat="37.9479967" lon="14.960675"><ele>1163.0</ele><time>2026-04-12T10:32:47.195Z</time></trkpt><trkpt lat="37.94792" lon="14.9606833"><ele>1163.0</ele><time>2026-04-12T10:32:48.193Z</time></trkpt><trkpt lat="37.947845" lon="14.9606817"><ele>1163.0</ele><time>2026-04-12T10:32:49.193Z</time></trkpt><trkpt lat="37.94777" lon="14.9606783"><ele>1163.0</ele><time>2026-04-12T10:32:50.194Z</time></trkpt><trkpt lat="37.9476983" lon="14.9606767"><ele>1163.0</ele><time>2026-04-12T10:32:51.193Z</time></trkpt><trkpt lat="37.9476267" lon="14.96067"><ele>1163.0</ele><time>2026-04-12T10:32:52.193Z</time></trkpt><trkpt lat="37.9475567" lon="14.9606633"><ele>1163.7142857142858</ele><time>2026-04-12T10:32:53.194Z</time></trkpt><trkpt lat="37.9474883" lon="14.96066"><ele>1164.4285714285713</ele><time>2026-04-12T10:32:54.192Z</time></trkpt><trkpt lat="37.94742" lon="14.960655"><ele>1165.142857142857</ele><time>2026-04-12T10:32:55.193Z</time></trkpt><trkpt lat="37.94735" lon="14.9606517"><ele>1165.857142857143</ele><time>2026-04-12T10:32:56.194Z</time></trkpt><trkpt lat="37.94728" lon="14.9606583"><ele>1166.5714285714287</ele><time>2026-04-12T10:32:57.194Z</time></trkpt><trkpt lat="37.94721" lon="14.9606683"><ele>1167.2857142857142</ele><time>2026-04-12T10:32:58.195Z</time></trkpt><trkpt lat="37.94714" lon="14.96068"><ele>1168.0</ele><time>2026-04-12T10:32:59.193Z</time></trkpt><trkpt lat="37.94707" lon="14.960695"><ele>1168.0</ele><time>2026-04-12T10:33:00.193Z</time></trkpt><trkpt lat="37.9469983" lon="14.9607167"><ele>1168.0</ele><time>2026-04-12T10:33:01.194Z</time></trkpt><trkpt lat="37.9469267" lon="14.9607383"><ele>1168.0</ele><time>2026-04-12T10:33:02.194Z</time></trkpt><trkpt lat="37.9468533" lon="14.96076"><ele>1168.0</ele><time>2026-04-12T10:33:03.194Z</time></trkpt><trkpt lat="37.9467767" lon="14.9607833"><ele>1168.0</ele><time>2026-04-12T10:33:04.193Z</time></trkpt><trkpt lat="37.9467033" lon="14.96081"><ele>1168.0</ele><time>2026-04-12T10:33:05.193Z</time></trkpt><trkpt lat="37.9466283" lon="14.9608333"><ele>1168.3333333333333</ele><time>2026-04-12T10:33:06.194Z</time></trkpt><trkpt lat="37.9465533" lon="14.9608583"><ele>1168.6666666666665</ele><time>2026-04-12T10:33:07.194Z</time></trkpt><trkpt lat="37.9464767" lon="14.96088"><ele>1169.0</ele><time>2026-04-12T10:33:08.194Z</time></trkpt><trkpt lat="37.9464" lon="14.9609017"><ele>1169.3333333333333</ele><time>2026-04-12T10:33:09.193Z</time></trkpt><trkpt lat="37.9463217" lon="14.9609233"><ele>1169.6666666666667</ele><time>2026-04-12T10:33:10.193Z</time></trkpt><trkpt lat="37.9462433" lon="14.9609283"><ele>1170.0</ele><time>2026-04-12T10:33:11.193Z</time></trkpt><trkpt lat="37.946165" lon="14.96092"><ele>1170.0</ele><time>2026-04-12T10:33:12.193Z</time></trkpt><trkpt lat="37.9460933" lon="14.96089"><ele>1170.0</ele><time>2026-04-12T10:33:13.193Z</time></trkpt><trkpt lat="37.9460267" lon="14.96085"><ele>1170.0</ele><time>2026-04-12T10:33:14.193Z</time></trkpt><trkpt lat="37.9459683" lon="14.960795"><ele>1170.0</ele><time>2026-04-12T10:33:15.193Z</time></trkpt><trkpt lat="37.94591" lon="14.9607383"><ele>1170.0</ele><time>2026-04-12T10:33:16.193Z</time></trkpt><trkpt lat="37.9458517" lon="14.9606833"><ele>1170.0</ele><time>2026-04-12T10:33:17.192Z</time></trkpt><trkpt lat="37.945795" lon="14.9606267"><ele>1170.0</ele><time>2026-04-12T10:33:18.192Z</time></trkpt><trkpt lat="37.94574" lon="14.96058"><ele>1168.5714285714287</ele><time>2026-04-12T10:33:19.192Z</time></trkpt><trkpt lat="37.9456867" lon="14.9605333"><ele>1167.142857142857</ele><time>2026-04-12T10:33:20.194Z</time></trkpt><trkpt lat="37.9456333" lon="14.9604833"><ele>1165.7142857142858</ele><time>2026-04-12T10:33:21.193Z</time></trkpt><trkpt lat="37.94558" lon="14.96043"><ele>1164.2857142857142</ele><time>2026-04-12T10:33:22.193Z</time></trkpt><trkpt lat="37.9455267" lon="14.96038"><ele>1162.857142857143</ele><time>2026-04-12T10:33:23.193Z</time></trkpt><trkpt lat="37.9454867" lon="14.960315"><ele>1161.4285714285716</ele><time>2026-04-12T10:33:24.194Z</time></trkpt><trkpt lat="37.9454483" lon="14.9602467"><ele>1160.0</ele><time>2026-04-12T10:33:25.192Z</time></trkpt><trkpt lat="37.9454183" lon="14.960175"><ele>1160.0</ele><time>2026-04-12T10:33:26.195Z</time></trkpt><trkpt lat="37.9453917" lon="14.9600983"><ele>1160.0</ele><time>2026-04-12T10:33:27.192Z</time></trkpt><trkpt lat="37.9453667" lon="14.9600233"><ele>1160.0</ele><time>2026-04-12T10:33:28.195Z</time></trkpt><trkpt lat="37.9453317" lon="14.95995"><ele>1160.0</ele><time>2026-04-12T10:33:29.192Z</time></trkpt><trkpt lat="37.94529" lon="14.9598817"><ele>1160.0</ele><time>2026-04-12T10:33:30.193Z</time></trkpt><trkpt lat="37.9452417" lon="14.95982"><ele>1160.0</ele><time>2026-04-12T10:33:31.193Z</time></trkpt><trkpt lat="37.9451883" lon="14.9597667"><ele>1160.0</ele><time>2026-04-12T10:33:32.194Z</time></trkpt><trkpt lat="37.94513" lon="14.9597283"><ele>1160.142857142857</ele><time>2026-04-12T10:33:33.193Z</time></trkpt><trkpt lat="37.9450683" lon="14.959695"><ele>1160.2857142857144</ele><time>2026-04-12T10:33:34.193Z</time></trkpt><trkpt lat="37.9450017" lon="14.9596767"><ele>1160.4285714285716</ele><time>2026-04-12T10:33:35.193Z</time></trkpt><trkpt lat="37.9449317" lon="14.9596667"><ele>1160.5714285714287</ele><time>2026-04-12T10:33:36.192Z</time></trkpt><trkpt lat="37.9448617" lon="14.9596617"><ele>1160.7142857142858</ele><time>2026-04-12T10:33:37.195Z</time></trkpt><trkpt lat="37.944795" lon="14.9596517"><ele>1160.857142857143</ele><time>2026-04-12T10:33:38.194Z</time></trkpt><trkpt lat="37.944725" lon="14.95965"><ele>1161.0</ele><time>2026-04-12T10:33:39.195Z</time></trkpt><trkpt lat="37.9446533" lon="14.9596433"><ele>1161.0</ele><time>2026-04-12T10:33:40.192Z</time></trkpt><trkpt lat="37.944585" lon="14.9596217"><ele>1161.0</ele><time>2026-04-12T10:33:41.192Z</time></trkpt><trkpt lat="37.9445183" lon="14.95959"><ele>1161.0</ele><time>2026-04-12T10:33:42.193Z</time></trkpt><trkpt lat="37.94447" lon="14.9595267"><ele>1161.0</ele><time>2026-04-12T10:33:43.192Z</time></trkpt><trkpt lat="37.94444" lon="14.95944"><ele>1161.0</ele><time>2026-04-12T10:33:44.194Z</time></trkpt><trkpt lat="37.9444083" lon="14.959355"><ele>1161.0</ele><time>2026-04-12T10:33:45.192Z</time></trkpt><trkpt lat="37.9443783" lon="14.9592717"><ele>1161.0</ele><time>2026-04-12T10:33:46.193Z</time></trkpt><trkpt lat="37.9443433" lon="14.95919"><ele>1161.2857142857142</ele><time>2026-04-12T10:33:47.194Z</time></trkpt><trkpt lat="37.9443133" lon="14.959105"><ele>1161.5714285714287</ele><time>2026-04-12T10:33:48.195Z</time></trkpt><trkpt lat="37.94428" lon="14.9590217"><ele>1161.857142857143</ele><time>2026-04-12T10:33:49.193Z</time></trkpt><trkpt lat="37.94425" lon="14.9589383"><ele>1162.142857142857</ele><time>2026-04-12T10:33:50.196Z</time></trkpt><trkpt lat="37.94422" lon="14.9588533"><ele>1162.4285714285713</ele><time>2026-04-12T10:33:51.195Z</time></trkpt><trkpt lat="37.9441867" lon="14.9587683"><ele>1162.7142857142858</ele><time>2026-04-12T10:33:52.195Z</time></trkpt><trkpt lat="37.9441533" lon="14.9586867"><ele>1163.0</ele><time>2026-04-12T10:33:53.194Z</time></trkpt><trkpt lat="37.9441167" lon="14.958615"><ele>1163.0</ele><time>2026-04-12T10:33:54.195Z</time></trkpt><trkpt lat="37.9440617" lon="14.9585617"><ele>1163.0</ele><time>2026-04-12T10:33:55.193Z</time></trkpt><trkpt lat="37.9439917" lon="14.958535"><ele>1163.0</ele><time>2026-04-12T10:33:56.193Z</time></trkpt><trkpt lat="37.9439217" lon="14.958525"><ele>1163.0</ele><time>2026-04-12T10:33:57.192Z</time></trkpt><trkpt lat="37.9438517" lon="14.9585517"><ele>1163.0</ele><time>2026-04-12T10:33:58.194Z</time></trkpt><trkpt lat="37.94379" lon="14.95859"><ele>1163.0</ele><time>2026-04-12T10:33:59.194Z</time></trkpt><trkpt lat="37.9437233" lon="14.958645"><ele>1163.0</ele><time>2026-04-12T10:34:00.193Z</time></trkpt><trkpt lat="37.9436617" lon="14.9586967"><ele>1163.0</ele><time>2026-04-12T10:34:01.193Z</time></trkpt><trkpt lat="37.9435983" lon="14.958745"><ele>1163.0</ele><time>2026-04-12T10:34:02.194Z</time></trkpt><trkpt lat="37.943535" lon="14.9587917"><ele>1163.0</ele><time>2026-04-12T10:34:03.193Z</time></trkpt><trkpt lat="37.9434683" lon="14.95883"><ele>1163.0</ele><time>2026-04-12T10:34:04.192Z</time></trkpt><trkpt lat="37.9434033" lon="14.9588683"><ele>1163.0</ele><time>2026-04-12T10:34:05.193Z</time></trkpt><trkpt lat="37.9433417" lon="14.9589083"><ele>1163.0</ele><time>2026-04-12T10:34:06.192Z</time></trkpt><trkpt lat="37.94328" lon="14.9589483"><ele>1163.0</ele><time>2026-04-12T10:34:07.193Z</time></trkpt><trkpt lat="37.9432167" lon="14.958985"><ele>1162.7142857142858</ele><time>2026-04-12T10:34:08.194Z</time></trkpt><trkpt lat="37.9431533" lon="14.9590117"><ele>1162.4285714285713</ele><time>2026-04-12T10:34:09.192Z</time></trkpt><trkpt lat="37.9430917" lon="14.95904"><ele>1162.142857142857</ele><time>2026-04-12T10:34:10.192Z</time></trkpt><trkpt lat="37.9430233" lon="14.959075"><ele>1161.857142857143</ele><time>2026-04-12T10:34:11.195Z</time></trkpt><trkpt lat="37.9429567" lon="14.9591117"><ele>1161.5714285714287</ele><time>2026-04-12T10:34:12.193Z</time></trkpt><trkpt lat="37.9428933" lon="14.959145"><ele>1161.2857142857142</ele><time>2026-04-12T10:34:13.194Z</time></trkpt><trkpt lat="37.9428283" lon="14.9591767"><ele>1161.0</ele><time>2026-04-12T10:34:14.192Z</time></trkpt><trkpt lat="37.9427617" lon="14.9592083"><ele>1160.0</ele><time>2026-04-12T10:34:15.193Z</time></trkpt><trkpt lat="37.9426933" lon="14.9592433"><ele>1159.0</ele><time>2026-04-12T10:34:16.194Z</time></trkpt><trkpt lat="37.9426283" lon="14.9592717"><ele>1158.0</ele><time>2026-04-12T10:34:17.192Z</time></trkpt><trkpt lat="37.9425633" lon="14.95929"><ele>1157.0</ele><time>2026-04-12T10:34:18.193Z</time></trkpt><trkpt lat="37.9424967" lon="14.9593117"><ele>1156.0</ele><time>2026-04-12T10:34:19.194Z</time></trkpt><trkpt lat="37.942435" lon="14.959345"><ele>1155.0</ele><time>2026-04-12T10:34:20.193Z</time></trkpt><trkpt lat="37.9423817" lon="14.9593883"><ele>1154.0</ele><time>2026-04-12T10:34:21.193Z</time></trkpt><trkpt lat="37.942305" lon="14.9595167"><ele>1154.0</ele><time>2026-04-12T10:34:23.194Z</time></trkpt><trkpt lat="37.9422717" lon="14.9596783"><ele>1154.0</ele><time>2026-04-12T10:34:25.195Z</time></trkpt><trkpt lat="37.942265" lon="14.9597683"><ele>1154.0</ele><time>2026-04-12T10:34:26.194Z</time></trkpt><trkpt lat="37.9422567" lon="14.9598583"><ele>1154.0</ele><time>2026-04-12T10:34:27.193Z</time></trkpt><trkpt lat="37.9422417" lon="14.9599433"><ele>1154.0</ele><time>2026-04-12T10:34:28.194Z</time></trkpt><trkpt lat="37.9422217" lon="14.9600267"><ele>1154.0</ele><time>2026-04-12T10:34:29.195Z</time></trkpt><trkpt lat="37.942195" lon="14.9601"><ele>1151.1666666666667</ele><time>2026-04-12T10:34:30.193Z</time></trkpt><trkpt lat="37.942105" lon="14.9602067"><ele>1148.3333333333335</ele><time>2026-04-12T10:34:32.193Z</time></trkpt><trkpt lat="37.9420383" lon="14.960215"><ele>1145.5</ele><time>2026-04-12T10:34:33.193Z</time></trkpt><trkpt lat="37.94197" lon="14.96021"><ele>1142.6666666666667</ele><time>2026-04-12T10:34:34.193Z</time></trkpt><trkpt lat="37.9419083" lon="14.96018"><ele>1139.8333333333333</ele><time>2026-04-12T10:34:35.194Z</time></trkpt><trkpt lat="37.94185" lon="14.9601417"><ele>1137.0</ele><time>2026-04-12T10:34:36.194Z</time></trkpt><trkpt lat="37.9417933" lon="14.9600983"><ele>1137.0</ele><time>2026-04-12T10:34:37.193Z</time></trkpt><trkpt lat="37.941735" lon="14.9600567"><ele>1137.0</ele><time>2026-04-12T10:34:38.194Z</time></trkpt><trkpt lat="37.94162" lon="14.95998"><ele>1137.0</ele><time>2026-04-12T10:34:40.192Z</time></trkpt><trkpt lat="37.9415633" lon="14.9599333"><ele>1137.0</ele><time>2026-04-12T10:34:41.193Z</time></trkpt><trkpt lat="37.9415033" lon="14.9598983"><ele>1137.0</ele><time>2026-04-12T10:34:42.194Z</time></trkpt><trkpt lat="37.9414417" lon="14.9598733"><ele>1137.0</ele><time>2026-04-12T10:34:43.194Z</time></trkpt><trkpt lat="37.9413767" lon="14.95985"><ele>1140.8571428571427</ele><time>2026-04-12T10:34:44.194Z</time></trkpt><trkpt lat="37.9413133" lon="14.9598183"><ele>1144.7142857142858</ele><time>2026-04-12T10:34:45.192Z</time></trkpt><trkpt lat="37.941245" lon="14.95979"><ele>1148.5714285714284</ele><time>2026-04-12T10:34:46.193Z</time></trkpt><trkpt lat="37.941175" lon="14.9597633"><ele>1152.4285714285713</ele><time>2026-04-12T10:34:47.194Z</time></trkpt><trkpt lat="37.94111" lon="14.9597383"><ele>1156.2857142857142</ele><time>2026-04-12T10:34:48.193Z</time></trkpt><trkpt lat="37.9410467" lon="14.9597217"><ele>1160.142857142857</ele><time>2026-04-12T10:34:49.194Z</time></trkpt><trkpt lat="37.9409833" lon="14.9597"><ele>1164.0</ele><time>2026-04-12T10:34:50.193Z</time></trkpt><trkpt lat="37.94086" lon="14.9597067"><ele>1164.0</ele><time>2026-04-12T10:34:52.193Z</time></trkpt><trkpt lat="37.940755" lon="14.9597617"><ele>1164.0</ele><time>2026-04-12T10:34:54.192Z</time></trkpt><trkpt lat="37.940705" lon="14.959815"><ele>1164.0</ele><time>2026-04-12T10:34:55.193Z</time></trkpt><trkpt lat="37.94065" lon="14.9598667"><ele>1164.0</ele><time>2026-04-12T10:34:56.195Z</time></trkpt><trkpt lat="37.9405983" lon="14.9599317"><ele>1164.0</ele><time>2026-04-12T10:34:57.193Z</time></trkpt><trkpt lat="37.9405467" lon="14.9599983"><ele>1164.0</ele><time>2026-04-12T10:34:58.194Z</time></trkpt><trkpt lat="37.940495" lon="14.9600667"><ele>1160.2857142857142</ele><time>2026-04-12T10:34:59.193Z</time></trkpt><trkpt lat="37.9404417" lon="14.9601333"><ele>1156.5714285714284</ele><time>2026-04-12T10:35:00.193Z</time></trkpt><trkpt lat="37.9403883" lon="14.9601983"><ele>1152.857142857143</ele><time>2026-04-12T10:35:01.192Z</time></trkpt><trkpt lat="37.9403283" lon="14.9602533"><ele>1149.142857142857</ele><time>2026-04-12T10:35:02.194Z</time></trkpt><trkpt lat="37.94026" lon="14.9602883"><ele>1145.4285714285716</ele><time>2026-04-12T10:35:03.194Z</time></trkpt><trkpt lat="37.94019" lon="14.9602833"><ele>1141.7142857142858</ele><time>2026-04-12T10:35:04.194Z</time></trkpt><trkpt lat="37.94013" lon="14.9602483"><ele>1138.0</ele><time>2026-04-12T10:35:05.194Z</time></trkpt><trkpt lat="37.9400817" lon="14.9601967"><ele>1136.5714285714287</ele><time>2026-04-12T10:35:06.194Z</time></trkpt><trkpt lat="37.9400367" lon="14.9601367"><ele>1135.142857142857</ele><time>2026-04-12T10:35:07.192Z</time></trkpt><trkpt lat="37.9399933" lon="14.960075"><ele>1133.7142857142858</ele><time>2026-04-12T10:35:08.193Z</time></trkpt><trkpt lat="37.93995" lon="14.960015"><ele>1132.2857142857142</ele><time>2026-04-12T10:35:09.193Z</time></trkpt><trkpt lat="37.9399067" lon="14.9599533"><ele>1130.857142857143</ele><time>2026-04-12T10:35:10.193Z</time></trkpt><trkpt lat="37.9398583" lon="14.959895"><ele>1129.4285714285716</ele><time>2026-04-12T10:35:11.192Z</time></trkpt><trkpt lat="37.9398033" lon="14.9598417"><ele>1128.0</ele><time>2026-04-12T10:35:12.193Z</time></trkpt><trkpt lat="37.9397467" lon="14.9597917"><ele>1132.0</ele><time>2026-04-12T10:35:13.192Z</time></trkpt><trkpt lat="37.93969" lon="14.9597433"><ele>1136.0</ele><time>2026-04-12T10:35:14.193Z</time></trkpt><trkpt lat="37.9396317" lon="14.9596967"><ele>1140.0</ele><time>2026-04-12T10:35:15.193Z</time></trkpt><trkpt lat="37.9395767" lon="14.9596467"><ele>1144.0</ele><time>2026-04-12T10:35:16.192Z</time></trkpt><trkpt lat="37.9395167" lon="14.9596017"><ele>1148.0</ele><time>2026-04-12T10:35:17.193Z</time></trkpt><trkpt lat="37.9394583" lon="14.9595583"><ele>1152.0</ele><time>2026-04-12T10:35:18.193Z</time></trkpt><trkpt lat="37.9394" lon="14.959515"><ele>1156.0</ele><time>2026-04-12T10:35:19.193Z</time></trkpt><trkpt lat="37.9393433" lon="14.9594717"><ele>1156.0</ele><time>2026-04-12T10:35:20.194Z</time></trkpt><trkpt lat="37.939285" lon="14.9594317"><ele>1156.0</ele><time>2026-04-12T10:35:21.194Z</time></trkpt><trkpt lat="37.9392317" lon="14.9593817"><ele>1156.0</ele><time>2026-04-12T10:35:22.193Z</time></trkpt><trkpt lat="37.9391783" lon="14.9593367"><ele>1156.0</ele><time>2026-04-12T10:35:23.194Z</time></trkpt><trkpt lat="37.9391267" lon="14.95929"><ele>1156.0</ele><time>2026-04-12T10:35:24.193Z</time></trkpt><trkpt lat="37.9390217" lon="14.9592"><ele>1156.0</ele><time>2026-04-12T10:35:26.195Z</time></trkpt><trkpt lat="37.93897" lon="14.9591517"><ele>1156.2857142857142</ele><time>2026-04-12T10:35:27.195Z</time></trkpt><trkpt lat="37.9389167" lon="14.959105"><ele>1156.5714285714284</ele><time>2026-04-12T10:35:28.196Z</time></trkpt><trkpt lat="37.9388617" lon="14.9590583"><ele>1156.8571428571427</ele><time>2026-04-12T10:35:29.195Z</time></trkpt><trkpt lat="37.9388067" lon="14.95901"><ele>1157.142857142857</ele><time>2026-04-12T10:35:30.196Z</time></trkpt><trkpt lat="37.9387533" lon="14.9589633"><ele>1157.4285714285713</ele><time>2026-04-12T10:35:31.195Z</time></trkpt><trkpt lat="37.9386983" lon="14.9589217"><ele>1157.7142857142856</ele><time>2026-04-12T10:35:32.195Z</time></trkpt><trkpt lat="37.9386417" lon="14.9588867"><ele>1158.0</ele><time>2026-04-12T10:35:33.194Z</time></trkpt><trkpt lat="37.9385267" lon="14.95884"><ele>1157.9999999999998</ele><time>2026-04-12T10:35:35.196Z</time></trkpt><trkpt lat="37.9384067" lon="14.9588317"><ele>1158.0</ele><time>2026-04-12T10:35:37.195Z</time></trkpt><trkpt lat="37.9383433" lon="14.95884"><ele>1158.0</ele><time>2026-04-12T10:35:38.195Z</time></trkpt><trkpt lat="37.93828" lon="14.958855"><ele>1158.0</ele><time>2026-04-12T10:35:39.192Z</time></trkpt><trkpt lat="37.9382167" lon="14.95887"><ele>1158.0</ele><time>2026-04-12T10:35:40.194Z</time></trkpt><trkpt lat="37.93815" lon="14.9588883"><ele>1157.9999999999998</ele><time>2026-04-12T10:35:41.196Z</time></trkpt><trkpt lat="37.9380833" lon="14.9589033"><ele>1158.0</ele><time>2026-04-12T10:35:42.193Z</time></trkpt><trkpt lat="37.9380183" lon="14.958915"><ele>1155.9999999999998</ele><time>2026-04-12T10:35:43.194Z</time></trkpt><trkpt lat="37.9379517" lon="14.9589333"><ele>1154.0</ele><time>2026-04-12T10:35:44.193Z</time></trkpt><trkpt lat="37.937885" lon="14.958955"><ele>1152.0</ele><time>2026-04-12T10:35:45.192Z</time></trkpt><trkpt lat="37.937815" lon="14.958975"><ele>1150.0</ele><time>2026-04-12T10:35:46.193Z</time></trkpt><trkpt lat="37.93774" lon="14.958995"><ele>1148.0</ele><time>2026-04-12T10:35:47.193Z</time></trkpt><trkpt lat="37.93767" lon="14.9590117"><ele>1145.9999999999998</ele><time>2026-04-12T10:35:48.193Z</time></trkpt><trkpt lat="37.937595" lon="14.95903"><ele>1144.0</ele><time>2026-04-12T10:35:49.192Z</time></trkpt><trkpt lat="37.937525" lon="14.9590467"><ele>1143.9999999999998</ele><time>2026-04-12T10:35:50.194Z</time></trkpt><trkpt lat="37.937455" lon="14.9590683"><ele>1144.0</ele><time>2026-04-12T10:35:51.192Z</time></trkpt><trkpt lat="37.937385" lon="14.9590833"><ele>1144.0</ele><time>2026-04-12T10:35:52.194Z</time></trkpt><trkpt lat="37.937315" lon="14.9590967"><ele>1144.0</ele><time>2026-04-12T10:35:53.193Z</time></trkpt><trkpt lat="37.937245" lon="14.9591017"><ele>1144.0</ele><time>2026-04-12T10:35:54.194Z</time></trkpt><trkpt lat="37.9371783" lon="14.9591033"><ele>1143.9999999999998</ele><time>2026-04-12T10:35:55.195Z</time></trkpt><trkpt lat="37.93711" lon="14.9591"><ele>1144.0</ele><time>2026-04-12T10:35:56.192Z</time></trkpt><trkpt lat="37.93704" lon="14.959095"><ele>1143.9999999999998</ele><time>2026-04-12T10:35:57.193Z</time></trkpt><trkpt lat="37.9369717" lon="14.9590817"><ele>1144.0</ele><time>2026-04-12T10:35:58.195Z</time></trkpt><trkpt lat="37.9369017" lon="14.9590667"><ele>1144.0</ele><time>2026-04-12T10:35:59.196Z</time></trkpt><trkpt lat="37.9368333" lon="14.9590433"><ele>1144.0</ele><time>2026-04-12T10:36:00.196Z</time></trkpt><trkpt lat="37.9367683" lon="14.9590133"><ele>1144.0</ele><time>2026-04-12T10:36:01.193Z</time></trkpt><trkpt lat="37.9367033" lon="14.9589767"><ele>1143.9999999999998</ele><time>2026-04-12T10:36:02.194Z</time></trkpt><trkpt lat="37.9366383" lon="14.958935"><ele>1144.0</ele><time>2026-04-12T10:36:03.195Z</time></trkpt><trkpt lat="37.936575" lon="14.9588867"><ele>1142.6666666666665</ele><time>2026-04-12T10:36:04.195Z</time></trkpt><trkpt lat="37.9365133" lon="14.95883"><ele>1141.3333333333333</ele><time>2026-04-12T10:36:05.195Z</time></trkpt><trkpt lat="37.93645" lon="14.9587717"><ele>1140.0</ele><time>2026-04-12T10:36:06.194Z</time></trkpt><trkpt lat="37.9363883" lon="14.9587133"><ele>1138.6666666666667</ele><time>2026-04-12T10:36:07.195Z</time></trkpt><trkpt lat="37.936325" lon="14.958655"><ele>1137.3333333333335</ele><time>2026-04-12T10:36:08.196Z</time></trkpt><trkpt lat="37.936265" lon="14.9585917"><ele>1136.0</ele><time>2026-04-12T10:36:09.194Z</time></trkpt><trkpt lat="37.9362067" lon="14.9585233"><ele>1136.0</ele><time>2026-04-12T10:36:10.196Z</time></trkpt><trkpt lat="37.9361533" lon="14.9584533"><ele>1136.0</ele><time>2026-04-12T10:36:11.193Z</time></trkpt><trkpt lat="37.9360967" lon="14.9583817"><ele>1136.0</ele><time>2026-04-12T10:36:12.192Z</time></trkpt><trkpt lat="37.93604" lon="14.95831"><ele>1136.0</ele><time>2026-04-12T10:36:13.192Z</time></trkpt><trkpt lat="37.9359867" lon="14.9582383"><ele>1136.0</ele><time>2026-04-12T10:36:14.192Z</time></trkpt><trkpt lat="37.935925" lon="14.9581717"><ele>1136.0</ele><time>2026-04-12T10:36:15.193Z</time></trkpt><trkpt lat="37.93586" lon="14.95811"><ele>1136.5</ele><time>2026-04-12T10:36:16.193Z</time></trkpt><trkpt lat="37.9357883" lon="14.95806"><ele>1137.0</ele><time>2026-04-12T10:36:17.192Z</time></trkpt><trkpt lat="37.9357217" lon="14.9580183"><ele>1137.5</ele><time>2026-04-12T10:36:18.192Z</time></trkpt><trkpt lat="37.9356483" lon="14.9580017"><ele>1138.0</ele><time>2026-04-12T10:36:19.193Z</time></trkpt><trkpt lat="37.935565" lon="14.9580083"><ele>1138.5</ele><time>2026-04-12T10:36:20.194Z</time></trkpt><trkpt lat="37.9354833" lon="14.9580167"><ele>1139.0</ele><time>2026-04-12T10:36:21.194Z</time></trkpt><trkpt lat="37.9354017" lon="14.9580217"><ele>1139.0</ele><time>2026-04-12T10:36:22.194Z</time></trkpt><trkpt lat="37.9353217" lon="14.9580183"><ele>1139.0</ele><time>2026-04-12T10:36:23.192Z</time></trkpt><trkpt lat="37.9352383" lon="14.958005"><ele>1139.0</ele><time>2026-04-12T10:36:24.194Z</time></trkpt><trkpt lat="37.9351583" lon="14.9579683"><ele>1139.0</ele><time>2026-04-12T10:36:25.193Z</time></trkpt><trkpt lat="37.9350817" lon="14.9579217"><ele>1139.0</ele><time>2026-04-12T10:36:26.193Z</time></trkpt><trkpt lat="37.935005" lon="14.9578733"><ele>1139.0</ele><time>2026-04-12T10:36:27.193Z</time></trkpt><trkpt lat="37.9349283" lon="14.957825"><ele>1140.5</ele><time>2026-04-12T10:36:28.196Z</time></trkpt><trkpt lat="37.9348533" lon="14.957775"><ele>1142.0</ele><time>2026-04-12T10:36:29.195Z</time></trkpt><trkpt lat="37.934775" lon="14.9577283"><ele>1143.5</ele><time>2026-04-12T10:36:30.194Z</time></trkpt><trkpt lat="37.9346983" lon="14.95768"><ele>1145.0</ele><time>2026-04-12T10:36:31.194Z</time></trkpt><trkpt lat="37.9346217" lon="14.9576283"><ele>1146.5</ele><time>2026-04-12T10:36:32.194Z</time></trkpt><trkpt lat="37.9345467" lon="14.957575"><ele>1148.0</ele><time>2026-04-12T10:36:33.193Z</time></trkpt><trkpt lat="37.93447" lon="14.9575233"><ele>1148.0</ele><time>2026-04-12T10:36:34.192Z</time></trkpt><trkpt lat="37.9343917" lon="14.9574717"><ele>1148.0</ele><time>2026-04-12T10:36:35.193Z</time></trkpt><trkpt lat="37.9343167" lon="14.957415"><ele>1148.0</ele><time>2026-04-12T10:36:36.194Z</time></trkpt><trkpt lat="37.9342467" lon="14.957345"><ele>1148.0</ele><time>2026-04-12T10:36:37.194Z</time></trkpt><trkpt lat="37.9341883" lon="14.9572583"><ele>1148.0</ele><time>2026-04-12T10:36:38.194Z</time></trkpt><trkpt lat="37.9341467" lon="14.957155"><ele>1148.0</ele><time>2026-04-12T10:36:39.192Z</time></trkpt><trkpt lat="37.9341233" lon="14.9570467"><ele>1146.0</ele><time>2026-04-12T10:36:40.192Z</time></trkpt><trkpt lat="37.9341167" lon="14.956935"><ele>1144.0</ele><time>2026-04-12T10:36:41.194Z</time></trkpt><trkpt lat="37.9341217" lon="14.956825"><ele>1142.0</ele><time>2026-04-12T10:36:42.193Z</time></trkpt><trkpt lat="37.9341267" lon="14.956715"><ele>1140.0</ele><time>2026-04-12T10:36:43.193Z</time></trkpt><trkpt lat="37.9341283" lon="14.956605"><ele>1138.0</ele><time>2026-04-12T10:36:44.193Z</time></trkpt><trkpt lat="37.9341317" lon="14.9564967"><ele>1136.0</ele><time>2026-04-12T10:36:45.193Z</time></trkpt><trkpt lat="37.9341317" lon="14.9563883"><ele>1136.0</ele><time>2026-04-12T10:36:46.194Z</time></trkpt><trkpt lat="37.9341217" lon="14.9562817"><ele>1136.0</ele><time>2026-04-12T10:36:47.193Z</time></trkpt><trkpt lat="37.9341083" lon="14.9561783"><ele>1136.0</ele><time>2026-04-12T10:36:48.192Z</time></trkpt><trkpt lat="37.9340883" lon="14.9560783"><ele>1136.0</ele><time>2026-04-12T10:36:49.194Z</time></trkpt><trkpt lat="37.9340667" lon="14.9559833"><ele>1136.0</ele><time>2026-04-12T10:36:50.193Z</time></trkpt><trkpt lat="37.9340467" lon="14.9558933"><ele>1136.0</ele><time>2026-04-12T10:36:51.194Z</time></trkpt><trkpt lat="37.9340283" lon="14.9558033"><ele>1135.8333333333335</ele><time>2026-04-12T10:36:52.194Z</time></trkpt><trkpt lat="37.934015" lon="14.955715"><ele>1135.6666666666667</ele><time>2026-04-12T10:36:53.194Z</time></trkpt><trkpt lat="37.9340117" lon="14.9556267"><ele>1135.5</ele><time>2026-04-12T10:36:54.193Z</time></trkpt><trkpt lat="37.9340117" lon="14.9555433"><ele>1135.3333333333333</ele><time>2026-04-12T10:36:55.193Z</time></trkpt><trkpt lat="37.9340017" lon="14.955385"><ele>1135.1666666666665</ele><time>2026-04-12T10:36:57.193Z</time></trkpt><trkpt lat="37.9339817" lon="14.955305"><ele>1135.0</ele><time>2026-04-12T10:36:58.195Z</time></trkpt><trkpt lat="37.9339533" lon="14.9552283"><ele>1135.0</ele><time>2026-04-12T10:36:59.195Z</time></trkpt><trkpt lat="37.9339217" lon="14.9551533"><ele>1135.0</ele><time>2026-04-12T10:37:00.193Z</time></trkpt><trkpt lat="37.93389" lon="14.9550783"><ele>1135.0</ele><time>2026-04-12T10:37:01.195Z</time></trkpt><trkpt lat="37.9338583" lon="14.9550033"><ele>1135.0</ele><time>2026-04-12T10:37:02.197Z</time></trkpt><trkpt lat="37.9338267" lon="14.9549283"><ele>1135.0</ele><time>2026-04-12T10:37:03.193Z</time></trkpt><trkpt lat="37.9337933" lon="14.95485"><ele>1135.0</ele><time>2026-04-12T10:37:04.194Z</time></trkpt><trkpt lat="37.9337617" lon="14.9547733"><ele>1135.0</ele><time>2026-04-12T10:37:05.196Z</time></trkpt><trkpt lat="37.93373" lon="14.9546967"><ele>1136.5714285714287</ele><time>2026-04-12T10:37:06.195Z</time></trkpt><trkpt lat="37.9336983" lon="14.9546233"><ele>1138.142857142857</ele><time>2026-04-12T10:37:07.194Z</time></trkpt><trkpt lat="37.9336667" lon="14.9545517"><ele>1139.7142857142858</ele><time>2026-04-12T10:37:08.195Z</time></trkpt><trkpt lat="37.933635" lon="14.95448"><ele>1141.2857142857142</ele><time>2026-04-12T10:37:09.195Z</time></trkpt><trkpt lat="37.9336033" lon="14.9544067"><ele>1142.857142857143</ele><time>2026-04-12T10:37:10.195Z</time></trkpt><trkpt lat="37.933575" lon="14.9543317"><ele>1144.4285714285716</ele><time>2026-04-12T10:37:11.194Z</time></trkpt><trkpt lat="37.9335467" lon="14.9542567"><ele>1146.0</ele><time>2026-04-12T10:37:12.194Z</time></trkpt><trkpt lat="37.9335183" lon="14.95418"><ele>1148.2857142857142</ele><time>2026-04-12T10:37:13.194Z</time></trkpt><trkpt lat="37.9334983" lon="14.9541017"><ele>1150.5714285714287</ele><time>2026-04-12T10:37:14.196Z</time></trkpt><trkpt lat="37.933485" lon="14.9540233"><ele>1152.857142857143</ele><time>2026-04-12T10:37:15.192Z</time></trkpt><trkpt lat="37.93348" lon="14.9539433"><ele>1155.142857142857</ele><time>2026-04-12T10:37:16.193Z</time></trkpt><trkpt lat="37.9334833" lon="14.95386"><ele>1157.4285714285716</ele><time>2026-04-12T10:37:17.193Z</time></trkpt><trkpt lat="37.9334967" lon="14.95378"><ele>1159.7142857142858</ele><time>2026-04-12T10:37:18.193Z</time></trkpt><trkpt lat="37.9335067" lon="14.9537"><ele>1162.0</ele><time>2026-04-12T10:37:19.193Z</time></trkpt><trkpt lat="37.93349" lon="14.953555"><ele>1162.0</ele><time>2026-04-12T10:37:21.193Z</time></trkpt><trkpt lat="37.933455" lon="14.9534867"><ele>1162.0</ele><time>2026-04-12T10:37:22.194Z</time></trkpt><trkpt lat="37.9334033" lon="14.9534317"><ele>1162.0</ele><time>2026-04-12T10:37:23.193Z</time></trkpt><trkpt lat="37.9333433" lon="14.9533883"><ele>1162.0</ele><time>2026-04-12T10:37:24.193Z</time></trkpt><trkpt lat="37.9332233" lon="14.9533633"><ele>1162.0</ele><time>2026-04-12T10:37:26.193Z</time></trkpt><trkpt lat="37.9331033" lon="14.9534383"><ele>1157.0</ele><time>2026-04-12T10:37:28.192Z</time></trkpt><trkpt lat="37.9330467" lon="14.95351"><ele>1152.0</ele><time>2026-04-12T10:37:29.193Z</time></trkpt><trkpt lat="37.9329933" lon="14.9535833"><ele>1147.0</ele><time>2026-04-12T10:37:30.193Z</time></trkpt><trkpt lat="37.932945" lon="14.953655"><ele>1142.0</ele><time>2026-04-12T10:37:31.193Z</time></trkpt><trkpt lat="37.9328933" lon="14.9537267"><ele>1137.0</ele><time>2026-04-12T10:37:32.192Z</time></trkpt><trkpt lat="37.93284" lon="14.9537967"><ele>1132.0</ele><time>2026-04-12T10:37:33.194Z</time></trkpt><trkpt lat="37.9327917" lon="14.9538717"><ele>1132.0</ele><time>2026-04-12T10:37:34.193Z</time></trkpt><trkpt lat="37.9327483" lon="14.9539533"><ele>1132.0</ele><time>2026-04-12T10:37:35.192Z</time></trkpt><trkpt lat="37.93271" lon="14.9540333"><ele>1132.0</ele><time>2026-04-12T10:37:36.193Z</time></trkpt><trkpt lat="37.9326767" lon="14.9541117"><ele>1132.0</ele><time>2026-04-12T10:37:37.193Z</time></trkpt><trkpt lat="37.932645" lon="14.95419"><ele>1132.0</ele><time>2026-04-12T10:37:38.194Z</time></trkpt><trkpt lat="37.9326133" lon="14.9542683"><ele>1132.0</ele><time>2026-04-12T10:37:39.193Z</time></trkpt><trkpt lat="37.9325783" lon="14.95434"><ele>1132.0</ele><time>2026-04-12T10:37:40.193Z</time></trkpt><trkpt lat="37.9325417" lon="14.9544083"><ele>1131.4285714285716</ele><time>2026-04-12T10:37:41.193Z</time></trkpt><trkpt lat="37.9325033" lon="14.9544733"><ele>1130.857142857143</ele><time>2026-04-12T10:37:42.192Z</time></trkpt><trkpt lat="37.93246" lon="14.9545317"><ele>1130.2857142857142</ele><time>2026-04-12T10:37:43.194Z</time></trkpt><trkpt lat="37.9324083" lon="14.95458"><ele>1129.7142857142858</ele><time>2026-04-12T10:37:44.193Z</time></trkpt><trkpt lat="37.9323517" lon="14.954615"><ele>1129.142857142857</ele><time>2026-04-12T10:37:45.192Z</time></trkpt><trkpt lat="37.9322933" lon="14.954645"><ele>1128.5714285714287</ele><time>2026-04-12T10:37:46.193Z</time></trkpt><trkpt lat="37.9321767" lon="14.9547"><ele>1128.0</ele><time>2026-04-12T10:37:48.193Z</time></trkpt><trkpt lat="37.9320617" lon="14.9547617"><ele>1128.0</ele><time>2026-04-12T10:37:50.192Z</time></trkpt><trkpt lat="37.9320033" lon="14.9547933"><ele>1128.0</ele><time>2026-04-12T10:37:51.192Z</time></trkpt><trkpt lat="37.931945" lon="14.9548283"><ele>1128.0</ele><time>2026-04-12T10:37:52.193Z</time></trkpt><trkpt lat="37.931885" lon="14.95486"><ele>1128.0</ele><time>2026-04-12T10:37:53.192Z</time></trkpt><trkpt lat="37.931825" lon="14.954885"><ele>1128.0</ele><time>2026-04-12T10:37:54.193Z</time></trkpt><trkpt lat="37.9317633" lon="14.9549133"><ele>1128.0</ele><time>2026-04-12T10:37:55.193Z</time></trkpt><trkpt lat="37.9316983" lon="14.9549317"><ele>1128.0</ele><time>2026-04-12T10:37:56.192Z</time></trkpt><trkpt lat="37.9315733" lon="14.9549417"><ele>1129.6666666666667</ele><time>2026-04-12T10:37:58.193Z</time></trkpt><trkpt lat="37.93151" lon="14.9549333"><ele>1131.3333333333333</ele><time>2026-04-12T10:37:59.193Z</time></trkpt><trkpt lat="37.9314467" lon="14.9549233"><ele>1133.0</ele><time>2026-04-12T10:38:00.192Z</time></trkpt><trkpt lat="37.9313833" lon="14.9549167"><ele>1134.6666666666665</ele><time>2026-04-12T10:38:01.193Z</time></trkpt><trkpt lat="37.93126" lon="14.9548983"><ele>1136.3333333333333</ele><time>2026-04-12T10:38:03.195Z</time></trkpt><trkpt lat="37.931195" lon="14.9549067"><ele>1138.0</ele><time>2026-04-12T10:38:04.195Z</time></trkpt><trkpt lat="37.9310717" lon="14.9549467"><ele>1138.0</ele><time>2026-04-12T10:38:06.194Z</time></trkpt><trkpt lat="37.9310117" lon="14.9549817"><ele>1138.0</ele><time>2026-04-12T10:38:07.195Z</time></trkpt><trkpt lat="37.930955" lon="14.955025"><ele>1138.0</ele><time>2026-04-12T10:38:08.194Z</time></trkpt><trkpt lat="37.9308983" lon="14.9550717"><ele>1138.0</ele><time>2026-04-12T10:38:09.194Z</time></trkpt><trkpt lat="37.9308433" lon="14.9551167"><ele>1138.0</ele><time>2026-04-12T10:38:10.192Z</time></trkpt><trkpt lat="37.9307917" lon="14.9551633"><ele>1138.0</ele><time>2026-04-12T10:38:11.193Z</time></trkpt><trkpt lat="37.9306867" lon="14.9552533"><ele>1135.857142857143</ele><time>2026-04-12T10:38:13.193Z</time></trkpt><trkpt lat="37.9306333" lon="14.9552967"><ele>1133.7142857142858</ele><time>2026-04-12T10:38:14.193Z</time></trkpt><trkpt lat="37.9305783" lon="14.955345"><ele>1131.5714285714284</ele><time>2026-04-12T10:38:15.193Z</time></trkpt><trkpt lat="37.930525" lon="14.9553967"><ele>1129.4285714285716</ele><time>2026-04-12T10:38:16.193Z</time></trkpt><trkpt lat="37.93047" lon="14.9554467"><ele>1127.2857142857142</ele><time>2026-04-12T10:38:17.193Z</time></trkpt><trkpt lat="37.930415" lon="14.9554933"><ele>1125.142857142857</ele><time>2026-04-12T10:38:18.194Z</time></trkpt><trkpt lat="37.9303567" lon="14.95553"><ele>1123.0</ele><time>2026-04-12T10:38:19.193Z</time></trkpt><trkpt lat="37.9302967" lon="14.9555583"><ele>1123.0</ele><time>2026-04-12T10:38:20.192Z</time></trkpt><trkpt lat="37.930235" lon="14.9555867"><ele>1123.0</ele><time>2026-04-12T10:38:21.192Z</time></trkpt><trkpt lat="37.93012" lon="14.9556433"><ele>1123.0</ele><time>2026-04-12T10:38:23.192Z</time></trkpt><trkpt lat="37.9300633" lon="14.9556817"><ele>1123.0</ele><time>2026-04-12T10:38:24.193Z</time></trkpt><trkpt lat="37.9300083" lon="14.95573"><ele>1123.0</ele><time>2026-04-12T10:38:25.192Z</time></trkpt><trkpt lat="37.929955" lon="14.95578"><ele>1123.0</ele><time>2026-04-12T10:38:26.193Z</time></trkpt><trkpt lat="37.929905" lon="14.95584"><ele>1122.2857142857142</ele><time>2026-04-12T10:38:27.194Z</time></trkpt><trkpt lat="37.9298617" lon="14.9559017"><ele>1121.5714285714284</ele><time>2026-04-12T10:38:28.193Z</time></trkpt><trkpt lat="37.9298183" lon="14.9559683"><ele>1120.857142857143</ele><time>2026-04-12T10:38:29.194Z</time></trkpt><trkpt lat="37.9297733" lon="14.9560367"><ele>1120.142857142857</ele><time>2026-04-12T10:38:30.193Z</time></trkpt><trkpt lat="37.9297283" lon="14.956105"><ele>1119.4285714285716</ele><time>2026-04-12T10:38:31.192Z</time></trkpt><trkpt lat="37.9296833" lon="14.9561733"><ele>1118.7142857142858</ele><time>2026-04-12T10:38:32.194Z</time></trkpt><trkpt lat="37.9296383" lon="14.956245"><ele>1118.0</ele><time>2026-04-12T10:38:33.194Z</time></trkpt><trkpt lat="37.9295933" lon="14.9563167"><ele>1118.0</ele><time>2026-04-12T10:38:34.195Z</time></trkpt><trkpt lat="37.9295483" lon="14.9563917"><ele>1118.0</ele><time>2026-04-12T10:38:35.194Z</time></trkpt><trkpt lat="37.9295083" lon="14.95647"><ele>1118.0</ele><time>2026-04-12T10:38:36.193Z</time></trkpt><trkpt lat="37.9294767" lon="14.9565617"><ele>1118.0</ele><time>2026-04-12T10:38:37.191Z</time></trkpt><trkpt lat="37.9294583" lon="14.9566617"><ele>1118.0</ele><time>2026-04-12T10:38:38.195Z</time></trkpt><trkpt lat="37.9294433" lon="14.9567567"><ele>1118.0</ele><time>2026-04-12T10:38:39.193Z</time></trkpt><trkpt lat="37.9294283" lon="14.9568617"><ele>1119.1666666666667</ele><time>2026-04-12T10:38:40.196Z</time></trkpt><trkpt lat="37.9294067" lon="14.9569667"><ele>1120.3333333333335</ele><time>2026-04-12T10:38:41.194Z</time></trkpt><trkpt lat="37.92937" lon="14.9570633"><ele>1121.5</ele><time>2026-04-12T10:38:42.194Z</time></trkpt><trkpt lat="37.9293183" lon="14.9571517"><ele>1122.6666666666667</ele><time>2026-04-12T10:38:43.192Z</time></trkpt><trkpt lat="37.9292583" lon="14.9572333"><ele>1123.8333333333333</ele><time>2026-04-12T10:38:44.193Z</time></trkpt><trkpt lat="37.9291883" lon="14.9573"><ele>1125.0</ele><time>2026-04-12T10:38:45.193Z</time></trkpt><trkpt lat="37.9291167" lon="14.957365"><ele>1125.0</ele><time>2026-04-12T10:38:46.192Z</time></trkpt><trkpt lat="37.9290483" lon="14.9574333"><ele>1125.0</ele><time>2026-04-12T10:38:47.194Z</time></trkpt><trkpt lat="37.9289767" lon="14.9575017"><ele>1125.0</ele><time>2026-04-12T10:38:48.192Z</time></trkpt><trkpt lat="37.9289017" lon="14.9575683"><ele>1125.0</ele><time>2026-04-12T10:38:49.193Z</time></trkpt><trkpt lat="37.92883" lon="14.9576333"><ele>1125.0</ele><time>2026-04-12T10:38:50.194Z</time></trkpt><trkpt lat="37.9287567" lon="14.9577"><ele>1125.0</ele><time>2026-04-12T10:38:51.193Z</time></trkpt><trkpt lat="37.928685" lon="14.9577667"><ele>1124.6</ele><time>2026-04-12T10:38:52.192Z</time></trkpt><trkpt lat="37.9286167" lon="14.9578383"><ele>1124.2</ele><time>2026-04-12T10:38:53.192Z</time></trkpt><trkpt lat="37.92855" lon="14.9579183"><ele>1123.8</ele><time>2026-04-12T10:38:54.193Z</time></trkpt><trkpt lat="37.9284883" lon="14.9580067"><ele>1123.4</ele><time>2026-04-12T10:38:55.193Z</time></trkpt><trkpt lat="37.92843" lon="14.958095"><ele>1123.0</ele><time>2026-04-12T10:38:56.194Z</time></trkpt><trkpt lat="37.9283683" lon="14.95819"><ele>1123.0</ele><time>2026-04-12T10:38:57.193Z</time></trkpt><trkpt lat="37.92831" lon="14.95829"><ele>1123.0</ele><time>2026-04-12T10:38:58.193Z</time></trkpt><trkpt lat="37.92825" lon="14.95839"><ele>1123.0</ele><time>2026-04-12T10:38:59.192Z</time></trkpt><trkpt lat="37.9281867" lon="14.9584883"><ele>1123.0</ele><time>2026-04-12T10:39:00.193Z</time></trkpt><trkpt lat="37.9281233" lon="14.9585833"><ele>1123.0</ele><time>2026-04-12T10:39:01.193Z</time></trkpt><trkpt lat="37.9280533" lon="14.9586683"><ele>1116.2</ele><time>2026-04-12T10:39:02.194Z</time></trkpt><trkpt lat="37.9279667" lon="14.958735"><ele>1109.4</ele><time>2026-04-12T10:39:03.193Z</time></trkpt><trkpt lat="37.9278667" lon="14.9587617"><ele>1102.6000000000001</ele><time>2026-04-12T10:39:04.192Z</time></trkpt><trkpt lat="37.9277633" lon="14.9587417"><ele>1095.8</ele><time>2026-04-12T10:39:05.193Z</time></trkpt><trkpt lat="37.927665" lon="14.9587033"><ele>1089.0</ele><time>2026-04-12T10:39:06.192Z</time></trkpt><trkpt lat="37.9275667" lon="14.9586633"><ele>1091.2</ele><time>2026-04-12T10:39:07.194Z</time></trkpt><trkpt lat="37.92747" lon="14.958625"><ele>1093.4</ele><time>2026-04-12T10:39:08.195Z</time></trkpt><trkpt lat="37.92737" lon="14.9585933"><ele>1095.6</ele><time>2026-04-12T10:39:09.193Z</time></trkpt><trkpt lat="37.9272717" lon="14.9585717"><ele>1097.8</ele><time>2026-04-12T10:39:10.192Z</time></trkpt><trkpt lat="37.9271733" lon="14.9585767"><ele>1100.0</ele><time>2026-04-12T10:39:11.192Z</time></trkpt><trkpt lat="37.9270767" lon="14.9586083"><ele>1100.0</ele><time>2026-04-12T10:39:12.192Z</time></trkpt><trkpt lat="37.926985" lon="14.9586617"><ele>1100.0</ele><time>2026-04-12T10:39:13.193Z</time></trkpt><trkpt lat="37.9269" lon="14.9587217"><ele>1100.0</ele><time>2026-04-12T10:39:14.193Z</time></trkpt><trkpt lat="37.9268167" lon="14.958785"><ele>1100.0</ele><time>2026-04-12T10:39:15.193Z</time></trkpt><trkpt lat="37.9267333" lon="14.9588483"><ele>1100.0</ele><time>2026-04-12T10:39:16.191Z</time></trkpt><trkpt lat="37.9266517" lon="14.9589133"><ele>1102.0</ele><time>2026-04-12T10:39:17.192Z</time></trkpt><trkpt lat="37.9265767" lon="14.9589883"><ele>1104.0</ele><time>2026-04-12T10:39:18.194Z</time></trkpt><trkpt lat="37.9265017" lon="14.9590683"><ele>1106.0</ele><time>2026-04-12T10:39:19.195Z</time></trkpt><trkpt lat="37.9264283" lon="14.9591533"><ele>1108.0</ele><time>2026-04-12T10:39:20.195Z</time></trkpt><trkpt lat="37.926355" lon="14.959235"><ele>1110.0</ele><time>2026-04-12T10:39:21.193Z</time></trkpt><trkpt lat="37.9262783" lon="14.9593133"><ele>1108.0</ele><time>2026-04-12T10:39:22.194Z</time></trkpt><trkpt lat="37.9261883" lon="14.9593733"><ele>1106.0</ele><time>2026-04-12T10:39:23.194Z</time></trkpt><trkpt lat="37.92609" lon="14.9593883"><ele>1104.0</ele><time>2026-04-12T10:39:24.194Z</time></trkpt><trkpt lat="37.9259917" lon="14.9593567"><ele>1102.0</ele><time>2026-04-12T10:39:25.195Z</time></trkpt><trkpt lat="37.9259233" lon="14.959255"><ele>1100.0</ele><time>2026-04-12T10:39:26.195Z</time></trkpt><trkpt lat="37.9258583" lon="14.9591533"><ele>1100.0</ele><time>2026-04-12T10:39:27.193Z</time></trkpt><trkpt lat="37.925785" lon="14.9590683"><ele>1100.0</ele><time>2026-04-12T10:39:28.193Z</time></trkpt><trkpt lat="37.925695" lon="14.9590033"><ele>1100.0</ele><time>2026-04-12T10:39:29.195Z</time></trkpt><trkpt lat="37.9255983" lon="14.9589633"><ele>1100.0</ele><time>2026-04-12T10:39:30.194Z</time></trkpt><trkpt lat="37.925495" lon="14.9589433"><ele>1100.0</ele><time>2026-04-12T10:39:31.195Z</time></trkpt><trkpt lat="37.92539" lon="14.95893"><ele>1100.0</ele><time>2026-04-12T10:39:32.195Z</time></trkpt><trkpt lat="37.9252833" lon="14.958905"><ele>1100.0</ele><time>2026-04-12T10:39:33.194Z</time></trkpt><trkpt lat="37.9251783" lon="14.95886"><ele>1100.0</ele><time>2026-04-12T10:39:34.194Z</time></trkpt><trkpt lat="37.9250733" lon="14.9588067"><ele>1100.0</ele><time>2026-04-12T10:39:35.194Z</time></trkpt><trkpt lat="37.9249717" lon="14.9587467"><ele>1100.0</ele><time>2026-04-12T10:39:36.194Z</time></trkpt><trkpt lat="37.92487" lon="14.9586833"><ele>1101.75</ele><time>2026-04-12T10:39:37.196Z</time></trkpt><trkpt lat="37.9247667" lon="14.9586167"><ele>1103.5</ele><time>2026-04-12T10:39:38.194Z</time></trkpt><trkpt lat="37.924665" lon="14.958545"><ele>1105.25</ele><time>2026-04-12T10:39:39.193Z</time></trkpt><trkpt lat="37.9245667" lon="14.95846"><ele>1107.0</ele><time>2026-04-12T10:39:40.193Z</time></trkpt><trkpt lat="37.924475" lon="14.9583633"><ele>1107.0</ele><time>2026-04-12T10:39:41.193Z</time></trkpt><trkpt lat="37.924385" lon="14.9582633"><ele>1107.0</ele><time>2026-04-12T10:39:42.191Z</time></trkpt><trkpt lat="37.9242917" lon="14.958165"><ele>1107.0</ele><time>2026-04-12T10:39:43.191Z</time></trkpt><trkpt lat="37.924195" lon="14.9580717"><ele>1107.0</ele><time>2026-04-12T10:39:44.192Z</time></trkpt><trkpt lat="37.9240967" lon="14.9579833"><ele>1101.75</ele><time>2026-04-12T10:39:45.192Z</time></trkpt><trkpt lat="37.923985" lon="14.9579117"><ele>1096.5</ele><time>2026-04-12T10:39:46.194Z</time></trkpt><trkpt lat="37.92387" lon="14.9578567"><ele>1091.25</ele><time>2026-04-12T10:39:47.192Z</time></trkpt><trkpt lat="37.9237483" lon="14.9578133"><ele>1086.0</ele><time>2026-04-12T10:39:48.192Z</time></trkpt><trkpt lat="37.923625" lon="14.9577833"><ele>1086.0</ele><time>2026-04-12T10:39:49.193Z</time></trkpt><trkpt lat="37.9235" lon="14.95777"><ele>1086.0</ele><time>2026-04-12T10:39:50.193Z</time></trkpt><trkpt lat="37.923375" lon="14.9577717"><ele>1086.0</ele><time>2026-04-12T10:39:51.193Z</time></trkpt><trkpt lat="37.9232517" lon="14.9577733"><ele>1086.0</ele><time>2026-04-12T10:39:52.193Z</time></trkpt><trkpt lat="37.92313" lon="14.9577767"><ele>1082.75</ele><time>2026-04-12T10:39:53.197Z</time></trkpt><trkpt lat="37.9230083" lon="14.9577783"><ele>1079.5</ele><time>2026-04-12T10:39:54.194Z</time></trkpt><trkpt lat="37.9228867" lon="14.95778"><ele>1076.25</ele><time>2026-04-12T10:39:55.195Z</time></trkpt><trkpt lat="37.922765" lon="14.9577867"><ele>1073.0</ele><time>2026-04-12T10:39:56.193Z</time></trkpt><trkpt lat="37.9226433" lon="14.957795"><ele>1072.25</ele><time>2026-04-12T10:39:57.194Z</time></trkpt><trkpt lat="37.9225233" lon="14.95781"><ele>1071.5</ele><time>2026-04-12T10:39:58.193Z</time></trkpt><trkpt lat="37.92241" lon="14.9578417"><ele>1070.75</ele><time>2026-04-12T10:39:59.194Z</time></trkpt><trkpt lat="37.9223017" lon="14.957895"><ele>1070.0</ele><time>2026-04-12T10:40:00.193Z</time></trkpt><trkpt lat="37.922205" lon="14.9579667"><ele>1070.0</ele><time>2026-04-12T10:40:01.194Z</time></trkpt><trkpt lat="37.922115" lon="14.9580517"><ele>1070.0</ele><time>2026-04-12T10:40:02.194Z</time></trkpt><trkpt lat="37.9220317" lon="14.95814"><ele>1070.0</ele><time>2026-04-12T10:40:03.193Z</time></trkpt><trkpt lat="37.9219533" lon="14.9582217"><ele>1070.0</ele><time>2026-04-12T10:40:04.194Z</time></trkpt><trkpt lat="37.92188" lon="14.9583"><ele>1070.0</ele><time>2026-04-12T10:40:05.194Z</time></trkpt><trkpt lat="37.92181" lon="14.958375"><ele>1069.6666666666667</ele><time>2026-04-12T10:40:06.193Z</time></trkpt><trkpt lat="37.921745" lon="14.95845"><ele>1069.3333333333335</ele><time>2026-04-12T10:40:07.194Z</time></trkpt><trkpt lat="37.9216833" lon="14.9585267"><ele>1069.0</ele><time>2026-04-12T10:40:08.193Z</time></trkpt><trkpt lat="37.92163" lon="14.9586033"><ele>1068.6666666666667</ele><time>2026-04-12T10:40:09.193Z</time></trkpt><trkpt lat="37.9215833" lon="14.958675"><ele>1068.3333333333333</ele><time>2026-04-12T10:40:10.193Z</time></trkpt><trkpt lat="37.921535" lon="14.9587433"><ele>1068.0</ele><time>2026-04-12T10:40:11.193Z</time></trkpt><trkpt lat="37.9214867" lon="14.958805"><ele>1068.0</ele><time>2026-04-12T10:40:12.193Z</time></trkpt><trkpt lat="37.9214383" lon="14.9588583"><ele>1068.0</ele><time>2026-04-12T10:40:13.193Z</time></trkpt><trkpt lat="37.9213883" lon="14.9589117"><ele>1068.0</ele><time>2026-04-12T10:40:14.195Z</time></trkpt><trkpt lat="37.9212983" lon="14.9590167"><ele>1068.0</ele><time>2026-04-12T10:40:16.195Z</time></trkpt><trkpt lat="37.92121" lon="14.9591067"><ele>1068.0</ele><time>2026-04-12T10:40:18.193Z</time></trkpt><trkpt lat="37.9211333" lon="14.9591933"><ele>1067.6666666666667</ele><time>2026-04-12T10:40:20.194Z</time></trkpt><trkpt lat="37.921065" lon="14.9592683"><ele>1067.3333333333333</ele><time>2026-04-12T10:40:22.193Z</time></trkpt><trkpt lat="37.9209983" lon="14.9593317"><ele>1067.0</ele><time>2026-04-12T10:40:24.194Z</time></trkpt><trkpt lat="37.9209467" lon="14.9593933"><ele>1066.6666666666665</ele><time>2026-04-12T10:40:26.195Z</time></trkpt><trkpt lat="37.9208983" lon="14.9594617"><ele>1066.3333333333333</ele><time>2026-04-12T10:40:29.194Z</time></trkpt><trkpt lat="37.9208433" lon="14.95956"><ele>1066.0</ele><time>2026-04-12T10:41:30.194Z</time></trkpt><trkpt lat="37.9207917" lon="14.959655"><ele>1066.0</ele><time>2026-04-12T10:41:33.192Z</time></trkpt><trkpt lat="37.9207533" lon="14.9597383"><ele>1066.0</ele><time>2026-04-12T10:41:35.194Z</time></trkpt><trkpt lat="37.920725" lon="14.9598467"><ele>1066.0</ele><time>2026-04-12T10:41:37.194Z</time></trkpt><trkpt lat="37.9207267" lon="14.959965"><ele>1066.0</ele><time>2026-04-12T10:41:39.196Z</time></trkpt><trkpt lat="37.9207617" lon="14.96008"><ele>1066.0</ele><time>2026-04-12T10:41:41.194Z</time></trkpt><trkpt lat="37.9208217" lon="14.9601867"><ele>1061.0</ele><time>2026-04-12T10:41:43.193Z</time></trkpt><trkpt lat="37.9209117" lon="14.96027"><ele>1056.0</ele><time>2026-04-12T10:41:45.193Z</time></trkpt><trkpt lat="37.9210167" lon="14.960315"><ele>1051.0</ele><time>2026-04-12T10:41:47.194Z</time></trkpt><trkpt lat="37.9211217" lon="14.96031"><ele>1046.0</ele><time>2026-04-12T10:41:49.193Z</time></trkpt><trkpt lat="37.921215" lon="14.9602717"><ele>1041.0</ele><time>2026-04-12T10:41:51.194Z</time></trkpt><trkpt lat="37.9212867" lon="14.96019"><ele>1041.0</ele><time>2026-04-12T10:41:53.194Z</time></trkpt><trkpt lat="37.9213433" lon="14.9601017"><ele>1041.0</ele><time>2026-04-12T10:41:55.193Z</time></trkpt><trkpt lat="37.92139" lon="14.9600267"><ele>1041.0</ele><time>2026-04-12T10:41:57.194Z</time></trkpt><trkpt lat="37.9214383" lon="14.9599517"><ele>1041.0</ele><time>2026-04-12T10:41:59.193Z</time></trkpt><trkpt lat="37.9214983" lon="14.9598717"><ele>1041.0</ele><time>2026-04-12T10:42:01.194Z</time></trkpt><trkpt lat="37.92157" lon="14.9597733"><ele>1041.0</ele><time>2026-04-12T10:42:03.193Z</time></trkpt><trkpt lat="37.9216617" lon="14.9596733"><ele>1042.0</ele><time>2026-04-12T10:42:05.195Z</time></trkpt><trkpt lat="37.9217133" lon="14.959625"><ele>1043.0</ele><time>2026-04-12T10:42:06.194Z</time></trkpt><trkpt lat="37.921765" lon="14.9595633"><ele>1044.0</ele><time>2026-04-12T10:42:07.194Z</time></trkpt><trkpt lat="37.9218133" lon="14.9595017"><ele>1045.0</ele><time>2026-04-12T10:42:08.194Z</time></trkpt><trkpt lat="37.921865" lon="14.95943"><ele>1046.0</ele><time>2026-04-12T10:42:09.194Z</time></trkpt><trkpt lat="37.92192" lon="14.9593567"><ele>1047.0</ele><time>2026-04-12T10:42:10.193Z</time></trkpt><trkpt lat="37.92198" lon="14.9592867"><ele>1048.0</ele><time>2026-04-12T10:42:11.193Z</time></trkpt><trkpt lat="37.9220483" lon="14.9592417"><ele>1048.0</ele><time>2026-04-12T10:42:12.193Z</time></trkpt><trkpt lat="37.9221317" lon="14.959225"><ele>1048.0</ele><time>2026-04-12T10:42:13.192Z</time></trkpt><trkpt lat="37.922225" lon="14.9592567"><ele>1048.0</ele><time>2026-04-12T10:42:14.193Z</time></trkpt><trkpt lat="37.922295" lon="14.9593283"><ele>1048.0</ele><time>2026-04-12T10:42:15.193Z</time></trkpt><trkpt lat="37.9223367" lon="14.9594233"><ele>1048.0</ele><time>2026-04-12T10:42:16.193Z</time></trkpt><trkpt lat="37.9223483" lon="14.95954"><ele>1048.0</ele><time>2026-04-12T10:42:17.194Z</time></trkpt><trkpt lat="37.9223233" lon="14.95966"><ele>1048.0</ele><time>2026-04-12T10:42:18.193Z</time></trkpt><trkpt lat="37.9222517" lon="14.95977"><ele>1048.0</ele><time>2026-04-12T10:42:19.192Z</time></trkpt><trkpt lat="37.9221867" lon="14.9598833"><ele>1048.0</ele><time>2026-04-12T10:42:20.193Z</time></trkpt><trkpt lat="37.9221233" lon="14.95999"><ele>1048.0</ele><time>2026-04-12T10:42:21.192Z</time></trkpt><trkpt lat="37.92206" lon="14.96009"><ele>1048.0</ele><time>2026-04-12T10:42:22.193Z</time></trkpt><trkpt lat="37.9219883" lon="14.960185"><ele>1046.6</ele><time>2026-04-12T10:42:23.192Z</time></trkpt><trkpt lat="37.92191" lon="14.9602717"><ele>1045.1999999999998</ele><time>2026-04-12T10:42:24.193Z</time></trkpt><trkpt lat="37.9218283" lon="14.9603533"><ele>1043.8</ele><time>2026-04-12T10:42:25.193Z</time></trkpt><trkpt lat="37.9217383" lon="14.9604233"><ele>1042.3999999999999</ele><time>2026-04-12T10:42:26.193Z</time></trkpt><trkpt lat="37.92165" lon="14.9604917"><ele>1041.0</ele><time>2026-04-12T10:42:27.193Z</time></trkpt><trkpt lat="37.9215617" lon="14.960565"><ele>1041.0</ele><time>2026-04-12T10:42:28.193Z</time></trkpt><trkpt lat="37.9214733" lon="14.9606367"><ele>1041.0</ele><time>2026-04-12T10:42:29.194Z</time></trkpt><trkpt lat="37.92138" lon="14.960705"><ele>1041.0</ele><time>2026-04-12T10:42:30.193Z</time></trkpt><trkpt lat="37.92129" lon="14.960775"><ele>1041.0</ele><time>2026-04-12T10:42:31.193Z</time></trkpt><trkpt lat="37.9212" lon="14.9608483"><ele>1041.0</ele><time>2026-04-12T10:42:32.195Z</time></trkpt><trkpt lat="37.92111" lon="14.9609233"><ele>1040.0</ele><time>2026-04-12T10:42:33.193Z</time></trkpt><trkpt lat="37.9210167" lon="14.961"><ele>1039.0</ele><time>2026-04-12T10:42:34.193Z</time></trkpt><trkpt lat="37.9209233" lon="14.961075"><ele>1038.0</ele><time>2026-04-12T10:42:35.193Z</time></trkpt><trkpt lat="37.9208283" lon="14.96115"><ele>1037.0</ele><time>2026-04-12T10:42:36.193Z</time></trkpt><trkpt lat="37.9207333" lon="14.9612217"><ele>1036.0</ele><time>2026-04-12T10:42:37.194Z</time></trkpt><trkpt lat="37.9206367" lon="14.9613"><ele>1036.0</ele><time>2026-04-12T10:42:38.194Z</time></trkpt><trkpt lat="37.920545" lon="14.961375"><ele>1036.0</ele><time>2026-04-12T10:42:39.194Z</time></trkpt><trkpt lat="37.920455" lon="14.96146"><ele>1036.0</ele><time>2026-04-12T10:42:40.193Z</time></trkpt><trkpt lat="37.9203733" lon="14.96156"><ele>1036.0</ele><time>2026-04-12T10:42:41.192Z</time></trkpt><trkpt lat="37.9203017" lon="14.9616733"><ele>1036.0</ele><time>2026-04-12T10:42:42.193Z</time></trkpt><trkpt lat="37.9202383" lon="14.9617933"><ele>1034.2</ele><time>2026-04-12T10:42:43.192Z</time></trkpt><trkpt lat="37.9201817" lon="14.9619083"><ele>1032.3999999999999</ele><time>2026-04-12T10:42:44.194Z</time></trkpt><trkpt lat="37.9201133" lon="14.9620117"><ele>1030.6</ele><time>2026-04-12T10:42:45.194Z</time></trkpt><trkpt lat="37.92003" lon="14.9620933"><ele>1028.8</ele><time>2026-04-12T10:42:46.193Z</time></trkpt><trkpt lat="37.9199333" lon="14.9621467"><ele>1027.0</ele><time>2026-04-12T10:42:47.192Z</time></trkpt><trkpt lat="37.919825" lon="14.9621817"><ele>1027.0</ele><time>2026-04-12T10:42:48.193Z</time></trkpt><trkpt lat="37.9197183" lon="14.9622183"><ele>1027.0</ele><time>2026-04-12T10:42:49.194Z</time></trkpt><trkpt lat="37.9196133" lon="14.9622567"><ele>1027.0</ele><time>2026-04-12T10:42:50.195Z</time></trkpt><trkpt lat="37.9195067" lon="14.9622933"><ele>1027.0</ele><time>2026-04-12T10:42:51.192Z</time></trkpt><trkpt lat="37.9193983" lon="14.9623283"><ele>1027.0</ele><time>2026-04-12T10:42:52.192Z</time></trkpt><trkpt lat="37.9192917" lon="14.9623633"><ele>1026.75</ele><time>2026-04-12T10:42:53.194Z</time></trkpt><trkpt lat="37.9191817" lon="14.9623717"><ele>1026.5</ele><time>2026-04-12T10:42:54.194Z</time></trkpt><trkpt lat="37.9189667" lon="14.962335"><ele>1026.25</ele><time>2026-04-12T10:42:56.194Z</time></trkpt><trkpt lat="37.91886" lon="14.96231"><ele>1026.0</ele><time>2026-04-12T10:42:57.192Z</time></trkpt><trkpt lat="37.918755" lon="14.9622917"><ele>1026.0</ele><time>2026-04-12T10:42:58.192Z</time></trkpt><trkpt lat="37.9186517" lon="14.9622683"><ele>1026.0</ele><time>2026-04-12T10:42:59.194Z</time></trkpt><trkpt lat="37.91855" lon="14.96225"><ele>1026.0</ele><time>2026-04-12T10:43:00.193Z</time></trkpt><trkpt lat="37.9184517" lon="14.9622267"><ele>1026.0</ele><time>2026-04-12T10:43:01.193Z</time></trkpt><trkpt lat="37.9183517" lon="14.9622083"><ele>1026.0</ele><time>2026-04-12T10:43:02.193Z</time></trkpt><trkpt lat="37.918255" lon="14.9622"><ele>1025.6666666666667</ele><time>2026-04-12T10:43:03.194Z</time></trkpt><trkpt lat="37.9181583" lon="14.962205"><ele>1025.3333333333333</ele><time>2026-04-12T10:43:04.193Z</time></trkpt><trkpt lat="37.9180667" lon="14.9622267"><ele>1025.0</ele><time>2026-04-12T10:43:05.194Z</time></trkpt><trkpt lat="37.9179867" lon="14.962245"><ele>1024.6666666666665</ele><time>2026-04-12T10:43:06.194Z</time></trkpt><trkpt lat="37.9179083" lon="14.9622717"><ele>1024.3333333333333</ele><time>2026-04-12T10:43:07.192Z</time></trkpt><trkpt lat="37.9178333" lon="14.9622933"><ele>1024.0</ele><time>2026-04-12T10:43:08.195Z</time></trkpt><trkpt lat="37.9177667" lon="14.9623133"><ele>1024.0</ele><time>2026-04-12T10:43:09.193Z</time></trkpt><trkpt lat="37.9176633" lon="14.9623333"><ele>1024.0</ele><time>2026-04-12T10:43:11.192Z</time></trkpt><trkpt lat="37.91756" lon="14.962365"><ele>1024.0</ele><time>2026-04-12T10:43:13.194Z</time></trkpt><trkpt lat="37.9174483" lon="14.9624283"><ele>1024.0</ele><time>2026-04-12T10:43:15.193Z</time></trkpt><trkpt lat="37.9173417" lon="14.9624867"><ele>1024.0</ele><time>2026-04-12T10:43:17.193Z</time></trkpt><trkpt lat="37.9172433" lon="14.9625333"><ele>1023.0</ele><time>2026-04-12T10:43:19.193Z</time></trkpt><trkpt lat="37.917145" lon="14.9625783"><ele>1022.0000000000001</ele><time>2026-04-12T10:43:21.192Z</time></trkpt><trkpt lat="37.9170483" lon="14.9626183"><ele>1021.0000000000001</ele><time>2026-04-12T10:43:23.192Z</time></trkpt><trkpt lat="37.916955" lon="14.9626767"><ele>1020.0</ele><time>2026-04-12T10:43:25.196Z</time></trkpt><trkpt lat="37.9168667" lon="14.9627417"><ele>1019.0</ele><time>2026-04-12T10:43:27.193Z</time></trkpt><trkpt lat="37.916785" lon="14.962795"><ele>1021.2</ele><time>2026-04-12T10:43:29.194Z</time></trkpt><trkpt lat="37.916705" lon="14.96284"><ele>1023.4000000000001</ele><time>2026-04-12T10:43:31.194Z</time></trkpt><trkpt lat="37.9166333" lon="14.96289"><ele>1025.6</ele><time>2026-04-12T10:43:33.192Z</time></trkpt><trkpt lat="37.9165517" lon="14.9629317"><ele>1027.8</ele><time>2026-04-12T10:43:35.193Z</time></trkpt><trkpt lat="37.916455" lon="14.9629667"><ele>1030.0</ele><time>2026-04-12T10:43:37.196Z</time></trkpt><trkpt lat="37.91635" lon="14.963005"><ele>1030.0</ele><time>2026-04-12T10:43:39.193Z</time></trkpt><trkpt lat="37.9162483" lon="14.9630417"><ele>1030.0</ele><time>2026-04-12T10:43:41.192Z</time></trkpt><trkpt lat="37.91615" lon="14.9630833"><ele>1030.0</ele><time>2026-04-12T10:43:43.192Z</time></trkpt><trkpt lat="37.9160483" lon="14.963105"><ele>1030.0</ele><time>2026-04-12T10:43:45.192Z</time></trkpt><trkpt lat="37.915945" lon="14.96313"><ele>1030.0</ele><time>2026-04-12T10:43:47.193Z</time></trkpt><trkpt lat="37.9158417" lon="14.9631533"><ele>1030.2</ele><time>2026-04-12T10:43:49.193Z</time></trkpt><trkpt lat="37.9157333" lon="14.9631933"><ele>1030.4</ele><time>2026-04-12T10:43:51.194Z</time></trkpt><trkpt lat="37.9156033" lon="14.9632217"><ele>1030.6</ele><time>2026-04-12T10:43:53.193Z</time></trkpt><trkpt lat="37.9155333" lon="14.9632333"><ele>1030.8</ele><time>2026-04-12T10:43:54.193Z</time></trkpt><trkpt lat="37.9154633" lon="14.96326"><ele>1031.0</ele><time>2026-04-12T10:43:55.193Z</time></trkpt><trkpt lat="37.91539" lon="14.9632933"><ele>1031.0</ele><time>2026-04-12T10:43:56.193Z</time></trkpt><trkpt lat="37.9153267" lon="14.96333"><ele>1031.0</ele><time>2026-04-12T10:43:57.192Z</time></trkpt><trkpt lat="37.915265" lon="14.96338"><ele>1031.0</ele><time>2026-04-12T10:43:58.193Z</time></trkpt><trkpt lat="37.9152017" lon="14.9634467"><ele>1031.0</ele><time>2026-04-12T10:43:59.192Z</time></trkpt><trkpt lat="37.9151317" lon="14.9635133"><ele>1031.0</ele><time>2026-04-12T10:44:00.193Z</time></trkpt><trkpt lat="37.9150633" lon="14.9635733"><ele>1031.0</ele><time>2026-04-12T10:44:01.193Z</time></trkpt><trkpt lat="37.9149983" lon="14.9636217"><ele>1029.6666666666667</ele><time>2026-04-12T10:44:02.194Z</time></trkpt><trkpt lat="37.914935" lon="14.9636633"><ele>1028.3333333333335</ele><time>2026-04-12T10:44:03.192Z</time></trkpt><trkpt lat="37.9148783" lon="14.96372"><ele>1027.0</ele><time>2026-04-12T10:44:04.193Z</time></trkpt><trkpt lat="37.9148233" lon="14.9637733"><ele>1025.6666666666667</ele><time>2026-04-12T10:44:05.194Z</time></trkpt><trkpt lat="37.91477" lon="14.963825"><ele>1024.3333333333333</ele><time>2026-04-12T10:44:06.192Z</time></trkpt><trkpt lat="37.91472" lon="14.9638767"><ele>1023.0</ele><time>2026-04-12T10:44:07.192Z</time></trkpt><trkpt lat="37.9146383" lon="14.9639683"><ele>1023.0</ele><time>2026-04-12T10:44:09.193Z</time></trkpt><trkpt lat="37.9145517" lon="14.964055"><ele>1023.0</ele><time>2026-04-12T10:44:11.194Z</time></trkpt><trkpt lat="37.9144583" lon="14.9641183"><ele>1023.0</ele><time>2026-04-12T10:44:13.193Z</time></trkpt><trkpt lat="37.9144" lon="14.9641617"><ele>1023.0</ele><time>2026-04-12T10:44:14.194Z</time></trkpt><trkpt lat="37.914335" lon="14.96421"><ele>1023.0</ele><time>2026-04-12T10:44:15.193Z</time></trkpt><trkpt lat="37.9142717" lon="14.96425"><ele>1023.0</ele><time>2026-04-12T10:44:16.193Z</time></trkpt><trkpt lat="37.91421" lon="14.9642917"><ele>1021.8571428571429</ele><time>2026-04-12T10:44:17.193Z</time></trkpt><trkpt lat="37.9141433" lon="14.9643267"><ele>1020.7142857142857</ele><time>2026-04-12T10:44:18.194Z</time></trkpt><trkpt lat="37.9140783" lon="14.9643683"><ele>1019.5714285714286</ele><time>2026-04-12T10:44:19.194Z</time></trkpt><trkpt lat="37.9140117" lon="14.9644067"><ele>1018.4285714285714</ele><time>2026-04-12T10:44:20.194Z</time></trkpt><trkpt lat="37.9139433" lon="14.96444"><ele>1017.2857142857142</ele><time>2026-04-12T10:44:21.194Z</time></trkpt><trkpt lat="37.9138733" lon="14.9644767"><ele>1016.1428571428571</ele><time>2026-04-12T10:44:22.193Z</time></trkpt><trkpt lat="37.9138" lon="14.9645167"><ele>1015.0</ele><time>2026-04-12T10:44:23.193Z</time></trkpt><trkpt lat="37.9137267" lon="14.9645467"><ele>1014.9999999999999</ele><time>2026-04-12T10:44:24.193Z</time></trkpt><trkpt lat="37.913655" lon="14.96458"><ele>1015.0</ele><time>2026-04-12T10:44:25.193Z</time></trkpt><trkpt lat="37.91358" lon="14.9646233"><ele>1015.0</ele><time>2026-04-12T10:44:26.193Z</time></trkpt><trkpt lat="37.9135" lon="14.9646733"><ele>1015.0</ele><time>2026-04-12T10:44:27.193Z</time></trkpt><trkpt lat="37.9134183" lon="14.9647183"><ele>1014.9999999999999</ele><time>2026-04-12T10:44:28.193Z</time></trkpt><trkpt lat="37.9133367" lon="14.9647567"><ele>1015.0</ele><time>2026-04-12T10:44:29.193Z</time></trkpt><trkpt lat="37.9132517" lon="14.9647883"><ele>1015.0</ele><time>2026-04-12T10:44:30.194Z</time></trkpt><trkpt lat="37.913165" lon="14.96481"><ele>1015.0</ele><time>2026-04-12T10:44:31.193Z</time></trkpt><trkpt lat="37.913075" lon="14.9648167"><ele>1015.0</ele><time>2026-04-12T10:44:32.195Z</time></trkpt><trkpt lat="37.9129867" lon="14.9648117"><ele>1015.0</ele><time>2026-04-12T10:44:33.194Z</time></trkpt><trkpt lat="37.9129" lon="14.9647783"><ele>1015.0</ele><time>2026-04-12T10:44:34.193Z</time></trkpt><trkpt lat="37.91282" lon="14.964715"><ele>1015.0</ele><time>2026-04-12T10:44:35.195Z</time></trkpt><trkpt lat="37.91274" lon="14.9646467"><ele>1015.0</ele><time>2026-04-12T10:44:36.192Z</time></trkpt><trkpt lat="37.9126533" lon="14.964585"><ele>1015.0</ele><time>2026-04-12T10:44:37.193Z</time></trkpt><trkpt lat="37.9125633" lon="14.964535"><ele>1015.0</ele><time>2026-04-12T10:44:38.195Z</time></trkpt><trkpt lat="37.9124683" lon="14.9645033"><ele>1015.0</ele><time>2026-04-12T10:44:39.193Z</time></trkpt><trkpt lat="37.9123667" lon="14.9644917"><ele>1012.8</ele><time>2026-04-12T10:44:40.193Z</time></trkpt><trkpt lat="37.9122633" lon="14.9644917"><ele>1010.6</ele><time>2026-04-12T10:44:41.192Z</time></trkpt><trkpt lat="37.9121583" lon="14.9645067"><ele>1008.4000000000001</ele><time>2026-04-12T10:44:42.192Z</time></trkpt><trkpt lat="37.9120533" lon="14.9645333"><ele>1006.2</ele><time>2026-04-12T10:44:43.194Z</time></trkpt><trkpt lat="37.9119517" lon="14.964575"><ele>1004.0</ele><time>2026-04-12T10:44:44.194Z</time></trkpt><trkpt lat="37.9118483" lon="14.964625"><ele>1002.75</ele><time>2026-04-12T10:44:45.193Z</time></trkpt><trkpt lat="37.9117383" lon="14.9646517"><ele>1001.5</ele><time>2026-04-12T10:44:46.192Z</time></trkpt><trkpt lat="37.911625" lon="14.9646383"><ele>1000.25</ele><time>2026-04-12T10:44:47.193Z</time></trkpt><trkpt lat="37.911515" lon="14.96459"><ele>999.0</ele><time>2026-04-12T10:44:48.194Z</time></trkpt><trkpt lat="37.911415" lon="14.9645133"><ele>999.0</ele><time>2026-04-12T10:44:49.192Z</time></trkpt><trkpt lat="37.9113217" lon="14.9644217"><ele>999.0</ele><time>2026-04-12T10:44:50.194Z</time></trkpt><trkpt lat="37.9112317" lon="14.9643233"><ele>999.0</ele><time>2026-04-12T10:44:51.193Z</time></trkpt><trkpt lat="37.91114" lon="14.9642233"><ele>999.0</ele><time>2026-04-12T10:44:52.194Z</time></trkpt><trkpt lat="37.911045" lon="14.964125"><ele>998.0</ele><time>2026-04-12T10:44:53.194Z</time></trkpt><trkpt lat="37.9109483" lon="14.96403"><ele>997.0</ele><time>2026-04-12T10:44:54.192Z</time></trkpt><trkpt lat="37.9108467" lon="14.963945"><ele>996.0</ele><time>2026-04-12T10:44:55.194Z</time></trkpt><trkpt lat="37.9107367" lon="14.9638717"><ele>995.0</ele><time>2026-04-12T10:44:56.193Z</time></trkpt><trkpt lat="37.9106217" lon="14.9638167"><ele>995.0</ele><time>2026-04-12T10:44:57.194Z</time></trkpt><trkpt lat="37.9105033" lon="14.9637733"><ele>995.0</ele><time>2026-04-12T10:44:58.195Z</time></trkpt><trkpt lat="37.9103867" lon="14.96373"><ele>995.0</ele><time>2026-04-12T10:44:59.195Z</time></trkpt><trkpt lat="37.91027" lon="14.96369"><ele>995.0</ele><time>2026-04-12T10:45:00.194Z</time></trkpt><trkpt lat="37.9101533" lon="14.9636533"><ele>991.5</ele><time>2026-04-12T10:45:01.195Z</time></trkpt><trkpt lat="37.9100383" lon="14.96362"><ele>988.0</ele><time>2026-04-12T10:45:02.195Z</time></trkpt><trkpt lat="37.9099233" lon="14.9635817"><ele>984.5</ele><time>2026-04-12T10:45:03.193Z</time></trkpt><trkpt lat="37.9098133" lon="14.96354"><ele>981.0</ele><time>2026-04-12T10:45:04.192Z</time></trkpt><trkpt lat="37.9097017" lon="14.9635033"><ele>981.0</ele><time>2026-04-12T10:45:05.193Z</time></trkpt><trkpt lat="37.9095867" lon="14.963485"><ele>981.0</ele><time>2026-04-12T10:45:06.193Z</time></trkpt><trkpt lat="37.9094717" lon="14.9634867"><ele>981.0</ele><time>2026-04-12T10:45:07.193Z</time></trkpt><trkpt lat="37.90936" lon="14.963515"><ele>981.0</ele><time>2026-04-12T10:45:08.194Z</time></trkpt><trkpt lat="37.9092533" lon="14.96356"><ele>980.75</ele><time>2026-04-12T10:45:09.193Z</time></trkpt><trkpt lat="37.90915" lon="14.9636217"><ele>980.5</ele><time>2026-04-12T10:45:10.193Z</time></trkpt><trkpt lat="37.90905" lon="14.9636883"><ele>980.25</ele><time>2026-04-12T10:45:11.192Z</time></trkpt><trkpt lat="37.9089533" lon="14.96376"><ele>980.0</ele><time>2026-04-12T10:45:12.193Z</time></trkpt><trkpt lat="37.908855" lon="14.9638333"><ele>980.0</ele><time>2026-04-12T10:45:13.193Z</time></trkpt><trkpt lat="37.9087567" lon="14.96391"><ele>980.0</ele><time>2026-04-12T10:45:14.195Z</time></trkpt><trkpt lat="37.9086583" lon="14.9639883"><ele>980.0</ele><time>2026-04-12T10:45:15.193Z</time></trkpt><trkpt lat="37.9085567" lon="14.96406"><ele>980.0</ele><time>2026-04-12T10:45:16.193Z</time></trkpt><trkpt lat="37.9084517" lon="14.9641117"><ele>979.75</ele><time>2026-04-12T10:45:17.192Z</time></trkpt><trkpt lat="37.90834" lon="14.9641417"><ele>979.5</ele><time>2026-04-12T10:45:18.192Z</time></trkpt><trkpt lat="37.9082267" lon="14.96415"><ele>979.25</ele><time>2026-04-12T10:45:19.194Z</time></trkpt><trkpt lat="37.90811" lon="14.9641567"><ele>979.0</ele><time>2026-04-12T10:45:20.192Z</time></trkpt><trkpt lat="37.9079917" lon="14.9641667"><ele>979.0</ele><time>2026-04-12T10:45:21.192Z</time></trkpt><trkpt lat="37.9078733" lon="14.9641733"><ele>979.0</ele><time>2026-04-12T10:45:22.192Z</time></trkpt><trkpt lat="37.907755" lon="14.9641767"><ele>979.0</ele><time>2026-04-12T10:45:23.192Z</time></trkpt><trkpt lat="37.907635" lon="14.964185"><ele>979.0</ele><time>2026-04-12T10:45:24.193Z</time></trkpt><trkpt lat="37.907515" lon="14.964195"><ele>978.0</ele><time>2026-04-12T10:45:25.192Z</time></trkpt><trkpt lat="37.907395" lon="14.96419"><ele>977.0</ele><time>2026-04-12T10:45:26.194Z</time></trkpt><trkpt lat="37.9072767" lon="14.96416"><ele>976.0</ele><time>2026-04-12T10:45:27.193Z</time></trkpt><trkpt lat="37.9071617" lon="14.9641083"><ele>975.0</ele><time>2026-04-12T10:45:28.195Z</time></trkpt><trkpt lat="37.9070583" lon="14.96403"><ele>975.0</ele><time>2026-04-12T10:45:29.195Z</time></trkpt><trkpt lat="37.90698" lon="14.9639167"><ele>975.0</ele><time>2026-04-12T10:45:30.195Z</time></trkpt><trkpt lat="37.9069167" lon="14.9637867"><ele>975.0</ele><time>2026-04-12T10:45:31.193Z</time></trkpt><trkpt lat="37.90686" lon="14.9636533"><ele>975.0</ele><time>2026-04-12T10:45:32.194Z</time></trkpt><trkpt lat="37.9068033" lon="14.9635233"><ele>975.0</ele><time>2026-04-12T10:45:33.192Z</time></trkpt><trkpt lat="37.906745" lon="14.9633967"><ele>975.0</ele><time>2026-04-12T10:45:34.193Z</time></trkpt><trkpt lat="37.9066917" lon="14.9632717"><ele>975.0</ele><time>2026-04-12T10:45:35.193Z</time></trkpt><trkpt lat="37.9066417" lon="14.96315"><ele>975.0</ele><time>2026-04-12T10:45:36.193Z</time></trkpt><trkpt lat="37.906595" lon="14.9630283"><ele>975.0</ele><time>2026-04-12T10:45:37.194Z</time></trkpt><trkpt lat="37.9065467" lon="14.96291"><ele>974.4</ele><time>2026-04-12T10:45:38.195Z</time></trkpt><trkpt lat="37.9065" lon="14.9627983"><ele>973.8</ele><time>2026-04-12T10:45:39.192Z</time></trkpt><trkpt lat="37.90645" lon="14.96269"><ele>973.2</ele><time>2026-04-12T10:45:40.193Z</time></trkpt><trkpt lat="37.906395" lon="14.96259"><ele>972.6</ele><time>2026-04-12T10:45:41.194Z</time></trkpt><trkpt lat="37.9063383" lon="14.9624983"><ele>972.0</ele><time>2026-04-12T10:45:42.193Z</time></trkpt><trkpt lat="37.90628" lon="14.962415"><ele>971.5</ele><time>2026-04-12T10:45:43.192Z</time></trkpt><trkpt lat="37.9062183" lon="14.9623417"><ele>971.0</ele><time>2026-04-12T10:45:44.192Z</time></trkpt><trkpt lat="37.90615" lon="14.96228"><ele>970.5</ele><time>2026-04-12T10:45:45.193Z</time></trkpt><trkpt lat="37.9060783" lon="14.9622283"><ele>970.0</ele><time>2026-04-12T10:45:46.192Z</time></trkpt><trkpt lat="37.9060083" lon="14.9621883"><ele>969.5</ele><time>2026-04-12T10:45:47.192Z</time></trkpt><trkpt lat="37.9059333" lon="14.962155"><ele>969.0</ele><time>2026-04-12T10:45:48.194Z</time></trkpt><trkpt lat="37.90586" lon="14.96213"><ele>968.9999999999999</ele><time>2026-04-12T10:45:49.193Z</time></trkpt><trkpt lat="37.9057833" lon="14.9621167"><ele>969.0</ele><time>2026-04-12T10:45:50.193Z</time></trkpt><trkpt lat="37.90571" lon="14.96211"><ele>968.9999999999999</ele><time>2026-04-12T10:45:51.192Z</time></trkpt><trkpt lat="37.9056367" lon="14.962105"><ele>968.9999999999999</ele><time>2026-04-12T10:45:52.193Z</time></trkpt><trkpt lat="37.9055633" lon="14.9621033"><ele>969.0</ele><time>2026-04-12T10:45:53.192Z</time></trkpt><trkpt lat="37.9054917" lon="14.9621"><ele>968.9999999999999</ele><time>2026-04-12T10:45:54.194Z</time></trkpt><trkpt lat="37.9054183" lon="14.962095"><ele>968.9999999999999</ele><time>2026-04-12T10:45:55.193Z</time></trkpt><trkpt lat="37.905345" lon="14.96209"><ele>969.0</ele><time>2026-04-12T10:45:56.192Z</time></trkpt><trkpt lat="37.90527" lon="14.9620833"><ele>969.0</ele><time>2026-04-12T10:45:57.192Z</time></trkpt><trkpt lat="37.905195" lon="14.962075"><ele>969.0</ele><time>2026-04-12T10:45:58.193Z</time></trkpt><trkpt lat="37.9051217" lon="14.96206"><ele>969.0</ele><time>2026-04-12T10:45:59.193Z</time></trkpt><trkpt lat="37.9050483" lon="14.9620333"><ele>969.0</ele><time>2026-04-12T10:46:00.193Z</time></trkpt><trkpt lat="37.9049767" lon="14.9619933"><ele>969.0</ele><time>2026-04-12T10:46:01.193Z</time></trkpt><trkpt lat="37.90491" lon="14.961945"><ele>967.8333333333334</ele><time>2026-04-12T10:46:02.194Z</time></trkpt><trkpt lat="37.9048483" lon="14.9618883"><ele>966.6666666666667</ele><time>2026-04-12T10:46:03.193Z</time></trkpt><trkpt lat="37.90479" lon="14.9618267"><ele>965.5</ele><time>2026-04-12T10:46:04.192Z</time></trkpt><trkpt lat="37.9047317" lon="14.9617633"><ele>964.3333333333334</ele><time>2026-04-12T10:46:05.193Z</time></trkpt><trkpt lat="37.9046733" lon="14.9616983"><ele>963.1666666666667</ele><time>2026-04-12T10:46:06.192Z</time></trkpt><trkpt lat="37.9046117" lon="14.9616367"><ele>962.0</ele><time>2026-04-12T10:46:07.194Z</time></trkpt><trkpt lat="37.9045483" lon="14.96158"><ele>962.1666666666667</ele><time>2026-04-12T10:46:08.193Z</time></trkpt><trkpt lat="37.9044833" lon="14.96153"><ele>962.3333333333334</ele><time>2026-04-12T10:46:09.193Z</time></trkpt><trkpt lat="37.904415" lon="14.9614833"><ele>962.5</ele><time>2026-04-12T10:46:10.193Z</time></trkpt><trkpt lat="37.9043433" lon="14.9614383"><ele>962.6666666666667</ele><time>2026-04-12T10:46:11.193Z</time></trkpt><trkpt lat="37.9042733" lon="14.96139"><ele>962.8333333333334</ele><time>2026-04-12T10:46:12.193Z</time></trkpt><trkpt lat="37.9042067" lon="14.9613367"><ele>963.0</ele><time>2026-04-12T10:46:13.192Z</time></trkpt><trkpt lat="37.904145" lon="14.9612783"><ele>963.0000000000001</ele><time>2026-04-12T10:46:14.193Z</time></trkpt><trkpt lat="37.904085" lon="14.9612217"><ele>963.0</ele><time>2026-04-12T10:46:15.193Z</time></trkpt><trkpt lat="37.904025" lon="14.9611717"><ele>963.0000000000001</ele><time>2026-04-12T10:46:16.193Z</time></trkpt><trkpt lat="37.9039633" lon="14.9611217"><ele>963.0000000000001</ele><time>2026-04-12T10:46:17.194Z</time></trkpt><trkpt lat="37.903905" lon="14.9610733"><ele>963.0</ele><time>2026-04-12T10:46:18.192Z</time></trkpt><trkpt lat="37.9038467" lon="14.961025"><ele>963.0000000000001</ele><time>2026-04-12T10:46:19.193Z</time></trkpt><trkpt lat="37.90379" lon="14.9609767"><ele>963.0000000000001</ele><time>2026-04-12T10:46:20.192Z</time></trkpt><trkpt lat="37.9037333" lon="14.9609283"><ele>963.0000000000001</ele><time>2026-04-12T10:46:21.192Z</time></trkpt><trkpt lat="37.90368" lon="14.96088"><ele>963.0</ele><time>2026-04-12T10:46:22.194Z</time></trkpt><trkpt lat="37.903635" lon="14.9608217"><ele>963.0000000000001</ele><time>2026-04-12T10:46:23.193Z</time></trkpt><trkpt lat="37.9036067" lon="14.96075"><ele>963.0000000000001</ele><time>2026-04-12T10:46:24.193Z</time></trkpt><trkpt lat="37.9035883" lon="14.96067"><ele>963.0</ele><time>2026-04-12T10:46:25.194Z</time></trkpt><trkpt lat="37.90358" lon="14.9605867"><ele>963.0000000000001</ele><time>2026-04-12T10:46:26.192Z</time></trkpt><trkpt lat="37.90357" lon="14.9605033"><ele>963.0000000000001</ele><time>2026-04-12T10:46:27.194Z</time></trkpt><trkpt lat="37.9035567" lon="14.96042"><ele>964.5714285714287</ele><time>2026-04-12T10:46:28.193Z</time></trkpt><trkpt lat="37.90354" lon="14.96034"><ele>966.1428571428571</ele><time>2026-04-12T10:46:29.193Z</time></trkpt><trkpt lat="37.9035217" lon="14.9602617"><ele>967.7142857142858</ele><time>2026-04-12T10:46:30.193Z</time></trkpt><trkpt lat="37.9035017" lon="14.960185"><ele>969.2857142857143</ele><time>2026-04-12T10:46:31.194Z</time></trkpt><trkpt lat="37.90345" lon="14.96004"><ele>970.8571428571429</ele><time>2026-04-12T10:46:33.192Z</time></trkpt><trkpt lat="37.903415" lon="14.9599717"><ele>972.4285714285714</ele><time>2026-04-12T10:46:34.192Z</time></trkpt><trkpt lat="37.9033783" lon="14.959905"><ele>974.0</ele><time>2026-04-12T10:46:35.193Z</time></trkpt><trkpt lat="37.9033433" lon="14.9598383"><ele>974.0</ele><time>2026-04-12T10:46:36.193Z</time></trkpt><trkpt lat="37.9033033" lon="14.9597733"><ele>974.0</ele><time>2026-04-12T10:46:37.192Z</time></trkpt><trkpt lat="37.90326" lon="14.9597133"><ele>974.0</ele><time>2026-04-12T10:46:38.195Z</time></trkpt><trkpt lat="37.903215" lon="14.9596567"><ele>974.0</ele><time>2026-04-12T10:46:39.192Z</time></trkpt><trkpt lat="37.9031667" lon="14.9596033"><ele>974.0</ele><time>2026-04-12T10:46:40.192Z</time></trkpt><trkpt lat="37.9031167" lon="14.9595533"><ele>974.0</ele><time>2026-04-12T10:46:41.192Z</time></trkpt><trkpt lat="37.9030683" lon="14.9595017"><ele>974.0</ele><time>2026-04-12T10:46:42.193Z</time></trkpt><trkpt lat="37.9029667" lon="14.959405"><ele>974.0</ele><time>2026-04-12T10:46:44.192Z</time></trkpt><trkpt lat="37.902915" lon="14.959355"><ele>974.0</ele><time>2026-04-12T10:46:45.192Z</time></trkpt><trkpt lat="37.9028633" lon="14.9593067"><ele>974.0</ele><time>2026-04-12T10:46:46.192Z</time></trkpt><trkpt lat="37.9028083" lon="14.9592617"><ele>974.0</ele><time>2026-04-12T10:46:47.193Z</time></trkpt><trkpt lat="37.902755" lon="14.9592183"><ele>974.0</ele><time>2026-04-12T10:46:48.193Z</time></trkpt><trkpt lat="37.9026983" lon="14.9591783"><ele>974.0</ele><time>2026-04-12T10:46:49.192Z</time></trkpt><trkpt lat="37.9025867" lon="14.9591083"><ele>974.0</ele><time>2026-04-12T10:46:51.193Z</time></trkpt><trkpt lat="37.9025283" lon="14.959075"><ele>975.0</ele><time>2026-04-12T10:46:52.194Z</time></trkpt><trkpt lat="37.90247" lon="14.9590433"><ele>976.0000000000001</ele><time>2026-04-12T10:46:53.194Z</time></trkpt><trkpt lat="37.90241" lon="14.9590183"><ele>977.0000000000001</ele><time>2026-04-12T10:46:54.192Z</time></trkpt><trkpt lat="37.90229" lon="14.958975"><ele>978.0</ele><time>2026-04-12T10:46:56.192Z</time></trkpt><trkpt lat="37.9021717" lon="14.958935"><ele>979.0</ele><time>2026-04-12T10:46:58.192Z</time></trkpt><trkpt lat="37.9020533" lon="14.9589017"><ele>978.9999999999999</ele><time>2026-04-12T10:47:00.193Z</time></trkpt><trkpt lat="37.90194" lon="14.9588633"><ele>979.0</ele><time>2026-04-12T10:47:02.194Z</time></trkpt><trkpt lat="37.9018267" lon="14.9588217"><ele>979.0</ele><time>2026-04-12T10:47:04.192Z</time></trkpt><trkpt lat="37.9017683" lon="14.9587917"><ele>979.0</ele><time>2026-04-12T10:47:05.194Z</time></trkpt><trkpt lat="37.9017083" lon="14.9587633"><ele>978.9999999999999</ele><time>2026-04-12T10:47:06.192Z</time></trkpt><trkpt lat="37.9016517" lon="14.9587267"><ele>979.0</ele><time>2026-04-12T10:47:07.192Z</time></trkpt><trkpt lat="37.901595" lon="14.9586867"><ele>979.4285714285713</ele><time>2026-04-12T10:47:08.193Z</time></trkpt><trkpt lat="37.9015433" lon="14.9586383"><ele>979.8571428571429</ele><time>2026-04-12T10:47:09.194Z</time></trkpt><trkpt lat="37.901495" lon="14.9585833"><ele>980.2857142857142</ele><time>2026-04-12T10:47:10.192Z</time></trkpt><trkpt lat="37.9014483" lon="14.9585233"><ele>980.7142857142857</ele><time>2026-04-12T10:47:11.193Z</time></trkpt><trkpt lat="37.9014" lon="14.9584583"><ele>981.1428571428571</ele><time>2026-04-12T10:47:12.193Z</time></trkpt><trkpt lat="37.901355" lon="14.9583917"><ele>981.5714285714286</ele><time>2026-04-12T10:47:13.193Z</time></trkpt><trkpt lat="37.9013067" lon="14.9583267"><ele>982.0</ele><time>2026-04-12T10:47:14.193Z</time></trkpt><trkpt lat="37.9012583" lon="14.9582583"><ele>980.9999999999999</ele><time>2026-04-12T10:47:15.193Z</time></trkpt><trkpt lat="37.901205" lon="14.9581867"><ele>980.0</ele><time>2026-04-12T10:47:16.192Z</time></trkpt><trkpt lat="37.9011483" lon="14.9581117"><ele>979.0</ele><time>2026-04-12T10:47:17.194Z</time></trkpt><trkpt lat="37.9010883" lon="14.9580333"><ele>978.0</ele><time>2026-04-12T10:47:18.193Z</time></trkpt><trkpt lat="37.901025" lon="14.95795"><ele>976.9999999999999</ele><time>2026-04-12T10:47:19.193Z</time></trkpt><trkpt lat="37.900965" lon="14.957865"><ele>976.0</ele><time>2026-04-12T10:47:20.194Z</time></trkpt><trkpt lat="37.9009017" lon="14.9577717"><ele>976.0</ele><time>2026-04-12T10:47:21.194Z</time></trkpt><trkpt lat="37.9008417" lon="14.95767"><ele>975.9999999999999</ele><time>2026-04-12T10:47:22.194Z</time></trkpt><trkpt lat="37.9007867" lon="14.9575567"><ele>975.9999999999999</ele><time>2026-04-12T10:47:23.193Z</time></trkpt><trkpt lat="37.9007383" lon="14.9574333"><ele>976.0</ele><time>2026-04-12T10:47:24.192Z</time></trkpt><trkpt lat="37.9006967" lon="14.9573067"><ele>976.0</ele><time>2026-04-12T10:47:25.193Z</time></trkpt><trkpt lat="37.9006517" lon="14.957175"><ele>977.0</ele><time>2026-04-12T10:47:26.194Z</time></trkpt><trkpt lat="37.9006033" lon="14.9570383"><ele>978.0</ele><time>2026-04-12T10:47:27.192Z</time></trkpt><trkpt lat="37.9005567" lon="14.9568967"><ele>979.0</ele><time>2026-04-12T10:47:28.193Z</time></trkpt><trkpt lat="37.9005067" lon="14.9567533"><ele>980.0</ele><time>2026-04-12T10:47:29.193Z</time></trkpt><trkpt lat="37.900445" lon="14.9566167"><ele>982.25</ele><time>2026-04-12T10:47:30.193Z</time></trkpt><trkpt lat="37.9003683" lon="14.9564883"><ele>984.5</ele><time>2026-04-12T10:47:31.193Z</time></trkpt><trkpt lat="37.90028" lon="14.95637"><ele>986.75</ele><time>2026-04-12T10:47:32.193Z</time></trkpt><trkpt lat="37.9001817" lon="14.9562617"><ele>989.0</ele><time>2026-04-12T10:47:33.193Z</time></trkpt><trkpt lat="37.9000783" lon="14.956155"><ele>984.25</ele><time>2026-04-12T10:47:34.193Z</time></trkpt><trkpt lat="37.8999767" lon="14.9560483"><ele>979.5</ele><time>2026-04-12T10:47:35.193Z</time></trkpt><trkpt lat="37.8998783" lon="14.95594"><ele>974.75</ele><time>2026-04-12T10:47:36.193Z</time></trkpt><trkpt lat="37.89978" lon="14.9558283"><ele>970.0</ele><time>2026-04-12T10:47:37.192Z</time></trkpt><trkpt lat="37.8996867" lon="14.9557167"><ele>970.0</ele><time>2026-04-12T10:47:38.192Z</time></trkpt><trkpt lat="37.89959" lon="14.9556"><ele>970.0</ele><time>2026-04-12T10:47:39.193Z</time></trkpt><trkpt lat="37.8994933" lon="14.95548"><ele>970.0</ele><time>2026-04-12T10:47:40.195Z</time></trkpt><trkpt lat="37.8994033" lon="14.9553567"><ele>970.0</ele><time>2026-04-12T10:47:41.193Z</time></trkpt><trkpt lat="37.8993117" lon="14.955235"><ele>968.25</ele><time>2026-04-12T10:47:42.193Z</time></trkpt><trkpt lat="37.8992183" lon="14.9551117"><ele>966.5</ele><time>2026-04-12T10:47:43.192Z</time></trkpt><trkpt lat="37.8991233" lon="14.95499"><ele>964.75</ele><time>2026-04-12T10:47:44.195Z</time></trkpt><trkpt lat="37.8990283" lon="14.9548683"><ele>963.0</ele><time>2026-04-12T10:47:45.192Z</time></trkpt><trkpt lat="37.898935" lon="14.95475"><ele>963.0</ele><time>2026-04-12T10:47:46.192Z</time></trkpt><trkpt lat="37.89884" lon="14.95464"><ele>963.0</ele><time>2026-04-12T10:47:47.193Z</time></trkpt><trkpt lat="37.8987317" lon="14.9545567"><ele>963.0</ele><time>2026-04-12T10:47:48.194Z</time></trkpt><trkpt lat="37.8986067" lon="14.9545133"><ele>963.0</ele><time>2026-04-12T10:47:49.194Z</time></trkpt><trkpt lat="37.89848" lon="14.95452"><ele>960.25</ele><time>2026-04-12T10:47:50.194Z</time></trkpt><trkpt lat="37.898365" lon="14.9545767"><ele>957.5</ele><time>2026-04-12T10:47:51.193Z</time></trkpt><trkpt lat="37.8982667" lon="14.95467"><ele>954.75</ele><time>2026-04-12T10:47:52.194Z</time></trkpt><trkpt lat="37.8981967" lon="14.9547917"><ele>952.0</ele><time>2026-04-12T10:47:53.194Z</time></trkpt><trkpt lat="37.8981567" lon="14.9549267"><ele>950.4000000000001</ele><time>2026-04-12T10:47:54.193Z</time></trkpt><trkpt lat="37.8981467" lon="14.9550633"><ele>948.8000000000001</ele><time>2026-04-12T10:47:55.195Z</time></trkpt><trkpt lat="37.89817" lon="14.9552017"><ele>947.2</ele><time>2026-04-12T10:47:56.194Z</time></trkpt><trkpt lat="37.89822" lon="14.9553267"><ele>945.6</ele><time>2026-04-12T10:47:57.193Z</time></trkpt><trkpt lat="37.8982867" lon="14.9554333"><ele>944.0</ele><time>2026-04-12T10:47:58.193Z</time></trkpt><trkpt lat="37.8983633" lon="14.955525"><ele>942.8000000000001</ele><time>2026-04-12T10:47:59.193Z</time></trkpt><trkpt lat="37.898445" lon="14.9556083"><ele>941.6000000000001</ele><time>2026-04-12T10:48:00.193Z</time></trkpt><trkpt lat="37.8985233" lon="14.955695"><ele>940.4</ele><time>2026-04-12T10:48:01.192Z</time></trkpt><trkpt lat="37.8986033" lon="14.9557833"><ele>939.2</ele><time>2026-04-12T10:48:02.194Z</time></trkpt><trkpt lat="37.8986867" lon="14.9558717"><ele>938.0</ele><time>2026-04-12T10:48:03.192Z</time></trkpt><trkpt lat="37.89877" lon="14.9559567"><ele>938.0</ele><time>2026-04-12T10:48:04.194Z</time></trkpt><trkpt lat="37.898855" lon="14.9560433"><ele>938.0</ele><time>2026-04-12T10:48:05.193Z</time></trkpt><trkpt lat="37.8989367" lon="14.9561317"><ele>938.0</ele><time>2026-04-12T10:48:06.194Z</time></trkpt><trkpt lat="37.89902" lon="14.9562217"><ele>938.0</ele><time>2026-04-12T10:48:07.193Z</time></trkpt><trkpt lat="37.899105" lon="14.9563133"><ele>938.0</ele><time>2026-04-12T10:48:08.193Z</time></trkpt><trkpt lat="37.8991917" lon="14.956405"><ele>940.2</ele><time>2026-04-12T10:48:09.193Z</time></trkpt><trkpt lat="37.89928" lon="14.956495"><ele>942.4</ele><time>2026-04-12T10:48:10.193Z</time></trkpt><trkpt lat="37.8993667" lon="14.9565833"><ele>944.6000000000001</ele><time>2026-04-12T10:48:11.192Z</time></trkpt><trkpt lat="37.899445" lon="14.9566683"><ele>946.8000000000001</ele><time>2026-04-12T10:48:12.193Z</time></trkpt><trkpt lat="37.899505" lon="14.9567567"><ele>949.0</ele><time>2026-04-12T10:48:13.193Z</time></trkpt><trkpt lat="37.89954" lon="14.956855"><ele>949.0</ele><time>2026-04-12T10:48:14.193Z</time></trkpt><trkpt lat="37.8995467" lon="14.956965"><ele>949.0000000000001</ele><time>2026-04-12T10:48:15.193Z</time></trkpt><trkpt lat="37.8995083" lon="14.9570633"><ele>949.0000000000001</ele><time>2026-04-12T10:48:16.193Z</time></trkpt><trkpt lat="37.8994267" lon="14.9571167"><ele>949.0</ele><time>2026-04-12T10:48:17.192Z</time></trkpt><trkpt lat="37.89933" lon="14.9570933"><ele>949.0</ele><time>2026-04-12T10:48:18.193Z</time></trkpt><trkpt lat="37.899245" lon="14.95701"><ele>944.0</ele><time>2026-04-12T10:48:19.193Z</time></trkpt><trkpt lat="37.8991683" lon="14.95692"><ele>939.0000000000001</ele><time>2026-04-12T10:48:20.194Z</time></trkpt><trkpt lat="37.8990833" lon="14.9568417"><ele>934.0000000000001</ele><time>2026-04-12T10:48:21.194Z</time></trkpt><trkpt lat="37.8989933" lon="14.9567833"><ele>929.0</ele><time>2026-04-12T10:48:22.193Z</time></trkpt><trkpt lat="37.8988967" lon="14.95674"><ele>924.0</ele><time>2026-04-12T10:48:23.193Z</time></trkpt><trkpt lat="37.89879" lon="14.956725"><ele>924.0</ele><time>2026-04-12T10:48:24.194Z</time></trkpt><trkpt lat="37.89868" lon="14.9567133"><ele>924.0</ele><time>2026-04-12T10:48:25.192Z</time></trkpt><trkpt lat="37.8985667" lon="14.956705"><ele>924.0</ele><time>2026-04-12T10:48:26.193Z</time></trkpt><trkpt lat="37.8984533" lon="14.9566983"><ele>924.0</ele><time>2026-04-12T10:48:27.193Z</time></trkpt><trkpt lat="37.8983383" lon="14.9566933"><ele>924.5</ele><time>2026-04-12T10:48:28.193Z</time></trkpt><trkpt lat="37.8982233" lon="14.9566733"><ele>925.0</ele><time>2026-04-12T10:48:29.195Z</time></trkpt><trkpt lat="37.89811" lon="14.9566433"><ele>925.5</ele><time>2026-04-12T10:48:30.193Z</time></trkpt><trkpt lat="37.8979967" lon="14.9566083"><ele>926.0</ele><time>2026-04-12T10:48:31.193Z</time></trkpt><trkpt lat="37.8978867" lon="14.9565617"><ele>926.0</ele><time>2026-04-12T10:48:32.193Z</time></trkpt><trkpt lat="37.8977767" lon="14.9565067"><ele>926.0</ele><time>2026-04-12T10:48:33.193Z</time></trkpt><trkpt lat="37.8976667" lon="14.9564517"><ele>926.0</ele><time>2026-04-12T10:48:34.193Z</time></trkpt><trkpt lat="37.8975567" lon="14.9563983"><ele>926.0</ele><time>2026-04-12T10:48:35.193Z</time></trkpt><trkpt lat="37.897445" lon="14.95634"><ele>923.5</ele><time>2026-04-12T10:48:36.193Z</time></trkpt><trkpt lat="37.8973433" lon="14.9562617"><ele>921.0</ele><time>2026-04-12T10:48:37.193Z</time></trkpt><trkpt lat="37.8972533" lon="14.95616"><ele>918.5</ele><time>2026-04-12T10:48:38.193Z</time></trkpt><trkpt lat="37.8971683" lon="14.95605"><ele>916.0</ele><time>2026-04-12T10:48:39.193Z</time></trkpt><trkpt lat="37.897085" lon="14.9559383"><ele>919.5</ele><time>2026-04-12T10:48:40.193Z</time></trkpt><trkpt lat="37.8970033" lon="14.95582"><ele>923.0</ele><time>2026-04-12T10:48:41.192Z</time></trkpt><trkpt lat="37.89693" lon="14.9556967"><ele>926.5</ele><time>2026-04-12T10:48:42.192Z</time></trkpt><trkpt lat="37.8968567" lon="14.95557"><ele>930.0</ele><time>2026-04-12T10:48:43.193Z</time></trkpt><trkpt lat="37.896775" lon="14.955455"><ele>924.75</ele><time>2026-04-12T10:48:44.193Z</time></trkpt><trkpt lat="37.8966767" lon="14.9553667"><ele>919.5</ele><time>2026-04-12T10:48:45.192Z</time></trkpt><trkpt lat="37.8965583" lon="14.9553233"><ele>914.25</ele><time>2026-04-12T10:48:46.193Z</time></trkpt><trkpt lat="37.89643" lon="14.9553283"><ele>909.0</ele><time>2026-04-12T10:48:47.194Z</time></trkpt><trkpt lat="37.896305" lon="14.9553683"><ele>909.0</ele><time>2026-04-12T10:48:48.195Z</time></trkpt><trkpt lat="37.89618" lon="14.9553867"><ele>909.0</ele><time>2026-04-12T10:48:49.195Z</time></trkpt><trkpt lat="37.8960533" lon="14.9553717"><ele>909.0</ele><time>2026-04-12T10:48:50.194Z</time></trkpt><trkpt lat="37.8959317" lon="14.955325"><ele>909.0</ele><time>2026-04-12T10:48:51.195Z</time></trkpt><trkpt lat="37.8958133" lon="14.955265"><ele>910.0</ele><time>2026-04-12T10:48:52.194Z</time></trkpt><trkpt lat="37.8956917" lon="14.9552"><ele>911.0</ele><time>2026-04-12T10:48:53.194Z</time></trkpt><trkpt lat="37.8955767" lon="14.95512"><ele>912.0</ele><time>2026-04-12T10:48:54.193Z</time></trkpt><trkpt lat="37.8954733" lon="14.95501"><ele>913.0</ele><time>2026-04-12T10:48:55.193Z</time></trkpt><trkpt lat="37.89538" lon="14.9548817"><ele>913.0</ele><time>2026-04-12T10:48:56.193Z</time></trkpt><trkpt lat="37.8952833" lon="14.9547533"><ele>913.0</ele><time>2026-04-12T10:48:57.193Z</time></trkpt><trkpt lat="37.89518" lon="14.95463"><ele>913.0</ele><time>2026-04-12T10:48:58.194Z</time></trkpt><trkpt lat="37.8950717" lon="14.9545183"><ele>913.0</ele><time>2026-04-12T10:48:59.193Z</time></trkpt><trkpt lat="37.8949533" lon="14.9544183"><ele>912.5</ele><time>2026-04-12T10:49:00.193Z</time></trkpt><trkpt lat="37.8948283" lon="14.9543317"><ele>912.0</ele><time>2026-04-12T10:49:01.192Z</time></trkpt><trkpt lat="37.8947033" lon="14.954255"><ele>911.5</ele><time>2026-04-12T10:49:02.193Z</time></trkpt><trkpt lat="37.8945767" lon="14.9541883"><ele>911.0</ele><time>2026-04-12T10:49:03.194Z</time></trkpt><trkpt lat="37.89445" lon="14.9541317"><ele>911.0</ele><time>2026-04-12T10:49:04.194Z</time></trkpt><trkpt lat="37.89431" lon="14.9540967"><ele>911.0</ele><time>2026-04-12T10:49:05.193Z</time></trkpt><trkpt lat="37.8941683" lon="14.9540733"><ele>911.0</ele><time>2026-04-12T10:49:06.193Z</time></trkpt><trkpt lat="37.89403" lon="14.9540517"><ele>911.0</ele><time>2026-04-12T10:49:07.193Z</time></trkpt><trkpt lat="37.8939017" lon="14.95403"><ele>907.5</ele><time>2026-04-12T10:49:08.193Z</time></trkpt><trkpt lat="37.8937817" lon="14.9540117"><ele>904.0</ele><time>2026-04-12T10:49:09.192Z</time></trkpt><trkpt lat="37.89367" lon="14.9539917"><ele>900.5</ele><time>2026-04-12T10:49:10.193Z</time></trkpt><trkpt lat="37.8935583" lon="14.9539733"><ele>897.0</ele><time>2026-04-12T10:49:11.194Z</time></trkpt><trkpt lat="37.893445" lon="14.9539533"><ele>896.0</ele><time>2026-04-12T10:49:12.193Z</time></trkpt><trkpt lat="37.893335" lon="14.9539333"><ele>895.0</ele><time>2026-04-12T10:49:13.193Z</time></trkpt><trkpt lat="37.8932267" lon="14.953915"><ele>894.0</ele><time>2026-04-12T10:49:14.194Z</time></trkpt><trkpt lat="37.8931267" lon="14.9538933"><ele>893.0</ele><time>2026-04-12T10:49:15.193Z</time></trkpt><trkpt lat="37.8930333" lon="14.953875"><ele>892.0</ele><time>2026-04-12T10:49:16.194Z</time></trkpt><trkpt lat="37.8929467" lon="14.9538767"><ele>891.9999999999999</ele><time>2026-04-12T10:49:17.193Z</time></trkpt><trkpt lat="37.8928717" lon="14.9539067"><ele>892.0</ele><time>2026-04-12T10:49:18.192Z</time></trkpt><trkpt lat="37.89281" lon="14.9539717"><ele>892.0</ele><time>2026-04-12T10:49:19.195Z</time></trkpt><trkpt lat="37.8927933" lon="14.954075"><ele>892.0</ele><time>2026-04-12T10:49:20.194Z</time></trkpt><trkpt lat="37.892805" lon="14.9541883"><ele>891.9999999999999</ele><time>2026-04-12T10:49:21.193Z</time></trkpt><trkpt lat="37.892835" lon="14.9542983"><ele>892.0</ele><time>2026-04-12T10:49:22.193Z</time></trkpt><trkpt lat="37.892885" lon="14.9543967"><ele>890.0</ele><time>2026-04-12T10:49:23.193Z</time></trkpt><trkpt lat="37.892945" lon="14.954485"><ele>888.0</ele><time>2026-04-12T10:49:24.192Z</time></trkpt><trkpt lat="37.8930083" lon="14.9545683"><ele>886.0</ele><time>2026-04-12T10:49:25.193Z</time></trkpt><trkpt lat="37.8930767" lon="14.95465"><ele>884.0</ele><time>2026-04-12T10:49:26.194Z</time></trkpt><trkpt lat="37.8931567" lon="14.954715"><ele>882.0</ele><time>2026-04-12T10:49:27.193Z</time></trkpt><trkpt lat="37.8932517" lon="14.9547517"><ele>882.0</ele><time>2026-04-12T10:49:28.192Z</time></trkpt><trkpt lat="37.8933467" lon="14.9547817"><ele>882.0</ele><time>2026-04-12T10:49:29.193Z</time></trkpt><trkpt lat="37.8934333" lon="14.9548217"><ele>882.0</ele><time>2026-04-12T10:49:30.194Z</time></trkpt><trkpt lat="37.8934967" lon="14.954885"><ele>882.0</ele><time>2026-04-12T10:49:31.195Z</time></trkpt><trkpt lat="37.8935267" lon="14.954965"><ele>882.0</ele><time>2026-04-12T10:49:32.195Z</time></trkpt><trkpt lat="37.8935167" lon="14.955055"><ele>882.0</ele><time>2026-04-12T10:49:33.193Z</time></trkpt><trkpt lat="37.89347" lon="14.9551367"><ele>878.0</ele><time>2026-04-12T10:49:34.194Z</time></trkpt><trkpt lat="37.8933733" lon="14.9551483"><ele>874.0</ele><time>2026-04-12T10:49:35.195Z</time></trkpt><trkpt lat="37.893275" lon="14.9551417"><ele>870.0</ele><time>2026-04-12T10:49:36.194Z</time></trkpt><trkpt lat="37.8931833" lon="14.9551183"><ele>866.0</ele><time>2026-04-12T10:49:37.193Z</time></trkpt><trkpt lat="37.8930933" lon="14.9550967"><ele>862.0</ele><time>2026-04-12T10:49:38.196Z</time></trkpt><trkpt lat="37.8930033" lon="14.9550817"><ele>862.0</ele><time>2026-04-12T10:49:39.193Z</time></trkpt><trkpt lat="37.89291" lon="14.955085"><ele>862.0</ele><time>2026-04-12T10:49:40.194Z</time></trkpt><trkpt lat="37.8928183" lon="14.9551167"><ele>862.0</ele><time>2026-04-12T10:49:41.194Z</time></trkpt><trkpt lat="37.8927283" lon="14.955175"><ele>862.0</ele><time>2026-04-12T10:49:42.194Z</time></trkpt><trkpt lat="37.8926383" lon="14.95524"><ele>862.0</ele><time>2026-04-12T10:49:43.194Z</time></trkpt><trkpt lat="37.892545" lon="14.95531"><ele>862.6</ele><time>2026-04-12T10:49:44.194Z</time></trkpt><trkpt lat="37.8924517" lon="14.955375"><ele>863.2</ele><time>2026-04-12T10:49:45.193Z</time></trkpt><trkpt lat="37.892355" lon="14.95544"><ele>863.8</ele><time>2026-04-12T10:49:46.192Z</time></trkpt><trkpt lat="37.8922583" lon="14.955505"><ele>864.4</ele><time>2026-04-12T10:49:47.193Z</time></trkpt><trkpt lat="37.8921583" lon="14.95557"><ele>865.0</ele><time>2026-04-12T10:49:48.192Z</time></trkpt><trkpt lat="37.8920567" lon="14.9556283"><ele>865.0</ele><time>2026-04-12T10:49:49.193Z</time></trkpt><trkpt lat="37.89195" lon="14.9556783"><ele>865.0</ele><time>2026-04-12T10:49:50.194Z</time></trkpt><trkpt lat="37.8918417" lon="14.955715"><ele>865.0</ele><time>2026-04-12T10:49:51.193Z</time></trkpt><trkpt lat="37.8917317" lon="14.9557267"><ele>865.0</ele><time>2026-04-12T10:49:52.193Z</time></trkpt><trkpt lat="37.8916183" lon="14.9557233"><ele>864.5</ele><time>2026-04-12T10:49:53.193Z</time></trkpt><trkpt lat="37.8915067" lon="14.9557017"><ele>864.0</ele><time>2026-04-12T10:49:54.192Z</time></trkpt><trkpt lat="37.8913933" lon="14.955665"><ele>863.5</ele><time>2026-04-12T10:49:55.193Z</time></trkpt><trkpt lat="37.8912817" lon="14.95561"><ele>863.0</ele><time>2026-04-12T10:49:56.192Z</time></trkpt><trkpt lat="37.8911733" lon="14.9555417"><ele>863.0</ele><time>2026-04-12T10:49:57.192Z</time></trkpt><trkpt lat="37.8910683" lon="14.95546"><ele>863.0</ele><time>2026-04-12T10:49:58.192Z</time></trkpt><trkpt lat="37.8909667" lon="14.95538"><ele>863.0</ele><time>2026-04-12T10:49:59.193Z</time></trkpt><trkpt lat="37.8908617" lon="14.9553033"><ele>863.0</ele><time>2026-04-12T10:50:00.192Z</time></trkpt><trkpt lat="37.8907483" lon="14.9552433"><ele>859.0</ele><time>2026-04-12T10:50:01.193Z</time></trkpt><trkpt lat="37.8906283" lon="14.9552133"><ele>855.0</ele><time>2026-04-12T10:50:02.194Z</time></trkpt><trkpt lat="37.8905033" lon="14.95522"><ele>851.0</ele><time>2026-04-12T10:50:03.193Z</time></trkpt><trkpt lat="37.8903783" lon="14.9552333"><ele>847.0</ele><time>2026-04-12T10:50:04.192Z</time></trkpt><trkpt lat="37.8902483" lon="14.9552517"><ele>847.0</ele><time>2026-04-12T10:50:05.193Z</time></trkpt><trkpt lat="37.8901183" lon="14.9552717"><ele>847.0</ele><time>2026-04-12T10:50:06.194Z</time></trkpt><trkpt lat="37.8899883" lon="14.955285"><ele>847.0</ele><time>2026-04-12T10:50:07.193Z</time></trkpt><trkpt lat="37.88986" lon="14.955295"><ele>847.0</ele><time>2026-04-12T10:50:08.192Z</time></trkpt><trkpt lat="37.88973" lon="14.9552917"><ele>844.25</ele><time>2026-04-12T10:50:09.193Z</time></trkpt><trkpt lat="37.8896017" lon="14.9552783"><ele>841.5</ele><time>2026-04-12T10:50:10.192Z</time></trkpt><trkpt lat="37.889475" lon="14.9552583"><ele>838.75</ele><time>2026-04-12T10:50:11.193Z</time></trkpt><trkpt lat="37.8893467" lon="14.9552367"><ele>836.0</ele><time>2026-04-12T10:50:12.192Z</time></trkpt><trkpt lat="37.8892167" lon="14.9552167"><ele>835.5</ele><time>2026-04-12T10:50:13.193Z</time></trkpt><trkpt lat="37.8890867" lon="14.9551967"><ele>835.0</ele><time>2026-04-12T10:50:14.193Z</time></trkpt><trkpt lat="37.888955" lon="14.955175"><ele>834.5</ele><time>2026-04-12T10:50:15.192Z</time></trkpt><trkpt lat="37.8888233" lon="14.955155"><ele>834.0</ele><time>2026-04-12T10:50:16.193Z</time></trkpt><trkpt lat="37.8886917" lon="14.9551333"><ele>834.0</ele><time>2026-04-12T10:50:17.193Z</time></trkpt><trkpt lat="37.8885617" lon="14.95511"><ele>834.0</ele><time>2026-04-12T10:50:18.192Z</time></trkpt><trkpt lat="37.8884283" lon="14.9550833"><ele>834.0</ele><time>2026-04-12T10:50:19.192Z</time></trkpt><trkpt lat="37.8882983" lon="14.9550433"><ele>834.0</ele><time>2026-04-12T10:50:20.193Z</time></trkpt><trkpt lat="37.8881717" lon="14.9549817"><ele>835.25</ele><time>2026-04-12T10:50:21.193Z</time></trkpt><trkpt lat="37.8880517" lon="14.9549033"><ele>836.5</ele><time>2026-04-12T10:50:22.193Z</time></trkpt><trkpt lat="37.88793" lon="14.95482"><ele>837.75</ele><time>2026-04-12T10:50:23.193Z</time></trkpt><trkpt lat="37.88781" lon="14.9547383"><ele>839.0</ele><time>2026-04-12T10:50:24.193Z</time></trkpt><trkpt lat="37.8876917" lon="14.9546533"><ele>837.25</ele><time>2026-04-12T10:50:25.193Z</time></trkpt><trkpt lat="37.88757" lon="14.9545667"><ele>835.5</ele><time>2026-04-12T10:50:26.193Z</time></trkpt><trkpt lat="37.8874483" lon="14.9544767"><ele>833.75</ele><time>2026-04-12T10:50:27.193Z</time></trkpt><trkpt lat="37.8873267" lon="14.9543817"><ele>832.0</ele><time>2026-04-12T10:50:28.193Z</time></trkpt><trkpt lat="37.88721" lon="14.954285"><ele>833.0</ele><time>2026-04-12T10:50:29.193Z</time></trkpt><trkpt lat="37.88709" lon="14.9541883"><ele>834.0</ele><time>2026-04-12T10:50:30.192Z</time></trkpt><trkpt lat="37.8869667" lon="14.9540917"><ele>835.0</ele><time>2026-04-12T10:50:31.193Z</time></trkpt><trkpt lat="37.886845" lon="14.9539967"><ele>836.0</ele><time>2026-04-12T10:50:32.194Z</time></trkpt><trkpt lat="37.886725" lon="14.9539"><ele>833.0</ele><time>2026-04-12T10:50:33.192Z</time></trkpt><trkpt lat="37.8866067" lon="14.953805"><ele>830.0</ele><time>2026-04-12T10:50:34.193Z</time></trkpt><trkpt lat="37.886495" lon="14.9537033"><ele>827.0</ele><time>2026-04-12T10:50:35.193Z</time></trkpt><trkpt lat="37.8864033" lon="14.9535783"><ele>824.0</ele><time>2026-04-12T10:50:36.192Z</time></trkpt><trkpt lat="37.8863367" lon="14.9534267"><ele>825.5</ele><time>2026-04-12T10:50:37.194Z</time></trkpt><trkpt lat="37.8863" lon="14.9532567"><ele>827.0</ele><time>2026-04-12T10:50:38.193Z</time></trkpt><trkpt lat="37.8862867" lon="14.9530817"><ele>828.5</ele><time>2026-04-12T10:50:39.193Z</time></trkpt><trkpt lat="37.8863017" lon="14.952905"><ele>830.0</ele><time>2026-04-12T10:50:40.192Z</time></trkpt><trkpt lat="37.8863267" lon="14.9527367"><ele>830.0</ele><time>2026-04-12T10:50:41.193Z</time></trkpt><trkpt lat="37.886345" lon="14.952585"><ele>830.0</ele><time>2026-04-12T10:50:42.193Z</time></trkpt><trkpt lat="37.88634" lon="14.9524467"><ele>830.0</ele><time>2026-04-12T10:50:43.195Z</time></trkpt><trkpt lat="37.8863" lon="14.9523167"><ele>830.0</ele><time>2026-04-12T10:50:44.195Z</time></trkpt><trkpt lat="37.8862283" lon="14.9522083"><ele>830.0</ele><time>2026-04-12T10:50:45.195Z</time></trkpt><trkpt lat="37.8861367" lon="14.9521183"><ele>830.0</ele><time>2026-04-12T10:50:46.194Z</time></trkpt><trkpt lat="37.8860433" lon="14.9520317"><ele>830.0</ele><time>2026-04-12T10:50:47.195Z</time></trkpt><trkpt lat="37.8859583" lon="14.951935"><ele>830.0</ele><time>2026-04-12T10:50:48.195Z</time></trkpt><trkpt lat="37.8858783" lon="14.9518267"><ele>826.75</ele><time>2026-04-12T10:50:49.196Z</time></trkpt><trkpt lat="37.88581" lon="14.951705"><ele>823.5</ele><time>2026-04-12T10:50:50.196Z</time></trkpt><trkpt lat="37.88575" lon="14.9515733"><ele>820.25</ele><time>2026-04-12T10:50:51.195Z</time></trkpt><trkpt lat="37.8856983" lon="14.9514367"><ele>817.0</ele><time>2026-04-12T10:50:52.194Z</time></trkpt><trkpt lat="37.885655" lon="14.9512967"><ele>817.0</ele><time>2026-04-12T10:50:53.194Z</time></trkpt><trkpt lat="37.8856133" lon="14.9511533"><ele>817.0</ele><time>2026-04-12T10:50:54.194Z</time></trkpt><trkpt lat="37.8855617" lon="14.9510167"><ele>817.0</ele><time>2026-04-12T10:50:55.192Z</time></trkpt><trkpt lat="37.885495" lon="14.95089"><ele>817.0</ele><time>2026-04-12T10:50:56.192Z</time></trkpt><trkpt lat="37.885415" lon="14.9507783"><ele>819.0</ele><time>2026-04-12T10:50:57.193Z</time></trkpt><trkpt lat="37.885315" lon="14.9506917"><ele>821.0</ele><time>2026-04-12T10:50:58.193Z</time></trkpt><trkpt lat="37.8852017" lon="14.9506283"><ele>823.0</ele><time>2026-04-12T10:50:59.192Z</time></trkpt><trkpt lat="37.8850867" lon="14.9505867"><ele>825.0</ele><time>2026-04-12T10:51:00.192Z</time></trkpt><trkpt lat="37.8849667" lon="14.9505533"><ele>820.0</ele><time>2026-04-12T10:51:01.191Z</time></trkpt><trkpt lat="37.8848483" lon="14.950515"><ele>815.0</ele><time>2026-04-12T10:51:02.194Z</time></trkpt><trkpt lat="37.8847283" lon="14.9504767"><ele>810.0</ele><time>2026-04-12T10:51:03.192Z</time></trkpt><trkpt lat="37.884605" lon="14.950445"><ele>805.0</ele><time>2026-04-12T10:51:04.193Z</time></trkpt><trkpt lat="37.88448" lon="14.9504117"><ele>805.0</ele><time>2026-04-12T10:51:05.193Z</time></trkpt><trkpt lat="37.8843517" lon="14.9503767"><ele>805.0</ele><time>2026-04-12T10:51:06.192Z</time></trkpt><trkpt lat="37.8842233" lon="14.9503383"><ele>805.0</ele><time>2026-04-12T10:51:07.192Z</time></trkpt><trkpt lat="37.8840967" lon="14.95029"><ele>805.0</ele><time>2026-04-12T10:51:08.193Z</time></trkpt><trkpt lat="37.8839767" lon="14.9502233"><ele>806.0</ele><time>2026-04-12T10:51:09.193Z</time></trkpt><trkpt lat="37.883865" lon="14.95013"><ele>807.0</ele><time>2026-04-12T10:51:10.193Z</time></trkpt><trkpt lat="37.883765" lon="14.9500183"><ele>808.0</ele><time>2026-04-12T10:51:11.193Z</time></trkpt><trkpt lat="37.8836733" lon="14.9498967"><ele>809.0</ele><time>2026-04-12T10:51:12.192Z</time></trkpt><trkpt lat="37.8835967" lon="14.94976"><ele>809.0</ele><time>2026-04-12T10:51:13.193Z</time></trkpt><trkpt lat="37.88354" lon="14.9496083"><ele>809.0</ele><time>2026-04-12T10:51:14.193Z</time></trkpt><trkpt lat="37.883505" lon="14.949445"><ele>809.0</ele><time>2026-04-12T10:51:15.192Z</time></trkpt><trkpt lat="37.8834883" lon="14.9492767"><ele>809.0</ele><time>2026-04-12T10:51:16.193Z</time></trkpt><trkpt lat="37.8834917" lon="14.9491067"><ele>810.75</ele><time>2026-04-12T10:51:17.193Z</time></trkpt><trkpt lat="37.8835133" lon="14.94894"><ele>812.5</ele><time>2026-04-12T10:51:18.192Z</time></trkpt><trkpt lat="37.88354" lon="14.9487867"><ele>814.25</ele><time>2026-04-12T10:51:19.194Z</time></trkpt><trkpt lat="37.8835633" lon="14.94865"><ele>816.0</ele><time>2026-04-12T10:51:20.195Z</time></trkpt><trkpt lat="37.883585" lon="14.9485233"><ele>816.0</ele><time>2026-04-12T10:51:21.192Z</time></trkpt><trkpt lat="37.8836" lon="14.948405"><ele>816.0</ele><time>2026-04-12T10:51:22.193Z</time></trkpt><trkpt lat="37.8836" lon="14.9483"><ele>816.0</ele><time>2026-04-12T10:51:23.194Z</time></trkpt><trkpt lat="37.8835717" lon="14.9482117"><ele>816.0</ele><time>2026-04-12T10:51:24.192Z</time></trkpt><trkpt lat="37.8835167" lon="14.9481583"><ele>816.0</ele><time>2026-04-12T10:51:25.193Z</time></trkpt><trkpt lat="37.8834383" lon="14.948155"><ele>816.0</ele><time>2026-04-12T10:51:26.193Z</time></trkpt><trkpt lat="37.8833917" lon="14.948235"><ele>812.0</ele><time>2026-04-12T10:51:27.194Z</time></trkpt><trkpt lat="37.8833633" lon="14.9483583"><ele>808.0</ele><time>2026-04-12T10:51:28.192Z</time></trkpt><trkpt lat="37.8833567" lon="14.9484583"><ele>804.0</ele><time>2026-04-12T10:51:29.193Z</time></trkpt><trkpt lat="37.88335" lon="14.9485683"><ele>800.0</ele><time>2026-04-12T10:51:30.192Z</time></trkpt><trkpt lat="37.8833317" lon="14.9486783"><ele>796.0</ele><time>2026-04-12T10:51:31.194Z</time></trkpt><trkpt lat="37.8833033" lon="14.9487867"><ele>792.0</ele><time>2026-04-12T10:51:32.193Z</time></trkpt><trkpt lat="37.8832417" lon="14.949005"><ele>791.4000000000001</ele><time>2026-04-12T10:51:34.193Z</time></trkpt><trkpt lat="37.88322" lon="14.9491183"><ele>790.8000000000001</ele><time>2026-04-12T10:51:35.193Z</time></trkpt><trkpt lat="37.8832017" lon="14.94923"><ele>790.2</ele><time>2026-04-12T10:51:36.193Z</time></trkpt><trkpt lat="37.883185" lon="14.9493433"><ele>789.6</ele><time>2026-04-12T10:51:37.193Z</time></trkpt><trkpt lat="37.883175" lon="14.9494583"><ele>789.0</ele><time>2026-04-12T10:51:38.192Z</time></trkpt><trkpt lat="37.8831783" lon="14.949575"><ele>787.8000000000001</ele><time>2026-04-12T10:51:39.192Z</time></trkpt><trkpt lat="37.883195" lon="14.9496883"><ele>786.6</ele><time>2026-04-12T10:51:40.192Z</time></trkpt><trkpt lat="37.8832233" lon="14.9497983"><ele>785.4</ele><time>2026-04-12T10:51:41.192Z</time></trkpt><trkpt lat="37.8832567" lon="14.9499067"><ele>784.2</ele><time>2026-04-12T10:51:42.193Z</time></trkpt><trkpt lat="37.88329" lon="14.9500117"><ele>783.0</ele><time>2026-04-12T10:51:43.192Z</time></trkpt><trkpt lat="37.8833267" lon="14.950115"><ele>784.2</ele><time>2026-04-12T10:51:44.192Z</time></trkpt><trkpt lat="37.8833717" lon="14.9502117"><ele>785.4</ele><time>2026-04-12T10:51:45.192Z</time></trkpt><trkpt lat="37.88342" lon="14.9503083"><ele>786.6</ele><time>2026-04-12T10:51:46.191Z</time></trkpt><trkpt lat="37.8834667" lon="14.950405"><ele>787.8000000000001</ele><time>2026-04-12T10:51:47.192Z</time></trkpt><trkpt lat="37.8835067" lon="14.9505067"><ele>789.0</ele><time>2026-04-12T10:51:48.192Z</time></trkpt><trkpt lat="37.8835267" lon="14.95062"><ele>789.0</ele><time>2026-04-12T10:51:49.192Z</time></trkpt><trkpt lat="37.8835317" lon="14.9507333"><ele>789.0</ele><time>2026-04-12T10:51:50.193Z</time></trkpt><trkpt lat="37.8835333" lon="14.9508467"><ele>789.0</ele><time>2026-04-12T10:51:51.193Z</time></trkpt><trkpt lat="37.883555" lon="14.9509533"><ele>789.0</ele><time>2026-04-12T10:51:52.193Z</time></trkpt><trkpt lat="37.8836" lon="14.9510517"><ele>789.0</ele><time>2026-04-12T10:51:53.193Z</time></trkpt><trkpt lat="37.88366" lon="14.95114"><ele>789.0</ele><time>2026-04-12T10:51:54.193Z</time></trkpt><trkpt lat="37.8837233" lon="14.9512233"><ele>786.6666666666666</ele><time>2026-04-12T10:51:55.193Z</time></trkpt><trkpt lat="37.883785" lon="14.9513033"><ele>784.3333333333333</ele><time>2026-04-12T10:51:56.194Z</time></trkpt><trkpt lat="37.883855" lon="14.9513717"><ele>782.0</ele><time>2026-04-12T10:51:57.192Z</time></trkpt><trkpt lat="37.8839283" lon="14.9514183"><ele>779.6666666666666</ele><time>2026-04-12T10:51:58.193Z</time></trkpt><trkpt lat="37.8840067" lon="14.9514267"><ele>777.3333333333333</ele><time>2026-04-12T10:51:59.193Z</time></trkpt><trkpt lat="37.8840833" lon="14.9514217"><ele>775.0</ele><time>2026-04-12T10:52:00.192Z</time></trkpt><trkpt lat="37.8841483" lon="14.95144"><ele>774.9999999999999</ele><time>2026-04-12T10:52:01.193Z</time></trkpt><trkpt lat="37.8841633" lon="14.9515817"><ele>775.0</ele><time>2026-04-12T10:52:03.192Z</time></trkpt><trkpt lat="37.88409" lon="14.951615"><ele>775.0</ele><time>2026-04-12T10:52:04.193Z</time></trkpt><trkpt lat="37.8840167" lon="14.951615"><ele>775.0</ele><time>2026-04-12T10:52:05.191Z</time></trkpt><trkpt lat="37.8839367" lon="14.951585"><ele>774.9999999999999</ele><time>2026-04-12T10:52:06.193Z</time></trkpt><trkpt lat="37.88386" lon="14.9515333"><ele>775.0</ele><time>2026-04-12T10:52:07.191Z</time></trkpt><trkpt lat="37.8837883" lon="14.95147"><ele>775.0</ele><time>2026-04-12T10:52:08.193Z</time></trkpt><trkpt lat="37.8837167" lon="14.9513967"><ele>775.0</ele><time>2026-04-12T10:52:09.193Z</time></trkpt><trkpt lat="37.883645" lon="14.9513167"><ele>775.0</ele><time>2026-04-12T10:52:10.192Z</time></trkpt><trkpt lat="37.8835717" lon="14.95124"><ele>775.0</ele><time>2026-04-12T10:52:11.193Z</time></trkpt><trkpt lat="37.883495" lon="14.951165"><ele>775.0</ele><time>2026-04-12T10:52:12.193Z</time></trkpt><trkpt lat="37.8834167" lon="14.9510817"><ele>773.2</ele><time>2026-04-12T10:52:13.192Z</time></trkpt><trkpt lat="37.88336" lon="14.950975"><ele>771.4</ele><time>2026-04-12T10:52:14.193Z</time></trkpt><trkpt lat="37.883325" lon="14.9508483"><ele>769.5999999999999</ele><time>2026-04-12T10:52:15.193Z</time></trkpt><trkpt lat="37.8832867" lon="14.9507183"><ele>767.8</ele><time>2026-04-12T10:52:16.192Z</time></trkpt><trkpt lat="37.8832333" lon="14.9506"><ele>766.0</ele><time>2026-04-12T10:52:17.193Z</time></trkpt><trkpt lat="37.883155" lon="14.9505"><ele>766.0</ele><time>2026-04-12T10:52:18.195Z</time></trkpt><trkpt lat="37.8830633" lon="14.9504167"><ele>766.0</ele><time>2026-04-12T10:52:19.195Z</time></trkpt><trkpt lat="37.8829667" lon="14.95035"><ele>766.0</ele><time>2026-04-12T10:52:20.194Z</time></trkpt><trkpt lat="37.8828667" lon="14.9503033"><ele>766.0</ele><time>2026-04-12T10:52:21.193Z</time></trkpt><trkpt lat="37.8827683" lon="14.9502717"><ele>766.0</ele><time>2026-04-12T10:52:22.194Z</time></trkpt><trkpt lat="37.8826733" lon="14.95023"><ele>764.0</ele><time>2026-04-12T10:52:23.195Z</time></trkpt><trkpt lat="37.8825883" lon="14.9501567"><ele>762.0</ele><time>2026-04-12T10:52:24.195Z</time></trkpt><trkpt lat="37.882525" lon="14.95005"><ele>760.0</ele><time>2026-04-12T10:52:25.195Z</time></trkpt><trkpt lat="37.8824883" lon="14.9499233"><ele>758.0</ele><time>2026-04-12T10:52:26.195Z</time></trkpt><trkpt lat="37.882475" lon="14.949785"><ele>756.0</ele><time>2026-04-12T10:52:27.193Z</time></trkpt><trkpt lat="37.882465" lon="14.9496417"><ele>756.0</ele><time>2026-04-12T10:52:28.195Z</time></trkpt><trkpt lat="37.8824467" lon="14.9495017"><ele>756.0</ele><time>2026-04-12T10:52:29.192Z</time></trkpt><trkpt lat="37.88241" lon="14.9493633"><ele>756.0</ele><time>2026-04-12T10:52:30.193Z</time></trkpt><trkpt lat="37.882355" lon="14.949245"><ele>756.0</ele><time>2026-04-12T10:52:31.193Z</time></trkpt><trkpt lat="37.8822833" lon="14.94915"><ele>756.0</ele><time>2026-04-12T10:52:32.193Z</time></trkpt><trkpt lat="37.882195" lon="14.9490667"><ele>757.5999999999999</ele><time>2026-04-12T10:52:33.192Z</time></trkpt><trkpt lat="37.88211" lon="14.9489767"><ele>759.2</ele><time>2026-04-12T10:52:34.193Z</time></trkpt><trkpt lat="37.8820333" lon="14.9488767"><ele>760.8</ele><time>2026-04-12T10:52:35.192Z</time></trkpt><trkpt lat="37.8819683" lon="14.9487733"><ele>762.4000000000001</ele><time>2026-04-12T10:52:36.192Z</time></trkpt><trkpt lat="37.8819117" lon="14.9486833"><ele>764.0</ele><time>2026-04-12T10:52:37.193Z</time></trkpt><trkpt lat="37.8818633" lon="14.9486117"><ele>760.4000000000001</ele><time>2026-04-12T10:52:38.192Z</time></trkpt><trkpt lat="37.8817567" lon="14.948565"><ele>756.8</ele><time>2026-04-12T10:52:40.193Z</time></trkpt><trkpt lat="37.88167" lon="14.948655"><ele>753.2</ele><time>2026-04-12T10:52:42.192Z</time></trkpt><trkpt lat="37.8816417" lon="14.9487283"><ele>749.5999999999999</ele><time>2026-04-12T10:52:43.193Z</time></trkpt><trkpt lat="37.8816683" lon="14.94888"><ele>746.0</ele><time>2026-04-12T10:52:45.193Z</time></trkpt><trkpt lat="37.881695" lon="14.9489567"><ele>746.0</ele><time>2026-04-12T10:52:46.193Z</time></trkpt><trkpt lat="37.8817217" lon="14.9490333"><ele>746.0</ele><time>2026-04-12T10:52:47.193Z</time></trkpt><trkpt lat="37.8817467" lon="14.949115"><ele>746.0</ele><time>2026-04-12T10:52:48.193Z</time></trkpt><trkpt lat="37.8817783" lon="14.9491983"><ele>746.0</ele><time>2026-04-12T10:52:49.193Z</time></trkpt><trkpt lat="37.881815" lon="14.9492867"><ele>746.0</ele><time>2026-04-12T10:52:50.192Z</time></trkpt><trkpt lat="37.8818483" lon="14.9493767"><ele>746.0</ele><time>2026-04-12T10:52:51.193Z</time></trkpt><trkpt lat="37.8818783" lon="14.94947"><ele>746.0</ele><time>2026-04-12T10:52:52.192Z</time></trkpt><trkpt lat="37.8819117" lon="14.949565"><ele>747.4285714285714</ele><time>2026-04-12T10:52:53.194Z</time></trkpt><trkpt lat="37.8819433" lon="14.94966"><ele>748.8571428571429</ele><time>2026-04-12T10:52:54.192Z</time></trkpt><trkpt lat="37.8819667" lon="14.9497583"><ele>750.2857142857142</ele><time>2026-04-12T10:52:55.194Z</time></trkpt><trkpt lat="37.8819817" lon="14.9498567"><ele>751.7142857142858</ele><time>2026-04-12T10:52:56.194Z</time></trkpt><trkpt lat="37.88198" lon="14.94995"><ele>753.1428571428571</ele><time>2026-04-12T10:52:57.193Z</time></trkpt><trkpt lat="37.8819617" lon="14.95003"><ele>754.5714285714286</ele><time>2026-04-12T10:52:58.193Z</time></trkpt><trkpt lat="37.8819217" lon="14.9500967"><ele>756.0</ele><time>2026-04-12T10:52:59.192Z</time></trkpt><trkpt lat="37.88185" lon="14.9501017"><ele>753.0</ele><time>2026-04-12T10:53:00.193Z</time></trkpt><trkpt lat="37.881785" lon="14.9500733"><ele>750.0</ele><time>2026-04-12T10:53:01.192Z</time></trkpt><trkpt lat="37.8817383" lon="14.95001"><ele>747.0</ele><time>2026-04-12T10:53:02.192Z</time></trkpt><trkpt lat="37.8816917" lon="14.9499267"><ele>744.0</ele><time>2026-04-12T10:53:03.193Z</time></trkpt><trkpt lat="37.881645" lon="14.9498333"><ele>741.0</ele><time>2026-04-12T10:53:04.194Z</time></trkpt><trkpt lat="37.8815967" lon="14.9497417"><ele>738.0</ele><time>2026-04-12T10:53:05.194Z</time></trkpt><trkpt lat="37.8815433" lon="14.9496533"><ele>738.0</ele><time>2026-04-12T10:53:06.192Z</time></trkpt><trkpt lat="37.88149" lon="14.9495667"><ele>738.0</ele><time>2026-04-12T10:53:07.192Z</time></trkpt><trkpt lat="37.88144" lon="14.94948"><ele>738.0</ele><time>2026-04-12T10:53:08.192Z</time></trkpt><trkpt lat="37.88139" lon="14.9493983"><ele>738.0</ele><time>2026-04-12T10:53:09.192Z</time></trkpt><trkpt lat="37.881345" lon="14.9493217"><ele>738.0</ele><time>2026-04-12T10:53:10.193Z</time></trkpt><trkpt lat="37.8813017" lon="14.9492483"><ele>738.0</ele><time>2026-04-12T10:53:11.193Z</time></trkpt><trkpt lat="37.88126" lon="14.94918"><ele>738.0</ele><time>2026-04-12T10:53:12.192Z</time></trkpt><trkpt lat="37.8812133" lon="14.9491233"><ele>738.0</ele><time>2026-04-12T10:53:13.193Z</time></trkpt><trkpt lat="37.881115" lon="14.9490767"><ele>738.0</ele><time>2026-04-12T10:53:15.192Z</time></trkpt><trkpt lat="37.881025" lon="14.9491467"><ele>738.0</ele><time>2026-04-12T10:53:17.194Z</time></trkpt><trkpt lat="37.8809933" lon="14.9492567"><ele>738.0</ele><time>2026-04-12T10:53:19.195Z</time></trkpt><trkpt lat="37.881015" lon="14.94935"><ele>738.0</ele><time>2026-04-12T10:53:21.193Z</time></trkpt><trkpt lat="37.8810617" lon="14.9494267"><ele>738.0</ele><time>2026-04-12T10:53:25.193Z</time></trkpt><trkpt lat="37.8811067" lon="14.94953"><ele>738.0</ele><time>2026-04-12T10:53:28.193Z</time></trkpt><trkpt lat="37.88115" lon="14.9496133"><ele>738.0</ele><time>2026-04-12T10:53:30.192Z</time></trkpt><trkpt lat="37.8811833" lon="14.949695"><ele>738.0</ele><time>2026-04-12T10:53:32.192Z</time></trkpt><trkpt lat="37.881205" lon="14.94979"><ele>738.0</ele><time>2026-04-12T10:53:36.192Z</time></trkpt><trkpt lat="37.881235" lon="14.9498717"><ele>738.0</ele><time>2026-04-12T10:54:09.192Z</time></trkpt><trkpt lat="37.881275" lon="14.9499783"><ele>735.0</ele><time>2026-04-12T10:54:11.192Z</time></trkpt><trkpt lat="37.8812983" lon="14.95012"><ele>732.0</ele><time>2026-04-12T10:54:13.193Z</time></trkpt><trkpt lat="37.8812967" lon="14.9502767"><ele>729.0</ele><time>2026-04-12T10:54:15.192Z</time></trkpt><trkpt lat="37.8812833" lon="14.9503583"><ele>726.0</ele><time>2026-04-12T10:54:16.192Z</time></trkpt><trkpt lat="37.8812633" lon="14.95044"><ele>723.0</ele><time>2026-04-12T10:54:17.192Z</time></trkpt><trkpt lat="37.8812383" lon="14.9505183"><ele>720.0</ele><time>2026-04-12T10:54:18.193Z</time></trkpt><trkpt lat="37.8811967" lon="14.9506617"><ele>720.0</ele><time>2026-04-12T10:54:20.198Z</time></trkpt><trkpt lat="37.8811483" lon="14.9508067"><ele>720.0</ele><time>2026-04-12T10:54:22.192Z</time></trkpt><trkpt lat="37.8811267" lon="14.9508817"><ele>720.0</ele><time>2026-04-12T10:54:23.191Z</time></trkpt><trkpt lat="37.8811033" lon="14.95096"><ele>720.0</ele><time>2026-04-12T10:54:24.193Z</time></trkpt><trkpt lat="37.8810767" lon="14.95104"><ele>720.0</ele><time>2026-04-12T10:54:25.192Z</time></trkpt><trkpt lat="37.8810517" lon="14.951115"><ele>720.0</ele><time>2026-04-12T10:54:26.192Z</time></trkpt><trkpt lat="37.8810283" lon="14.9511917"><ele>720.2</ele><time>2026-04-12T10:54:27.192Z</time></trkpt><trkpt lat="37.8810033" lon="14.95127"><ele>720.4</ele><time>2026-04-12T10:54:28.194Z</time></trkpt><trkpt lat="37.8809783" lon="14.951345"><ele>720.5999999999999</ele><time>2026-04-12T10:54:29.196Z</time></trkpt><trkpt lat="37.88093" lon="14.9514883"><ele>720.8</ele><time>2026-04-12T10:54:31.193Z</time></trkpt><trkpt lat="37.8808833" lon="14.95163"><ele>721.0</ele><time>2026-04-12T10:54:33.192Z</time></trkpt><trkpt lat="37.8808367" lon="14.9517767"><ele>723.5999999999999</ele><time>2026-04-12T10:54:35.192Z</time></trkpt><trkpt lat="37.8808117" lon="14.95185"><ele>726.2</ele><time>2026-04-12T10:54:36.194Z</time></trkpt><trkpt lat="37.8807633" lon="14.9519917"><ele>728.8</ele><time>2026-04-12T10:54:38.192Z</time></trkpt><trkpt lat="37.8807233" lon="14.9521233"><ele>731.4000000000001</ele><time>2026-04-12T10:54:40.193Z</time></trkpt><trkpt lat="37.8807033" lon="14.95226"><ele>734.0</ele><time>2026-04-12T10:54:42.192Z</time></trkpt><trkpt lat="37.8806983" lon="14.9524067"><ele>734.2</ele><time>2026-04-12T10:54:44.192Z</time></trkpt><trkpt lat="37.8806917" lon="14.9525517"><ele>734.4000000000001</ele><time>2026-04-12T10:54:46.193Z</time></trkpt><trkpt lat="37.88068" lon="14.9526867"><ele>734.6</ele><time>2026-04-12T10:54:48.192Z</time></trkpt><trkpt lat="37.8806467" lon="14.9528133"><ele>734.8</ele><time>2026-04-12T10:54:50.193Z</time></trkpt><trkpt lat="37.8805967" lon="14.9529033"><ele>735.0</ele><time>2026-04-12T10:54:52.191Z</time></trkpt><trkpt lat="37.8805517" lon="14.952965"><ele>735.0</ele><time>2026-04-12T10:54:54.191Z</time></trkpt><trkpt lat="37.88049" lon="14.9530267"><ele>735.0</ele><time>2026-04-12T10:54:57.193Z</time></trkpt><trkpt lat="37.8804283" lon="14.9530783"><ele>735.0</ele><time>2026-04-12T10:55:00.192Z</time></trkpt><trkpt lat="37.880355" lon="14.953105"><ele>735.0</ele><time>2026-04-12T10:55:03.192Z</time></trkpt><trkpt lat="37.8802767" lon="14.953145"><ele>735.0</ele><time>2026-04-12T10:55:06.193Z</time></trkpt><trkpt lat="37.8802017" lon="14.9531783"><ele>735.0</ele><time>2026-04-12T10:55:09.193Z</time></trkpt><trkpt lat="37.880135" lon="14.95321"><ele>736.0</ele><time>2026-04-12T10:55:12.193Z</time></trkpt><trkpt lat="37.8800717" lon="14.9532317"><ele>737.0</ele><time>2026-04-12T10:55:15.193Z</time></trkpt><trkpt lat="37.8800033" lon="14.9532283"><ele>738.0</ele><time>2026-04-12T10:55:18.194Z</time></trkpt><trkpt lat="37.87993" lon="14.9532067"><ele>739.0</ele><time>2026-04-12T10:55:22.193Z</time></trkpt><trkpt lat="37.879865" lon="14.953165"><ele>740.0</ele><time>2026-04-12T10:55:26.194Z</time></trkpt><trkpt lat="37.8798367" lon="14.9530817"><ele>741.0</ele><time>2026-04-12T10:56:17.192Z</time></trkpt><trkpt lat="37.8797767" lon="14.9531117"><ele>742.0</ele><time>2026-04-12T10:56:23.192Z</time></trkpt><trkpt lat="37.8798067" lon="14.953225"><ele>742.0</ele><time>2026-04-12T10:56:26.193Z</time></trkpt><trkpt lat="37.87984" lon="14.9533133"><ele>742.0</ele><time>2026-04-12T10:56:28.194Z</time></trkpt><trkpt lat="37.8798783" lon="14.9534367"><ele>742.0</ele><time>2026-04-12T10:56:30.193Z</time></trkpt><trkpt lat="37.8798867" lon="14.95358"><ele>742.0</ele><time>2026-04-12T10:56:32.193Z</time></trkpt><trkpt lat="37.8798783" lon="14.953725"><ele>742.0</ele><time>2026-04-12T10:56:34.195Z</time></trkpt><trkpt lat="37.87986" lon="14.9538767"><ele>741.75</ele><time>2026-04-12T10:56:36.194Z</time></trkpt><trkpt lat="37.8798483" lon="14.9540317"><ele>741.5</ele><time>2026-04-12T10:56:38.195Z</time></trkpt><trkpt lat="37.87983" lon="14.9541783"><ele>741.25</ele><time>2026-04-12T10:56:40.194Z</time></trkpt><trkpt lat="37.8798133" lon="14.95432"><ele>741.0</ele><time>2026-04-12T10:56:42.194Z</time></trkpt><trkpt lat="37.8797917" lon="14.9544667"><ele>741.4</ele><time>2026-04-12T10:56:44.194Z</time></trkpt><trkpt lat="37.8797783" lon="14.954615"><ele>741.8</ele><time>2026-04-12T10:56:46.193Z</time></trkpt><trkpt lat="37.87977" lon="14.9547467"><ele>742.1999999999999</ele><time>2026-04-12T10:56:48.194Z</time></trkpt><trkpt lat="37.8797167" lon="14.9548183"><ele>742.5999999999999</ele><time>2026-04-12T10:56:50.194Z</time></trkpt><trkpt lat="37.87962" lon="14.9548333"><ele>743.0</ele><time>2026-04-12T10:56:52.193Z</time></trkpt><trkpt lat="37.8795233" lon="14.95485"><ele>743.0</ele><time>2026-04-12T10:56:54.193Z</time></trkpt><trkpt lat="37.8794367" lon="14.9548683"><ele>743.0</ele><time>2026-04-12T10:56:56.193Z</time></trkpt><trkpt lat="37.8793467" lon="14.9548983"><ele>743.0</ele><time>2026-04-12T10:56:58.194Z</time></trkpt><trkpt lat="37.8792567" lon="14.9549283"><ele>743.0</ele><time>2026-04-12T10:57:00.192Z</time></trkpt><trkpt lat="37.87917" lon="14.9549583"><ele>743.0</ele><time>2026-04-12T10:57:02.194Z</time></trkpt><trkpt lat="37.8790817" lon="14.9549833"><ele>743.5</ele><time>2026-04-12T10:57:04.194Z</time></trkpt><trkpt lat="37.878995" lon="14.95501"><ele>744.0</ele><time>2026-04-12T10:57:06.193Z</time></trkpt><trkpt lat="37.8789083" lon="14.95503"><ele>744.5</ele><time>2026-04-12T10:57:08.195Z</time></trkpt><trkpt lat="37.87882" lon="14.9550533"><ele>745.0</ele><time>2026-04-12T10:57:10.193Z</time></trkpt><trkpt lat="37.878735" lon="14.955075"><ele>745.5</ele><time>2026-04-12T10:57:12.193Z</time></trkpt><trkpt lat="37.8786467" lon="14.95509"><ele>746.0</ele><time>2026-04-12T10:57:14.193Z</time></trkpt><trkpt lat="37.878565" lon="14.9550983"><ele>746.1666666666666</ele><time>2026-04-12T10:57:16.194Z</time></trkpt><trkpt lat="37.8784817" lon="14.955085"><ele>746.3333333333333</ele><time>2026-04-12T10:57:18.193Z</time></trkpt><trkpt lat="37.8784067" lon="14.9550517"><ele>746.5</ele><time>2026-04-12T10:57:20.194Z</time></trkpt><trkpt lat="37.8783367" lon="14.9550233"><ele>746.6666666666666</ele><time>2026-04-12T10:57:22.194Z</time></trkpt><trkpt lat="37.8782567" lon="14.955005"><ele>746.8333333333334</ele><time>2026-04-12T10:57:24.194Z</time></trkpt><trkpt lat="37.8781783" lon="14.9549917"><ele>747.0</ele><time>2026-04-12T10:57:26.194Z</time></trkpt><trkpt lat="37.878095" lon="14.9549733"><ele>748.0</ele><time>2026-04-12T10:57:28.193Z</time></trkpt><trkpt lat="37.8780017" lon="14.9549517"><ele>749.0</ele><time>2026-04-12T10:57:30.194Z</time></trkpt><trkpt lat="37.8779117" lon="14.9549167"><ele>750.0</ele><time>2026-04-12T10:57:32.193Z</time></trkpt><trkpt lat="37.87782" lon="14.9548817"><ele>751.0</ele><time>2026-04-12T10:57:34.194Z</time></trkpt><trkpt lat="37.8777367" lon="14.954855"><ele>752.0</ele><time>2026-04-12T10:57:36.192Z</time></trkpt><trkpt lat="37.87766" lon="14.954835"><ele>753.0</ele><time>2026-04-12T10:57:38.195Z</time></trkpt><trkpt lat="37.8775833" lon="14.9548167"><ele>753.3333333333334</ele><time>2026-04-12T10:57:40.194Z</time></trkpt><trkpt lat="37.877495" lon="14.9547883"><ele>753.6666666666666</ele><time>2026-04-12T10:57:43.193Z</time></trkpt><trkpt lat="37.8774167" lon="14.9547633"><ele>754.0</ele><time>2026-04-12T10:57:46.193Z</time></trkpt><trkpt lat="37.8773483" lon="14.95474"><ele>754.3333333333333</ele><time>2026-04-12T10:57:48.195Z</time></trkpt><trkpt lat="37.877275" lon="14.954725"><ele>754.6666666666666</ele><time>2026-04-12T10:57:50.195Z</time></trkpt><trkpt lat="37.8771983" lon="14.9547733"><ele>755.0</ele><time>2026-04-12T10:57:54.193Z</time></trkpt><trkpt lat="37.8771433" lon="14.95482"><ele>755.0</ele><time>2026-04-12T10:57:57.193Z</time></trkpt><trkpt lat="37.8771133" lon="14.9547183"><ele>755.0</ele><time>2026-04-12T10:59:33.194Z</time></trkpt></trkseg></trk></gpx>